# Wetter Temperatur Luftdruck Luftfeuchtigkeit Sichtweite Windgeschwindigkeit Windrichtung Zeit
1 Clear 13 1012 54 10000 1.5 340 09:57 08.04.2020
2 Clear 14 1013 54 10000 1.5 140 09:39 08.04.2020
3 Clear 14 1013 54 10000 1.5 140 09:18 08.04.2020
4 Clear 14 1013 54 10000 1.5 140 09:18 08.04.2020
5 Clear 14 1013 54 10000 1.5 140 09:18 08.04.2020
6 Clear 15 1013 51 10000 2.1 170 08:56 08.04.2020
7 Clear 15 1013 51 10000 2.1 170 08:38 08.04.2020
8 Clear 15 1013 51 10000 2.1 170 08:20 08.04.2020
9 Clear 16 1013 44 10000 2.6 150 07:42 08.04.2020
10 Clear 16 1013 44 10000 2.6 150 07:20 08.04.2020
11 Clear 17 1013 36 10000 2.6 160 06:23 08.04.2020
12 Clear 19 1013 32 10000 3.1 160 04:54 08.04.2020
13 Clouds 23 1012 25 10000 5.1 150 02:50 08.04.2020
14 Clouds 23 1012 25 10000 5.1 150 02:21 08.04.2020
15 Clouds 25 1012 23 10000 3.1 180 01:56 08.04.2020
16 Clouds 27 1013 16 10000 2.1 250 01:27 08.04.2020
17 Clouds 27 1013 16 10000 2.1 250 01:27 08.04.2020
18 Clouds 28 1013 16 10000 2.1 250 00:44 08.04.2020
19 Clouds 28 1013 16 10000 2.1 250 00:23 08.04.2020
20 Clouds 30 1013 15 10000 3.1 240 23:40 07.04.2020
21 Clouds 30 1013 15 10000 3.1 240 23:22 07.04.2020
22 Clouds 30 1013 19 10000 3.1 210 22:59 07.04.2020
23 Clouds 30 1013 19 10000 3.1 210 22:40 07.04.2020
24 Clouds 30 1013 19 10000 3.1 210 22:21 07.04.2020
25 Rain 30 1013 20 10000 2.6 240 21:59 07.04.2020
26 Rain 30 1013 20 10000 2.6 240 21:41 07.04.2020
27 Rain 30 1013 20 10000 2.6 240 21:21 07.04.2020
28 Rain 30 1013 20 10000 2.6 240 21:21 07.04.2020
29 Clouds 30 1013 22 10000 1.5 0 20:58 07.04.2020
30 Clouds 31 1013 22 10000 1.5 0 20:39 07.04.2020
31 Clouds 31 1013 22 10000 1.5 0 20:21 07.04.2020
32 Clouds 30 1013 20 10000 2.6 270 19:57 07.04.2020
33 Clouds 30 1013 20 10000 2.6 270 19:37 07.04.2020
34 Clouds 30 1013 20 10000 2.6 270 19:19 07.04.2020
35 Clouds 28 1014 24 10000 1.5 0 18:57 07.04.2020
36 Clouds 28 1014 24 10000 1.5 0 18:39 07.04.2020
37 Clouds 28 1014 24 10000 1.5 0 18:19 07.04.2020
38 Clouds 26 1014 25 10000 1 0 17:45 07.04.2020
39 Clouds 24 1014 25 10000 1 0 17:24 07.04.2020
40 Clear 24 1014 33 10000 2.27 268 16:48 07.04.2020
41 Clear 23 1014 33 10000 2.27 268 16:29 07.04.2020
42 Clear 20 1014 39 10000 2.27 268 15:59 07.04.2020
43 Clear 22 1014 39 10000 2.27 268 15:41 07.04.2020
44 Clear 13 1014 58 10000 1 70 15:23 07.04.2020
45 Clear 13 1014 58 10000 1 70 15:23 07.04.2020
46 Clear 13 1014 58 10000 1 70 14:42 07.04.2020
47 Clear 13 1014 58 10000 1 70 14:23 07.04.2020
48 Clear 14 1012 57 10000 1 30 13:57 07.04.2020
49 Clear 14 1012 57 10000 1 30 13:39 07.04.2020
50 Clear 14 1012 57 10000 1 30 13:18 07.04.2020
51 Clear 13 1012 62 10000 1 30 12:56 07.04.2020
52 Clear 13 1012 57 9000 1.5 30 12:37 07.04.2020
53 Clear 11 1012 57 9000 1.5 30 12:18 07.04.2020
54 Clear 12 1012 62 10000 1 0 11:44 07.04.2020
55 Clear 12 1012 62 10000 1 0 11:26 07.04.2020
56 Clear 13 1012 54 10000 0.36 65 10:59 07.04.2020
57 Clear 13 1012 54 10000 0.36 65 10:38 07.04.2020
58 Clear 13 1012 54 10000 0.36 65 10:19 07.04.2020
59 Clear 13 1012 50 10000 0.36 65 09:46 07.04.2020
60 Clear 13 1012 50 10000 0.35 80 09:20 07.04.2020
61 Clear 14 1013 47 10000 0.35 80 08:59 07.04.2020
62 Clear 14 1013 47 10000 0.35 80 08:39 07.04.2020
63 Clear 14 1013 47 10000 0.35 80 08:19 07.04.2020
64 Clear 15 1013 44 10000 1.5 360 07:44 07.04.2020
65 Clear 15 1013 44 10000 1.5 360 07:26 07.04.2020
66 Clear 15 1013 44 10000 2.1 360 06:52 07.04.2020
67 Clear 16 1014 44 10000 0.16 52 06:25 07.04.2020
68 Clear 18 1014 39 10000 0.16 52 05:48 07.04.2020
69 Clear 18 1014 39 10000 0.16 52 05:23 07.04.2020
70 Clear 22 1014 30 10000 3.6 150 03:34 07.04.2020
71 Clear 23 1014 27 10000 3.1 140 02:59 07.04.2020
72 Clear 23 1014 27 10000 3.1 140 02:35 07.04.2020
73 Clear 27 1015 24 10000 3.1 240 01:34 07.04.2020
74 Clear 27 1015 24 10000 3.1 240 00:52 07.04.2020
75 Clear 27 1015 24 10000 3.1 240 00:25 07.04.2020
76 Clear 28 1015 21 10000 3.1 230 23:40 06.04.2020
77 Clear 29 1015 21 10000 3.1 230 23:21 06.04.2020
78 Clear 29 1015 21 10000 2.6 190 22:42 06.04.2020
79 Clear 29 1015 21 10000 2.6 190 22:23 06.04.2020
80 Clear 29 1015 21 10000 2.6 240 21:59 06.04.2020
81 Clear 29 1015 21 10000 2.6 240 21:41 06.04.2020
82 Clear 29 1015 21 10000 2.6 240 21:19 06.04.2020
83 Clear 28 1016 23 10000 1.5 210 20:56 06.04.2020
84 Clear 28 1016 23 10000 1.5 210 20:38 06.04.2020
85 Clear 29 1016 23 10000 1.5 210 20:20 06.04.2020
86 Clear 27 1016 27 10000 1.5 220 19:56 06.04.2020
87 Clear 27 1016 27 10000 1.5 220 19:38 06.04.2020
88 Clear 26 1017 31 10000 1 190 19:19 06.04.2020
89 Clear 26 1017 31 10000 1 190 19:19 06.04.2020
90 Clear 26 1017 31 10000 1 190 18:42 06.04.2020
91 Clear 26 1017 31 10000 1 190 18:23 06.04.2020
92 Clear 24 1017 35 10000 1.5 250 17:57 06.04.2020
93 Clear 24 1017 35 10000 1.5 250 17:39 06.04.2020
94 Clear 22 1017 35 10000 1.5 250 17:18 06.04.2020
95 Clear 19 1017 42 10000 1 250 16:48 06.04.2020
96 Clear 19 1017 42 10000 1 250 16:30 06.04.2020
97 Clear 10 1017 81 10000 1.12 78 14:47 06.04.2020
98 Clear 10 1017 81 10000 1.12 78 14:47 06.04.2020
99 Clear 10 1017 81 10000 1.12 78 14:47 06.04.2020
100 Clear 10 1017 81 10000 1.12 78 14:47 06.04.2020
101 Clear 10 1017 81 10000 1.12 78 14:47 06.04.2020
102 Clear 12 1017 71 10000 0.83 78 13:44 06.04.2020
103 Clear 12 1017 71 10000 0.83 78 13:22 06.04.2020
104 Clear 12 1017 71 10000 0.83 78 13:22 06.04.2020
105 Clear 12 1016 66 10000 0.5 0 12:46 06.04.2020
106 Clear 12 1016 66 10000 0.5 0 12:46 06.04.2020
107 Clear 12 1016 66 10000 0.5 0 12:46 06.04.2020
108 Clear 12 1016 66 10000 0.5 0 12:46 06.04.2020
109 Clear 12 1016 66 10000 0.5 0 12:46 06.04.2020
110 Clear 11 1016 66 10000 0.5 0 12:19 06.04.2020
111 Clear 12 1016 58 10000 0.5 0 11:40 06.04.2020
112 Clear 11 1017 62 10000 0.81 71 10:56 06.04.2020
113 Clear 11 1017 62 10000 0.81 71 10:56 06.04.2020
114 Clear 11 1017 62 10000 0.81 71 10:56 06.04.2020
115 Clear 11 1017 62 10000 0.81 71 10:37 06.04.2020
116 Clear 11 1017 62 10000 0.81 71 10:19 06.04.2020
117 Clear 11 1017 62 10000 0.81 71 10:19 06.04.2020
118 Clear 11 1017 62 10000 0.81 71 10:19 06.04.2020
119 Clear 11 1017 62 10000 0.81 71 10:19 06.04.2020
120 Clear 11 1017 62 10000 0.81 71 10:19 06.04.2020
121 Clear 12 1017 58 10000 1.5 50 09:39 06.04.2020
122 Clear 12 1017 58 10000 1.5 50 09:39 06.04.2020
123 Clear 12 1017 58 10000 1.5 50 09:39 06.04.2020
124 Clear 12 1017 58 10000 1.5 50 09:39 06.04.2020
125 Clear 12 1017 58 10000 1.5 50 09:39 06.04.2020
126 Clear 12 1017 58 10000 1.5 50 09:19 06.04.2020
127 Clear 13 1018 54 10000 0.5 0 08:43 06.04.2020
128 Clear 13 1018 54 10000 0.5 0 08:43 06.04.2020
129 Clear 13 1018 54 10000 0.5 0 08:43 06.04.2020
130 Clear 13 1018 54 10000 0.5 0 08:43 06.04.2020
131 Clear 13 1018 54 10000 0.5 0 08:43 06.04.2020
132 Clear 15 1018 44 10000 3.1 180 07:59 06.04.2020
133 Clear 15 1018 44 10000 3.1 180 07:59 06.04.2020
134 Clear 15 1018 44 10000 3.1 180 07:20 06.04.2020
135 Clear 16 1018 48 10000 1.5 190 06:26 06.04.2020
136 Clear 16 1018 55 10000 0.25 259 05:44 06.04.2020
137 Clear 16 1018 55 10000 0.25 259 05:43 06.04.2020
138 Clear 16 1018 55 10000 0.25 259 05:43 06.04.2020
139 Clear 19 1017 45 10000 3.1 140 03:35 06.04.2020
140 Clouds 20 1017 40 10000 4.1 170 02:51 06.04.2020
141 Clear 21 1016 37 10000 6.2 200 01:54 06.04.2020
142 Clear 22 1017 46 10000 3.1 230 00:54 06.04.2020
143 Clear 23 1017 46 10000 3.1 230 00:27 06.04.2020
144 Clear 25 1017 38 10000 2.6 250 23:51 05.04.2020
145 Clear 25 1017 38 10000 2.6 250 23:33 05.04.2020
146 Clear 26 1017 36 10000 3.1 230 22:57 05.04.2020
147 Clear 26 1017 36 10000 3.1 230 22:39 05.04.2020
148 Clear 26 1017 36 10000 3.1 230 22:21 05.04.2020
149 Clear 25 1017 29 10000 2.1 200 21:59 05.04.2020
150 Clear 25 1017 29 10000 2.1 200 21:40 05.04.2020
151 Clear 25 1017 29 10000 2.1 200 21:40 05.04.2020
152 Clear 26 1017 29 10000 2.1 200 21:22 05.04.2020
153 Clear 25 1017 31 10000 3.1 250 20:22 05.04.2020
154 Clear 25 1017 31 10000 3.1 250 20:22 05.04.2020
155 Clear 24 1017 33 10000 3.1 250 19:42 05.04.2020
156 Clear 24 1017 33 10000 3.1 250 19:22 05.04.2020
157 Clear 22 1017 37 10000 2.1 270 18:47 05.04.2020
158 Clear 22 1017 37 10000 2.1 270 18:18 05.04.2020
159 Clear 19 1017 45 10000 3.13 261 17:41 05.04.2020
160 Clear 19 1017 45 10000 3.13 261 17:41 05.04.2020
161 Clear 19 1017 45 10000 3.13 261 17:41 05.04.2020
162 Clear 19 1017 45 10000 3.13 261 17:20 05.04.2020
163 Clear 19 1017 45 10000 1.5 270 16:47 05.04.2020
164 Clear 19 1017 45 10000 1.5 270 16:47 05.04.2020
165 Clear 17 1017 45 10000 1.5 270 16:18 05.04.2020
166 Clear 15 1016 55 10000 1 20 15:45 05.04.2020
167 Clear 15 1016 55 10000 1 20 15:25 05.04.2020
168 Clouds 13 1016 67 10000 1.5 50 14:48 05.04.2020
169 Clouds 13 1016 67 10000 1.5 50 14:48 05.04.2020
170 Clouds 13 1016 67 10000 1.5 50 14:48 05.04.2020
171 Clouds 13 1016 67 10000 1.5 50 14:48 05.04.2020
172 Clouds 10 1015 93 8000 1.5 240 13:58 05.04.2020
173 Clouds 13 1015 93 8000 1.5 240 13:37 05.04.2020
174 Clouds 13 1015 93 8000 1.5 240 13:35 05.04.2020
175 Clouds 13 1015 93 8000 1.5 240 13:34 05.04.2020
176 Clouds 13 1015 93 8000 1.5 240 13:31 05.04.2020
177 Clouds 12 1015 93 8000 1.5 240 13:25 05.04.2020
178 Clouds 12 1013 81 10000 0.5 0 11:58 05.04.2020
179 Clouds 12 1013 81 10000 0.5 0 11:39 05.04.2020
180 Clouds 12 1013 81 10000 0.5 0 11:19 05.04.2020
181 Clouds 12 1013 81 10000 0.5 210 10:46 05.04.2020
182 Clouds 12 1013 81 10000 0.5 210 10:46 05.04.2020
183 Clouds 12 1013 81 10000 0.5 210 10:22 05.04.2020
184 Clouds 13 1013 82 10000 2.1 140 09:52 05.04.2020
185 Clouds 13 1013 82 10000 2.1 140 09:52 05.04.2020
186 Clouds 13 1013 82 10000 2.1 140 09:25 05.04.2020
187 Clouds 13 1013 82 10000 2.1 140 09:25 05.04.2020
188 Clouds 13 1013 82 10000 2.1 140 09:25 05.04.2020
189 Clouds 13 1013 82 10000 2.1 140 09:25 05.04.2020
190 Clouds 13 1013 82 10000 2.1 140 09:25 05.04.2020
191 Clouds 14 1013 76 10000 2.6 170 07:58 05.04.2020
192 Clouds 16 1012 67 10000 3.1 160 05:37 05.04.2020
193 Clouds 16 1012 67 10000 3.1 160 05:37 05.04.2020
194 Clouds 16 1012 67 10000 3.1 160 05:37 05.04.2020
195 Clouds 16 1012 67 10000 3.1 160 05:37 05.04.2020
196 Clouds 16 1012 67 10000 3.1 160 05:37 05.04.2020
197 Clouds 18 1011 55 10000 4.6 150 03:58 05.04.2020
198 Clouds 18 1011 55 10000 4.6 150 03:24 05.04.2020
199 Clouds 22 1010 43 10000 3.6 210 01:57 05.04.2020
200 Clouds 22 1010 43 10000 3.6 210 01:39 05.04.2020
201 Clouds 23 1009 40 10000 5.1 210 00:52 05.04.2020
202 Clouds 23 1009 40 10000 5.1 210 00:52 05.04.2020
203 Clouds 24 1011 31 10000 2.1 240 00:23 05.04.2020
204 Clouds 25 1011 31 10000 2.1 240 23:58 04.04.2020
205 Clouds 25 1011 31 10000 2.1 240 23:39 04.04.2020
206 Clouds 25 1011 31 10000 2.1 240 23:21 04.04.2020
207 Clouds 25 1010 31 10000 2.6 210 22:56 04.04.2020
208 Clouds 25 1010 31 10000 2.6 210 22:38 04.04.2020
209 Clouds 25 1010 31 10000 2.6 210 22:19 04.04.2020
210 Clouds 26 1011 27 10000 2.1 260 21:56 04.04.2020
211 Clouds 26 1011 27 10000 2.1 260 21:38 04.04.2020
212 Clouds 26 1011 27 10000 2.1 260 21:18 04.04.2020
213 Clouds 25 1011 33 10000 3.29 256 20:43 04.04.2020
214 Clouds 25 1011 33 10000 3.27 256 20:23 04.04.2020
215 Clouds 25 1012 36 10000 3.27 256 19:59 04.04.2020
216 Clouds 25 1012 36 10000 3.27 256 19:59 04.04.2020
217 Clouds 25 1012 36 10000 3.29 256 19:39 04.04.2020
218 Clouds 25 1012 36 10000 3.29 256 19:20 04.04.2020
219 Clouds 24 1012 40 10000 1.5 210 18:59 04.04.2020
220 Clouds 24 1012 40 10000 1.5 210 18:39 04.04.2020
221 Clouds 24 1012 40 10000 1.5 210 18:20 04.04.2020
222 Clouds 22 1012 43 10000 1.5 240 17:58 04.04.2020
223 Clouds 22 1012 43 10000 1.5 240 17:38 04.04.2020
224 Clouds 22 1012 43 10000 1.5 240 17:19 04.04.2020
225 Clouds 21 1012 42 10000 1.5 210 16:43 04.04.2020
226 Clouds 21 1012 42 10000 1.5 210 16:24 04.04.2020
227 Clouds 17 1011 55 10000 2.43 277 15:58 04.04.2020
228 Clouds 18 1011 55 10000 2.43 277 15:38 04.04.2020
229 Clouds 17 1011 55 10000 0.31 2 15:19 04.04.2020
230 Clouds 13 1011 71 10000 1.5 50 14:46 04.04.2020
231 Clouds 13 1011 71 10000 1.5 50 14:25 04.04.2020
232 Clouds 12 1011 66 10000 0.31 356 14:00 04.04.2020
233 Clouds 13 1011 66 10000 0.31 356 13:41 04.04.2020
234 Clouds 13 1011 66 10000 0.31 356 13:41 04.04.2020
235 Clouds 12 1011 66 10000 0.31 356 13:20 04.04.2020
236 Smoke 12 1010 81 5000 1.5 300 12:58 04.04.2020
237 Clouds 13 1009 81 8000 0.5 0 12:39 04.04.2020
238 Clear 11 1009 81 8000 0.5 0 12:20 04.04.2020
239 Clear 13 1009 76 8000 1.5 180 11:41 04.04.2020
240 Clear 13 1009 76 8000 1.5 180 11:23 04.04.2020
241 Clear 12 1009 76 6000 1.5 270 10:59 04.04.2020
242 Clear 12 1009 76 6000 1.5 270 10:40 04.04.2020
243 Clear 12 1009 76 6000 1.5 270 10:40 04.04.2020
244 Clear 12 1009 76 6000 1.5 270 10:22 04.04.2020
245 Clear 13 1010 76 9000 0.57 37 09:55 04.04.2020
246 Clear 13 1010 76 9000 0.57 37 09:37 04.04.2020
247 Clear 13 1010 76 9000 0.08 184 09:19 04.04.2020
248 Clear 13 1011 76 9000 1 110 08:42 04.04.2020
249 Clear 13 1011 76 9000 1 110 08:23 04.04.2020
250 Clear 13 1011 76 9000 1 310 07:57 04.04.2020
251 Clear 13 1011 76 9000 1 310 07:38 04.04.2020
252 Clear 13 1011 76 9000 1 310 07:20 04.04.2020
253 Clear 15 1012 67 10000 0.5 0 06:29 04.04.2020
254 Clouds 16 1012 67 10000 1 0 05:52 04.04.2020
255 Clouds 16 1012 67 10000 1 0 05:32 04.04.2020
256 Clouds 17 1012 63 10000 2.1 170 04:34 04.04.2020
257 Clouds 18 1012 59 10000 3.6 150 03:56 04.04.2020
258 Clouds 18 1012 59 10000 3.6 150 03:29 04.04.2020
259 Clouds 20 1011 52 10000 4.6 160 02:45 04.04.2020
260 Clear 20 1011 52 10000 4.6 160 02:25 04.04.2020
261 Clouds 22 1011 46 10000 4.6 220 01:27 04.04.2020
262 Clouds 24 1010 31 10000 5.1 170 00:58 04.04.2020
263 Clouds 25 1010 31 10000 5.1 170 00:31 04.04.2020
264 Clouds 27 1012 26 8000 2.6 220 23:57 03.04.2020
265 Clouds 27 1012 26 8000 2.6 220 23:38 03.04.2020
266 Clouds 27 1012 26 8000 2.6 220 23:19 03.04.2020
267 Clouds 27 1012 26 8000 2.6 220 23:19 03.04.2020
268 Clouds 27 1012 26 6000 3.1 240 22:40 03.04.2020
269 Clouds 27 1012 26 6000 3.1 240 22:19 03.04.2020
270 Clouds 27 1012 26 6000 3.1 240 22:19 03.04.2020
271 Clouds 27 1012 26 6000 3.1 240 22:19 03.04.2020
272 Clouds 28 1013 26 6000 3.6 240 21:57 03.04.2020
273 Clouds 28 1013 26 6000 3.6 240 21:38 03.04.2020
274 Clouds 28 1013 26 6000 3.6 240 21:20 03.04.2020
275 Clouds 28 1013 22 8000 2.6 270 20:55 03.04.2020
276 Clouds 27 1013 22 8000 2.6 270 20:36 03.04.2020
277 Clouds 28 1013 22 8000 2.6 270 20:18 03.04.2020
278 Clouds 27 1014 22 8000 2.1 200 19:55 03.04.2020
279 Clouds 27 1014 22 8000 2.1 200 19:36 03.04.2020
280 Clouds 27 1014 22 8000 2.1 200 19:36 03.04.2020
281 Clouds 27 1014 22 8000 2.1 200 19:18 03.04.2020
282 Clouds 26 1014 25 10000 1.5 0 18:56 03.04.2020
283 Clouds 25 1014 25 10000 1.5 0 18:38 03.04.2020
284 Clouds 25 1014 25 10000 1.5 0 18:20 03.04.2020
285 Clouds 24 1014 30 10000 1 0 17:40 03.04.2020
286 Clouds 24 1014 30 10000 1 0 17:19 03.04.2020
287 Clouds 24 1014 30 10000 1 0 17:19 03.04.2020
288 Clouds 21 1014 34 10000 1.5 190 16:55 03.04.2020
289 Clouds 21 1014 34 10000 1.5 190 16:36 03.04.2020
290 Clouds 19 1014 34 10000 1.5 190 16:18 03.04.2020
291 Clouds 21 1014 36 10000 0.5 200 15:41 03.04.2020
292 Clouds 20 1014 36 10000 0.5 200 15:22 03.04.2020
293 Clouds 16 1014 36 10000 0.5 200 14:58 03.04.2020
294 Clouds 21 1014 16 0 0.27 37 14:40 03.04.2020
295 Clouds 11 1013 50 10000 0.2 333 14:21 03.04.2020
296 Clouds 11 1013 50 10000 0.2 333 13:46 03.04.2020
297 Clouds 13 1013 50 10000 0.2 333 13:27 03.04.2020
298 Clouds 13 1011 61 10000 1 30 12:57 03.04.2020
299 Clouds 13 1011 61 10000 1 30 12:39 03.04.2020
300 Clouds 10 1011 61 10000 1 30 12:18 03.04.2020
301 Clouds 11 1011 62 10000 1 300 11:55 03.04.2020
302 Clouds 11 1011 62 10000 1 300 11:55 03.04.2020
303 Clouds 11 1011 62 10000 1 300 11:55 03.04.2020
304 Clouds 11 1011 62 10000 1 300 11:37 03.04.2020
305 Clouds 11 1011 62 10000 1 300 11:18 03.04.2020
306 Clouds 12 1012 58 10000 0.49 62 10:56 03.04.2020
307 Clouds 12 1012 58 10000 0.49 62 10:37 03.04.2020
308 Clouds 12 1012 58 10000 0.49 62 10:18 03.04.2020
309 Clouds 13 1012 54 10000 1 0 09:55 03.04.2020
310 Clouds 13 1012 54 10000 1 0 09:37 03.04.2020
311 Clear 13 1012 54 10000 1 0 09:18 03.04.2020
312 Clear 15 1013 51 10000 1.5 190 08:43 03.04.2020
313 Clear 15 1013 51 10000 1.5 190 08:23 03.04.2020
314 Clear 16 1013 48 10000 1.5 150 07:51 03.04.2020
315 Clear 16 1013 48 10000 1.5 150 07:33 03.04.2020
316 Clear 17 1013 42 10000 1.5 150 06:57 03.04.2020
317 Clear 17 1013 42 10000 1.5 150 06:27 03.04.2020
318 Clear 18 1013 39 10000 2.6 160 05:42 03.04.2020
319 Clear 21 1013 32 10000 5.1 150 03:52 03.04.2020
320 Clear 21 1013 32 10000 5.1 150 03:31 03.04.2020
321 Clear 23 1012 28 10000 4.6 150 02:31 03.04.2020
322 Clear 26 1011 26 10000 4.6 190 01:24 03.04.2020
323 Clear 29 1011 20 10000 6.2 210 00:46 03.04.2020
324 Clear 31 1013 11 10000 2.6 240 00:27 03.04.2020
325 Clear 31 1013 11 10000 2.6 240 23:43 02.04.2020
326 Clear 31 1013 11 10000 2.6 240 23:24 02.04.2020
327 Clear 32 1013 9 10000 2.6 230 23:00 02.04.2020
328 Clear 31 1013 9 10000 2.6 230 22:41 02.04.2020
329 Clear 31 1013 9 10000 2.6 230 22:22 02.04.2020
330 Clear 31 1013 11 10000 1 360 21:57 02.04.2020
331 Clear 31 1013 11 10000 1 360 21:37 02.04.2020
332 Clear 31 1013 11 10000 1 360 21:18 02.04.2020
333 Clouds 31 1013 8 10000 2.1 280 20:44 02.04.2020
334 Clouds 31 1013 8 10000 2.1 280 20:24 02.04.2020
335 Clouds 30 1014 8 10000 1.5 250 19:56 02.04.2020
336 Clouds 30 1014 8 10000 1.5 250 19:37 02.04.2020
337 Clouds 30 1014 8 10000 1.5 250 19:19 02.04.2020
338 Clouds 28 1014 8 10000 1.5 240 18:42 02.04.2020
339 Clouds 28 1014 8 10000 1.5 240 18:21 02.04.2020
340 Clouds 26 1015 9 10000 1 190 17:59 02.04.2020
341 Clouds 26 1015 9 10000 1 190 17:59 02.04.2020
342 Clouds 26 1015 9 10000 1 190 17:40 02.04.2020
343 Clouds 26 1015 9 10000 1 190 17:22 02.04.2020
344 Clouds 23 1015 24 10000 1.97 261 16:57 02.04.2020
345 Clouds 23 1015 24 10000 1.97 261 16:39 02.04.2020
346 Clouds 24 1015 24 10000 1.97 261 16:21 02.04.2020
347 Clouds 20 1015 31 10000 1.97 261 15:56 02.04.2020
348 Clouds 22 1015 31 10000 1.97 261 15:38 02.04.2020
349 Clear 17 1015 31 10000 2.11 83 15:18 02.04.2020
350 Clear 11 1015 53 10000 1.5 20 14:41 02.04.2020
351 Clear 11 1015 53 10000 1.5 20 14:21 02.04.2020
352 Clear 9 1015 70 10000 2.22 84 13:59 02.04.2020
353 Clear 9 1015 70 10000 2.22 84 13:40 02.04.2020
354 Clear 11 1015 70 10000 2.22 84 13:21 02.04.2020
355 Clear 13 1013 61 10000 2.22 84 12:57 02.04.2020
356 Clear 13 1013 61 10000 2.22 84 12:39 02.04.2020
357 Clear 10 1013 61 10000 2.33 81 12:19 02.04.2020
358 Clear 10 1013 61 10000 2.33 81 12:19 02.04.2020
359 Clear 10 1013 61 10000 2.33 81 12:19 02.04.2020
360 Clear 11 1014 53 10000 2.33 81 11:57 02.04.2020
361 Clear 11 1014 53 10000 2.33 81 11:38 02.04.2020
362 Clear 11 1014 53 10000 2.33 81 11:19 02.04.2020
363 Clear 11 1014 53 10000 2.33 81 11:19 02.04.2020
364 Clear 12 1014 54 10000 2.33 81 10:55 02.04.2020
365 Clear 12 1014 54 10000 2.33 81 10:37 02.04.2020
366 Clear 12 1014 54 10000 2.33 81 10:19 02.04.2020
367 Clear 13 1015 50 10000 1.5 0 09:55 02.04.2020
368 Clear 13 1015 50 10000 1.5 0 09:37 02.04.2020
369 Clouds 13 1015 50 10000 1.5 0 09:18 02.04.2020
370 Clouds 13 1015 47 10000 2.1 20 08:45 02.04.2020
371 Clouds 13 1015 47 10000 2.1 20 08:26 02.04.2020
372 Clouds 17 1016 45 10000 0.5 0 07:45 02.04.2020
373 Clouds 17 1016 45 10000 0.5 0 07:20 02.04.2020
374 Clouds 18 1016 39 10000 1.5 160 06:58 02.04.2020
375 Clouds 18 1016 39 10000 1.5 160 06:21 02.04.2020
376 Clouds 20 1019 19 0 0.29 51 05:45 02.04.2020
377 Clouds 20 1016 34 10000 5.7 170 04:35 02.04.2020
378 Clouds 25 1016 25 8000 3.6 210 01:51 02.04.2020
379 Clouds 25 1015 28 10000 4.1 340 00:50 02.04.2020
380 Clouds 25 1015 28 10000 4.1 340 00:50 02.04.2020
381 Clouds 27 1017 25 10000 3.6 230 00:28 02.04.2020
382 Clouds 28 1017 25 10000 3.6 230 23:57 01.04.2020
383 Clouds 28 1017 25 10000 3.6 230 23:37 01.04.2020
384 Clouds 28 1017 25 10000 3.6 230 23:18 01.04.2020
385 Clouds 29 1017 17 10000 3.1 240 22:41 01.04.2020
386 Clouds 29 1017 17 10000 3.1 240 22:22 01.04.2020
387 Clouds 28 1017 20 10000 1.5 270 21:57 01.04.2020
388 Clouds 28 1017 20 10000 1.5 270 21:38 01.04.2020
389 Clouds 28 1017 20 10000 1.5 270 21:18 01.04.2020
390 Clouds 27 1017 28 10000 2.6 230 20:55 01.04.2020
391 Clouds 27 1017 28 10000 2.6 230 20:37 01.04.2020
392 Clouds 27 1017 28 10000 2.6 230 20:18 01.04.2020
393 Clouds 27 1018 29 10000 2.1 250 19:43 01.04.2020
394 Clouds 27 1018 29 10000 2.1 250 19:22 01.04.2020
395 Clouds 25 1018 31 10000 1.5 250 18:59 01.04.2020
396 Clouds 25 1018 31 10000 1.5 250 18:40 01.04.2020
397 Clouds 25 1018 31 10000 1.5 250 18:21 01.04.2020
398 Clouds 23 1018 37 8000 1 270 17:55 01.04.2020
399 Clouds 22 1018 37 8000 1 270 17:36 01.04.2020
400 Clouds 20 1018 37 8000 1 270 17:18 01.04.2020
401 Clouds 20 1018 37 8000 1 270 17:18 01.04.2020
402 Clouds 19 1019 45 8000 1 200 16:42 01.04.2020
403 Clouds 21 1019 45 8000 1 200 16:24 01.04.2020
404 Clouds 19 1018 45 10000 1 180 15:59 01.04.2020
405 Clouds 19 1018 45 10000 1 180 15:41 01.04.2020
406 Clouds 17 1018 45 10000 1 180 15:21 01.04.2020
407 Clouds 15 1018 51 10000 1 50 14:58 01.04.2020
408 Clouds 15 1018 51 10000 1 50 14:38 01.04.2020
409 Clouds 14 1018 51 10000 1 50 14:19 01.04.2020
410 Clouds 13 1018 47 10000 1 20 13:58 01.04.2020
411 Clouds 14 1018 47 10000 1 20 13:38 01.04.2020
412 Clouds 14 1018 47 10000 1 20 13:19 01.04.2020
413 Clouds 13 1016 62 9000 1.5 30 12:56 01.04.2020
414 Clouds 13 1016 62 9000 1.5 30 12:36 01.04.2020
415 Clouds 12 1016 62 9000 1.5 30 12:18 01.04.2020
416 Clouds 13 1016 62 10000 1.5 310 11:44 01.04.2020
417 Clouds 13 1016 62 10000 1.5 310 11:24 01.04.2020
418 Clouds 13 1015 66 10000 0.5 0 10:59 01.04.2020
419 Clouds 13 1015 66 10000 0.5 0 10:38 01.04.2020
420 Clouds 13 1015 66 10000 0.5 0 10:19 01.04.2020
421 Clouds 16 1015 55 10000 2.6 150 09:57 01.04.2020
422 Clouds 16 1015 55 10000 2.6 150 09:39 01.04.2020
423 Clouds 16 1015 55 10000 2.6 150 09:18 01.04.2020
424 Clouds 16 1015 55 10000 1 0 08:42 01.04.2020
425 Clouds 16 1015 55 10000 1 0 08:18 01.04.2020
426 Clouds 17 1015 51 10000 1 160 07:46 01.04.2020
427 Clouds 17 1015 51 10000 1 160 07:21 01.04.2020
428 Clouds 18 1015 48 10000 2.6 160 06:52 01.04.2020
429 Clouds 18 1015 48 10000 2.6 160 06:27 01.04.2020
430 Clouds 19 1015 45 10000 2.6 170 05:58 01.04.2020
431 Clouds 20 1015 40 10000 2.1 130 04:33 01.04.2020
432 Clouds 21 1015 37 10000 3.6 150 03:32 01.04.2020
433 Clouds 21 1014 37 10000 3.6 140 02:56 01.04.2020
434 Clouds 24 1013 33 10000 5.7 190 01:59 01.04.2020
435 Clouds 24 1013 33 10000 5.7 190 01:39 01.04.2020
436 Clouds 24 1013 33 10000 5.7 190 01:18 01.04.2020
437 Clouds 25 1013 28 10000 6.7 200 00:46 01.04.2020
438 Clouds 27 1015 26 10000 3.6 240 00:21 01.04.2020
439 Clear 27 1015 26 10000 3.6 240 23:48 31.03.2020
440 Clear 28 1015 26 10000 3.6 240 23:27 31.03.2020
441 Clear 28 1015 26 10000 3.6 240 22:58 31.03.2020
442 Clear 29 1014 25 10000 2.6 210 22:37 31.03.2020
443 Clear 29 1014 25 10000 2.6 210 22:19 31.03.2020
444 Clear 29 1014 25 10000 2.6 210 21:56 31.03.2020
445 Clear 29 1015 25 10000 3.1 240 21:38 31.03.2020
446 Clear 29 1015 25 10000 3.1 240 21:19 31.03.2020
447 Clear 29 1015 24 10000 3.1 0 20:55 31.03.2020
448 Clear 29 1015 24 10000 3.1 0 20:36 31.03.2020
449 Clear 29 1015 24 10000 3.1 0 20:36 31.03.2020
450 Clear 29 1015 24 10000 3.1 0 20:18 31.03.2020
451 Clear 28 1015 30 10000 1.5 0 19:42 31.03.2020
452 Clear 28 1015 30 10000 1.5 0 19:42 31.03.2020
453 Clear 28 1015 30 10000 1.5 0 19:42 31.03.2020
454 Clear 28 1015 30 10000 1.5 0 19:23 31.03.2020
455 Clear 27 1015 33 10000 1 280 18:59 31.03.2020
456 Clear 26 1015 33 10000 1 280 18:40 31.03.2020
457 Clear 25 1016 38 10000 1.5 0 18:19 31.03.2020
458 Clear 25 1016 38 10000 1.5 0 17:55 31.03.2020
459 Clear 25 1016 38 10000 1.5 0 17:37 31.03.2020
460 Clear 24 1016 38 10000 1.5 0 17:19 31.03.2020
461 Clear 24 1016 37 10000 1 270 16:41 31.03.2020
462 Clear 22 1016 37 10000 1 270 16:20 31.03.2020
463 Clear 19 1016 48 10000 2.5 263 15:57 31.03.2020
464 Clear 20 1016 48 10000 2.5 263 15:39 31.03.2020
465 Clear 20 1016 48 10000 2.5 263 15:39 31.03.2020
466 Clear 19 1016 48 10000 2.5 263 15:21 31.03.2020
467 Clouds 16 1016 71 10000 1 70 14:57 31.03.2020
468 Clouds 17 1016 71 10000 1 70 14:39 31.03.2020
469 Clouds 13 1016 71 10000 1 70 14:20 31.03.2020
470 Clouds 14 1015 66 10000 1 50 13:43 31.03.2020
471 Clouds 14 1015 66 10000 1 50 13:20 31.03.2020
472 Clouds 14 1014 71 10000 0.03 288 12:57 31.03.2020
473 Clouds 14 1014 71 10000 0.03 288 12:39 31.03.2020
474 Clouds 12 1014 71 10000 0.35 33 12:19 31.03.2020
475 Clouds 13 1014 66 10000 1 340 11:40 31.03.2020
476 Clouds 13 1014 66 10000 1 340 11:20 31.03.2020
477 Clouds 14 1014 62 10000 0.35 33 10:58 31.03.2020
478 Clouds 14 1014 62 10000 0.35 33 10:58 31.03.2020
479 Clouds 14 1014 62 10000 0.35 33 10:40 31.03.2020
480 Clouds 14 1014 62 10000 0.35 33 10:21 31.03.2020
481 Clouds 15 1014 62 10000 1 240 09:57 31.03.2020
482 Clouds 15 1014 62 10000 1 240 09:39 31.03.2020
483 Clouds 15 1014 62 10000 1 240 09:21 31.03.2020
484 Clouds 17 1014 51 10000 1 170 08:57 31.03.2020
485 Clouds 17 1014 51 10000 1 170 08:38 31.03.2020
486 Clouds 17 1014 51 10000 1 170 08:19 31.03.2020
487 Clouds 17 1014 51 10000 3.1 170 07:56 31.03.2020
488 Clouds 17 1014 51 10000 3.1 170 07:37 31.03.2020
489 Clouds 17 1014 51 10000 3.1 170 07:18 31.03.2020
490 Clouds 19 1014 48 10000 0.5 0 06:43 31.03.2020
491 Clouds 20 1014 45 10000 3.6 160 05:59 31.03.2020
492 Clouds 20 1014 45 10000 3.6 160 05:39 31.03.2020
493 Clouds 22 1014 43 10000 3.1 160 03:28 31.03.2020
494 Clear 26 1013 34 10000 4.6 170 01:52 31.03.2020
495 Clear 26 1013 34 10000 4.6 170 01:33 31.03.2020
496 Clear 27 1012 30 10000 5.1 210 00:46 31.03.2020
497 Clear 28 1014 23 10000 3.1 210 00:24 31.03.2020
498 Clouds 29 1014 23 10000 3.1 210 23:41 30.03.2020
499 Clouds 29 1014 23 10000 3.1 210 23:20 30.03.2020
500 Clouds 29 1014 23 10000 3.6 210 22:58 30.03.2020
501 Clouds 29 1014 23 10000 3.6 210 22:39 30.03.2020
502 Clouds 29 1014 23 10000 3.6 210 22:20 30.03.2020
503 Clouds 29 1014 25 8000 3.1 230 21:58 30.03.2020
504 Clouds 29 1014 25 8000 3.1 230 21:39 30.03.2020
505 Clouds 29 1014 25 8000 3.1 230 21:20 30.03.2020
506 Clouds 29 1014 25 8000 3.1 230 21:20 30.03.2020
507 Clouds 29 1015 26 7000 2.1 260 20:59 30.03.2020
508 Clouds 29 1015 26 7000 2.1 260 20:39 30.03.2020
509 Clouds 29 1015 26 7000 2.1 260 20:39 30.03.2020
510 Clouds 30 1015 26 7000 2.1 260 20:20 30.03.2020
511 Clouds 30 1015 26 7000 2.1 260 20:20 30.03.2020
512 Clouds 29 1015 30 7000 2.1 240 19:56 30.03.2020
513 Clouds 30 1015 30 7000 2.1 240 19:38 30.03.2020
514 Clouds 28 1015 30 7000 2.1 240 19:20 30.03.2020
515 Clouds 26 1016 36 10000 1.5 210 18:43 30.03.2020
516 Clouds 27 1016 36 10000 1.5 210 18:25 30.03.2020
517 Clouds 25 1016 43 10000 1 250 17:58 30.03.2020
518 Clouds 25 1016 43 10000 1 250 17:39 30.03.2020
519 Clouds 23 1016 43 10000 1 250 17:20 30.03.2020
520 Clouds 21 1016 46 10000 2.22 268 16:58 30.03.2020
521 Clouds 22 1016 46 10000 2.22 268 16:39 30.03.2020
522 -273 0 0 0 0 0 16:20 30.03.2020
523 -273 0 0 0 0 0 16:20 30.03.2020
524 Clouds 19 1016 59 10000 2.22 268 15:55 30.03.2020
525 Clouds 21 1016 59 10000 2.22 268 15:37 30.03.2020
526 Clouds 17 1016 59 10000 0.28 0 15:19 30.03.2020
527 Clouds 17 1015 71 10000 0.28 0 14:56 30.03.2020
528 Clouds 17 1015 71 10000 0.28 0 14:37 30.03.2020
529 Clouds 14 1015 71 10000 0.28 351 14:18 30.03.2020
530 Clouds 15 1015 67 10000 0.28 351 13:55 30.03.2020
531 Clouds 16 1015 67 10000 0.28 351 13:37 30.03.2020
532 Clouds 14 1015 67 10000 0.28 351 13:19 30.03.2020
533 Clouds 15 1014 67 8000 1.5 310 12:44 30.03.2020
534 Clouds 14 1014 67 8000 1.5 310 12:21 30.03.2020
535 Clouds 16 1013 59 10000 1 160 11:57 30.03.2020
536 Clouds 16 1013 59 10000 1 160 11:57 30.03.2020
537 Clouds 16 1013 59 10000 1 160 11:39 30.03.2020
538 Clouds 16 1013 59 10000 1 160 11:21 30.03.2020
539 Clouds 16 1014 59 10000 0.16 61 10:41 30.03.2020
540 Clouds 16 1014 59 10000 0.16 61 10:23 30.03.2020
541 Clouds 16 1014 63 10000 0.5 290 09:59 30.03.2020
542 Clouds 16 1014 63 10000 0.5 290 09:40 30.03.2020
543 Clouds 16 1014 63 10000 0.5 290 09:19 30.03.2020
544 Clouds 16 1014 63 10000 0.32 238 08:47 30.03.2020
545 Clouds 16 1014 63 10000 0.32 238 08:28 30.03.2020
546 Clouds 16 1014 63 10000 0.32 238 08:28 30.03.2020
547 Clouds 17 1014 59 10000 0.5 280 07:58 30.03.2020
548 Clouds 17 1014 59 10000 0.5 280 07:39 30.03.2020
549 Clouds 17 1014 59 10000 0.5 280 07:18 30.03.2020
550 Clouds 19 1015 52 10000 1.5 150 06:37 30.03.2020
551 Clouds 19 1015 52 10000 1.5 150 06:18 30.03.2020
552 Clouds 19 1015 52 10000 2.1 150 05:38 30.03.2020
553 Clouds 20 1015 49 10000 2.6 150 04:27 30.03.2020
554 Clouds 21 1015 46 10000 3.1 150 03:52 30.03.2020
555 Clouds 23 1015 38 10000 3.6 180 02:44 30.03.2020
556 Clouds 24 1014 36 10000 4.6 210 01:54 30.03.2020
557 Clouds 24 1014 34 10000 6.2 210 00:56 30.03.2020
558 Clouds 26 1016 34 10000 2.6 230 00:25 30.03.2020
559 Clouds 26 1016 34 10000 2.6 230 00:25 30.03.2020
560 Clouds 26 1016 34 10000 2.6 230 23:55 29.03.2020
561 Clouds 26 1016 34 10000 2.6 230 23:36 29.03.2020
562 Clouds 27 1016 34 10000 2.6 230 23:18 29.03.2020
563 Clouds 27 1016 36 8000 3.6 240 22:39 29.03.2020
564 Clouds 27 1016 36 8000 3.6 240 22:39 29.03.2020
565 Clouds 27 1016 36 8000 3.6 240 22:20 29.03.2020
566 Clouds 28 1016 32 8000 2.6 240 21:59 29.03.2020
567 Clouds 28 1016 32 8000 2.6 240 21:37 29.03.2020
568 Clouds 28 1016 32 8000 2.6 240 21:19 29.03.2020
569 Clouds 28 1016 36 7000 1.5 180 20:55 29.03.2020
570 Clouds 27 1016 36 7000 1.5 180 20:37 29.03.2020
571 Clouds 27 1016 36 7000 1.5 180 20:18 29.03.2020
572 Clouds 27 1017 41 7000 2.1 210 19:55 29.03.2020
573 Clouds 26 1017 41 7000 2.1 210 19:37 29.03.2020
574 Clouds 24 1017 49 7000 1 210 19:18 29.03.2020
575 Clouds 24 1017 49 7000 1 210 18:55 29.03.2020
576 Clouds 25 1017 49 7000 1 210 18:37 29.03.2020
577 Clouds 22 1017 56 7000 1.5 180 18:18 29.03.2020
578 Clouds 21 1017 56 7000 1.5 180 17:42 29.03.2020
579 Clouds 21 1017 56 7000 1.5 180 17:24 29.03.2020
580 Clouds 18 1017 63 7000 0.5 270 16:59 29.03.2020
581 Clouds 18 1017 63 7000 0.5 270 16:40 29.03.2020
582 Clouds 18 1017 63 7000 0.5 270 16:21 29.03.2020
583 Clouds 16 1017 77 7000 0.5 270 15:59 29.03.2020
584 Clouds 16 1017 77 7000 0.5 270 15:59 29.03.2020
585 Clouds 16 1017 77 7000 0.5 270 15:40 29.03.2020
586 Clouds 16 1017 77 7000 0.5 270 15:21 29.03.2020
587 Clouds 13 1017 93 7000 0.25 257 14:57 29.03.2020
588 Clouds 13 1017 93 7000 0.25 257 14:37 29.03.2020
589 Clouds 13 1017 93 7000 0.35 275 14:19 29.03.2020
590 Clouds 14 1017 82 7000 0.35 275 13:55 29.03.2020
591 Clouds 13 1017 82 7000 0.35 275 13:37 29.03.2020
592 Clouds 13 1017 82 7000 0.35 275 13:19 29.03.2020
593 Clouds 12 1017 82 7000 0.35 275 12:54 29.03.2020
594 Mist 12 1016 93 2900 2.6 10 12:36 29.03.2020
595 Mist 12 1015 87 4700 1.5 30 12:18 29.03.2020
596 Clear 11 1015 87 10000 0.2 293 11:38 29.03.2020
597 Clear 11 1015 87 10000 0.2 293 11:20 29.03.2020
598 Clear 12 1015 87 10000 1 0 10:40 29.03.2020
599 Clear 12 1015 87 10000 1 0 10:21 29.03.2020
600 Clear 13 1015 87 8000 1.5 230 09:59 29.03.2020
601 Clear 13 1015 87 8000 1.5 230 09:38 29.03.2020
602 Clear 13 1015 87 8000 1.5 230 09:19 29.03.2020
603 Clear 14 1015 82 10000 1.5 170 08:48 29.03.2020
604 Clear 14 1015 82 10000 1.5 170 08:27 29.03.2020
605 Clear 15 1015 77 10000 2.1 150 07:56 29.03.2020
606 Clear 15 1015 77 10000 2.1 150 07:37 29.03.2020
607 Clear 15 1015 77 10000 2.1 150 07:19 29.03.2020
608 Clear 17 1015 72 10000 2.1 160 04:58 29.03.2020
609 Clear 17 1015 72 10000 4.1 150 03:42 29.03.2020
610 Clear 17 1015 72 10000 4.1 150 03:23 29.03.2020
611 Clear 19 1015 63 10000 3.1 170 01:50 29.03.2020
612 Clear 19 1015 63 10000 3.1 170 01:23 29.03.2020
613 Clear 20 1014 60 10000 4.6 200 00:48 29.03.2020
614 Clear 20 1014 60 10000 4.6 200 00:29 29.03.2020
615 Clear 21 1014 53 10000 4.6 180 23:41 28.03.2020
616 Clear 21 1014 53 10000 4.6 180 23:41 28.03.2020
617 Haze 22 1016 46 4000 2.6 250 23:23 28.03.2020
618 Haze 22 1016 46 4000 2.6 250 22:56 28.03.2020
619 Haze 22 1016 46 4000 2.6 250 22:37 28.03.2020
620 Haze 23 1016 46 4000 2.6 250 22:18 28.03.2020
621 Haze 23 1016 53 5000 2.6 240 21:41 28.03.2020
622 Haze 22 1016 53 5000 2.6 240 21:23 28.03.2020
623 Haze 22 1016 53 4000 3.1 240 20:58 28.03.2020
624 Haze 22 1016 53 4000 3.1 240 20:39 28.03.2020
625 Haze 22 1016 53 4000 3.1 240 20:20 28.03.2020
626 Haze 22 1016 56 4000 3.1 230 19:56 28.03.2020
627 Haze 22 1016 56 4000 3.1 230 19:36 28.03.2020
628 Haze 22 1016 56 4000 3.1 230 19:18 28.03.2020
629 Haze 22 1016 56 3000 2.6 270 18:47 28.03.2020
630 Haze 22 1016 56 3000 2.6 270 18:22 28.03.2020
631 Haze 20 1016 63 3000 2.1 210 17:58 28.03.2020
632 Haze 20 1016 63 3000 2.1 210 17:38 28.03.2020
633 Haze 20 1016 63 3000 2.1 210 17:18 28.03.2020
634 Haze 18 1016 72 3000 2.1 230 16:42 28.03.2020
635 Haze 18 1016 72 3000 2.1 230 16:20 28.03.2020
636 Haze 18 1016 72 3000 2.1 230 16:20 28.03.2020
637 Haze 16 1016 82 2000 2.79 265 15:56 28.03.2020
638 Haze 16 1016 82 2000 2.79 265 15:37 28.03.2020
639 Haze 16 1016 82 2000 2.79 265 15:18 28.03.2020
640 Mist 16 1016 87 1500 2.79 265 14:42 28.03.2020
641 Mist 15 1016 87 1500 2.79 265 14:22 28.03.2020
642 Mist 14 1015 93 1500 0.45 280 13:55 28.03.2020
643 Mist 14 1015 93 1500 0.45 280 13:36 28.03.2020
644 Mist 14 1015 93 1500 0.31 285 13:18 28.03.2020
645 Fog 13 1015 93 800 0.31 285 12:37 28.03.2020
646 Fog 13 1015 93 800 0.31 285 12:19 28.03.2020
647 Clear 15 1014 87 10000 2.1 170 11:42 28.03.2020
648 Clear 14 1013 87 10000 0.63 281 11:21 28.03.2020
649 Clear 14 1013 87 10000 0.63 281 10:43 28.03.2020
650 Clear 14 1013 87 10000 0.63 281 10:24 28.03.2020
651 Clear 14 1013 87 10000 0.5 0 09:59 28.03.2020
652 Clear 14 1013 87 10000 0.5 0 09:39 28.03.2020
653 Clear 14 1013 87 10000 0.5 0 09:21 28.03.2020
654 Clear 13 1013 87 10000 2.1 170 08:42 28.03.2020
655 Clear 13 1013 87 10000 2.1 170 08:42 28.03.2020
656 Clear 13 1013 87 10000 2.1 170 08:24 28.03.2020
657 Clear 13 1013 87 9000 2.1 150 07:52 28.03.2020
658 Clear 13 1013 87 9000 2.1 150 07:34 28.03.2020
659 Clear 13 1013 87 10000 2.6 160 06:45 28.03.2020
660 Clear 13 1013 87 10000 2.6 160 06:20 28.03.2020
661 Clear 14 1013 87 10000 2.6 160 05:26 28.03.2020
662 Clear 15 1013 82 10000 3.1 160 04:48 28.03.2020
663 Clear 15 1013 82 10000 3.1 160 04:28 28.03.2020
664 Clear 16 1013 82 10000 4.1 150 02:46 28.03.2020
665 Clear 17 1013 77 10000 4.1 150 01:47 28.03.2020
666 Clear 17 1013 77 10000 4.1 150 01:23 28.03.2020
667 Clear 18 1012 72 10000 6.2 170 00:47 28.03.2020
668 Clear 18 1012 72 10000 6.2 170 00:21 28.03.2020
669 Clear 20 1012 64 10000 5.7 180 23:43 27.03.2020
670 Clear 20 1013 56 8000 2.6 250 23:24 27.03.2020
671 Clear 21 1013 56 8000 2.6 250 22:56 27.03.2020
672 Clear 21 1013 56 8000 2.6 250 22:38 27.03.2020
673 Clear 21 1013 56 8000 2.6 250 22:20 27.03.2020
674 Clear 22 1012 56 10000 6.7 170 21:56 27.03.2020
675 Clear 22 1012 56 10000 6.7 170 21:38 27.03.2020
676 Haze 23 1014 53 5000 2.6 240 21:20 27.03.2020
677 Haze 22 1014 53 5000 2.6 240 20:43 27.03.2020
678 Haze 22 1014 53 5000 2.6 240 20:22 27.03.2020
679 Haze 22 1014 60 5000 2.1 210 19:59 27.03.2020
680 Haze 22 1014 60 5000 2.1 210 19:41 27.03.2020
681 Haze 21 1014 60 5000 2.1 210 19:22 27.03.2020
682 Haze 21 1015 60 5000 2.6 260 18:56 27.03.2020
683 Haze 20 1015 60 5000 2.6 260 18:38 27.03.2020
684 Haze 20 1015 60 5000 2.6 260 18:19 27.03.2020
685 Haze 19 1015 68 4000 2.1 200 17:40 27.03.2020
686 Haze 19 1015 68 4000 2.1 200 17:20 27.03.2020
687 Haze 18 1015 77 4000 2.1 220 16:54 27.03.2020
688 Haze 17 1015 77 4000 2.1 220 16:36 27.03.2020
689 Haze 16 1015 77 4000 2.1 220 16:18 27.03.2020
690 Haze 15 1016 82 4000 2.1 240 15:41 27.03.2020
691 Haze 15 1016 82 4000 2.1 240 15:23 27.03.2020
692 Haze 14 1015 82 4000 2.81 263 14:46 27.03.2020
693 Haze 14 1015 82 4000 2.81 263 14:25 27.03.2020
694 Mist 13 1015 93 2000 0.69 273 13:57 27.03.2020
695 Mist 13 1015 93 2000 0.69 273 13:57 27.03.2020
696 Mist 13 1015 93 2000 0.69 273 13:38 27.03.2020
697 Mist 13 1015 93 2000 0.63 279 13:19 27.03.2020
698 Drizzle 13 1015 93 2000 0.63 279 12:55 27.03.2020
699 Drizzle 13 1015 93 2000 0.63 279 12:37 27.03.2020
700 Drizzle 13 1015 93 2000 0.63 279 12:18 27.03.2020
701 Clouds 18 1014 47 0 0.63 279 11:41 27.03.2020
702 Clouds 18 1014 47 0 0.63 279 11:23 27.03.2020
703 Clouds 15 1013 56 0 0.8 264 10:55 27.03.2020
704 Clouds 15 1013 56 0 0.8 264 10:37 27.03.2020
705 Clouds 15 1013 56 0 0.8 264 10:37 27.03.2020
706 Clouds 15 1013 56 0 0.8 264 10:18 27.03.2020
707 Clouds 15 1013 56 0 0.8 264 09:56 27.03.2020
708 Clouds 15 1013 56 0 0.8 264 09:37 27.03.2020
709 Clouds 15 1013 56 0 0.8 264 09:18 27.03.2020
710 Clouds 15 1013 56 0 0.8 264 08:55 27.03.2020
711 Clouds 15 1013 56 0 0.8 264 08:37 27.03.2020
712 Clear 17 1014 52 0 0.68 255 08:18 27.03.2020
713 Clear 17 1014 50 0 0.49 261 07:49 27.03.2020
714 Clear 17 1014 50 0 0.49 261 07:23 27.03.2020
715 Clear 17 1014 50 0 0.49 261 06:46 27.03.2020
716 Clear 17 1014 50 0 0.49 261 06:27 27.03.2020
717 Clear 18 1014 50 0 0.2 226 04:21 27.03.2020
718 Clear 18 1014 50 0 0.2 226 02:25 27.03.2020
719 Clear 19 1014 48 0 1.13 237 01:23 27.03.2020
720 Clear 19 1014 48 0 1.11 235 00:48 27.03.2020
721 Clear 19 1014 48 0 1.11 235 00:23 27.03.2020
722 Clear 19 1014 48 0 1.11 235 23:43 26.03.2020
723 Clouds 26 1012 36 10000 3.1 250 23:21 26.03.2020
724 Clouds 26 1012 36 10000 3.1 250 22:58 26.03.2020
725 Clouds 26 1012 36 10000 3.1 250 22:37 26.03.2020
726 Clouds 26 1012 36 10000 3.1 250 22:19 26.03.2020
727 Clear 26 1012 36 10000 3.6 240 21:55 26.03.2020
728 Clear 26 1012 36 10000 3.6 240 21:37 26.03.2020
729 Clear 26 1012 36 10000 3.6 240 21:18 26.03.2020
730 Clear 27 1012 32 10000 3.6 240 20:41 26.03.2020
731 Clear 27 1012 32 10000 3.6 240 20:23 26.03.2020
732 Clear 27 1013 30 10000 2.6 0 19:58 26.03.2020
733 Clear 27 1013 30 10000 2.6 0 19:40 26.03.2020
734 Clear 27 1013 30 10000 2.6 0 19:40 26.03.2020
735 Clear 27 1013 30 10000 2.6 0 19:22 26.03.2020
736 Clear 26 1013 34 10000 2.1 210 18:59 26.03.2020
737 Clear 26 1013 34 10000 2.1 210 18:41 26.03.2020
738 Clear 26 1013 34 10000 2.1 210 18:23 26.03.2020
739 Clear 25 1014 41 10000 2.1 210 17:45 26.03.2020
740 Clear 24 1014 41 10000 2.1 210 17:20 26.03.2020
741 Clear 23 1014 40 10000 2.1 240 16:59 26.03.2020
742 Clear 23 1014 40 10000 2.1 240 16:39 26.03.2020
743 Clear 23 1014 40 10000 2.1 240 16:39 26.03.2020
744 Clear 23 1014 40 10000 2.1 240 16:21 26.03.2020
745 Clear 21 1014 46 10000 1 0 15:56 26.03.2020
746 Clear 21 1014 46 10000 1 0 15:38 26.03.2020
747 Clear 21 1014 46 10000 1 0 15:20 26.03.2020
748 Clear 18 1014 52 10000 2.98 260 14:43 26.03.2020
749 Clear 18 1014 52 10000 2.98 260 14:25 26.03.2020
750 Clear 13 1014 76 10000 0.5 20 13:59 26.03.2020
751 Clear 13 1014 76 10000 0.5 20 13:40 26.03.2020
752 Clear 13 1014 76 10000 0.5 20 13:21 26.03.2020
753 Clear 13 1014 76 10000 0.5 20 13:21 26.03.2020
754 Clear 13 1013 71 10000 0.66 55 12:39 26.03.2020
755 Clear 13 1013 71 10000 0.66 55 12:21 26.03.2020
756 Clear 13 1013 71 10000 0.66 55 12:21 26.03.2020
757 Clear 21 1016 30 0 0.66 55 11:56 26.03.2020
758 Clear 21 1016 30 0 0.66 55 11:56 26.03.2020
759 Clear 21 1016 30 0 0.66 55 11:37 26.03.2020
760 Clear 17 1015 44 0 0.51 305 11:19 26.03.2020
761 Clear 17 1015 44 0 0.51 305 10:42 26.03.2020
762 Clear 17 1015 44 0 0.51 305 10:20 26.03.2020
763 Clear 17 1015 44 0 0.51 305 09:46 26.03.2020
764 Clear 17 1015 44 0 0.51 305 09:24 26.03.2020
765 Clear 17 1015 44 0 0.51 305 08:58 26.03.2020
766 Clear 17 1015 44 0 0.51 305 08:40 26.03.2020
767 Clear 17 1015 44 0 0.51 305 08:22 26.03.2020
768 Clouds 18 1016 39 0 0.51 276 07:56 26.03.2020
769 Clouds 18 1016 39 0 0.51 276 07:38 26.03.2020
770 Clouds 18 1016 39 0 0.51 276 07:19 26.03.2020
771 Clouds 18 1016 39 0 0.51 276 06:33 26.03.2020
772 Clouds 18 1016 39 0 0.51 276 05:47 26.03.2020
773 Clear 20 1017 34 0 0.24 123 03:46 26.03.2020
774 Clear 20 1017 34 0 0.24 123 02:58 26.03.2020
775 Clear 21 1017 35 0 0.68 227 01:51 26.03.2020
776 Clear 21 1017 35 0 0.68 227 01:18 26.03.2020
777 Clear 21 1017 34 0 0.66 210 00:30 26.03.2020
778 Clear 21 1017 34 0 0.66 210 23:42 25.03.2020
779 Clear 28 1014 24 10000 2.1 240 23:24 25.03.2020
780 Clear 28 1014 24 10000 2.1 240 22:42 25.03.2020
781 Clear 28 1014 24 10000 2.1 240 22:22 25.03.2020
782 Clear 28 1014 23 10000 2.1 210 21:59 25.03.2020
783 Clear 28 1014 23 10000 2.1 210 21:40 25.03.2020
784 Clear 28 1014 23 10000 2.1 210 21:22 25.03.2020
785 Clear 27 1014 26 10000 2.1 170 20:57 25.03.2020
786 Clear 27 1014 26 10000 2.1 170 20:37 25.03.2020
787 Clear 27 1014 26 10000 2.1 170 20:18 25.03.2020
788 Clear 26 1015 29 10000 2.1 280 19:43 25.03.2020
789 Clear 26 1015 29 10000 2.1 280 19:24 25.03.2020
790 Clear 25 1015 29 10000 1.5 280 18:59 25.03.2020
791 Clear 25 1015 29 10000 1.5 280 18:41 25.03.2020
792 Clear 25 1015 29 10000 1.5 280 18:22 25.03.2020
793 Clear 23 1016 35 10000 2.1 170 17:58 25.03.2020
794 Clear 23 1016 35 10000 2.1 170 17:39 25.03.2020
795 Clear 23 1016 35 10000 2.1 170 17:21 25.03.2020
796 Clear 22 1016 40 10000 1.5 270 16:55 25.03.2020
797 Clear 22 1016 40 10000 1.5 270 16:37 25.03.2020
798 Clear 22 1016 40 10000 1.5 270 16:18 25.03.2020
799 Clear 24 1017 27 0 2.6 259 15:41 25.03.2020
800 Clear 16 1017 55 10000 1 190 15:20 25.03.2020
801 Clear 16 1017 55 10000 1 190 14:56 25.03.2020
802 Clear 16 1017 55 10000 1 190 14:37 25.03.2020
803 Clouds 16 1017 55 10000 1 190 14:19 25.03.2020
804 Clouds 12 1017 76 10000 0.4 240 13:42 25.03.2020
805 Clouds 12 1017 76 10000 0.4 240 13:22 25.03.2020
806 Clear 11 1016 87 10000 0.28 250 12:38 25.03.2020
807 Clouds 11 1016 87 10000 0.4 240 12:20 25.03.2020
808 Clouds 19 1017 34 0 0.4 240 11:57 25.03.2020
809 Clear 19 1018 33 0 0.28 250 11:39 25.03.2020
810 Clear 16 1017 44 0 0.34 277 11:20 25.03.2020
811 Clear 16 1017 44 0 0.34 277 10:57 25.03.2020
812 Clear 16 1017 44 0 0.34 277 10:39 25.03.2020
813 Clear 16 1017 44 0 0.34 277 10:18 25.03.2020
814 Clear 16 1017 44 0 0.34 277 09:43 25.03.2020
815 Clear 16 1017 44 0 0.34 277 09:25 25.03.2020
816 Clear 16 1017 44 0 0.34 277 08:58 25.03.2020
817 Clear 16 1017 44 0 0.34 277 08:58 25.03.2020
818 Clear 16 1017 44 0 0.34 277 08:39 25.03.2020
819 Clouds 16 1017 44 0 0.65 234 08:19 25.03.2020
820 Clouds 16 1017 44 0 0.65 234 07:41 25.03.2020
821 Clouds 16 1017 44 0 0.65 234 07:23 25.03.2020
822 Clouds 16 1017 44 0 0.65 234 06:50 25.03.2020
823 Clouds 16 1017 44 0 0.65 234 06:29 25.03.2020
824 Clouds 16 1017 44 0 0.65 234 05:58 25.03.2020
825 Clouds 16 1017 44 0 0.65 234 05:37 25.03.2020
826 Clouds 17 1018 42 0 0.81 243 04:41 25.03.2020
827 Clouds 17 1018 42 0 0.81 243 03:52 25.03.2020
828 Clouds 17 1018 42 0 0.81 243 03:29 25.03.2020
829 Clouds 19 1017 34 0 1.12 240 01:31 25.03.2020
830 Clear 19 1017 36 0 1.13 232 00:49 25.03.2020
831 Clear 19 1017 36 0 1.13 232 00:26 25.03.2020
832 Clear 19 1017 36 0 1.13 232 23:50 24.03.2020
833 Clear 27 1016 21 10000 4.1 230 23:28 24.03.2020
834 Clear 27 1016 21 10000 4.1 230 22:57 24.03.2020
835 Clear 27 1016 21 10000 4.1 230 22:38 24.03.2020
836 Clear 27 1016 21 10000 4.1 230 22:19 24.03.2020
837 Clear 27 1016 21 10000 4.1 230 22:19 24.03.2020
838 Clear 28 1016 20 10000 3.6 220 21:57 24.03.2020
839 Clear 28 1016 20 10000 3.6 220 21:38 24.03.2020
840 Clear 28 1016 20 10000 3.6 220 21:18 24.03.2020
841 Clear 28 1016 20 10000 3.6 220 21:18 24.03.2020
842 Clear 28 1016 17 10000 4.1 240 20:57 24.03.2020
843 Clear 28 1016 17 10000 4.1 240 20:39 24.03.2020
844 Clear 28 1016 17 10000 4.1 240 20:21 24.03.2020
845 Clear 28 1015 17 10000 2.6 240 19:45 24.03.2020
846 Clear 28 1015 17 10000 2.6 240 19:20 24.03.2020
847 Clear 27 1017 19 10000 2.6 260 18:56 24.03.2020
848 Clear 27 1017 19 10000 2.6 260 18:37 24.03.2020
849 Clear 25 1017 25 10000 2.1 220 18:19 24.03.2020
850 Clear 25 1017 25 10000 2.1 220 17:56 24.03.2020
851 Clear 25 1017 25 10000 2.1 220 17:37 24.03.2020
852 Clear 25 1017 25 10000 2.1 220 17:19 24.03.2020
853 Clear 25 1016 24 10000 1.5 0 16:54 24.03.2020
854 Clear 23 1017 27 10000 2.78 267 16:36 24.03.2020
855 Clear 23 1017 27 10000 2.78 267 16:36 24.03.2020
856 Clear 23 1017 27 10000 2.78 267 16:18 24.03.2020
857 Clear 21 1016 35 10000 0.5 0 15:42 24.03.2020
858 Clear 21 1016 35 10000 0.5 0 15:23 24.03.2020
859 Clear 18 1017 39 10000 1 0 14:43 24.03.2020
860 Clear 16 1018 41 10000 2.74 266 14:22 24.03.2020
861 Clear 16 1018 41 10000 2.74 266 14:22 24.03.2020
862 Clear 11 1018 71 10000 0.27 273 13:58 24.03.2020
863 Clear 11 1018 71 10000 0.27 273 13:40 24.03.2020
864 Clear 11 1018 71 10000 0.38 266 13:21 24.03.2020
865 Clear 9 1017 87 10000 0.38 266 12:42 24.03.2020
866 Clear 9 1017 87 10000 0.38 266 12:23 24.03.2020
867 Clear 21 1018 21 0 0.38 266 11:41 24.03.2020
868 Clear 11 1016 66 10000 0.6 262 11:21 24.03.2020
869 Clear 10 1016 66 10000 1 10 10:59 24.03.2020
870 Clear 10 1016 66 10000 1 10 10:40 24.03.2020
871 Clear 10 1016 66 10000 1 10 10:18 24.03.2020
872 Clear 10 1016 66 10000 1 10 10:18 24.03.2020
873 Clear 12 1016 62 10000 1 0 09:46 24.03.2020
874 Clear 12 1016 62 10000 1 0 09:26 24.03.2020
875 Clear 13 1017 62 10000 1.5 220 08:57 24.03.2020
876 Clear 13 1017 62 10000 1.5 220 08:37 24.03.2020
877 Clear 13 1017 62 10000 1.5 220 08:18 24.03.2020
878 Clear 16 1017 51 10000 2.1 150 07:44 24.03.2020
879 Clear 16 1017 51 10000 2.1 150 07:22 24.03.2020
880 Clear 16 1017 51 10000 2.1 150 07:22 24.03.2020
881 Clear 15 1017 44 10000 1.5 120 06:40 24.03.2020
882 Clear 15 1017 44 10000 1.5 120 06:18 24.03.2020
883 Clear 18 1018 39 10000 1.5 170 04:51 24.03.2020
884 Clear 20 1018 34 10000 3.1 140 03:32 24.03.2020
885 Clear 20 1018 34 10000 4.1 160 02:43 24.03.2020
886 Clear 24 1017 29 10000 4.6 170 00:57 24.03.2020
887 Clear 24 1017 29 10000 4.6 170 00:28 24.03.2020
888 Clear 24 1017 29 10000 4.6 170 23:58 23.03.2020
889 Clear 26 1016 28 10000 7.2 200 23:38 23.03.2020
890 Clear 27 1016 28 10000 7.2 200 23:19 23.03.2020
891 Clear 29 1017 23 10000 4.1 240 22:44 23.03.2020
892 Clear 29 1017 23 10000 4.1 240 22:23 23.03.2020
893 Clear 31 1017 14 10000 3.6 240 21:55 23.03.2020
894 Clear 31 1017 14 10000 3.6 240 21:37 23.03.2020
895 Clear 30 1017 14 10000 3.6 240 21:19 23.03.2020
896 Clear 31 1017 12 10000 2.1 10 20:55 23.03.2020
897 Clear 31 1017 12 10000 2.1 10 20:36 23.03.2020
898 Clear 31 1017 12 10000 2.1 10 20:18 23.03.2020
899 Clear 31 1017 12 10000 2.1 10 20:18 23.03.2020
900 Clear 30 1018 13 10000 2.1 260 19:41 23.03.2020
901 Clear 30 1018 13 10000 2.1 260 19:22 23.03.2020
902 Clear 29 1017 21 10000 3.6 190 18:56 23.03.2020
903 Clear 29 1019 12 10000 1.5 360 18:38 23.03.2020
904 Clear 29 1019 12 10000 1.5 360 18:18 23.03.2020
905 Clear 27 1019 21 10000 2.1 240 17:41 23.03.2020
906 Clear 22 1020 38 10000 1.5 190 17:20 23.03.2020
907 Clear 22 1020 38 10000 1.5 190 16:55 23.03.2020
908 Clear 22 1020 38 10000 1.5 190 16:36 23.03.2020
909 Clear 22 1020 38 10000 1.5 190 16:18 23.03.2020
910 Clear 18 1020 55 10000 2.1 180 15:40 23.03.2020
911 Clear 18 1020 55 10000 2.1 180 15:19 23.03.2020
912 Clear 15 1020 67 10000 0.5 30 14:38 23.03.2020
913 Clear 15 1020 67 10000 0.5 30 14:19 23.03.2020
914 Clear 11 1020 87 10000 0.5 20 13:57 23.03.2020
915 Clear 14 1020 87 10000 0.5 20 13:38 23.03.2020
916 Clear 11 1020 87 10000 0.5 20 13:20 23.03.2020
917 Clear 11 1020 87 10000 0.5 20 13:20 23.03.2020
918 Clear 12 1020 81 10000 1 70 12:44 23.03.2020
919 Clear 11 1020 81 10000 1 70 12:25 23.03.2020
920 Clear 11 1019 81 10000 1.5 210 11:57 23.03.2020
921 Clear 11 1018 76 10000 0.5 0 11:38 23.03.2020
922 Clear 11 1018 76 10000 0.5 0 11:38 23.03.2020
923 Clear 12 1018 71 10000 1 0 11:19 23.03.2020
924 Clear 13 1018 71 10000 1 0 10:56 23.03.2020
925 Clear 13 1018 71 10000 1 0 10:37 23.03.2020
926 Clear 13 1018 71 10000 1 0 10:19 23.03.2020
927 Clear 13 1017 71 10000 3.1 150 09:43 23.03.2020
928 Clear 13 1017 71 10000 3.1 150 09:21 23.03.2020
929 Clear 13 1017 71 10000 4.1 160 08:40 23.03.2020
930 Clear 13 1017 71 10000 4.1 160 08:20 23.03.2020
931 Clear 14 1017 71 10000 3.1 160 07:59 23.03.2020
932 Clear 14 1017 71 10000 3.1 160 07:59 23.03.2020
933 Clear 14 1017 71 10000 3.1 160 07:40 23.03.2020
934 Clear 14 1017 71 10000 3.1 160 07:19 23.03.2020
935 Clear 15 1017 67 10000 4.6 160 06:48 23.03.2020
936 Clear 15 1017 67 10000 4.1 160 05:50 23.03.2020
937 Clear 16 1017 63 10000 4.1 160 04:57 23.03.2020
938 Clear 17 1016 63 10000 4.6 160 03:24 23.03.2020
939 Clear 19 1016 55 10000 4.1 160 01:50 23.03.2020
940 Clear 22 1015 46 10000 5.1 220 00:52 23.03.2020
941 Clear 22 1015 46 10000 5.1 220 00:33 23.03.2020
942 Clear 23 1015 44 10000 6.7 220 23:46 22.03.2020
943 Clear 24 1015 44 10000 6.7 220 23:25 22.03.2020
944 Clear 26 1017 36 10000 2.1 210 22:45 22.03.2020
945 Clear 26 1017 36 10000 2.1 210 22:23 22.03.2020
946 Clear 26 1017 36 10000 2.1 230 21:55 22.03.2020
947 Clear 26 1017 36 10000 2.1 230 21:37 22.03.2020
948 Clear 26 1017 36 10000 2.1 230 21:18 22.03.2020
949 Clear 25 1017 41 10000 2.1 240 20:46 22.03.2020
950 Clear 25 1017 41 10000 2.1 240 20:25 22.03.2020
951 Clear 25 1017 41 10000 2.1 240 20:25 22.03.2020
952 Clear 24 1018 40 10000 2.1 0 19:58 22.03.2020
953 Clear 24 1018 40 10000 2.1 0 19:40 22.03.2020
954 Clear 24 1018 40 10000 2.1 0 19:20 22.03.2020
955 Clear 23 1019 46 10000 1.5 250 18:59 22.03.2020
956 Clear 22 1019 46 10000 1.5 250 18:41 22.03.2020
957 Clear 22 1019 46 10000 1.5 250 18:22 22.03.2020
958 Clear 20 1019 52 10000 2.1 270 17:58 22.03.2020
959 Clear 20 1019 52 10000 2.1 270 17:38 22.03.2020
960 Clear 21 1019 52 10000 2.1 270 17:20 22.03.2020
961 Clear 19 1019 59 10000 1.5 0 16:57 22.03.2020
962 Clear 19 1019 59 10000 1.5 0 16:39 22.03.2020
963 Clear 17 1019 59 10000 1.5 0 16:21 22.03.2020
964 Clear 17 1019 59 10000 1.5 0 16:21 22.03.2020
965 Clear 17 1020 63 10000 2.1 160 15:40 22.03.2020
966 Clear 17 1020 63 10000 2.1 160 15:21 22.03.2020
967 Clear 15 1020 71 10000 2.88 258 14:46 22.03.2020
968 Clear 13 1020 71 10000 0.9 271 14:19 22.03.2020
969 Clear 12 1019 71 7000 2.1 30 13:44 22.03.2020
970 Clear 13 1019 71 7000 2.1 30 13:21 22.03.2020
971 Clear 13 1019 62 10000 0.54 272 12:59 22.03.2020
972 Clear 13 1019 62 10000 0.54 272 12:41 22.03.2020
973 Clear 13 1019 62 10000 0.54 272 12:19 22.03.2020
974 Clear 11 1018 76 10000 2.1 270 11:43 22.03.2020
975 Clear 11 1018 76 10000 2.1 270 11:25 22.03.2020
976 Clear 13 1018 71 10000 1.5 130 10:58 22.03.2020
977 Clear 13 1018 71 10000 1.5 130 10:40 22.03.2020
978 Clear 13 1018 71 10000 1.5 130 10:22 22.03.2020
979 Clear 13 1017 71 10000 3.6 140 09:47 22.03.2020
980 Clear 13 1017 71 10000 3.6 140 09:28 22.03.2020
981 Clear 13 1017 71 10000 3.6 130 08:51 22.03.2020
982 Clear 13 1017 71 10000 3.6 130 08:32 22.03.2020
983 Clear 13 1017 71 10000 3.6 130 08:32 22.03.2020
984 Clear 14 1017 67 10000 3.1 160 07:56 22.03.2020
985 Clear 14 1017 67 10000 3.1 160 07:38 22.03.2020
986 Clear 14 1017 67 10000 2.6 180 06:48 22.03.2020
987 Clear 14 1017 67 10000 3.1 150 05:52 22.03.2020
988 Clear 14 1017 67 10000 3.1 160 04:39 22.03.2020
989 Clouds 18 1016 55 10000 5.1 210 01:49 22.03.2020
990 Clouds 18 1017 55 10000 2.1 250 00:51 22.03.2020
991 Clouds 18 1017 55 10000 2.1 250 00:32 22.03.2020
992 Clouds 20 1017 49 10000 2.6 230 23:47 21.03.2020
993 Clouds 20 1017 49 10000 2.6 230 23:23 21.03.2020
994 Clouds 20 1017 46 10000 2.1 0 22:59 21.03.2020
995 Clouds 21 1017 46 10000 2.1 0 22:38 21.03.2020
996 Clouds 21 1017 46 10000 2.1 0 22:20 21.03.2020
997 Clouds 21 1017 49 8000 3.1 230 21:59 21.03.2020
998 Clouds 21 1017 49 8000 3.1 230 21:39 21.03.2020
999 Clouds 21 1017 49 8000 3.1 230 21:20 21.03.2020
1000 Clouds 21 1017 49 8000 3.1 230 21:20 21.03.2020
1001 Clouds 20 1017 52 8000 2.6 220 20:44 21.03.2020
1002 Clouds 20 1017 52 8000 2.6 220 20:22 21.03.2020
1003 Clouds 20 1018 55 8000 3.1 240 19:56 21.03.2020
1004 Clouds 20 1018 55 8000 3.1 240 19:38 21.03.2020
1005 Clouds 20 1018 55 8000 3.1 240 19:19 21.03.2020
1006 Clouds 19 1018 63 8000 3.1 0 18:54 21.03.2020
1007 Clouds 18 1018 63 8000 3.1 0 18:36 21.03.2020
1008 Clouds 18 1018 63 8000 3.1 0 18:18 21.03.2020
1009 Clouds 17 1018 67 8000 3.1 240 17:42 21.03.2020
1010 Clouds 17 1018 67 8000 3.1 240 17:22 21.03.2020
1011 Clouds 16 1018 67 8000 2.1 200 16:43 21.03.2020
1012 Clouds 16 1018 67 8000 2.1 200 16:24 21.03.2020
1013 Clouds 16 1018 67 8000 2.1 200 16:24 21.03.2020
1014 Clouds 15 1017 76 10000 2.6 250 15:59 21.03.2020
1015 Clouds 15 1017 76 10000 2.6 250 15:40 21.03.2020
1016 Clouds 14 1017 76 10000 2.6 250 15:22 21.03.2020
1017 Clouds 14 1017 76 10000 0.5 280 14:57 21.03.2020
1018 Clouds 14 1017 76 10000 0.5 280 14:39 21.03.2020
1019 Clouds 13 1017 76 10000 0.5 280 14:20 21.03.2020
1020 Clear 11 1016 87 10000 1.29 263 13:58 21.03.2020
1021 Clear 11 1016 87 10000 1.29 263 13:39 21.03.2020
1022 Clear 12 1016 87 10000 1.29 263 13:21 21.03.2020
1023 Clear 13 1015 67 10000 0.75 267 12:57 21.03.2020
1024 Clear 12 1015 67 10000 0.75 267 12:37 21.03.2020
1025 Clear 12 1015 67 10000 0.75 267 12:19 21.03.2020
1026 Fog 9 1015 100 1000 3.6 170 11:55 21.03.2020
1027 Mist 10 1014 93 5000 3.1 170 11:37 21.03.2020
1028 Mist 10 1014 93 5000 3.1 170 11:18 21.03.2020
1029 Clear 11 1014 87 10000 2.1 170 10:56 21.03.2020
1030 Clear 11 1014 87 10000 2.1 170 10:38 21.03.2020
1031 Clear 11 1014 87 10000 2.1 170 10:18 21.03.2020
1032 Clear 12 1014 81 10000 4.1 160 09:40 21.03.2020
1033 Clear 12 1014 81 10000 4.1 160 09:21 21.03.2020
1034 Clear 12 1014 81 10000 3.6 170 08:58 21.03.2020
1035 Clear 12 1014 81 10000 3.6 170 08:39 21.03.2020
1036 Clear 12 1014 81 10000 3.6 170 08:21 21.03.2020
1037 Clear 13 1014 76 10000 4.1 160 07:42 21.03.2020
1038 Clear 13 1014 76 10000 4.1 160 07:23 21.03.2020
1039 Clear 13 1014 76 10000 4.1 160 06:45 21.03.2020
1040 Clear 13 1014 76 10000 4.1 160 06:26 21.03.2020
1041 Clear 14 1014 76 10000 4.1 160 05:41 21.03.2020
1042 Clear 15 1013 72 10000 4.1 160 04:37 21.03.2020
1043 Clear 17 1013 63 10000 4.1 150 02:39 21.03.2020
1044 Clear 19 1012 55 10000 3.6 160 01:57 21.03.2020
1045 Clear 21 1012 55 10000 3.6 160 01:29 21.03.2020
1046 Clear 22 1013 40 10000 2.6 220 00:47 21.03.2020
1047 Clear 22 1013 40 10000 2.6 220 00:24 21.03.2020
1048 Clear 24 1013 33 10000 3.6 230 23:46 20.03.2020
1049 Clear 25 1013 33 10000 3.6 230 23:24 20.03.2020
1050 Clear 26 1013 32 10000 3.6 230 22:44 20.03.2020
1051 Clear 27 1013 32 10000 3.6 230 22:25 20.03.2020
1052 Clear 28 1013 30 10000 3.1 250 21:59 20.03.2020
1053 Clear 27 1013 30 10000 3.1 250 21:41 20.03.2020
1054 Clear 27 1013 30 10000 3.1 250 21:20 20.03.2020
1055 Clear 27 1014 28 10000 3.1 240 20:59 20.03.2020
1056 Clear 27 1014 28 10000 3.1 240 20:41 20.03.2020
1057 Clear 27 1014 28 10000 3.1 240 20:21 20.03.2020
1058 Clear 27 1013 32 10000 6.2 170 19:58 20.03.2020
1059 Clear 27 1013 32 10000 6.2 170 19:39 20.03.2020
1060 Clear 27 1013 32 10000 6.2 170 19:18 20.03.2020
1061 Clear 26 1013 34 10000 4.6 180 18:39 20.03.2020
1062 Clear 26 1013 34 10000 4.6 180 18:39 20.03.2020
1063 Clear 26 1013 34 10000 4.6 180 18:20 20.03.2020
1064 Clear 26 1013 34 10000 4.6 180 17:57 20.03.2020
1065 Clear 25 1015 41 7000 1.5 150 17:39 20.03.2020
1066 Clear 24 1015 49 8000 1.5 90 17:20 20.03.2020
1067 Clear 23 1015 49 8000 1.5 90 16:43 20.03.2020
1068 Clear 23 1015 49 8000 1.5 90 16:22 20.03.2020
1069 Clear 21 1016 52 10000 1.5 50 15:59 20.03.2020
1070 Clear 21 1016 52 10000 1.5 50 15:41 20.03.2020
1071 Clear 19 1016 52 10000 1.5 50 15:21 20.03.2020
1072 Clear 17 1015 55 10000 2.81 269 14:43 20.03.2020
1073 Clear 18 1015 55 10000 2.81 269 14:23 20.03.2020
1074 Clear 12 1015 76 10000 0.26 330 13:55 20.03.2020
1075 Clear 12 1015 76 10000 0.26 330 13:37 20.03.2020
1076 Clear 12 1015 76 10000 0.29 10 13:19 20.03.2020
1077 Clear 13 1015 93 10000 0.29 10 12:39 20.03.2020
1078 Clear 12 1015 93 10000 0.29 10 12:20 20.03.2020
1079 Clear 13 1014 81 8000 1.5 340 11:54 20.03.2020
1080 Clear 13 1014 76 10000 0.5 0 11:36 20.03.2020
1081 Clear 13 1014 82 10000 2.1 160 11:18 20.03.2020
1082 Clear 13 1014 82 10000 2.1 160 10:41 20.03.2020
1083 Clear 13 1014 82 10000 2.1 160 10:20 20.03.2020
1084 Clear 13 1014 82 10000 2.1 160 10:20 20.03.2020
1085 Clear 14 1014 76 10000 2.6 160 09:55 20.03.2020
1086 Clear 14 1014 76 10000 2.6 160 09:37 20.03.2020
1087 Clear 14 1014 76 10000 2.6 160 09:18 20.03.2020
1088 Clear 14 1014 76 10000 2.6 160 08:41 20.03.2020
1089 Clear 14 1014 76 10000 2.6 160 08:22 20.03.2020
1090 Clear 15 1015 72 10000 2.1 140 07:48 20.03.2020
1091 Clear 15 1015 72 10000 2.1 140 07:26 20.03.2020
1092 Clear 16 1015 67 10000 2.6 160 06:51 20.03.2020
1093 Clear 16 1015 67 10000 2.6 160 06:32 20.03.2020
1094 Clear 18 1016 59 10000 2.6 150 04:51 20.03.2020
1095 Clear 19 1016 55 10000 3.1 140 03:20 20.03.2020
1096 Clear 22 1016 43 10000 4.6 200 01:57 20.03.2020
1097 Clear 24 1017 38 10000 2.6 240 00:51 20.03.2020
1098 Clear 24 1017 38 10000 2.6 240 00:29 20.03.2020
1099 Clear 26 1017 30 10000 3.1 240 23:47 19.03.2020
1100 Clear 26 1017 30 10000 3.1 240 23:26 19.03.2020
1101 Clear 27 1016 26 10000 3.6 240 22:56 19.03.2020
1102 Clear 27 1016 26 10000 3.6 240 22:38 19.03.2020
1103 Clear 28 1016 26 10000 3.6 240 22:19 19.03.2020
1104 Clear 28 1016 23 10000 3.6 220 21:42 19.03.2020
1105 Clear 28 1016 23 10000 3.6 220 21:20 19.03.2020
1106 Clear 28 1017 23 10000 2.1 200 20:59 19.03.2020
1107 Clear 29 1017 23 10000 2.1 200 20:41 19.03.2020
1108 Clear 29 1017 23 10000 2.1 200 20:22 19.03.2020
1109 Clear 28 1018 28 10000 2.6 260 19:55 19.03.2020
1110 Clear 28 1018 28 10000 2.6 260 19:37 19.03.2020
1111 Clear 28 1018 28 10000 2.6 260 19:19 19.03.2020
1112 Clear 27 1018 29 10000 1.5 250 18:42 19.03.2020
1113 Clear 26 1018 29 10000 1.5 250 18:22 19.03.2020
1114 Clear 26 1018 29 10000 1.5 250 17:58 19.03.2020
1115 Clear 25 1019 36 10000 1.5 210 17:40 19.03.2020
1116 Clear 24 1018 36 10000 1.5 0 17:19 19.03.2020
1117 Clear 23 1019 40 10000 2.1 240 16:43 19.03.2020
1118 Clear 23 1019 40 10000 2.1 240 16:23 19.03.2020
1119 Clear 21 1019 45 10000 2.87 264 15:45 19.03.2020
1120 Clear 21 1019 45 10000 2.87 264 15:27 19.03.2020
1121 Clear 16 1019 59 10000 2.87 264 14:55 19.03.2020
1122 Clear 18 1019 59 10000 2.87 264 14:37 19.03.2020
1123 Clear 16 1019 59 10000 0.52 236 14:19 19.03.2020
1124 Clear 16 1019 59 10000 0.52 236 14:19 19.03.2020
1125 Clear 12 1019 76 10000 0.52 236 13:40 19.03.2020
1126 Clear 12 1019 76 10000 0.73 276 13:19 19.03.2020
1127 Clear 15 1019 62 10000 0.73 276 12:55 19.03.2020
1128 Clear 14 1019 62 10000 0.73 276 12:37 19.03.2020
1129 Clear 14 1019 62 10000 0.73 276 12:18 19.03.2020
1130 Clear 13 1017 76 10000 1.5 180 11:41 19.03.2020
1131 Clear 14 1017 76 10000 2.1 140 11:23 19.03.2020
1132 Clear 14 1017 76 10000 2.1 140 10:56 19.03.2020
1133 Clear 14 1017 76 10000 2.1 140 10:36 19.03.2020
1134 Clear 14 1017 76 10000 2.1 140 10:18 19.03.2020
1135 Clear 13 1017 82 10000 2.6 160 09:44 19.03.2020
1136 Clear 13 1017 82 10000 2.6 160 09:25 19.03.2020
1137 Clear 13 1017 82 10000 3.1 150 08:48 19.03.2020
1138 Clear 13 1017 82 10000 3.1 150 08:23 19.03.2020
1139 Clear 13 1017 82 10000 3.1 150 08:23 19.03.2020
1140 Clear 15 1017 72 10000 2.6 160 07:59 19.03.2020
1141 Clear 15 1017 72 10000 2.6 160 07:38 19.03.2020
1142 Clear 15 1017 72 10000 2.6 160 07:19 19.03.2020
1143 Clear 16 1017 67 10000 2.6 160 06:27 19.03.2020
1144 Clear 16 1017 63 10000 3.1 170 05:25 19.03.2020
1145 Clear 18 1017 55 10000 4.1 150 04:47 19.03.2020
1146 Clear 19 1017 52 10000 4.1 150 03:55 19.03.2020
1147 Clear 22 1017 37 10000 6.7 200 01:58 19.03.2020
1148 Clear 23 1018 35 10000 2.1 240 00:53 19.03.2020
1149 Clear 25 1017 31 10000 3.1 260 00:19 19.03.2020
1150 Clear 25 1017 31 10000 3.1 260 23:43 18.03.2020
1151 Clear 25 1017 31 10000 3.1 260 23:23 18.03.2020
1152 Clear 26 1017 26 10000 4.1 230 22:43 18.03.2020
1153 Clear 27 1017 26 10000 4.1 230 22:23 18.03.2020
1154 Clear 27 1017 26 10000 4.1 230 21:57 18.03.2020
1155 Clear 27 1017 26 10000 4.1 230 21:39 18.03.2020
1156 Clear 28 1017 26 10000 4.1 230 21:20 18.03.2020
1157 Clear 28 1017 24 10000 4.1 240 20:55 18.03.2020
1158 Clear 28 1017 24 10000 4.1 240 20:37 18.03.2020
1159 Clear 28 1017 24 10000 4.1 240 20:19 18.03.2020
1160 Clear 28 1017 26 10000 2.6 260 19:41 18.03.2020
1161 Clear 28 1017 26 10000 2.6 260 19:21 18.03.2020
1162 Clear 28 1017 26 10000 2.6 260 19:21 18.03.2020
1163 Clear 27 1018 31 10000 2.1 210 18:58 18.03.2020
1164 Clear 27 1018 31 10000 2.1 210 18:58 18.03.2020
1165 Clear 27 1018 31 10000 2.1 210 18:39 18.03.2020
1166 Clear 27 1018 31 10000 2.1 210 18:19 18.03.2020
1167 Clear 26 1018 31 10000 2.1 210 17:55 18.03.2020
1168 Clear 26 1018 38 10000 1.5 0 17:37 18.03.2020
1169 Clear 22 1018 43 10000 2.1 210 17:19 18.03.2020
1170 Clear 24 1018 43 10000 2.1 210 16:42 18.03.2020
1171 Clear 22 1018 43 10000 2.1 210 16:21 18.03.2020
1172 Clear 20 1018 45 10000 1.5 220 15:57 18.03.2020
1173 Clear 22 1018 45 10000 1.5 220 15:38 18.03.2020
1174 Clear 20 1018 45 10000 1.5 220 15:20 18.03.2020
1175 Clear 17 1018 55 10000 2.79 263 14:42 18.03.2020
1176 Clear 17 1018 55 10000 2.79 263 14:21 18.03.2020
1177 Clear 13 1018 76 10000 0.5 268 13:42 18.03.2020
1178 Clear 13 1018 76 10000 0.53 264 13:19 18.03.2020
1179 Clear 15 1017 71 8000 2.1 20 12:55 18.03.2020
1180 Clear 15 1017 63 10000 0.53 264 12:37 18.03.2020
1181 Clear 12 1016 76 8000 1.5 330 12:18 18.03.2020
1182 Clear 14 1016 76 10000 0.5 0 11:38 18.03.2020
1183 Clear 13 1016 71 10000 1 0 11:19 18.03.2020
1184 Clear 13 1016 71 10000 1 0 10:57 18.03.2020
1185 Clear 13 1016 71 10000 1 0 10:37 18.03.2020
1186 Clear 13 1016 71 10000 1 0 10:19 18.03.2020
1187 Clear 14 1015 71 10000 0.24 268 09:42 18.03.2020
1188 Clear 14 1015 71 10000 0.24 268 09:23 18.03.2020
1189 Clear 15 1015 72 10000 1.5 160 08:55 18.03.2020
1190 Clear 15 1015 72 10000 1.5 160 08:37 18.03.2020
1191 Clear 15 1015 72 10000 1.5 160 08:19 18.03.2020
1192 Clear 16 1016 63 10000 2.1 180 07:41 18.03.2020
1193 Clear 16 1016 63 10000 2.1 180 07:23 18.03.2020
1194 Clear 17 1016 59 10000 2.1 150 06:43 18.03.2020
1195 Clear 17 1016 59 10000 2.1 150 05:56 18.03.2020
1196 Clear 17 1016 59 10000 2.6 160 05:33 18.03.2020
1197 Clear 19 1016 52 10000 2.6 130 03:56 18.03.2020
1198 Clear 21 1016 43 10000 5.7 190 02:40 18.03.2020
1199 Clear 22 1015 40 10000 6.2 210 01:46 18.03.2020
1200 Clear 23 1017 40 10000 3.1 240 01:21 18.03.2020
1201 Clear 23 1017 40 10000 3.1 240 00:23 18.03.2020
1202 Clear 25 1017 31 10000 3.6 240 23:47 17.03.2020
1203 Clear 25 1017 31 10000 3.6 240 23:26 17.03.2020
1204 Clear 26 1016 30 10000 3.1 200 22:47 17.03.2020
1205 Clear 26 1016 30 10000 3.1 200 22:29 17.03.2020
1206 Clear 27 1016 30 10000 3.6 240 21:59 17.03.2020
1207 Clear 27 1016 30 10000 3.6 240 21:37 17.03.2020
1208 Clear 27 1016 30 10000 3.6 240 21:19 17.03.2020
1209 Clear 27 1017 29 10000 3.1 220 20:38 17.03.2020
1210 Clear 27 1017 29 10000 3.1 220 20:20 17.03.2020
1211 Clear 26 1017 36 10000 3.1 210 19:54 17.03.2020
1212 Clear 26 1017 36 10000 3.1 210 19:36 17.03.2020
1213 Clear 25 1016 34 10000 5.1 170 19:18 17.03.2020
1214 Clear 26 1016 34 10000 5.1 170 18:54 17.03.2020
1215 Clear 25 1018 36 8000 2.1 280 18:36 17.03.2020
1216 Clear 24 1016 41 10000 4.1 170 18:18 17.03.2020
1217 Clear 24 1016 41 10000 4.1 170 18:18 17.03.2020
1218 Clear 23 1018 46 8000 2.1 190 17:40 17.03.2020
1219 Clear 23 1018 46 8000 2.1 190 17:20 17.03.2020
1220 Clear 22 1018 56 10000 2.6 200 16:44 17.03.2020
1221 Clear 20 1019 55 10000 1 330 16:20 17.03.2020
1222 Clear 19 1019 55 10000 1 330 15:56 17.03.2020
1223 Clear 19 1019 55 10000 1 330 15:56 17.03.2020
1224 Clear 19 1019 55 10000 1 330 15:38 17.03.2020
1225 Clear 17 1018 67 10000 2.1 210 15:18 17.03.2020
1226 Clear 16 1018 67 10000 2.92 258 14:41 17.03.2020
1227 Clear 16 1018 67 10000 0.65 289 14:18 17.03.2020
1228 Clear 13 1018 82 10000 0.65 289 13:43 17.03.2020
1229 Clear 13 1018 82 10000 0.87 275 13:24 17.03.2020
1230 Clear 14 1017 87 6000 2.1 350 12:54 17.03.2020
1231 Clear 13 1017 87 6000 2.1 350 12:36 17.03.2020
1232 Clear 12 1017 87 7000 1.5 310 12:18 17.03.2020
1233 Clear 11 1017 87 7000 1.5 310 11:42 17.03.2020
1234 Clear 12 1017 87 7000 1.5 310 11:24 17.03.2020
1235 Clear 12 1016 87 10000 1.5 150 10:56 17.03.2020
1236 Clear 12 1016 87 10000 1.5 150 10:37 17.03.2020
1237 Clear 12 1016 87 10000 1.5 150 10:18 17.03.2020
1238 Clear 12 1016 87 10000 2.6 210 09:46 17.03.2020
1239 Clear 12 1016 87 10000 2.6 210 09:20 17.03.2020
1240 Clear 13 1016 82 10000 3.1 170 08:58 17.03.2020
1241 Clear 13 1016 82 10000 3.1 170 08:40 17.03.2020
1242 Clear 13 1016 82 10000 3.1 170 08:18 17.03.2020
1243 Clear 13 1016 82 10000 3.6 160 07:49 17.03.2020
1244 Clear 13 1016 82 10000 3.6 160 07:21 17.03.2020
1245 Clear 13 1016 82 10000 3.6 160 06:49 17.03.2020
1246 Clear 13 1016 87 10000 4.1 160 06:25 17.03.2020
1247 Clear 15 1016 77 10000 4.1 150 05:26 17.03.2020
1248 Clear 16 1016 67 10000 5.7 150 03:34 17.03.2020
1249 Clear 17 1015 63 10000 5.1 150 02:31 17.03.2020
1250 Clear 18 1014 59 10000 4.6 160 01:38 17.03.2020
1251 Clear 21 1015 49 10000 2.6 240 00:53 17.03.2020
1252 Clear 21 1013 52 10000 6.2 210 00:18 17.03.2020
1253 Clear 23 1014 36 10000 3.6 250 23:34 16.03.2020
1254 Clear 24 1014 31 10000 4.6 260 22:58 16.03.2020
1255 Clear 25 1014 31 10000 4.6 260 22:38 16.03.2020
1256 Clear 25 1014 31 10000 4.6 260 22:19 16.03.2020
1257 Clear 26 1014 29 10000 3.1 230 21:44 16.03.2020
1258 Clear 26 1014 29 10000 3.1 230 21:25 16.03.2020
1259 Clear 26 1014 29 10000 3.6 210 20:58 16.03.2020
1260 Clear 27 1014 29 10000 3.6 210 20:39 16.03.2020
1261 Clear 26 1014 29 10000 3.6 210 20:20 16.03.2020
1262 Clear 27 1014 31 10000 4.1 230 19:46 16.03.2020
1263 Clear 26 1014 31 10000 4.1 230 19:23 16.03.2020
1264 Clear 27 1013 31 10000 6.2 200 18:57 16.03.2020
1265 Clear 27 1014 34 10000 2.6 220 18:39 16.03.2020
1266 Clear 27 1014 34 10000 2.6 220 18:19 16.03.2020
1267 Clear 25 1015 31 10000 2.6 280 17:46 16.03.2020
1268 Clear 25 1015 31 10000 2.6 280 17:25 16.03.2020
1269 Clear 24 1015 35 10000 1.5 230 16:54 16.03.2020
1270 Clear 24 1015 35 10000 1.5 230 16:36 16.03.2020
1271 Clear 22 1015 35 10000 1.5 230 16:18 16.03.2020
1272 Clear 22 1015 40 10000 1 250 15:42 16.03.2020
1273 Clear 22 1015 40 10000 1 250 15:22 16.03.2020
1274 Clear 17 1013 51 10000 2.6 190 14:45 16.03.2020
1275 Clear 16 1013 51 10000 2.6 190 14:20 16.03.2020
1276 Clear 14 1014 67 10000 0.85 278 13:45 16.03.2020
1277 Clear 14 1014 67 10000 0.94 276 13:26 16.03.2020
1278 Clear 16 1013 55 10000 0.94 276 12:57 16.03.2020
1279 Clear 16 1013 55 10000 0.94 276 12:38 16.03.2020
1280 Clear 16 1013 55 10000 0.94 276 12:19 16.03.2020
1281 Clear 15 1012 62 10000 2.1 160 11:42 16.03.2020
1282 Clear 14 1012 62 10000 2.1 160 11:23 16.03.2020
1283 Clear 16 1012 55 10000 2.1 140 10:43 16.03.2020
1284 Clear 16 1012 55 10000 2.1 140 10:24 16.03.2020
1285 Clear 16 1012 51 10000 3.1 160 09:49 16.03.2020
1286 Clear 16 1012 51 10000 3.1 160 09:30 16.03.2020
1287 Clear 16 1013 51 10000 2.6 150 08:59 16.03.2020
1288 Clear 16 1013 51 10000 2.6 150 08:36 16.03.2020
1289 Clear 16 1013 51 10000 2.6 150 08:18 16.03.2020
1290 Clear 16 1013 51 10000 3.1 170 07:40 16.03.2020
1291 Clear 16 1013 51 10000 3.1 170 07:18 16.03.2020
1292 Clear 18 1013 45 10000 2.6 170 06:28 16.03.2020
1293 Clear 18 1013 45 10000 2.6 170 05:54 16.03.2020
1294 Clear 21 1013 37 10000 4.6 140 03:36 16.03.2020
1295 Clear 25 1013 29 10000 5.1 170 01:44 16.03.2020
1296 Clear 26 1015 27 10000 3.1 230 00:43 16.03.2020
1297 Clear 28 1014 25 10000 3.6 240 23:56 15.03.2020
1298 Clear 28 1014 25 10000 3.6 240 23:37 15.03.2020
1299 Clear 28 1014 25 10000 3.6 240 23:18 15.03.2020
1300 Clear 30 1014 22 10000 3.6 240 22:41 15.03.2020
1301 Clear 30 1014 22 10000 3.6 240 22:20 15.03.2020
1302 Clear 31 1014 25 10000 4.1 230 21:39 15.03.2020
1303 Clear 31 1014 25 10000 4.1 230 21:21 15.03.2020
1304 Clear 31 1014 25 10000 3.1 230 20:55 15.03.2020
1305 Clear 31 1014 25 10000 3.1 230 20:36 15.03.2020
1306 Clear 31 1014 25 10000 3.1 230 20:18 15.03.2020
1307 Clear 31 1015 25 10000 2.6 0 19:42 15.03.2020
1308 Clear 31 1015 25 10000 2.6 0 19:24 15.03.2020
1309 Clear 29 1015 30 10000 2.1 220 18:59 15.03.2020
1310 Clear 29 1015 30 10000 2.1 220 18:40 15.03.2020
1311 Clear 29 1015 30 10000 2.1 220 18:22 15.03.2020
1312 Clear 28 1016 32 10000 2.1 200 17:57 15.03.2020
1313 Clear 28 1016 32 10000 2.1 200 17:38 15.03.2020
1314 Clear 27 1016 38 10000 2.76 261 17:18 15.03.2020
1315 Clear 26 1016 38 10000 2.76 261 16:43 15.03.2020
1316 Clear 26 1016 38 10000 2.76 261 16:25 15.03.2020
1317 Clear 23 1016 38 10000 1 310 15:58 15.03.2020
1318 Clear 23 1016 38 10000 1 310 15:40 15.03.2020
1319 Clear 23 1016 38 10000 1 310 15:19 15.03.2020
1320 Clear 19 1016 48 10000 2.76 261 14:46 15.03.2020
1321 Clear 19 1016 48 10000 0.52 287 14:24 15.03.2020
1322 Clear 15 1016 67 10000 0.52 287 13:58 15.03.2020
1323 Clear 15 1016 67 10000 0.52 287 13:38 15.03.2020
1324 Clear 15 1016 67 10000 0.52 287 13:38 15.03.2020
1325 Clear 15 1016 67 10000 0.46 302 13:20 15.03.2020
1326 Clear 16 1016 71 10000 1.5 60 12:44 15.03.2020
1327 Clear 15 1016 71 10000 1.5 60 12:25 15.03.2020
1328 Clear 15 1015 62 10000 1.5 20 11:56 15.03.2020
1329 Clear 15 1015 62 10000 1.5 20 11:38 15.03.2020
1330 Clear 14 1015 62 10000 1.5 20 11:20 15.03.2020
1331 Clear 15 1015 62 10000 1.5 310 10:55 15.03.2020
1332 Clear 15 1015 62 10000 1.5 310 10:36 15.03.2020
1333 Clear 15 1015 62 10000 1.5 310 10:18 15.03.2020
1334 Clear 17 1015 55 10000 1.5 270 09:39 15.03.2020
1335 -273 0 0 0 0 0 09:21 15.03.2020
1336 Clear 17 1015 51 10000 1.5 220 08:42 15.03.2020
1337 Clear 17 1015 51 10000 1.5 220 08:20 15.03.2020
1338 Clear 19 1015 45 10000 2.1 180 07:51 15.03.2020
1339 Clear 19 1015 45 10000 2.1 180 07:29 15.03.2020
1340 Clear 19 1015 45 10000 0.24 298 06:49 15.03.2020
1341 Clear 20 1015 42 10000 1.5 190 05:50 15.03.2020
1342 Clear 20 1015 42 10000 1.5 190 05:18 15.03.2020
1343 Clear 21 1015 40 10000 3.1 160 04:43 15.03.2020
1344 Clear 21 1015 40 10000 3.1 160 04:24 15.03.2020
1345 Clear 22 1015 37 10000 3.6 150 03:38 15.03.2020
1346 Clear 23 1015 38 10000 3.1 150 02:37 15.03.2020
1347 Clear 24 1014 33 10000 6.7 200 01:34 15.03.2020
1348 Clear 26 1016 36 10000 2.6 250 00:46 15.03.2020
1349 Clear 26 1016 36 10000 2.6 250 00:24 15.03.2020
1350 Clear 28 1015 30 10000 3.1 250 23:55 14.03.2020
1351 Clear 28 1015 30 10000 3.1 250 23:36 14.03.2020
1352 Clear 28 1015 30 10000 3.1 250 23:18 14.03.2020
1353 Clear 30 1015 30 10000 3.6 250 22:41 14.03.2020
1354 Clear 30 1015 30 10000 3.6 250 22:23 14.03.2020
1355 Clear 30 1015 30 10000 4.1 240 21:56 14.03.2020
1356 Clear 30 1015 30 10000 4.1 240 21:36 14.03.2020
1357 Clear 30 1015 30 10000 4.1 240 21:36 14.03.2020
1358 Clear 30 1015 30 10000 4.1 240 21:18 14.03.2020
1359 Clear 30 1015 30 10000 2.6 0 20:58 14.03.2020
1360 Clear 30 1015 30 10000 2.6 0 20:40 14.03.2020
1361 Clouds 30 1015 30 10000 2.6 0 20:19 14.03.2020
1362 Clouds 29 1016 34 10000 2.6 0 19:43 14.03.2020
1363 Clouds 29 1016 34 10000 2.6 0 19:25 14.03.2020
1364 Clouds 28 1017 36 10000 2.6 0 18:42 14.03.2020
1365 Clouds 28 1017 36 10000 2.6 0 18:23 14.03.2020
1366 Clouds 27 1017 36 10000 2.6 0 17:56 14.03.2020
1367 Clouds 26 1017 41 10000 2.1 270 17:38 14.03.2020
1368 Clouds 23 1017 49 10000 2.1 170 17:20 14.03.2020
1369 Clouds 24 1017 49 10000 2.1 170 16:41 14.03.2020
1370 Clouds 23 1017 49 10000 2.1 170 16:23 14.03.2020
1371 Clouds 21 1017 52 10000 3.05 259 15:58 14.03.2020
1372 Clouds 21 1017 52 10000 3.05 259 15:27 14.03.2020
1373 Clouds 18 1018 63 10000 3.05 259 14:58 14.03.2020
1374 Clouds 18 1018 63 10000 3.05 259 14:36 14.03.2020
1375 Clouds 18 1018 63 10000 1.03 284 14:18 14.03.2020
1376 Clouds 15 1018 77 10000 1.03 284 13:42 14.03.2020
1377 Clouds 15 1018 77 10000 1.14 297 13:23 14.03.2020
1378 Clouds 14 1017 82 10000 1.14 297 12:47 14.03.2020
1379 Clouds 15 1017 82 10000 1.14 297 12:27 14.03.2020
1380 Clouds 14 1017 82 10000 1.14 297 11:59 14.03.2020
1381 Clouds 15 1016 72 8000 1.5 20 11:39 14.03.2020
1382 Clouds 15 1016 72 8000 1.5 20 11:20 14.03.2020
1383 Clouds 16 1016 72 8000 1 0 10:46 14.03.2020
1384 Clouds 16 1016 72 8000 1 0 10:27 14.03.2020
1385 Clouds 16 1015 72 10000 1.5 10 09:58 14.03.2020
1386 Clouds 16 1015 72 10000 1.5 10 09:39 14.03.2020
1387 Clouds 16 1015 72 10000 1.5 10 09:20 14.03.2020
1388 Clouds 16 1015 72 10000 0.57 292 08:45 14.03.2020
1389 Clouds 16 1015 72 10000 0.57 292 08:45 14.03.2020
1390 Clouds 16 1015 72 10000 0.57 294 08:23 14.03.2020
1391 Clouds 17 1016 72 10000 1.5 280 07:39 14.03.2020
1392 Clouds 17 1016 72 10000 1.5 280 07:39 14.03.2020
1393 Clouds 17 1016 72 10000 1.5 280 07:20 14.03.2020
1394 Clouds 19 1016 59 10000 3.1 170 06:41 14.03.2020
1395 Clouds 19 1016 59 10000 3.1 170 05:56 14.03.2020
1396 Clear 20 1016 60 10000 3.6 170 04:52 14.03.2020
1397 Clear 21 1017 56 10000 3.6 150 03:25 14.03.2020
1398 Clear 23 1017 46 10000 6.2 190 02:35 14.03.2020
1399 Clear 23 1017 46 10000 6.2 190 02:35 14.03.2020
1400 Clear 24 1016 44 10000 6.7 210 01:39 14.03.2020
1401 Clear 25 1017 41 10000 3.1 250 00:22 14.03.2020
1402 Clear 27 1017 36 10000 2.1 240 23:38 13.03.2020
1403 Clear 27 1017 36 10000 2.1 240 23:38 13.03.2020
1404 Clear 27 1017 36 10000 2.1 240 23:18 13.03.2020
1405 Clear 28 1017 34 10000 2.6 210 22:41 13.03.2020
1406 Clear 28 1017 34 10000 2.6 210 22:20 13.03.2020
1407 Clear 28 1017 37 8000 3.6 210 21:40 13.03.2020
1408 Clear 28 1017 37 8000 3.6 210 21:18 13.03.2020
1409 Clear 27 1018 39 8000 4.1 0 20:42 13.03.2020
1410 Clear 28 1018 39 8000 4.1 0 20:22 13.03.2020
1411 Clear 28 1018 39 10000 3.1 250 19:55 13.03.2020
1412 Clear 28 1018 39 10000 3.1 250 19:36 13.03.2020
1413 Clear 27 1018 39 10000 3.1 250 19:18 13.03.2020
1414 Clear 27 1018 39 10000 3.1 250 18:39 13.03.2020
1415 Clear 26 1018 39 10000 3.1 250 18:21 13.03.2020
1416 Clear 25 1018 47 10000 2.1 300 17:42 13.03.2020
1417 Clear 25 1018 47 10000 2.1 300 17:21 13.03.2020
1418 Clear 24 1019 53 10000 3.13 256 16:56 13.03.2020
1419 Clear 23 1019 53 10000 3.13 256 16:38 13.03.2020
1420 Clear 22 1019 53 10000 3.13 256 16:19 13.03.2020
1421 Clear 21 1019 56 10000 1.5 0 15:42 13.03.2020
1422 Clear 20 1019 56 10000 1.5 0 15:21 13.03.2020
1423 Clear 18 1018 68 10000 2.1 220 14:55 13.03.2020
1424 Clear 19 1018 68 10000 2.1 220 14:36 13.03.2020
1425 Clear 18 1018 68 10000 2.1 220 14:18 13.03.2020
1426 Clear 15 1017 77 10000 1.42 254 13:42 13.03.2020
1427 Clear 15 1017 77 10000 1.45 252 13:21 13.03.2020
1428 Clear 17 1017 67 10000 1.45 252 12:57 13.03.2020
1429 Clear 16 1017 67 10000 1.45 252 12:38 13.03.2020
1430 Clear 16 1017 67 10000 1.45 252 12:19 13.03.2020
1431 Clear 16 1015 82 10000 1 0 11:46 13.03.2020
1432 Clear 15 1015 82 10000 1 0 11:26 13.03.2020
1433 Clear 15 1015 82 10000 2.6 160 10:59 13.03.2020
1434 Clear 15 1015 82 10000 2.6 160 10:41 13.03.2020
1435 Clear 15 1015 82 10000 2.6 160 10:23 13.03.2020
1436 Clear 15 1014 82 10000 3.1 150 09:45 13.03.2020
1437 Clear 15 1014 82 10000 3.1 150 09:26 13.03.2020
1438 Clear 16 1014 77 10000 2.6 160 08:48 13.03.2020
1439 Clear 16 1014 77 10000 2.6 160 08:48 13.03.2020
1440 Clear 16 1014 77 10000 2.6 160 08:24 13.03.2020
1441 Clear 16 1014 77 10000 2.6 170 07:59 13.03.2020
1442 Clear 16 1014 77 10000 2.6 170 07:38 13.03.2020
1443 Clear 16 1014 77 10000 2.6 170 07:20 13.03.2020
1444 Clear 16 1014 61 0 1.05 257 06:45 13.03.2020
1445 Clear 18 1014 68 10000 3.1 150 06:20 13.03.2020
1446 Clear 18 1014 68 10000 3.1 150 05:43 13.03.2020
1447 Clear 19 1014 63 10000 3.6 160 04:39 13.03.2020
1448 Clear 20 1014 60 10000 4.1 140 03:50 13.03.2020
1449 Clear 23 1013 49 10000 5.7 200 01:49 13.03.2020
1450 Clear 23 1013 49 10000 5.7 200 01:19 13.03.2020
1451 Clear 24 1014 41 10000 2.6 230 00:56 13.03.2020
1452 Clear 25 1014 41 10000 2.6 230 00:38 13.03.2020
1453 Clear 25 1014 41 10000 2.6 230 00:18 13.03.2020
1454 Clear 26 1013 34 10000 3.1 240 23:37 12.03.2020
1455 Clear 26 1013 34 10000 3.1 240 23:18 12.03.2020
1456 Clear 27 1013 32 10000 4.6 240 22:44 12.03.2020
1457 Clear 28 1013 32 10000 4.6 240 22:25 12.03.2020
1458 Clear 28 1013 27 10000 3.6 220 21:55 12.03.2020
1459 Clear 29 1013 27 10000 3.6 220 21:36 12.03.2020
1460 Clear 29 1013 27 10000 3.6 220 21:18 12.03.2020
1461 Clear 28 1014 30 10000 4.1 230 20:42 12.03.2020
1462 Clear 28 1014 30 10000 4.1 230 20:20 12.03.2020
1463 Clear 28 1014 30 10000 3.6 250 19:42 12.03.2020
1464 Clear 28 1014 30 10000 3.6 250 19:21 12.03.2020
1465 Clear 27 1014 34 10000 3.1 240 18:45 12.03.2020
1466 Clear 27 1014 34 10000 3.1 240 18:25 12.03.2020
1467 Clear 27 1013 44 10000 4.1 180 17:58 12.03.2020
1468 Clear 26 1013 44 10000 4.1 180 17:40 12.03.2020
1469 Clear 25 1013 44 10000 4.1 180 17:22 12.03.2020
1470 Clear 25 1015 41 10000 1.5 230 16:58 12.03.2020
1471 Clear 24 1015 41 10000 1.5 230 16:39 12.03.2020
1472 Clear 23 1015 41 10000 1.5 230 16:20 12.03.2020
1473 Clear 23 1015 46 10000 1 270 15:47 12.03.2020
1474 Clear 23 1015 46 10000 1 270 15:27 12.03.2020
1475 Clear 21 1014 59 10000 2.6 210 14:54 12.03.2020
1476 Clear 21 1014 59 10000 2.6 210 14:54 12.03.2020
1477 Clear 21 1014 59 10000 2.6 210 14:36 12.03.2020
1478 Clear 19 1014 59 10000 2.6 210 14:18 12.03.2020
1479 Clear 17 1014 77 10000 0.84 271 13:38 12.03.2020
1480 Clouds 15 1014 77 10000 1.08 263 13:20 12.03.2020
1481 Clouds 16 1014 77 10000 1.08 263 12:43 12.03.2020
1482 Clouds 16 1014 77 10000 1.08 263 12:23 12.03.2020
1483 Clouds 15 1012 77 10000 2.6 150 11:59 12.03.2020
1484 Clouds 15 1012 77 10000 2.6 150 11:59 12.03.2020
1485 Clouds 16 1012 77 10000 2.6 150 11:39 12.03.2020
1486 Clouds 15 1012 77 10000 2.6 150 11:21 12.03.2020
1487 Clouds 15 1012 77 10000 2.6 150 11:21 12.03.2020
1488 Clouds 16 1012 72 10000 2.1 170 10:59 12.03.2020
1489 Clouds 17 1013 43 0 0.44 281 10:41 12.03.2020
1490 -273 0 0 0 0 0 10:22 12.03.2020
1491 Clouds 17 1013 43 0 0.44 281 10:22 12.03.2020
1492 Clouds 17 1013 43 0 0.44 281 09:49 12.03.2020
1493 Clouds 17 1013 43 0 0.44 281 09:29 12.03.2020
1494 Clouds 17 1013 43 0 0.44 281 08:55 12.03.2020
1495 Clouds 17 1013 43 0 0.44 281 08:37 12.03.2020
1496 Clouds 17 1014 46 0 0.27 323 08:18 12.03.2020
1497 Clouds 17 1014 46 0 0.27 323 07:47 12.03.2020
1498 Clouds 17 1014 46 0 0.27 323 07:21 12.03.2020
1499 Clouds 19 1012 55 10000 4.1 160 06:18 12.03.2020
1500 Clouds 19 1012 55 10000 4.1 160 05:33 12.03.2020
1501 Clouds 24 1011 38 10000 4.1 140 02:54 12.03.2020
1502 Clouds 25 1011 36 10000 6.2 180 01:57 12.03.2020
1503 Clouds 25 1011 36 10000 6.2 180 01:21 12.03.2020
1504 Clouds 26 1012 36 10000 2.1 250 00:42 12.03.2020
1505 Clouds 27 1010 36 10000 8.2 210 23:57 11.03.2020
1506 Clouds 27 1012 32 10000 3.6 230 23:28 11.03.2020
1507 Clouds 28 1012 25 10000 3.6 250 22:59 11.03.2020
1508 Clouds 29 1012 25 10000 3.6 250 22:39 11.03.2020
1509 Clouds 29 1012 25 10000 3.6 250 22:21 11.03.2020
1510 Clouds 30 1012 19 10000 2.6 240 21:56 11.03.2020
1511 Clouds 30 1012 19 10000 2.6 240 21:37 11.03.2020
1512 Clouds 30 1012 19 10000 2.6 240 21:37 11.03.2020
1513 Clouds 30 1012 19 10000 2.6 240 21:19 11.03.2020
1514 Clouds 30 1012 20 10000 2.6 210 20:56 11.03.2020
1515 Clouds 30 1012 20 10000 2.6 210 20:36 11.03.2020
1516 Clouds 30 1012 20 10000 2.6 210 20:18 11.03.2020
1517 Clouds 29 1013 22 10000 2.6 0 19:42 11.03.2020
1518 Clouds 29 1013 22 10000 2.6 0 19:24 11.03.2020
1519 Clouds 29 1013 26 10000 2.1 240 18:56 11.03.2020
1520 Clouds 29 1013 26 10000 2.1 240 18:37 11.03.2020
1521 Clouds 29 1013 26 10000 2.1 240 18:18 11.03.2020
1522 Clouds 28 1014 28 10000 2.6 210 17:54 11.03.2020
1523 Clouds 28 1014 28 10000 2.6 210 17:36 11.03.2020
1524 Clear 28 1014 32 10000 1.5 170 17:18 11.03.2020
1525 Clear 27 1014 32 10000 1.5 170 16:41 11.03.2020
1526 Clear 27 1014 32 10000 1.5 170 16:19 11.03.2020
1527 Clear 25 1015 41 10000 1.5 160 15:43 11.03.2020
1528 Clear 25 1015 41 10000 1.5 160 15:23 11.03.2020
1529 Clear 21 1014 49 10000 2.1 170 14:46 11.03.2020
1530 Clear 21 1014 49 10000 2.1 170 14:24 11.03.2020
1531 Clouds 18 1014 59 10000 1.5 60 13:59 11.03.2020
1532 Clouds 18 1014 59 10000 1.5 60 13:40 11.03.2020
1533 Clouds 18 1014 59 10000 1.5 60 13:22 11.03.2020
1534 Clouds 16 1014 59 10000 0.75 292 12:56 11.03.2020
1535 Clouds 16 1014 59 10000 0.75 292 12:37 11.03.2020
1536 Clouds 17 1014 59 10000 0.75 292 12:18 11.03.2020
1537 Clouds 16 1013 67 8000 2.1 320 11:40 11.03.2020
1538 Clouds 15 1013 67 8000 2.1 320 11:20 11.03.2020
1539 Clouds 17 1013 63 10000 1.02 240 10:47 11.03.2020
1540 Clouds 17 1013 63 10000 1.02 240 10:20 11.03.2020
1541 Clouds 17 1012 63 10000 2.1 130 09:58 11.03.2020
1542 Clouds 17 1012 63 10000 2.1 130 09:38 11.03.2020
1543 Clouds 17 1012 63 10000 2.1 130 09:19 11.03.2020
1544 Clouds 17 1012 67 10000 1 0 08:42 11.03.2020
1545 Clouds 17 1012 67 10000 1 0 08:23 11.03.2020
1546 Clear 19 1013 59 10000 1.5 160 07:47 11.03.2020
1547 Clear 19 1013 59 10000 1.5 160 07:20 11.03.2020
1548 Clear 20 1013 56 10000 2.1 170 06:49 11.03.2020
1549 Clear 20 1013 56 10000 2.1 170 06:30 11.03.2020
1550 Clear 21 1013 52 10000 2.6 160 05:32 11.03.2020
1551 Clear 25 1013 38 10000 2.6 150 02:43 11.03.2020
1552 Clear 26 1012 39 10000 5.7 200 01:51 11.03.2020
1553 Clear 26 1012 39 10000 5.7 200 01:23 11.03.2020
1554 Clear 26 1014 34 10000 2.6 230 00:32 11.03.2020
1555 Clear 27 1012 34 10000 7.2 210 23:49 10.03.2020
1556 Clear 28 1014 28 10000 3.6 250 23:26 10.03.2020
1557 Clear 29 1014 23 10000 4.1 240 22:56 10.03.2020
1558 Clear 30 1014 23 10000 4.1 240 22:37 10.03.2020
1559 Clear 30 1014 23 10000 4.1 240 22:19 10.03.2020
1560 Clear 31 1014 19 10000 4.6 230 21:56 10.03.2020
1561 Clear 31 1014 19 10000 4.6 230 21:37 10.03.2020
1562 Clear 31 1014 19 10000 4.6 230 21:18 10.03.2020
1563 Clear 31 1015 19 10000 2.6 240 20:42 10.03.2020
1564 Clear 31 1015 19 10000 2.6 240 20:19 10.03.2020
1565 Clear 31 1015 22 10000 2.6 240 19:58 10.03.2020
1566 Clear 31 1015 22 10000 2.6 240 19:40 10.03.2020
1567 Clear 31 1015 22 10000 2.6 240 19:22 10.03.2020
1568 Clear 31 1015 22 10000 2.1 290 18:55 10.03.2020
1569 Clear 30 1015 22 10000 2.1 290 18:37 10.03.2020
1570 Clear 30 1015 22 10000 2.1 290 18:18 10.03.2020
1571 Clear 29 1016 26 10000 1.5 240 17:41 10.03.2020
1572 Clear 29 1016 26 10000 1.5 240 17:22 10.03.2020
1573 Clear 28 1016 30 10000 2.6 240 16:57 10.03.2020
1574 Clear 27 1016 30 10000 2.6 240 16:37 10.03.2020
1575 Clear 27 1016 30 10000 2.6 240 16:18 10.03.2020
1576 Clear 25 1016 33 10000 2.93 260 15:41 10.03.2020
1577 Clear 25 1016 33 10000 2.93 260 15:20 10.03.2020
1578 Clear 24 1016 43 10000 2.93 260 14:58 10.03.2020
1579 Clear 24 1016 43 10000 2.93 260 14:40 10.03.2020
1580 Clear 22 1016 43 10000 0.3 332 14:19 10.03.2020
1581 Clear 17 1016 59 10000 0.3 332 13:43 10.03.2020
1582 Clear 17 1016 59 10000 0.3 332 13:25 10.03.2020
1583 Clear 16 1015 55 10000 0.39 9 12:55 10.03.2020
1584 Clear 16 1015 55 10000 0.39 9 12:37 10.03.2020
1585 Clear 17 1015 55 10000 0.39 9 12:18 10.03.2020
1586 Clear 17 1014 59 10000 0.39 9 11:42 10.03.2020
1587 Clear 17 1014 59 10000 0.39 9 11:24 10.03.2020
1588 Clear 17 1014 59 10000 0.39 9 11:24 10.03.2020
1589 Clear 18 1013 52 10000 2.1 160 10:56 10.03.2020
1590 Clear 18 1013 52 10000 2.1 160 10:38 10.03.2020
1591 Clear 18 1013 52 10000 2.1 160 10:19 10.03.2020
1592 Clear 19 1013 45 10000 2.1 190 09:45 10.03.2020
1593 Clear 19 1013 45 10000 2.1 190 09:20 10.03.2020
1594 Clear 19 1013 45 10000 2.1 160 08:56 10.03.2020
1595 Clear 19 1013 45 10000 2.1 160 08:36 10.03.2020
1596 Clear 19 1013 45 10000 2.1 160 08:18 10.03.2020
1597 Clear 19 1013 45 10000 2.1 170 07:40 10.03.2020
1598 Clear 19 1013 45 10000 2.1 170 07:21 10.03.2020
1599 Clear 19 1013 45 10000 2.1 170 07:21 10.03.2020
1600 Clear 20 1013 42 10000 2.6 150 06:38 10.03.2020
1601 Clear 20 1013 42 10000 2.6 150 05:55 10.03.2020
1602 Clear 22 1013 33 10000 2.1 180 05:35 10.03.2020
1603 Clear 23 1014 31 10000 2.6 160 04:30 10.03.2020
1604 Clear 26 1013 27 10000 4.1 130 02:58 10.03.2020
1605 Clear 28 1013 24 10000 5.1 190 01:33 10.03.2020
1606 Clouds 28 1015 30 10000 2.6 240 00:51 10.03.2020
1607 Clouds 28 1015 30 10000 2.6 240 00:28 10.03.2020
1608 Clouds 29 1014 27 10000 4.1 240 23:43 09.03.2020
1609 Clouds 29 1014 27 10000 4.1 240 23:22 09.03.2020
1610 Clear 31 1015 22 10000 3.6 240 22:57 09.03.2020
1611 Clear 31 1015 22 10000 3.6 240 22:38 09.03.2020
1612 Clear 32 1015 22 10000 3.6 240 22:19 09.03.2020
1613 Clear 32 1015 24 10000 3.1 210 21:44 09.03.2020
1614 Clear 32 1015 24 10000 3.1 210 21:22 09.03.2020
1615 Clear 32 1015 24 10000 3.1 210 21:22 09.03.2020
1616 Clear 31 1015 25 10000 3.1 220 20:58 09.03.2020
1617 Clear 31 1015 25 10000 3.1 220 20:40 09.03.2020
1618 Clear 31 1015 25 10000 3.1 220 20:22 09.03.2020
1619 Clear 31 1016 27 10000 4.1 230 19:59 09.03.2020
1620 Clear 31 1016 27 10000 4.1 230 19:41 09.03.2020
1621 Clear 31 1016 27 10000 4.1 230 19:18 09.03.2020
1622 Clear 30 1016 27 10000 2.1 190 18:55 09.03.2020
1623 Clear 30 1016 27 10000 2.1 190 18:37 09.03.2020
1624 Clear 30 1016 27 10000 2.1 190 18:18 09.03.2020
1625 Clear 29 1017 32 10000 2.6 220 17:55 09.03.2020
1626 Clear 29 1017 32 10000 2.6 220 17:37 09.03.2020
1627 Clear 27 1017 36 10000 1.5 0 17:19 09.03.2020
1628 Clear 26 1017 36 10000 1.5 0 16:55 09.03.2020
1629 Clear 26 1014 36 0 2.84 268 16:36 09.03.2020
1630 Clear 25 1017 41 10000 1.5 280 16:18 09.03.2020
1631 Clear 25 1017 41 10000 1.5 280 15:55 09.03.2020
1632 Clear 25 1017 41 10000 1.5 280 15:55 09.03.2020
1633 Clear 25 1017 41 10000 1.5 280 15:36 09.03.2020
1634 Clear 24 1017 41 10000 1.5 280 15:18 09.03.2020
1635 Clear 23 1017 46 10000 2.84 268 14:39 09.03.2020
1636 Clear 22 1017 46 10000 0.77 264 14:20 09.03.2020
1637 Clear 18 1016 63 10000 0.77 264 13:58 09.03.2020
1638 Clear 18 1016 63 10000 0.77 264 13:39 09.03.2020
1639 Clear 18 1016 63 10000 0.86 284 13:20 09.03.2020
1640 Clear 18 1016 52 10000 1 60 12:58 09.03.2020
1641 Clear 18 1016 52 10000 1 60 12:39 09.03.2020
1642 Clear 18 1016 52 10000 1 60 12:18 09.03.2020
1643 Clear 16 1014 67 10000 1 290 11:40 09.03.2020
1644 Clear 16 1014 67 10000 1 290 11:20 09.03.2020
1645 Clear 18 1014 59 10000 1 0 10:57 09.03.2020
1646 Clear 18 1014 59 10000 1 0 10:39 09.03.2020
1647 Clear 18 1014 59 10000 1 0 10:18 09.03.2020
1648 Clear 18 1014 59 10000 1 0 09:42 09.03.2020
1649 Clear 18 1014 59 10000 1 0 09:24 09.03.2020
1650 Clear 18 1014 63 10000 2.1 150 08:47 09.03.2020
1651 Clear 18 1014 63 10000 2.1 150 08:28 09.03.2020
1652 Clouds 19 1014 59 10000 1 0 07:57 09.03.2020
1653 Clouds 19 1014 59 10000 1 0 07:37 09.03.2020
1654 Clouds 19 1014 59 10000 1 0 07:18 09.03.2020
1655 Clouds 20 1014 56 10000 1 300 06:39 09.03.2020
1656 Clouds 20 1014 56 10000 1 300 06:21 09.03.2020
1657 Clouds 22 1014 49 10000 1.5 140 05:42 09.03.2020
1658 Clouds 22 1014 49 10000 3.1 150 04:57 09.03.2020
1659 Clouds 22 1014 49 10000 3.1 150 04:39 09.03.2020
1660 Clouds 22 1014 49 10000 3.1 150 04:19 09.03.2020
1661 Clouds 24 1014 47 10000 5.7 200 02:51 09.03.2020
1662 Clouds 27 1012 39 10000 7.2 210 00:42 09.03.2020
1663 Clouds 27 1012 39 10000 7.2 210 00:24 09.03.2020
1664 Clouds 28 1012 32 10000 7.2 210 23:58 08.03.2020
1665 Clouds 28 1012 32 10000 7.2 210 23:58 08.03.2020
1666 Clouds 29 1012 32 10000 7.2 210 23:29 08.03.2020
1667 Clear 31 1014 29 10000 3.1 250 22:59 08.03.2020
1668 Clear 31 1014 29 10000 3.1 250 22:40 08.03.2020
1669 Clear 31 1014 29 10000 3.1 250 22:22 08.03.2020
1670 Clear 32 1014 25 10000 3.6 230 21:59 08.03.2020
1671 Clear 32 1014 25 10000 3.6 230 21:40 08.03.2020
1672 Clear 32 1014 25 10000 3.6 230 21:20 08.03.2020
1673 Clear 31 1015 27 10000 3.6 220 20:56 08.03.2020
1674 Clear 31 1015 27 10000 3.6 220 20:37 08.03.2020
1675 Clear 31 1015 27 10000 3.6 220 20:19 08.03.2020
1676 Clear 31 1015 27 10000 3.1 240 19:40 08.03.2020
1677 Clear 31 1015 27 10000 3.1 240 19:19 08.03.2020
1678 Clear 31 1015 23 10000 1.5 260 18:55 08.03.2020
1679 Clear 30 1015 23 10000 1.5 260 18:37 08.03.2020
1680 Clear 30 1015 23 10000 1.5 260 18:18 08.03.2020
1681 Clear 29 1014 34 10000 2.1 190 17:39 08.03.2020
1682 Clear 28 1014 34 10000 2.1 190 17:20 08.03.2020
1683 Clear 28 1014 34 10000 2.1 190 16:57 08.03.2020
1684 Clear 27 1016 39 10000 1 240 16:39 08.03.2020
1685 Clear 26 1016 39 10000 1 240 16:20 08.03.2020
1686 Clear 24 1016 46 10000 1 250 15:41 08.03.2020
1687 Clear 23 1016 46 10000 1 250 15:21 08.03.2020
1688 Clear 20 1016 52 10000 3 266 14:56 08.03.2020
1689 Clear 22 1016 52 10000 3 266 14:37 08.03.2020
1690 Clear 22 1016 52 10000 3 266 14:37 08.03.2020
1691 Clouds 20 1016 52 10000 0.87 264 14:19 08.03.2020
1692 Clouds 17 1016 72 10000 0.87 264 13:41 08.03.2020
1693 Clear 17 1016 72 10000 0.94 265 13:20 08.03.2020
1694 Clear 15 1015 87 10000 0.94 265 12:46 08.03.2020
1695 Clear 17 1015 87 10000 0.94 265 12:28 08.03.2020
1696 Clear 18 1013 77 10000 1.5 150 11:58 08.03.2020
1697 Clear 18 1013 77 10000 1.5 150 11:58 08.03.2020
1698 Clear 18 928 98 0 0.94 265 11:40 08.03.2020
1699 Clear 17 1013 77 10000 1.5 150 11:21 08.03.2020
1700 Clear 17 1013 77 10000 1.5 150 10:42 08.03.2020
1701 Clear 17 1013 77 10000 1.5 150 10:23 08.03.2020
1702 Clear 17 1013 77 10000 3.1 170 09:59 08.03.2020
1703 Clear 17 1013 77 10000 3.1 170 09:37 08.03.2020
1704 Clear 17 1013 77 10000 3.1 170 09:18 08.03.2020
1705 Clear 18 1013 72 10000 2.1 150 08:41 08.03.2020
1706 Clear 18 1013 72 10000 2.1 150 08:20 08.03.2020
1707 Clear 18 1013 72 10000 1.5 140 07:45 08.03.2020
1708 Clear 18 1013 72 10000 1.5 140 07:25 08.03.2020
1709 Clear 20 1013 64 10000 2.6 210 06:43 08.03.2020
1710 Clear 20 1013 64 10000 2.6 210 06:23 08.03.2020
1711 Clear 18 1013 50 0 0.45 284 05:41 08.03.2020
1712 Clear 22 1012 53 10000 4.6 140 03:52 08.03.2020
1713 Clear 24 1012 38 10000 3.6 170 02:38 08.03.2020
1714 Clear 25 1012 33 10000 6.2 200 01:34 08.03.2020
1715 Clear 26 1012 33 10000 6.2 200 00:55 08.03.2020
1716 Clear 28 1013 32 10000 4.1 240 00:28 08.03.2020
1717 Clear 28 1013 32 10000 4.1 240 23:47 07.03.2020
1718 Clear 29 1013 32 10000 4.1 240 23:24 07.03.2020
1719 Clear 29 1011 28 10000 8.7 210 22:55 07.03.2020
1720 Clear 30 1013 28 10000 4.1 240 22:36 07.03.2020
1721 Clear 30 1013 28 10000 4.1 240 22:18 07.03.2020
1722 Clear 31 1013 25 10000 3.1 220 21:43 07.03.2020
1723 Clear 31 1013 25 10000 3.1 220 21:19 07.03.2020
1724 Clear 30 1013 28 10000 3.1 210 20:39 07.03.2020
1725 Clear 30 1013 28 10000 3.1 210 20:20 07.03.2020
1726 Clear 30 1014 28 10000 3.1 170 19:41 07.03.2020
1727 Clear 30 1014 28 10000 3.1 170 19:22 07.03.2020
1728 Clear 30 1014 32 8000 3.1 260 18:47 07.03.2020
1729 Clear 30 1014 32 8000 3.1 260 18:29 07.03.2020
1730 Clear 28 1015 41 10000 2.1 160 17:59 07.03.2020
1731 Clear 28 1015 41 10000 2.1 160 17:41 07.03.2020
1732 Clouds 28 1015 41 10000 2.1 160 17:19 07.03.2020
1733 Clouds 26 1013 44 10000 1.5 230 16:56 07.03.2020
1734 Clouds 26 1013 44 10000 1.5 230 16:38 07.03.2020
1735 Clouds 25 1013 44 10000 1.5 230 16:19 07.03.2020
1736 Clouds 23 1015 49 10000 3.06 268 15:41 07.03.2020
1737 Clouds 24 1015 49 10000 3.06 268 15:22 07.03.2020
1738 Clouds 22 1015 56 10000 3.06 268 14:59 07.03.2020
1739 Clouds 22 1015 56 10000 3.06 268 14:41 07.03.2020
1740 Clouds 20 1015 56 10000 3.06 268 14:23 07.03.2020
1741 Clear 18 1015 67 10000 0.75 277 13:42 07.03.2020
1742 Clear 17 1015 67 10000 0.62 293 13:21 07.03.2020
1743 Clear 16 1015 63 10000 0.62 293 12:58 07.03.2020
1744 Clear 17 1015 63 10000 0.62 293 12:38 07.03.2020
1745 Clear 16 1015 63 10000 0.62 293 12:18 07.03.2020
1746 Clear 15 1014 76 10000 2.1 260 11:42 07.03.2020
1747 Clear 15 1014 76 10000 2.1 260 11:24 07.03.2020
1748 Clear 17 1013 67 10000 2.1 150 10:57 07.03.2020
1749 Clear 17 1013 67 10000 2.1 150 10:38 07.03.2020
1750 Clear 17 1013 67 10000 2.1 150 10:18 07.03.2020
1751 Clear 17 1013 67 10000 2.6 150 09:40 07.03.2020
1752 Clear 17 1013 67 10000 2.6 150 09:20 07.03.2020
1753 Clear 17 1013 67 10000 2.6 150 09:20 07.03.2020
1754 Clear 17 1013 67 10000 2.1 160 08:57 07.03.2020
1755 Clear 17 1013 67 10000 2.1 160 08:39 07.03.2020
1756 Clear 17 1013 67 10000 2.1 160 08:20 07.03.2020
1757 Clear 17 1013 67 10000 2.1 140 07:46 07.03.2020
1758 Clear 18 1013 43 0 0.52 261 07:21 07.03.2020
1759 Clear 18 1013 43 0 0.52 261 06:43 07.03.2020
1760 Clear 18 1013 43 0 0.52 261 06:25 07.03.2020
1761 Clear 18 1013 43 0 0.52 261 06:25 07.03.2020
1762 Clear 18 1013 43 0 0.52 261 05:40 07.03.2020
1763 Clear 20 1014 56 10000 4.6 150 03:47 07.03.2020
1764 Clear 19 1014 42 0 0.67 240 02:44 07.03.2020
1765 Clear 23 1013 49 10000 5.1 140 01:58 07.03.2020
1766 Clear 24 1013 49 10000 5.1 140 01:18 07.03.2020
1767 Clear 25 1015 41 10000 3.1 250 00:24 07.03.2020
1768 Clear 27 1014 36 10000 3.1 230 23:59 06.03.2020
1769 Clear 27 1014 36 10000 3.1 230 23:40 06.03.2020
1770 Clear 27 1014 36 10000 3.1 230 23:22 06.03.2020
1771 Clear 28 1014 32 10000 4.1 230 22:46 06.03.2020
1772 Clear 28 1014 32 10000 4.1 230 22:20 06.03.2020
1773 Clear 29 1014 23 10000 3.6 200 21:47 06.03.2020
1774 Clear 29 1014 23 10000 3.6 200 21:21 06.03.2020
1775 Clear 30 1014 25 10000 3.1 220 20:45 06.03.2020
1776 Clear 29 1014 25 10000 3.1 220 20:23 06.03.2020
1777 Clouds 29 1015 27 8000 3.1 240 19:58 06.03.2020
1778 Clouds 29 1015 27 8000 3.1 240 19:40 06.03.2020
1779 Clouds 29 1015 27 8000 3.1 240 19:21 06.03.2020
1780 Clouds 29 1015 30 10000 3.1 210 18:42 06.03.2020
1781 Clouds 29 1015 30 10000 3.1 210 18:20 06.03.2020
1782 Clouds 29 1013 27 10000 5.1 200 17:56 06.03.2020
1783 Clouds 28 1015 30 8000 2.6 240 17:38 06.03.2020
1784 Clouds 27 1015 34 7000 1.5 260 17:20 06.03.2020
1785 Clouds 27 1015 34 7000 1.5 260 16:54 06.03.2020
1786 Clouds 27 1015 34 7000 1.5 260 16:36 06.03.2020
1787 Clouds 27 1015 34 7000 1.5 260 16:36 06.03.2020
1788 Clouds 27 1015 34 7000 1.5 260 16:18 06.03.2020
1789 Clouds 26 1015 38 8000 1.5 220 15:41 06.03.2020
1790 Clouds 26 1015 38 8000 1.5 220 15:22 06.03.2020
1791 Clouds 24 1015 46 10000 2.1 240 14:40 06.03.2020
1792 Clouds 23 1015 46 10000 2.1 240 14:22 06.03.2020
1793 Clouds 23 1015 46 10000 2.1 240 14:22 06.03.2020
1794 Clear 21 1014 63 10000 0.39 312 13:55 06.03.2020
1795 Clear 22 1014 63 10000 0.39 312 13:36 06.03.2020
1796 Clear 21 1014 63 10000 0.56 342 13:18 06.03.2020
1797 Clear 21 1014 59 10000 0.56 342 12:40 06.03.2020
1798 Clear 20 1014 59 10000 0.56 342 12:21 06.03.2020
1799 Clear 22 1012 52 8000 1.5 0 11:59 06.03.2020
1800 Clear 22 1012 52 8000 1.5 0 11:59 06.03.2020
1801 Clear 21 1012 52 8000 1.5 0 11:40 06.03.2020
1802 Clear 19 1012 52 8000 1.5 0 11:20 06.03.2020
1803 Clear 18 1012 55 8000 1.5 0 10:42 06.03.2020
1804 Clear 18 1012 55 8000 1.5 0 10:21 06.03.2020
1805 Clear 17 1012 59 10000 1 0 09:59 06.03.2020
1806 Clear 17 1012 59 10000 1 0 09:40 06.03.2020
1807 Clear 17 1012 59 10000 1 0 09:40 06.03.2020
1808 Clear 17 1012 59 10000 1 0 09:22 06.03.2020
1809 Clear 21 1012 49 8000 2.1 160 08:48 06.03.2020
1810 Clear 21 1012 49 8000 2.1 160 08:30 06.03.2020
1811 Clouds 20 1012 52 8000 1.5 0 07:59 06.03.2020
1812 Clouds 20 1012 52 8000 1.5 0 07:40 06.03.2020
1813 Clouds 20 1012 52 8000 1.5 0 07:20 06.03.2020
1814 Clouds 23 1012 43 8000 3.6 150 06:42 06.03.2020
1815 Clouds 25 1012 38 8000 1.5 140 05:59 06.03.2020
1816 Clouds 25 1012 38 8000 1.5 140 05:36 06.03.2020
1817 Clouds 24 1012 40 10000 2.1 300 04:59 06.03.2020
1818 Clouds 25 1012 38 10000 1.5 50 03:58 06.03.2020
1819 Clear 27 1011 28 10000 5.1 190 01:43 06.03.2020
1820 Clear 28 1011 28 10000 5.1 190 01:25 06.03.2020
1821 Clouds 28 1013 28 10000 3.1 220 00:48 06.03.2020
1822 Clouds 28 1013 28 10000 3.1 220 00:20 06.03.2020
1823 Clouds 29 1012 19 10000 3.1 210 23:43 05.03.2020
1824 Clouds 31 1012 19 10000 3.1 210 23:24 05.03.2020
1825 Clouds 33 1012 17 10000 3.1 220 22:55 05.03.2020
1826 Clouds 33 1012 17 10000 3.1 220 22:36 05.03.2020
1827 Clouds 33 1012 17 10000 3.1 220 22:18 05.03.2020
1828 Clouds 34 1012 17 8000 4.1 210 21:54 05.03.2020
1829 Clouds 34 1012 17 8000 4.1 210 21:36 05.03.2020
1830 Clouds 34 1012 17 8000 4.1 210 21:18 05.03.2020
1831 Clouds 34 1013 19 8000 3.1 210 20:41 05.03.2020
1832 Clouds 34 1013 19 8000 3.1 210 20:20 05.03.2020
1833 Clouds 33 1013 21 8000 2.6 290 19:59 05.03.2020
1834 Clouds 33 1013 21 8000 2.6 290 19:39 05.03.2020
1835 Clouds 33 1013 21 8000 2.6 290 19:20 05.03.2020
1836 Clouds 32 1013 23 8000 1.5 260 18:58 05.03.2020
1837 Clouds 32 1013 23 8000 1.5 260 18:37 05.03.2020
1838 Clouds 30 1013 23 8000 1.5 260 18:18 05.03.2020
1839 Clouds 29 1014 25 8000 2.1 260 17:55 05.03.2020
1840 Clouds 29 1014 25 8000 2.1 260 17:37 05.03.2020
1841 Clear 28 1014 25 8000 2.1 260 17:18 05.03.2020
1842 Clear 28 1015 32 10000 1.5 210 16:41 05.03.2020
1843 Clear 27 1015 32 10000 1.5 210 16:22 05.03.2020
1844 Clear 26 1015 33 10000 1 350 15:57 05.03.2020
1845 Clear 26 1015 33 10000 1 350 15:37 05.03.2020
1846 Clear 25 1015 33 10000 1 350 15:19 05.03.2020
1847 Clear 23 1015 43 10000 3.07 265 14:41 05.03.2020
1848 Clear 21 1015 43 10000 3.07 265 14:22 05.03.2020
1849 Clouds 17 1014 63 10000 0.09 57 13:58 05.03.2020
1850 Clouds 17 1014 63 10000 0.09 57 13:39 05.03.2020
1851 Clouds 17 1014 63 10000 0.83 265 13:20 05.03.2020
1852 Clouds 17 1014 63 10000 0.09 57 13:20 05.03.2020
1853 Clouds 18 1014 59 10000 0.83 265 12:55 05.03.2020
1854 Clouds 19 1014 59 10000 0.83 265 12:36 05.03.2020
1855 Clouds 18 1014 59 10000 0.83 265 12:18 05.03.2020
1856 Clouds 18 1013 59 8000 1 0 11:55 05.03.2020
1857 Clouds 18 1013 59 8000 1 0 11:36 05.03.2020
1858 Clear 17 1013 59 8000 1 0 11:18 05.03.2020
1859 Clear 16 1012 67 10000 2.1 50 10:55 05.03.2020
1860 Clear 16 1012 67 10000 2.1 50 10:37 05.03.2020
1861 Clear 16 1012 67 10000 2.1 50 10:19 05.03.2020
1862 Clear 16 1013 59 10000 1.5 340 09:40 05.03.2020
1863 Clear 16 1013 59 10000 1.5 340 09:22 05.03.2020
1864 Clear 17 1013 59 10000 1 0 08:43 05.03.2020
1865 Clear 17 1013 59 10000 1 0 08:24 05.03.2020
1866 Clear 20 1013 49 10000 1.5 170 07:45 05.03.2020
1867 Clear 20 1013 49 10000 1.5 170 07:22 05.03.2020
1868 Clear 20 1014 49 10000 2.6 150 06:46 05.03.2020
1869 Clear 20 1014 49 10000 2.6 150 06:21 05.03.2020
1870 Clear 21 1014 46 10000 2.1 140 05:38 05.03.2020
1871 Clear 22 1013 46 10000 3.1 160 04:25 05.03.2020
1872 Clear 24 1013 41 10000 3.1 150 03:59 05.03.2020
1873 Clear 24 1013 41 10000 3.1 150 03:18 05.03.2020
1874 Clear 27 1012 30 10000 5.1 180 01:28 05.03.2020
1875 Clear 27 1014 34 10000 3.6 240 00:58 05.03.2020
1876 Clear 27 1014 34 10000 3.6 240 00:23 05.03.2020
1877 Clear 29 1013 29 8000 3.1 250 23:41 04.03.2020
1878 Clear 29 1013 29 8000 3.1 250 23:22 04.03.2020
1879 Clear 30 1013 27 8000 2.6 210 22:57 04.03.2020
1880 Clear 30 1013 27 8000 2.6 210 22:38 04.03.2020
1881 Clear 32 1013 27 8000 2.6 210 22:19 04.03.2020
1882 Clear 32 1014 27 10000 4.1 250 21:56 04.03.2020
1883 Clear 32 1014 27 10000 4.1 250 21:38 04.03.2020
1884 Clear 32 1014 27 10000 4.1 250 21:38 04.03.2020
1885 Clear 32 1014 27 10000 4.1 250 21:18 04.03.2020
1886 Clear 32 1014 27 7000 3.6 240 20:41 04.03.2020
1887 Clear 31 1014 27 7000 3.6 240 20:23 04.03.2020
1888 Clear 31 1014 27 7000 3.1 240 19:58 04.03.2020
1889 Clear 31 1014 27 7000 3.1 240 19:40 04.03.2020
1890 Clear 30 1014 27 7000 3.1 240 19:22 04.03.2020
1891 Clear 30 1015 34 7000 1.5 240 18:42 04.03.2020
1892 Clear 29 1015 34 7000 1.5 240 18:24 04.03.2020
1893 Clear 28 1016 39 8000 3.1 240 17:59 04.03.2020
1894 Clear 28 1016 39 8000 3.1 240 17:39 04.03.2020
1895 Clear 28 1016 39 8000 3.1 240 17:20 04.03.2020
1896 Clear 27 1015 44 8000 1 360 16:57 04.03.2020
1897 Clear 26 1015 44 8000 1 360 16:38 04.03.2020
1898 Clear 26 1015 44 8000 1 360 16:19 04.03.2020
1899 Clear 25 1015 49 7000 1.5 180 15:45 04.03.2020
1900 Clear 24 1015 49 7000 1.5 180 15:27 04.03.2020
1901 Clear 21 1015 63 8000 0.5 190 14:59 04.03.2020
1902 Clear 21 1015 63 8000 0.5 190 14:59 04.03.2020
1903 Clear 22 1015 63 8000 0.5 190 14:41 04.03.2020
1904 Clear 19 1015 63 8000 0.5 190 14:20 04.03.2020
1905 Clear 21 1015 77 10000 0.72 260 13:58 04.03.2020
1906 Clear 20 1015 77 10000 0.72 260 13:39 04.03.2020
1907 Clear 18 1015 77 10000 0.51 268 13:20 04.03.2020
1908 Clear 17 1015 77 10000 1 150 12:56 04.03.2020
1909 Clear 16 1015 77 10000 1 150 12:37 04.03.2020
1910 Clear 18 1015 77 10000 1 150 12:19 04.03.2020
1911 Clear 18 1014 93 6000 0.5 50 11:42 04.03.2020
1912 Clear 13 1014 93 6000 0.5 50 11:23 04.03.2020
1913 Clear 15 1014 93 6000 1.5 150 10:59 04.03.2020
1914 Clear 14 1014 93 6000 1.5 150 10:41 04.03.2020
1915 Clear 14 1014 93 6000 1.5 150 10:22 04.03.2020
1916 Clear 14 1014 87 8000 2.1 200 09:44 04.03.2020
1917 Clear 15 1014 82 8000 3.1 160 09:21 04.03.2020
1918 Clear 15 1014 82 10000 3.1 160 08:56 04.03.2020
1919 Clear 15 1014 82 10000 3.1 160 08:37 04.03.2020
1920 Clear 15 1014 82 10000 3.1 160 08:19 04.03.2020
1921 Clear 15 1015 82 10000 3.1 170 07:39 04.03.2020
1922 Clear 15 1015 82 10000 3.1 170 07:20 04.03.2020
1923 Clear 16 1015 77 10000 3.6 180 06:47 04.03.2020
1924 Clear 16 1015 77 10000 3.6 180 06:24 04.03.2020
1925 Clear 17 1015 77 10000 5.1 160 05:54 04.03.2020
1926 Clear 18 1015 72 10000 4.6 160 04:40 04.03.2020
1927 Clear 18 1015 72 10000 5.7 150 03:46 04.03.2020
1928 Clear 18 1015 72 10000 5.7 150 03:27 04.03.2020
1929 Clear 19 1014 68 10000 7.7 140 02:58 04.03.2020
1930 Clear 19 1014 68 10000 7.7 140 02:22 04.03.2020
1931 Clear 23 1013 53 10000 5.7 150 01:56 04.03.2020
1932 Clear 25 1015 41 10000 2.6 250 00:53 04.03.2020
1933 Clear 25 1015 41 10000 2.6 250 00:53 04.03.2020
1934 Clear 25 1015 41 10000 2.6 250 00:27 04.03.2020
1935 Clear 27 1014 30 10000 4.1 230 23:59 03.03.2020
1936 Clear 27 1014 30 10000 4.1 230 23:40 03.03.2020
1937 Clear 27 1014 30 10000 4.1 230 23:22 03.03.2020
1938 Clear 29 1014 27 10000 4.1 240 22:41 03.03.2020
1939 Clear 30 1014 27 10000 4.1 240 22:20 03.03.2020
1940 Clear 30 1014 25 8000 3.6 250 21:58 03.03.2020
1941 Clear 30 1014 25 8000 3.6 250 21:40 03.03.2020
1942 Clear 30 1014 25 8000 3.6 250 21:40 03.03.2020
1943 Clear 30 1014 25 8000 3.6 250 21:20 03.03.2020
1944 Clear 30 1014 29 8000 3.6 240 20:56 03.03.2020
1945 Clear 30 1014 29 8000 3.6 240 20:38 03.03.2020
1946 Clear 30 1014 29 8000 3.6 240 20:18 03.03.2020
1947 Clear 30 1015 29 8000 3.1 240 19:55 03.03.2020
1948 Clear 30 1015 29 8000 3.1 240 19:36 03.03.2020
1949 Clear 30 1015 29 8000 3.1 240 19:18 03.03.2020
1950 Clear 30 1015 35 7000 3.1 240 18:55 03.03.2020
1951 Clear 30 1015 35 7000 3.1 240 18:37 03.03.2020
1952 Clear 29 1015 35 7000 3.1 240 18:18 03.03.2020
1953 Clear 28 1015 39 7000 1.5 240 17:40 03.03.2020
1954 Clear 28 1015 39 7000 1.5 240 17:21 03.03.2020
1955 Clear 28 1015 44 8000 2.1 180 16:59 03.03.2020
1956 Clear 27 1015 44 8000 2.1 180 16:38 03.03.2020
1957 Clear 27 1015 44 8000 2.1 180 16:38 03.03.2020
1958 Clear 25 1015 44 8000 2.1 180 16:20 03.03.2020
1959 Clear 24 1015 49 10000 1.5 210 15:57 03.03.2020
1960 Clear 24 1015 49 10000 1.5 210 15:39 03.03.2020
1961 Clear 24 1015 49 10000 1.5 210 15:20 03.03.2020
1962 Clear 22 1015 60 10000 1.5 210 14:43 03.03.2020
1963 Clear 21 1015 60 10000 1.5 210 14:20 03.03.2020
1964 Clear 19 1015 77 10000 0.64 283 13:58 03.03.2020
1965 Clear 18 1015 77 10000 0.69 288 13:40 03.03.2020
1966 Clear 18 1015 77 10000 0.64 283 13:21 03.03.2020
1967 Clear 18 1015 77 10000 0.64 283 13:21 03.03.2020
1968 Haze 17 1013 82 7000 2.6 180 12:47 03.03.2020
1969 Haze 17 1013 82 7000 2.6 180 12:27 03.03.2020
1970 Clear 16 1013 82 7000 0.64 283 11:58 03.03.2020
1971 Clear 15 1013 82 7000 0.64 283 11:38 03.03.2020
1972 Clear 13 1013 82 7000 0.26 264 11:19 03.03.2020
1973 Clear 14 1013 82 8000 0.5 0 10:56 03.03.2020
1974 Clear 14 1013 82 8000 0.5 0 10:56 03.03.2020
1975 Clear 14 1013 82 8000 0.5 0 10:56 03.03.2020
1976 Clear 14 1013 82 8000 0.5 0 10:37 03.03.2020
1977 Clear 14 1013 82 8000 0.5 0 10:19 03.03.2020
1978 Clear 15 1013 77 8000 1.5 210 09:44 03.03.2020
1979 Clear 15 1013 77 8000 1.5 210 09:23 03.03.2020
1980 Clear 15 1014 77 8000 3.1 170 08:58 03.03.2020
1981 Clear 15 1014 77 8000 3.1 170 08:39 03.03.2020
1982 Clear 15 1014 77 8000 3.1 170 08:20 03.03.2020
1983 Clear 16 1014 77 10000 2.6 180 07:44 03.03.2020
1984 Clear 16 1014 77 10000 2.6 180 07:20 03.03.2020
1985 Clear 16 1015 77 10000 1.5 180 06:49 03.03.2020
1986 Clear 16 1015 77 10000 1.5 180 06:23 03.03.2020
1987 Clear 17 1015 72 10000 3.6 170 05:47 03.03.2020
1988 Clear 17 1015 72 10000 3.6 170 05:19 03.03.2020
1989 Clear 18 1015 68 10000 4.6 160 04:25 03.03.2020
1990 Clear 21 1017 51 0 1.68 248 01:40 03.03.2020
1991 Clear 26 1016 41 10000 2.6 240 00:49 03.03.2020
1992 Clear 26 1016 41 10000 2.6 240 00:27 03.03.2020
1993 Clear 27 1015 37 10000 3.6 250 23:57 02.03.2020
1994 Clear 27 1015 37 10000 3.6 250 23:38 02.03.2020
1995 Clear 28 1015 37 10000 3.6 250 23:20 02.03.2020
1996 Clear 28 1015 30 10000 3.1 200 22:55 02.03.2020
1997 Clear 29 1015 30 10000 3.1 200 22:37 02.03.2020
1998 Clear 29 1015 30 10000 3.1 200 22:18 02.03.2020
1999 Clear 30 1015 30 10000 3.6 0 21:42 02.03.2020
2000 Clear 30 1015 30 10000 3.6 0 21:23 02.03.2020
2001 Clear 30 1015 33 10000 4.1 230 20:58 02.03.2020
2002 Clear 30 1015 33 10000 4.1 230 20:39 02.03.2020
2003 Clear 30 1015 33 10000 4.1 230 20:20 02.03.2020
2004 Clear 31 1015 33 8000 3.6 0 19:56 02.03.2020
2005 Clear 31 1015 33 8000 3.6 0 19:56 02.03.2020
2006 Clear 31 1015 33 8000 3.6 0 19:37 02.03.2020
2007 Clear 31 1015 33 8000 3.6 0 19:19 02.03.2020
2008 Clear 30 1016 30 8000 2.6 230 18:45 02.03.2020
2009 Clear 29 1016 30 8000 2.6 230 18:20 02.03.2020
2010 Clear 29 1014 39 8000 5.7 150 17:59 02.03.2020
2011 Clear 29 1014 39 8000 5.7 150 17:59 02.03.2020
2012 Clear 29 1014 39 8000 5.7 150 17:41 02.03.2020
2013 Clear 29 1016 34 8000 2.1 250 17:21 02.03.2020
2014 Clear 29 1016 34 8000 2.1 250 17:21 02.03.2020
2015 Clear 29 1016 34 8000 2.1 250 17:21 02.03.2020
2016 Clear 27 1016 39 8000 2.1 0 16:55 02.03.2020
2017 Clear 27 1016 39 8000 2.1 0 16:37 02.03.2020
2018 Clear 26 1016 39 8000 2.1 0 16:19 02.03.2020
2019 Clear 25 1016 46 10000 1 260 15:43 02.03.2020
2020 Clear 22 1016 46 10000 1 260 15:20 02.03.2020
2021 Clear 22 1016 56 10000 3.35 262 14:55 02.03.2020
2022 Clear 21 1016 56 10000 3.35 262 14:36 02.03.2020
2023 Clear 20 1016 56 10000 1.19 259 14:18 02.03.2020
2024 Clear 18 1016 67 10000 1.19 259 13:39 02.03.2020
2025 Clear 16 1016 67 10000 1.14 260 13:19 02.03.2020
2026 Clear 17 1015 77 10000 1.14 260 12:44 02.03.2020
2027 Clear 16 1015 77 10000 1.14 260 12:21 02.03.2020
2028 Clear 16 1013 77 10000 1.5 230 11:57 02.03.2020
2029 Clear 16 1013 77 10000 1.5 230 11:37 02.03.2020
2030 Clear 15 1013 77 10000 1.5 230 11:18 02.03.2020
2031 Clear 15 1013 82 10000 1 0 10:54 02.03.2020
2032 Clear 15 1013 82 10000 1 0 10:36 02.03.2020
2033 Clear 15 1013 82 10000 1 0 10:18 02.03.2020
2034 Clear 16 1013 72 10000 1.5 190 09:42 02.03.2020
2035 Clear 16 1013 72 10000 1.5 190 09:24 02.03.2020
2036 Clear 16 1014 77 10000 2.6 160 08:47 02.03.2020
2037 Clear 16 1014 77 10000 2.6 160 08:22 02.03.2020
2038 Clear 16 1014 77 10000 2.6 170 07:43 02.03.2020
2039 Clear 16 1014 77 10000 2.6 170 07:20 02.03.2020
2040 Clear 17 1014 72 10000 3.1 170 06:45 02.03.2020
2041 Clear 18 1015 68 10000 2.1 170 05:53 02.03.2020
2042 Clear 19 1015 63 10000 3.1 170 04:25 02.03.2020
2043 Clear 20 1015 60 10000 4.6 160 03:22 02.03.2020
2044 Clear 21 1015 56 10000 11.3 150 02:46 02.03.2020
2045 Clear 22 1014 53 10000 5.1 160 01:49 02.03.2020
2046 Clear 23 1014 53 10000 5.1 160 01:30 02.03.2020
2047 Clear 26 1016 36 10000 2.6 240 00:23 02.03.2020
2048 Clear 26 1016 34 10000 3.1 240 23:57 01.03.2020
2049 Clear 27 1016 34 10000 3.1 240 23:39 01.03.2020
2050 Clear 27 1016 34 10000 3.1 240 23:19 01.03.2020
2051 Clear 28 1016 28 10000 3.6 220 22:43 01.03.2020
2052 Clear 28 1016 28 10000 3.6 220 22:20 01.03.2020
2053 Clear 29 1016 35 10000 4.1 220 21:56 01.03.2020
2054 Clear 29 1016 35 10000 4.1 220 21:38 01.03.2020
2055 Clear 29 1016 35 10000 4.1 220 21:19 01.03.2020
2056 Clear 29 1016 32 10000 3.6 250 20:43 01.03.2020
2057 Clear 29 1016 32 10000 3.6 250 20:25 01.03.2020
2058 Clear 29 1016 35 10000 3.1 250 19:55 01.03.2020
2059 Clear 29 1016 35 10000 3.1 250 19:37 01.03.2020
2060 Clear 29 1016 35 10000 3.1 250 19:18 01.03.2020
2061 Clear 29 1016 37 8000 2.6 240 18:40 01.03.2020
2062 Clear 29 1016 37 8000 2.6 240 18:20 01.03.2020
2063 Clear 28 1017 41 8000 2.6 230 17:58 01.03.2020
2064 Clear 27 1017 41 8000 2.6 230 17:40 01.03.2020
2065 Clear 27 1017 41 8000 2.6 230 17:21 01.03.2020
2066 Clear 25 1017 46 7000 2.1 230 16:57 01.03.2020
2067 Clear 25 1017 46 7000 2.1 230 16:39 01.03.2020
2068 Clear 24 1017 46 7000 2.1 230 16:18 01.03.2020
2069 Clear 24 1017 60 7000 2.1 250 15:57 01.03.2020
2070 Clear 24 1017 60 7000 2.1 250 15:38 01.03.2020
2071 Clear 22 1017 60 7000 2.1 250 15:20 01.03.2020
2072 Clear 20 1017 63 8000 1 120 14:57 01.03.2020
2073 Clear 21 1017 63 8000 1 120 14:38 01.03.2020
2074 Clear 18 1017 63 8000 1 120 14:20 01.03.2020
2075 Mist 17 1016 93 4000 3.1 170 13:56 01.03.2020
2076 Clear 17 1017 67 10000 1.42 269 13:37 01.03.2020
2077 Clear 17 1017 67 10000 1.46 270 13:18 01.03.2020
2078 Clear 15 1016 62 10000 1 350 12:42 01.03.2020
2079 Clear 15 1016 62 10000 1 350 12:21 01.03.2020
2080 Mist 14 1015 100 2000 2.6 160 11:43 01.03.2020
2081 Mist 14 1015 100 2000 3.1 150 11:25 01.03.2020
2082 Fog 13 1014 93 3000 3.6 180 10:58 01.03.2020
2083 Mist 15 1014 87 5000 3.6 160 10:38 01.03.2020
2084 Mist 14 1014 87 5000 3.6 160 10:20 01.03.2020
2085 Clear 15 1014 87 8000 3.6 160 09:59 01.03.2020
2086 Clear 15 1014 87 8000 3.6 160 09:41 01.03.2020
2087 Clear 15 1014 87 8000 3.6 160 09:21 01.03.2020
2088 Clear 16 1013 82 7000 2.6 150 08:43 01.03.2020
2089 Clear 16 1013 82 7000 2.6 150 08:25 01.03.2020
2090 Clear 16 1013 77 8000 2.6 160 07:43 01.03.2020
2091 Clear 16 1013 77 8000 2.6 160 07:24 01.03.2020
2092 Clear 16 1014 82 10000 3.1 160 06:58 01.03.2020
2093 Clear 16 1014 82 10000 3.1 160 06:39 01.03.2020
2094 Clear 18 1014 72 10000 3.6 170 04:39 01.03.2020
2095 Clear 20 1013 64 10000 6.7 150 02:58 01.03.2020
2096 Clear 20 1013 64 10000 6.7 150 02:18 01.03.2020
2097 Clear 22 1013 56 10000 6.7 150 01:34 01.03.2020
2098 Clear 26 1015 44 10000 2.1 270 00:48 01.03.2020
2099 Clear 27 1015 44 10000 2.1 270 00:23 01.03.2020
2100 Clear 28 1015 37 8000 3.6 250 23:54 29.02.2020
2101 Clear 28 1015 37 8000 3.6 250 23:35 29.02.2020
2102 Clouds 30 1014 31 8000 4.1 250 22:45 29.02.2020
2103 Clouds 30 1014 31 8000 4.1 250 22:26 29.02.2020
2104 Clear 31 1014 29 8000 3.6 230 21:47 29.02.2020
2105 Clear 31 1014 29 8000 3.6 230 21:27 29.02.2020
2106 Clear 31 1015 25 7000 4.6 230 20:59 29.02.2020
2107 Clear 32 1015 25 7000 4.6 230 20:40 29.02.2020
2108 Clear 33 1015 25 7000 4.6 230 20:20 29.02.2020
2109 Clear 33 1015 24 6000 4.1 240 19:45 29.02.2020
2110 Clear 33 1015 24 6000 4.1 240 19:22 29.02.2020
2111 Haze 31 1015 24 5000 3.6 210 18:59 29.02.2020
2112 Haze 32 1015 24 5000 3.6 210 18:39 29.02.2020
2113 Haze 32 1015 24 5000 3.6 210 18:19 29.02.2020
2114 Clear 31 1016 28 6000 2.6 210 17:55 29.02.2020
2115 Clear 31 1016 28 6000 2.6 210 17:37 29.02.2020
2116 Clear 30 1016 28 6000 2.6 210 17:18 29.02.2020
2117 Clear 28 1016 32 6000 2.6 240 16:43 29.02.2020
2118 Clear 28 1016 32 6000 2.6 240 16:19 29.02.2020
2119 Clear 27 1016 38 8000 2.1 220 15:54 29.02.2020
2120 Clear 26 1016 38 8000 2.1 220 15:36 29.02.2020
2121 Clear 26 1016 38 8000 2.1 220 15:18 29.02.2020
2122 Clear 24 1016 46 10000 0.5 260 14:39 29.02.2020
2123 Clear 24 1016 46 10000 0.5 260 14:21 29.02.2020
2124 Clear 22 1016 63 10000 1 0 13:44 29.02.2020
2125 Clear 21 1016 63 10000 1 0 13:26 29.02.2020
2126 Clear 20 1016 63 10000 1 60 12:55 29.02.2020
2127 Clear 19 1016 63 10000 1 60 12:36 29.02.2020
2128 Clear 19 1016 63 10000 1 60 12:18 29.02.2020
2129 Clear 20 1014 72 10000 1 0 11:44 29.02.2020
2130 Clear 20 1014 72 10000 1 0 11:25 29.02.2020
2131 Clear 16 1014 72 10000 1.5 290 10:50 29.02.2020
2132 Clear 16 1014 72 10000 1.5 290 10:29 29.02.2020
2133 Clear 18 1014 63 10000 1 0 09:52 29.02.2020
2134 Clear 18 1014 63 10000 1 0 09:28 29.02.2020
2135 Clear 18 1014 63 10000 2.1 150 08:58 29.02.2020
2136 Clear 18 1014 63 10000 2.1 150 08:38 29.02.2020
2137 Clear 21 1014 63 10000 2.1 150 08:19 29.02.2020
2138 Clear 21 1015 68 10000 1.5 180 07:46 29.02.2020
2139 Clear 21 1015 68 10000 1.5 180 07:21 29.02.2020
2140 Clear 19 1015 63 10000 3.6 160 06:54 29.02.2020
2141 Clear 19 1015 63 10000 3.6 160 06:27 29.02.2020
2142 Clear 20 1015 56 10000 2.6 160 05:49 29.02.2020
2143 Clear 20 1015 56 10000 2.6 160 05:29 29.02.2020
2144 Clear 24 1016 53 10000 3.6 160 03:46 29.02.2020
2145 Clear 23 1016 53 10000 3.6 160 03:23 29.02.2020
2146 Clear 24 1015 53 10000 4.6 150 02:47 29.02.2020
2147 Clear 25 1015 47 10000 6.2 150 01:49 29.02.2020
2148 Clear 27 1016 32 10000 2.6 260 00:46 29.02.2020
2149 Clear 27 1016 32 10000 2.6 260 00:26 29.02.2020
2150 Clear 28 1016 30 10000 3.6 250 23:39 28.02.2020
2151 Clear 30 1016 30 10000 3.6 250 23:20 28.02.2020
2152 Clear 31 1016 27 10000 4.1 240 22:42 28.02.2020
2153 Clear 31 1016 27 10000 4.1 240 22:22 28.02.2020
2154 Clear 30 1016 22 10000 4.1 240 21:42 28.02.2020
2155 Clear 31 1016 22 10000 4.1 240 21:22 28.02.2020
2156 Clear 31 1016 22 10000 4.1 240 21:22 28.02.2020
2157 Clear 30 1016 21 10000 4.1 240 20:57 28.02.2020
2158 Clear 30 1016 21 10000 4.1 240 20:38 28.02.2020
2159 Clear 33 1016 21 10000 4.1 240 20:20 28.02.2020
2160 Clear 33 1016 22 10000 3.6 240 19:56 28.02.2020
2161 Clear 33 1016 22 10000 3.6 240 19:38 28.02.2020
2162 Clear 33 1016 22 10000 3.6 240 19:20 28.02.2020
2163 Clear 32 1017 23 8000 2.6 240 18:46 28.02.2020
2164 Clear 31 1017 23 8000 2.6 240 18:24 28.02.2020
2165 Clear 29 1017 26 8000 2.1 180 17:57 28.02.2020
2166 Clear 29 1017 26 8000 2.1 180 17:38 28.02.2020
2167 Clear 28 1017 26 8000 2.1 180 17:20 28.02.2020
2168 Clouds 27 1018 32 8000 1 270 16:38 28.02.2020
2169 Clouds 26 1018 32 8000 1 270 16:19 28.02.2020
2170 Clear 25 1018 38 10000 1.5 270 15:56 28.02.2020
2171 Clear 25 1018 38 10000 1.5 270 15:38 28.02.2020
2172 Clear 25 1018 38 10000 1.5 270 15:18 28.02.2020
2173 Clear 23 1018 43 10000 1 230 14:45 28.02.2020
2174 Clear 21 1018 43 10000 1 230 14:20 28.02.2020
2175 Clear 20 1018 63 10000 0.49 279 13:59 28.02.2020
2176 Clear 20 1018 63 10000 0.49 279 13:40 28.02.2020
2177 Clear 20 1018 63 10000 0.57 273 13:20 28.02.2020
2178 Clear 19 1017 59 10000 1 30 12:46 28.02.2020
2179 Clear 18 1017 59 10000 1 30 12:27 28.02.2020
2180 Clear 18 1015 67 10000 1 0 11:59 28.02.2020
2181 Clear 18 1015 67 10000 1 0 11:40 28.02.2020
2182 Clear 17 1015 67 10000 1 0 11:21 28.02.2020
2183 Clear 18 1015 67 10000 0.5 0 10:43 28.02.2020
2184 Clear 18 1015 67 10000 0.5 0 10:24 28.02.2020
2185 Clear 19 1015 63 10000 1 0 09:54 28.02.2020
2186 Clear 19 1015 63 10000 1 0 09:36 28.02.2020
2187 Clear 19 1015 63 10000 1 0 09:18 28.02.2020
2188 Clear 19 1015 55 10000 1 0 08:42 28.02.2020
2189 Clear 19 1015 55 10000 1 0 08:20 28.02.2020
2190 Clear 19 1015 63 10000 4.1 160 07:45 28.02.2020
2191 Clear 19 1015 63 10000 4.1 160 07:25 28.02.2020
2192 Clear 20 1015 59 10000 2.6 150 06:50 28.02.2020
2193 Clear 20 1015 59 10000 2.6 150 06:29 28.02.2020
2194 Clear 21 1015 45 10000 2.6 150 05:22 28.02.2020
2195 Clear 21 1015 45 10000 4.1 170 04:31 28.02.2020
2196 Clear 22 1014 40 10000 5.7 150 02:47 28.02.2020
2197 Clear 22 1014 40 10000 5.7 150 02:28 28.02.2020
2198 Clear 23 1014 41 10000 5.1 150 01:38 28.02.2020
2199 Clear 25 1015 32 10000 2.6 240 00:31 28.02.2020
2200 Clear 29 1015 25 10000 3.6 250 23:45 27.02.2020
2201 Clear 29 1015 25 10000 3.6 250 23:22 27.02.2020
2202 Clear 30 1015 22 10000 4.6 250 22:56 27.02.2020
2203 Clear 30 1015 22 10000 4.6 250 22:38 27.02.2020
2204 Clear 29 1015 22 10000 4.6 250 22:20 27.02.2020
2205 Clear 30 1015 22 10000 4.1 240 21:41 27.02.2020
2206 Clear 30 1015 22 10000 4.1 240 21:23 27.02.2020
2207 Clear 30 1015 18 10000 4.1 210 20:59 27.02.2020
2208 Clear 30 1015 18 10000 4.1 210 20:41 27.02.2020
2209 Clear 32 1015 18 10000 4.1 210 20:21 27.02.2020
2210 Clear 31 1016 18 10000 3.6 230 19:57 27.02.2020
2211 Clear 31 1016 18 10000 3.6 230 19:38 27.02.2020
2212 Clear 31 1016 18 10000 3.6 230 19:19 27.02.2020
2213 Clear 31 1016 19 10000 2.6 260 18:43 27.02.2020
2214 Clear 31 1016 19 10000 2.6 260 18:24 27.02.2020
2215 Clear 29 1017 21 10000 2.6 240 17:59 27.02.2020
2216 Clear 29 1017 21 10000 2.6 240 17:40 27.02.2020
2217 Clear 29 1017 21 10000 2.6 240 17:40 27.02.2020
2218 Clear 29 1017 21 10000 2.6 240 17:20 27.02.2020
2219 Clear 27 1017 22 10000 2.6 270 16:59 27.02.2020
2220 Clear 27 1017 22 10000 2.6 270 16:39 27.02.2020
2221 Clear 27 1017 22 10000 2.6 270 16:19 27.02.2020
2222 Clear 25 1017 27 10000 2.6 230 15:58 27.02.2020
2223 Clear 25 1017 27 10000 2.6 230 15:37 27.02.2020
2224 Clear 25 1017 27 10000 2.6 230 15:18 27.02.2020
2225 Clear 23 1017 35 10000 1 0 14:56 27.02.2020
2226 Clear 22 1017 35 10000 1 0 14:37 27.02.2020
2227 Clear 22 1017 35 10000 1 0 14:18 27.02.2020
2228 Clear 19 1017 45 10000 0.69 252 13:42 27.02.2020
2229 Clear 19 1017 45 10000 0.69 252 13:42 27.02.2020
2230 Clear 19 1017 45 10000 0.74 252 13:21 27.02.2020
2231 Clear 18 1017 51 10000 1 30 12:48 27.02.2020
2232 Clear 17 1017 51 10000 1 30 12:25 27.02.2020
2233 Clear 17 1015 41 10000 1.5 170 11:59 27.02.2020
2234 Clear 17 1015 41 10000 1.5 170 11:41 27.02.2020
2235 Clear 16 1015 41 10000 1.5 170 11:21 27.02.2020
2236 Clear 17 1015 39 10000 2.6 150 10:43 27.02.2020
2237 Clear 17 1015 39 10000 2.6 150 10:23 27.02.2020
2238 Clear 17 1014 36 10000 2.1 150 09:48 27.02.2020
2239 Clear 17 1014 36 10000 2.1 150 09:29 27.02.2020
2240 Clear 18 1014 34 10000 1.5 160 08:57 27.02.2020
2241 Clear 18 1014 34 10000 1.5 160 08:39 27.02.2020
2242 Clear 18 1014 34 10000 1.5 160 08:21 27.02.2020
2243 Clear 19 1015 29 10000 3.1 150 07:44 27.02.2020
2244 Clear 19 1015 29 10000 3.1 150 07:25 27.02.2020
2245 Clear 20 1015 26 10000 3.6 170 06:45 27.02.2020
2246 Clear 21 1015 22 10000 5.1 160 05:35 27.02.2020
2247 Clear 23 1015 27 10000 4.1 150 03:38 27.02.2020
2248 Clear 25 1014 29 10000 4.6 150 02:20 27.02.2020
2249 Clear 29 1015 25 10000 3.1 230 00:45 27.02.2020
2250 Clear 29 1015 25 10000 3.1 230 00:26 27.02.2020
2251 Clear 30 1012 23 10000 8.2 220 23:40 26.02.2020
2252 Clear 31 1012 23 10000 8.2 220 23:19 26.02.2020
2253 Clear 32 1014 16 10000 4.1 230 22:57 26.02.2020
2254 Clear 33 1014 16 10000 4.1 230 22:39 26.02.2020
2255 Clear 33 1014 16 10000 4.1 230 22:19 26.02.2020
2256 Clear 34 1014 15 10000 4.1 230 21:55 26.02.2020
2257 Clear 34 1014 15 10000 4.1 230 21:36 26.02.2020
2258 Clear 34 1014 15 10000 4.1 230 21:18 26.02.2020
2259 Clear 33 1015 15 10000 4.1 240 20:54 26.02.2020
2260 Clear 33 1015 15 10000 4.1 240 20:54 26.02.2020
2261 Clear 33 1015 15 10000 4.1 240 20:36 26.02.2020
2262 Clear 33 1015 15 10000 4.1 240 20:18 26.02.2020
2263 Clear 34 1015 16 10000 2.6 280 19:44 26.02.2020
2264 Clear 34 1015 16 10000 2.6 280 19:20 26.02.2020
2265 Clear 32 1016 18 10000 3.1 210 18:58 26.02.2020
2266 Clear 32 1016 18 10000 3.1 210 18:40 26.02.2020
2267 Clear 31 1016 18 10000 3.1 210 18:22 26.02.2020
2268 Clear 31 1016 18 10000 3.1 210 18:22 26.02.2020
2269 Clear 30 1016 21 10000 1.5 150 17:42 26.02.2020
2270 Clear 30 1016 21 10000 1.5 150 17:42 26.02.2020
2271 Clear 30 1016 21 10000 1.5 150 17:24 26.02.2020
2272 Clear 28 1017 26 10000 3.1 180 16:58 26.02.2020
2273 Clear 28 1017 26 10000 3.1 180 16:39 26.02.2020
2274 Clear 28 1017 26 10000 3.1 180 16:21 26.02.2020
2275 -273 0 0 0 0 0 16:21 26.02.2020
2276 Clear 26 1016 31 10000 1 170 15:47 26.02.2020
2277 Clear 26 1016 31 10000 1 170 15:29 26.02.2020
2278 Clear 22 1017 35 10000 1.5 210 14:59 26.02.2020
2279 Clear 23 1017 35 10000 1.5 210 14:41 26.02.2020
2280 Clear 23 1017 35 10000 1.5 210 14:22 26.02.2020
2281 Clear 18 1016 55 10000 1 60 13:43 26.02.2020
2282 Clear 18 1016 55 10000 1 60 13:22 26.02.2020
2283 Clear 15 1017 55 10000 1.5 30 12:40 26.02.2020
2284 Clear 15 1017 55 10000 1.5 30 12:22 26.02.2020
2285 Clear 14 1015 62 10000 1 300 11:59 26.02.2020
2286 Clear 14 1015 62 10000 1 300 11:40 26.02.2020
2287 Clear 14 1015 62 10000 1 300 11:21 26.02.2020
2288 Clear 15 1015 54 10000 0.76 101 10:43 26.02.2020
2289 Clear 15 1015 54 10000 0.76 101 10:24 26.02.2020
2290 Clear 16 1015 51 10000 1 0 09:58 26.02.2020
2291 Clear 16 1015 51 10000 1 0 09:40 26.02.2020
2292 Clear 16 1015 51 10000 1 0 09:21 26.02.2020
2293 Clear 16 1015 55 10000 1 0 08:40 26.02.2020
2294 Clear 16 1015 55 10000 1 0 08:22 26.02.2020
2295 Clear 17 1015 51 10000 0.33 92 07:59 26.02.2020
2296 Clear 17 1015 51 10000 0.33 92 07:39 26.02.2020
2297 Clear 17 1015 51 10000 0.33 92 07:20 26.02.2020
2298 Clear 20 1016 42 10000 1 0 06:45 26.02.2020
2299 Clear 20 1016 42 10000 1 0 06:22 26.02.2020
2300 Clear 21 1016 40 10000 2.1 160 05:48 26.02.2020
2301 Clear 21 1016 40 10000 2.1 160 05:18 26.02.2020
2302 Clear 23 1016 35 10000 3.6 140 03:20 26.02.2020
2303 Clear 26 1015 27 10000 5.1 210 01:57 26.02.2020
2304 Clear 27 1015 27 10000 5.1 210 01:25 26.02.2020
2305 Clear 28 1016 20 10000 2.6 240 00:40 26.02.2020
2306 Clear 27 1016 20 10000 2.6 240 00:20 26.02.2020
2307 Clear 29 1016 24 10000 3.1 190 23:42 25.02.2020
2308 Clear 29 1016 24 10000 3.1 190 23:22 25.02.2020
2309 Clear 30 1016 14 10000 3.1 0 22:56 25.02.2020
2310 Clear 31 1016 14 10000 3.1 0 22:37 25.02.2020
2311 Clear 31 1016 14 10000 3.1 0 22:18 25.02.2020
2312 Clear 31 1016 16 10000 2.6 0 21:38 25.02.2020
2313 Clear 31 1016 16 10000 2.6 0 21:20 25.02.2020
2314 Clear 30 1016 19 10000 2.6 220 20:57 25.02.2020
2315 Clear 30 1016 19 10000 2.6 220 20:38 25.02.2020
2316 Clear 30 1016 19 10000 2.6 220 20:38 25.02.2020
2317 Clear 30 1016 19 10000 2.6 220 20:19 25.02.2020
2318 Clear 30 1016 23 10000 3.1 0 19:54 25.02.2020
2319 Clear 30 1016 23 10000 3.1 0 19:36 25.02.2020
2320 Clear 30 1016 23 10000 3.1 0 19:18 25.02.2020
2321 Clear 28 1017 30 10000 2.6 0 18:40 25.02.2020
2322 Clear 28 1017 30 10000 2.6 0 18:21 25.02.2020
2323 Clear 25 1017 41 8000 1.5 250 17:56 25.02.2020
2324 Clear 25 1017 41 8000 1.5 250 17:37 25.02.2020
2325 Clear 25 1017 41 8000 1.5 250 17:18 25.02.2020
2326 Clear 23 1018 46 8000 2.1 0 16:56 25.02.2020
2327 Clear 23 1018 46 8000 2.1 0 16:37 25.02.2020
2328 Clear 23 1018 46 8000 2.1 0 16:19 25.02.2020
2329 Clear 21 1017 55 8000 2.1 0 15:45 25.02.2020
2330 Clear 21 1017 55 8000 2.1 0 15:20 25.02.2020
2331 Clear 20 1017 67 10000 2.84 262 14:59 25.02.2020
2332 Clear 19 1017 67 10000 2.84 262 14:39 25.02.2020
2333 Clear 19 1017 67 10000 1.34 259 14:18 25.02.2020
2334 Clear 19 1017 67 10000 1.34 259 14:18 25.02.2020
2335 Clear 18 1018 76 10000 1.34 259 13:58 25.02.2020
2336 Clear 17 1018 76 10000 1.34 259 13:40 25.02.2020
2337 Clear 16 1018 76 10000 0.84 278 13:20 25.02.2020
2338 Clear 14 1018 87 10000 0.84 278 12:59 25.02.2020
2339 Clear 15 1018 87 10000 0.84 278 12:39 25.02.2020
2340 Clear 15 1018 87 10000 0.84 278 12:20 25.02.2020
2341 Haze 15 1017 87 5000 2.6 30 11:56 25.02.2020
2342 Haze 15 1017 87 5000 2.6 30 11:37 25.02.2020
2343 Haze 12 1017 87 5000 2.6 30 11:18 25.02.2020
2344 Clear 13 1017 82 10000 2.1 270 10:42 25.02.2020
2345 Clear 13 1017 82 10000 2.1 270 10:23 25.02.2020
2346 Clear 14 1016 76 10000 2.6 150 09:56 25.02.2020
2347 Clear 14 1016 76 10000 2.6 150 09:38 25.02.2020
2348 Clear 14 1016 76 10000 2.6 150 09:18 25.02.2020
2349 Clear 14 1016 76 10000 2.6 170 08:42 25.02.2020
2350 Clear 14 1016 76 10000 2.6 170 08:23 25.02.2020
2351 Clouds 15 1016 77 10000 1.5 210 07:49 25.02.2020
2352 Clouds 15 1016 77 10000 1.5 210 07:23 25.02.2020
2353 Clouds 15 1016 77 10000 1.5 120 06:55 25.02.2020
2354 Clouds 16 1017 72 10000 3.6 170 05:51 25.02.2020
2355 Clouds 18 1016 63 10000 4.6 160 03:56 25.02.2020
2356 Clouds 20 1015 56 10000 3.6 150 02:32 25.02.2020
2357 Clouds 21 1016 49 9000 3.1 210 00:58 25.02.2020
2358 Clouds 21 1016 49 9000 3.1 210 00:31 25.02.2020
2359 Clouds 22 1016 38 9000 3.1 200 23:48 24.02.2020
2360 Clouds 22 1016 38 9000 3.1 200 23:29 24.02.2020
2361 Clouds 23 1016 38 10000 3.6 230 22:56 24.02.2020
2362 Clouds 23 1016 38 10000 3.6 230 22:37 24.02.2020
2363 Clouds 24 1016 38 10000 3.6 230 22:18 24.02.2020
2364 Clouds 24 1016 36 10000 3.6 220 21:54 24.02.2020
2365 Clouds 24 1016 36 10000 3.6 220 21:36 24.02.2020
2366 Clouds 24 1016 36 10000 3.6 220 21:18 24.02.2020
2367 Clouds 24 1016 36 10000 4.1 230 20:41 24.02.2020
2368 Clear 25 1016 36 10000 4.1 230 20:20 24.02.2020
2369 Clear 25 1016 36 10000 4.1 0 19:59 24.02.2020
2370 Clear 25 1016 36 10000 4.1 0 19:40 24.02.2020
2371 Clear 25 1016 36 10000 4.1 0 19:22 24.02.2020
2372 Clear 25 1016 38 10000 3.1 220 18:57 24.02.2020
2373 Clear 25 1016 38 10000 3.1 220 18:38 24.02.2020
2374 Clear 25 1016 38 10000 3.1 220 18:38 24.02.2020
2375 Clear 25 1016 38 10000 3.1 220 18:19 24.02.2020
2376 Clear 22 1016 49 7000 2.1 0 17:42 24.02.2020
2377 Clear 22 1016 49 7000 2.1 0 17:21 24.02.2020
2378 Clear 19 1017 59 7000 2.1 0 16:59 24.02.2020
2379 Clear 19 1017 59 7000 2.1 0 16:40 24.02.2020
2380 Clear 19 1017 59 7000 2.1 0 16:21 24.02.2020
2381 Clear 19 1017 63 7000 2.6 0 15:59 24.02.2020
2382 Clear 18 1017 63 7000 2.6 0 15:40 24.02.2020
2383 Clear 18 1017 63 7000 2.6 0 15:21 24.02.2020
2384 Clear 17 1017 72 8000 1 350 14:58 24.02.2020
2385 Clear 17 1017 72 8000 1 350 14:40 24.02.2020
2386 Clear 15 1017 72 8000 1 350 14:19 24.02.2020
2387 Clear 12 1017 87 10000 1.7 251 13:56 24.02.2020
2388 Clear 12 1017 87 10000 1.7 251 13:37 24.02.2020
2389 Clear 12 1017 87 10000 1.7 251 13:19 24.02.2020
2390 Clear 12 1017 87 10000 1.5 210 12:55 24.02.2020
2391 Clear 12 1017 87 10000 1.5 210 12:37 24.02.2020
2392 Clear 12 1017 87 10000 1.5 210 12:18 24.02.2020
2393 Clouds 12 1016 93 8000 3.6 160 11:42 24.02.2020
2394 Clouds 12 1016 93 8000 3.6 160 11:23 24.02.2020
2395 Clear 12 1016 87 10000 3.6 160 10:44 24.02.2020
2396 Clear 12 1016 87 10000 3.6 160 10:25 24.02.2020
2397 Clear 12 1015 87 10000 3.6 150 09:41 24.02.2020
2398 Clear 12 1015 87 10000 3.6 150 09:20 24.02.2020
2399 Clear 13 1016 82 10000 2.6 180 08:57 24.02.2020
2400 Clear 13 1016 82 10000 2.6 180 08:37 24.02.2020
2401 Clear 13 1016 82 10000 2.6 180 08:19 24.02.2020
2402 Clear 13 1016 82 10000 3.1 160 07:41 24.02.2020
2403 Clear 13 1016 82 10000 3.1 160 07:23 24.02.2020
2404 Clear 15 1015 52 0 0.83 266 06:34 24.02.2020
2405 Clear 14 1016 82 10000 5.1 150 05:52 24.02.2020
2406 Clear 14 1016 82 10000 5.1 150 05:28 24.02.2020
2407 Clear 17 1016 67 10000 5.1 160 03:27 24.02.2020
2408 Clear 19 1015 59 10000 5.1 160 02:51 24.02.2020
2409 Clear 21 1014 52 10000 5.1 210 01:41 24.02.2020
2410 Clear 25 1015 34 10000 2.1 240 00:52 24.02.2020
2411 Clear 25 1015 34 10000 2.1 240 00:21 24.02.2020
2412 Clear 26 1015 22 10000 3.1 200 23:58 23.02.2020
2413 Clear 26 1015 22 10000 3.1 200 23:40 23.02.2020
2414 Clear 27 1015 22 10000 3.1 200 23:18 23.02.2020
2415 Clear 27 1015 28 10000 3.1 180 22:54 23.02.2020
2416 Clear 27 1015 28 10000 3.1 180 22:36 23.02.2020
2417 Clear 27 1015 28 10000 3.1 180 22:18 23.02.2020
2418 Clear 28 1016 18 10000 3.6 200 21:43 23.02.2020
2419 Clear 28 1016 18 10000 3.6 200 21:19 23.02.2020
2420 Clear 28 1016 28 10000 3.1 220 20:55 23.02.2020
2421 Clear 28 1016 28 10000 3.1 220 20:37 23.02.2020
2422 Clear 28 1016 28 10000 3.1 220 20:19 23.02.2020
2423 Clear 29 1017 23 10000 4.1 270 19:55 23.02.2020
2424 Clear 29 1017 23 10000 4.1 270 19:36 23.02.2020
2425 Clear 29 1017 23 10000 4.1 270 19:18 23.02.2020
2426 Clear 29 1017 23 10000 4.1 270 19:18 23.02.2020
2427 Clear 27 1017 34 10000 3.1 190 18:42 23.02.2020
2428 Clear 27 1017 34 10000 3.1 190 18:22 23.02.2020
2429 Clear 26 1017 41 10000 2.6 230 17:59 23.02.2020
2430 Clear 26 1017 41 10000 2.6 230 17:41 23.02.2020
2431 Clear 26 1017 41 10000 2.6 230 17:22 23.02.2020
2432 Clear 24 1017 43 8000 2.1 220 16:58 23.02.2020
2433 Clear 23 1017 43 8000 2.1 220 16:40 23.02.2020
2434 Clear 23 1017 43 8000 2.1 220 16:21 23.02.2020
2435 Clear 23 1017 52 10000 1.5 230 15:55 23.02.2020
2436 Clear 22 1017 52 10000 1.5 230 15:37 23.02.2020
2437 Clear 22 1017 52 10000 1.5 230 15:19 23.02.2020
2438 Clear 20 1017 59 10000 1 100 14:55 23.02.2020
2439 Clear 20 1017 59 10000 1 100 14:37 23.02.2020
2440 Clear 19 1017 59 10000 1 100 14:19 23.02.2020
2441 Clear 18 1017 59 10000 1 230 13:55 23.02.2020
2442 Clear 18 1017 59 10000 1 230 13:36 23.02.2020
2443 Clear 17 1017 59 10000 1 230 13:18 23.02.2020
2444 Clear 15 1016 58 10000 0.93 262 12:40 23.02.2020
2445 Clear 14 1016 58 10000 0.93 262 12:20 23.02.2020
2446 Clear 16 1014 87 10000 3.1 140 11:39 23.02.2020
2447 Clear 14 1014 87 10000 3.1 140 11:20 23.02.2020
2448 Clear 14 1014 87 10000 3.1 140 11:20 23.02.2020
2449 Clear 14 1014 87 10000 3.6 170 10:58 23.02.2020
2450 Clear 13 1014 87 10000 3.6 170 10:40 23.02.2020
2451 Clear 13 1014 87 10000 3.6 170 10:22 23.02.2020
2452 Clear 14 1013 76 10000 3.1 170 09:56 23.02.2020
2453 Clear 14 1013 76 10000 3.1 170 09:38 23.02.2020
2454 Clear 14 1013 76 10000 3.1 170 09:18 23.02.2020
2455 Clear 14 1013 76 10000 3.1 170 09:18 23.02.2020
2456 Clear 18 1015 40 0 0.41 294 08:45 23.02.2020
2457 Clear 18 1015 40 0 0.41 294 08:25 23.02.2020
2458 Clear 17 1015 44 0 0.89 260 07:45 23.02.2020
2459 Clear 17 1015 44 0 0.89 260 07:27 23.02.2020
2460 Clear 17 1013 67 10000 3.6 170 06:24 23.02.2020
2461 Clear 19 1013 67 10000 3.6 170 05:22 23.02.2020
2462 Clear 19 1013 63 10000 3.6 170 04:23 23.02.2020
2463 Clear 21 1013 52 10000 4.1 160 02:49 23.02.2020
2464 Clear 23 1013 46 10000 3.6 170 01:42 23.02.2020
2465 Clear 24 1013 46 10000 3.6 170 01:20 23.02.2020
2466 Clear 26 1015 34 10000 2.6 260 00:44 23.02.2020
2467 Clear 26 1015 34 10000 2.6 260 00:22 23.02.2020
2468 Clear 26 1015 30 10000 3.1 230 23:43 22.02.2020
2469 Clear 26 1015 30 10000 3.1 230 23:24 22.02.2020
2470 Clear 28 1015 34 10000 4.6 210 22:45 22.02.2020
2471 Clear 28 1015 34 10000 4.6 210 22:20 22.02.2020
2472 Clear 28 1015 34 10000 4.6 220 21:46 22.02.2020
2473 Clear 29 1015 34 10000 4.6 220 21:28 22.02.2020
2474 Clear 28 1015 37 10000 4.1 220 20:59 22.02.2020
2475 Clear 28 1015 37 10000 4.1 220 20:40 22.02.2020
2476 Clear 28 1015 37 10000 4.1 220 20:21 22.02.2020
2477 Clear 27 1016 39 10000 3.1 230 19:43 22.02.2020
2478 Clear 27 1016 39 10000 3.1 230 19:43 22.02.2020
2479 Clear 27 1016 39 10000 3.1 230 19:24 22.02.2020
2480 Clear 27 1017 41 8000 3.1 240 18:57 22.02.2020
2481 Clear 26 1017 41 8000 3.1 240 18:38 22.02.2020
2482 Clear 26 1017 41 8000 3.1 240 18:19 22.02.2020
2483 Clear 25 1017 47 7000 3.1 260 17:54 22.02.2020
2484 Clear 25 1017 47 7000 3.1 260 17:36 22.02.2020
2485 Clear 24 1017 47 7000 3.1 260 17:18 22.02.2020
2486 Clear 23 1018 49 7000 3.1 190 16:40 22.02.2020
2487 Clear 22 1018 49 7000 3.1 190 16:20 22.02.2020
2488 Clear 22 1018 60 8000 1.5 180 15:57 22.02.2020
2489 Clear 21 1018 60 8000 1.5 180 15:39 22.02.2020
2490 Clear 21 1018 60 8000 1.5 180 15:21 22.02.2020
2491 Clear 19 1018 67 8000 0.5 240 14:42 22.02.2020
2492 Clear 18 1018 67 8000 0.5 240 14:22 22.02.2020
2493 Clear 18 1018 77 10000 1.34 259 13:44 22.02.2020
2494 Clear 17 1018 77 10000 1.34 259 13:20 22.02.2020
2495 Clear 17 1018 77 10000 0.5 210 12:59 22.02.2020
2496 Clear 17 1018 77 10000 0.5 210 12:40 22.02.2020
2497 Clear 15 1018 77 10000 0.5 210 12:21 22.02.2020
2498 Clear 14 1017 82 8000 3.6 150 11:44 22.02.2020
2499 Clear 15 1017 82 8000 3.6 150 11:26 22.02.2020
2500 Clear 13 1016 87 8000 4.6 150 10:56 22.02.2020
2501 Clear 13 1016 87 8000 4.6 150 10:37 22.02.2020
2502 -273 0 0 0 0 0 10:18 22.02.2020
2503 Clear 14 1016 82 8000 4.6 160 09:55 22.02.2020
2504 Clear 14 1016 82 8000 4.6 160 09:37 22.02.2020
2505 Clear 14 1016 82 8000 4.6 160 09:18 22.02.2020
2506 Clear 15 1015 77 10000 4.1 150 08:44 22.02.2020
2507 Clear 15 1015 77 10000 4.1 150 08:25 22.02.2020
2508 Clear 16 1015 72 10000 3.6 170 07:43 22.02.2020
2509 Clear 16 1015 72 10000 3.6 170 07:18 22.02.2020
2510 Clear 17 1015 67 10000 3.1 180 06:45 22.02.2020
2511 Clear 20 1015 68 10000 3.6 160 04:54 22.02.2020
2512 Clear 20 1015 68 10000 3.6 160 04:28 22.02.2020
2513 Clear 21 1014 56 10000 4.1 150 02:43 22.02.2020
2514 Clear 22 1013 49 10000 5.7 170 01:53 22.02.2020
2515 Clear 23 1013 49 10000 5.7 170 01:30 22.02.2020
2516 Clear 24 1015 41 10000 1.5 240 00:58 22.02.2020
2517 Clear 24 1015 41 10000 1.5 240 00:36 22.02.2020
2518 Clear 25 1015 41 10000 1.5 240 00:18 22.02.2020
2519 Clear 26 1015 36 10000 2.6 220 23:38 21.02.2020
2520 Clear 27 1015 36 10000 2.6 220 23:20 21.02.2020
2521 Clear 28 1015 32 10000 3.6 220 22:42 21.02.2020
2522 Clear 28 1015 32 10000 3.6 220 22:24 21.02.2020
2523 Clear 29 1015 34 10000 4.1 250 21:56 21.02.2020
2524 Clear 28 1015 34 10000 4.1 250 21:37 21.02.2020
2525 Clear 28 1015 34 10000 4.1 250 21:19 21.02.2020
2526 Clear 28 1015 32 10000 4.6 230 20:43 21.02.2020
2527 Clear 28 1015 32 10000 4.6 230 20:25 21.02.2020
2528 Clear 28 1015 37 7000 3.6 220 19:40 21.02.2020
2529 Clear 28 1015 37 7000 3.6 220 19:21 21.02.2020
2530 Clear 26 1015 41 7000 3.1 230 18:44 21.02.2020
2531 Clear 26 1015 41 7000 3.1 230 18:24 21.02.2020
2532 Clear 26 1015 44 7000 3.1 0 17:57 21.02.2020
2533 Clear 26 1015 44 7000 3.1 0 17:38 21.02.2020
2534 Clear 24 1015 44 7000 3.1 0 17:19 21.02.2020
2535 Clear 24 1015 46 6000 2.1 260 16:55 21.02.2020
2536 Clear 24 1015 46 6000 2.1 260 16:37 21.02.2020
2537 Clear 23 1015 46 6000 2.1 260 16:19 21.02.2020
2538 Clear 22 1015 52 7000 2.6 230 15:40 21.02.2020
2539 Clear 22 1015 52 7000 2.6 230 15:19 21.02.2020
2540 Clear 20 1015 63 7000 1 180 14:44 21.02.2020
2541 Clear 19 1015 63 7000 1 180 14:22 21.02.2020
2542 Clear 19 1014 82 8000 2.6 180 13:59 21.02.2020
2543 Clear 18 1014 72 8000 1.27 259 13:40 21.02.2020
2544 Clear 18 1014 72 8000 1.26 261 13:21 21.02.2020
2545 Fog 17 1013 93 5000 3.1 170 12:46 21.02.2020
2546 Clear 16 1014 82 10000 1.26 261 12:27 21.02.2020
2547 Mist 17 1013 93 8000 3.6 170 11:58 21.02.2020
2548 Clear 17 1012 87 8000 3.6 160 11:38 21.02.2020
2549 Clear 17 1012 87 8000 3.6 160 11:20 21.02.2020
2550 Clear 18 1012 87 8000 4.1 160 10:42 21.02.2020
2551 Clear 17 1012 87 8000 4.1 160 10:22 21.02.2020
2552 Clear 18 1011 82 10000 3.1 170 09:58 21.02.2020
2553 Clear 18 1011 82 10000 3.1 170 09:40 21.02.2020
2554 Clear 18 1011 82 10000 3.1 170 09:22 21.02.2020
2555 Clear 19 1012 77 10000 3.1 170 08:56 21.02.2020
2556 Clear 19 1012 77 10000 3.1 170 08:37 21.02.2020
2557 Clear 18 1012 77 10000 3.1 170 08:18 21.02.2020
2558 Clouds 19 1012 77 10000 3.1 170 07:42 21.02.2020
2559 Clouds 18 1012 77 10000 3.1 170 07:21 21.02.2020
2560 Clouds 19 1012 72 10000 3.6 180 06:56 21.02.2020
2561 Clouds 19 1012 72 10000 3.6 180 06:33 21.02.2020
2562 Clouds 19 1012 72 10000 3.6 160 05:56 21.02.2020
2563 Clouds 19 1012 72 10000 3.6 160 05:30 21.02.2020
2564 Clouds 19 1012 72 10000 3.6 160 05:30 21.02.2020
2565 Clear 20 1012 68 10000 5.1 160 04:26 21.02.2020
2566 Clear 20 1012 63 10000 6.2 150 03:52 21.02.2020
2567 Clear 21 1012 60 10000 7.2 150 02:59 21.02.2020
2568 Clouds 22 1011 49 10000 6.7 150 01:43 21.02.2020
2569 Clouds 23 1011 49 10000 6.7 150 01:22 21.02.2020
2570 Clear 27 1012 39 10000 3.1 230 00:38 21.02.2020
2571 Clear 26 1012 39 10000 3.1 230 00:19 21.02.2020
2572 Clear 28 1012 28 10000 3.6 230 23:41 20.02.2020
2573 Clear 29 1012 28 10000 3.6 230 23:22 20.02.2020
2574 Clear 31 1011 25 10000 4.1 240 22:42 20.02.2020
2575 Clear 31 1011 25 10000 4.1 240 22:23 20.02.2020
2576 Clear 32 1011 24 10000 4.1 240 21:57 20.02.2020
2577 Clear 32 1011 24 10000 4.1 240 21:39 20.02.2020
2578 Clear 32 1011 24 10000 4.1 240 21:39 20.02.2020
2579 Clear 33 1011 24 10000 4.1 240 21:20 20.02.2020
2580 Clear 33 1011 17 10000 3.6 240 20:56 20.02.2020
2581 Clear 33 1011 17 10000 3.6 240 20:38 20.02.2020
2582 Clear 33 1011 17 10000 3.6 240 20:19 20.02.2020
2583 Clear 33 1011 19 10000 3.6 270 19:59 20.02.2020
2584 Clear 33 1011 19 10000 3.6 270 19:41 20.02.2020
2585 Clear 33 1011 19 10000 3.6 270 19:22 20.02.2020
2586 Clear 33 1012 18 8000 2.6 210 18:55 20.02.2020
2587 Clear 33 1012 18 8000 2.6 210 18:37 20.02.2020
2588 Clear 33 1012 18 8000 2.6 210 18:18 20.02.2020
2589 Clear 32 1012 22 8000 2.1 290 17:39 20.02.2020
2590 Clear 31 1012 25 10000 1.5 290 17:19 20.02.2020
2591 Clear 30 1012 25 10000 1.5 290 16:58 20.02.2020
2592 Clear 30 1012 25 10000 1.5 290 16:39 20.02.2020
2593 Clear 30 1012 25 10000 1.5 290 16:19 20.02.2020
2594 Clear 28 1012 29 10000 1 180 15:43 20.02.2020
2595 Clear 28 1012 29 10000 1 180 15:24 20.02.2020
2596 Clear 26 1012 38 10000 1 210 14:59 20.02.2020
2597 Clear 25 1012 38 10000 1 210 14:41 20.02.2020
2598 Clear 24 1012 38 10000 1 210 14:23 20.02.2020
2599 Clear 24 1012 38 10000 1 210 14:23 20.02.2020
2600 Clear 21 1011 45 10000 0.85 291 13:56 20.02.2020
2601 Clear 21 1011 45 10000 0.85 291 13:38 20.02.2020
2602 Clear 21 1011 45 10000 0.85 291 13:19 20.02.2020
2603 Clear 19 1011 55 10000 0.5 40 12:42 20.02.2020
2604 Clear 17 1011 55 10000 0.5 40 12:21 20.02.2020
2605 Clear 19 1009 62 10000 0.5 0 11:58 20.02.2020
2606 Clear 19 1009 62 10000 0.5 0 11:39 20.02.2020
2607 Clear 18 1009 62 10000 0.5 0 11:21 20.02.2020
2608 Clear 19 1009 55 10000 0.34 65 10:56 20.02.2020
2609 Clear 19 1009 55 10000 0.34 65 10:37 20.02.2020
2610 Clear 19 1009 55 10000 0.34 65 10:19 20.02.2020
2611 Clear 19 1009 55 10000 0.34 65 09:39 20.02.2020
2612 Clear 19 1009 55 10000 0.34 65 09:21 20.02.2020
2613 Clear 20 1009 55 10000 0.34 65 08:44 20.02.2020
2614 Clear 19 1009 55 10000 0.32 48 08:24 20.02.2020
2615 Clear 20 1010 52 10000 1.5 50 07:48 20.02.2020
2616 Clear 20 1010 52 10000 1.5 50 07:28 20.02.2020
2617 Clear 20 1010 48 10000 1.5 330 06:59 20.02.2020
2618 Clear 20 1010 48 10000 1.5 330 06:40 20.02.2020
2619 Clear 22 1010 43 10000 2.1 180 05:47 20.02.2020
2620 Clear 22 1010 43 10000 2.1 180 05:25 20.02.2020
2621 Clear 22 1011 43 10000 3.1 150 04:48 20.02.2020
2622 Clear 22 1011 40 10000 4.6 150 03:46 20.02.2020
2623 Clear 23 1010 36 10000 3.6 150 02:47 20.02.2020
2624 Clear 26 1010 26 10000 5.7 200 01:25 20.02.2020
2625 Clear 29 1012 25 10000 2.6 230 00:45 20.02.2020
2626 Clear 29 1012 25 10000 2.6 230 00:24 20.02.2020
2627 Clear 31 1011 22 10000 3.6 230 23:46 19.02.2020
2628 Clear 31 1011 22 10000 3.6 230 23:18 19.02.2020
2629 Clear 33 1011 18 10000 3.6 240 22:42 19.02.2020
2630 Clear 33 1011 18 10000 3.6 240 22:23 19.02.2020
2631 Clear 34 1011 16 10000 3.6 220 21:58 19.02.2020
2632 Clear 34 1011 16 10000 3.6 220 21:39 19.02.2020
2633 Clear 34 1011 16 10000 3.6 220 21:19 19.02.2020
2634 Clear 34 1012 17 10000 2.6 230 20:57 19.02.2020
2635 Clear 34 1012 17 10000 2.6 230 20:37 19.02.2020
2636 Clear 33 1012 17 10000 2.6 230 20:19 19.02.2020
2637 Clear 33 1012 18 10000 2.1 210 19:57 19.02.2020
2638 Clear 33 1012 18 10000 2.1 210 19:37 19.02.2020
2639 Clear 33 1012 18 10000 2.1 210 19:19 19.02.2020
2640 Clear 32 1012 18 10000 2.6 260 18:57 19.02.2020
2641 Clear 32 1012 18 10000 2.6 260 18:39 19.02.2020
2642 Clear 32 1012 18 10000 2.6 260 18:20 19.02.2020
2643 Clear 31 1013 19 10000 2.1 220 17:43 19.02.2020
2644 Clear 31 1013 19 10000 2.1 220 17:20 19.02.2020
2645 Clear 29 1013 21 10000 2.1 250 16:56 19.02.2020
2646 Clear 29 1013 21 10000 2.1 250 16:37 19.02.2020
2647 Clear 29 1013 21 10000 2.1 250 16:37 19.02.2020
2648 Clear 29 1013 21 10000 2.1 250 16:18 19.02.2020
2649 Clear 27 1013 24 10000 3.04 265 15:41 19.02.2020
2650 Clear 27 1013 24 10000 3.04 265 15:23 19.02.2020
2651 Clear 24 1013 30 10000 3.04 265 14:56 19.02.2020
2652 Clear 24 1013 30 10000 3.04 265 14:56 19.02.2020
2653 Clear 24 1013 30 10000 3.04 265 14:37 19.02.2020
2654 Clear 22 1013 30 10000 0.82 261 14:19 19.02.2020
2655 Clear 20 1013 51 10000 0.82 261 13:41 19.02.2020
2656 Clear 20 1013 51 10000 0.82 261 13:21 19.02.2020
2657 Clear 19 1012 42 10000 0.9 259 12:42 19.02.2020
2658 Clear 19 1012 42 10000 0.9 259 12:19 19.02.2020
2659 Clear 19 1012 42 10000 0.9 259 12:19 19.02.2020
2660 Clear 19 1012 42 10000 0.9 259 12:19 19.02.2020
2661 Clear 19 1011 54 10000 1.5 310 11:59 19.02.2020
2662 Clear 18 1011 54 10000 1.5 310 11:38 19.02.2020
2663 Clear 18 1011 54 10000 1.5 310 11:20 19.02.2020
2664 Clear 19 1010 51 10000 1.5 260 10:58 19.02.2020
2665 Clear 19 1010 51 10000 1.5 260 10:38 19.02.2020
2666 Clear 19 1010 51 10000 1.5 260 10:38 19.02.2020
2667 Clear 18 1010 51 10000 1.5 260 10:19 19.02.2020
2668 Clear 20 1010 39 10000 1.5 140 09:58 19.02.2020
2669 Clear 20 1010 39 10000 1.5 140 09:37 19.02.2020
2670 Clear 19 1010 39 10000 1.5 140 09:19 19.02.2020
2671 Clear 19 1010 39 10000 1.5 140 09:19 19.02.2020
2672 Clear 19 1010 48 10000 0.5 270 08:45 19.02.2020
2673 Clear 19 1010 48 10000 0.5 270 08:24 19.02.2020
2674 Clear 20 1010 42 10000 1.5 270 07:43 19.02.2020
2675 Clear 20 1010 42 10000 1.5 270 07:25 19.02.2020
2676 Clear 21 1010 32 10000 2.1 130 06:57 19.02.2020
2677 Clear 21 1010 32 10000 2.1 130 06:27 19.02.2020
2678 Clear 22 1010 33 10000 3.1 150 04:25 19.02.2020
2679 Clear 23 1010 26 10000 5.1 150 02:58 19.02.2020
2680 Clear 24 1010 26 10000 5.1 150 02:31 19.02.2020
2681 Clear 26 1009 23 10000 6.7 180 01:24 19.02.2020
2682 Clear 30 1011 22 10000 3.6 250 00:51 19.02.2020
2683 Clear 30 1011 22 10000 3.6 250 00:51 19.02.2020
2684 Clear 30 1011 22 10000 3.6 250 00:32 19.02.2020
2685 Clear 31 1010 19 10000 5.1 240 23:44 18.02.2020
2686 Clear 31 1010 19 10000 5.1 240 23:21 18.02.2020
2687 Clear 34 1010 16 10000 3.6 210 22:59 18.02.2020
2688 Clear 34 1010 16 10000 3.6 210 22:41 18.02.2020
2689 Clear 34 1010 16 10000 3.6 210 22:19 18.02.2020
2690 Clear 35 1010 14 10000 4.1 230 21:56 18.02.2020
2691 Clear 35 1010 14 10000 4.1 230 21:37 18.02.2020
2692 Clear 35 1010 14 10000 4.1 230 21:19 18.02.2020
2693 Clear 35 1010 18 10000 3.6 200 20:57 18.02.2020
2694 Clear 35 1010 18 10000 3.6 200 20:38 18.02.2020
2695 Clear 35 1010 18 10000 3.6 200 20:38 18.02.2020
2696 Clear 35 1010 18 10000 3.6 200 20:20 18.02.2020
2697 Clear 34 1011 18 10000 2.6 170 19:43 18.02.2020
2698 Clear 34 1011 18 10000 2.6 170 19:43 18.02.2020
2699 Clear 34 1011 18 10000 2.6 170 19:43 18.02.2020
2700 Clear 34 1011 18 10000 2.6 170 19:20 18.02.2020
2701 Clear 32 1012 25 10000 2.6 230 18:59 18.02.2020
2702 Clear 32 1012 25 10000 2.6 230 18:41 18.02.2020
2703 Clear 32 1012 25 10000 2.6 230 18:20 18.02.2020
2704 Clear 32 1012 25 10000 2.6 230 18:20 18.02.2020
2705 Clear 30 1012 26 10000 2.1 180 17:56 18.02.2020
2706 Clear 30 1012 26 10000 2.1 180 17:37 18.02.2020
2707 Clear 30 1012 26 10000 2.1 180 17:37 18.02.2020
2708 Clear 30 1012 26 10000 2.1 180 17:18 18.02.2020
2709 Clear 28 1013 32 10000 2.62 263 16:39 18.02.2020
2710 Clear 27 1013 32 10000 2.62 263 16:19 18.02.2020
2711 Clear 25 1013 38 10000 2.62 263 15:41 18.02.2020
2712 Clear 25 1013 38 10000 2.62 263 15:20 18.02.2020
2713 Clear 23 1013 43 10000 2.62 263 14:57 18.02.2020
2714 Clear 23 1013 43 10000 2.62 263 14:39 18.02.2020
2715 Clear 22 1013 43 10000 0.32 296 14:20 18.02.2020
2716 Clear 20 1013 63 10000 0.32 296 13:42 18.02.2020
2717 Clear 19 1013 63 10000 0.28 279 13:23 18.02.2020
2718 Clear 19 1012 55 10000 0.28 279 12:59 18.02.2020
2719 Clear 19 1012 55 10000 0.28 279 12:41 18.02.2020
2720 Clear 19 1012 55 10000 0.28 279 12:22 18.02.2020
2721 Clear 18 1011 58 10000 1 0 11:46 18.02.2020
2722 Clear 17 1011 58 10000 1 0 11:26 18.02.2020
2723 Clear 18 1011 54 10000 1 0 10:58 18.02.2020
2724 Clear 18 1011 54 10000 1 0 10:39 18.02.2020
2725 -273 0 0 0 0 0 10:18 18.02.2020
2726 Clear 19 1011 55 10000 1.5 280 09:56 18.02.2020
2727 Clear 19 1011 55 10000 1.5 280 09:37 18.02.2020
2728 Clear 19 1011 55 10000 1.5 280 09:19 18.02.2020
2729 Clear 20 1011 48 10000 0.5 0 08:43 18.02.2020
2730 Clear 19 1011 48 10000 0.5 0 08:21 18.02.2020
2731 Clear 20 1011 42 10000 3.6 150 07:58 18.02.2020
2732 Clear 20 1011 42 10000 3.6 150 07:36 18.02.2020
2733 Clear 20 1011 42 10000 3.6 150 07:18 18.02.2020
2734 Clear 21 1012 42 10000 2.6 210 06:41 18.02.2020
2735 Clear 21 1012 42 10000 2.6 210 06:22 18.02.2020
2736 Clear 21 1012 40 10000 5.1 190 05:46 18.02.2020
2737 Clear 22 1012 43 10000 4.1 170 04:43 18.02.2020
2738 Clear 22 1012 40 10000 2.1 160 03:36 18.02.2020
2739 Clear 23 1012 33 10000 4.1 220 02:49 18.02.2020
2740 Clear 24 1012 31 10000 4.6 220 01:21 18.02.2020
2741 Clear 27 1013 32 10000 4.1 220 00:22 18.02.2020
2742 Clear 28 1013 25 10000 3.1 220 23:57 17.02.2020
2743 Clear 28 1013 25 10000 3.1 220 23:38 17.02.2020
2744 Clear 28 1013 25 10000 3.1 220 23:19 17.02.2020
2745 Clear 28 1014 24 10000 3.1 210 22:42 17.02.2020
2746 Clear 28 1014 24 10000 3.1 210 22:21 17.02.2020
2747 Clear 29 1014 21 10000 3.1 210 21:59 17.02.2020
2748 Clear 29 1014 21 10000 3.1 210 21:38 17.02.2020
2749 Clear 29 1014 21 10000 3.1 210 21:18 17.02.2020
2750 Clear 28 1014 28 10000 3.6 240 20:43 17.02.2020
2751 Clear 28 1014 28 10000 3.6 240 20:21 17.02.2020
2752 Clouds 27 1015 32 10000 3.1 210 19:59 17.02.2020
2753 Clouds 27 1015 32 10000 3.1 210 19:41 17.02.2020
2754 Clouds 27 1015 32 10000 3.1 210 19:20 17.02.2020
2755 Clear 26 1015 36 10000 3.1 180 18:38 17.02.2020
2756 Clear 26 1015 36 10000 3.1 180 18:20 17.02.2020
2757 Clouds 24 1015 40 10000 3.1 240 17:59 17.02.2020
2758 Clouds 24 1015 40 10000 3.1 240 17:38 17.02.2020
2759 Clouds 23 1015 40 10000 3.1 240 17:19 17.02.2020
2760 Clouds 22 1015 49 10000 2.6 190 16:58 17.02.2020
2761 Clouds 21 1015 49 10000 2.6 190 16:40 17.02.2020
2762 -273 0 0 0 0 0 16:21 17.02.2020
2763 Clouds 20 1015 52 10000 2.1 210 15:45 17.02.2020
2764 Clouds 20 1015 52 10000 2.1 210 15:27 17.02.2020
2765 Clouds 18 1015 67 10000 1 180 14:57 17.02.2020
2766 Clouds 19 1015 67 10000 1 180 14:39 17.02.2020
2767 Clouds 16 1015 67 10000 1 180 14:20 17.02.2020
2768 Clouds 16 1015 76 10000 2.1 280 13:55 17.02.2020
2769 Clouds 15 1015 76 10000 2.1 280 13:36 17.02.2020
2770 Clouds 15 1015 76 10000 2.1 280 13:36 17.02.2020
2771 Clouds 15 1015 76 10000 2.1 280 13:18 17.02.2020
2772 Clouds 15 1015 76 10000 2.1 280 13:18 17.02.2020
2773 Clouds 14 1014 63 10000 2.48 253 12:42 17.02.2020
2774 Clouds 14 1014 63 10000 2.48 253 12:22 17.02.2020
2775 Clouds 14 1013 87 7000 4.1 160 11:50 17.02.2020
2776 Clouds 14 1013 87 7000 4.1 160 11:29 17.02.2020
2777 Clouds 12 1012 87 8000 3.1 160 10:59 17.02.2020
2778 Clouds 12 1012 87 8000 3.1 160 10:40 17.02.2020
2779 Clouds 12 1012 87 8000 3.1 160 10:22 17.02.2020
2780 Clouds 12 1012 87 8000 3.1 160 10:21 17.02.2020
2781 Clouds 13 1012 82 8000 5.1 170 09:58 17.02.2020
2782 Clouds 13 1012 82 8000 5.1 170 09:58 17.02.2020
2783 Clouds 13 1012 82 8000 5.1 170 09:40 17.02.2020
2784 Clouds 13 1012 82 8000 5.1 170 09:20 17.02.2020
2785 Clear 14 1011 82 10000 3.6 150 08:56 17.02.2020
2786 Clear 14 1011 82 10000 3.6 150 08:38 17.02.2020
2787 Clear 14 1011 82 10000 3.6 150 08:19 17.02.2020
2788 Clear 14 1011 76 10000 4.6 160 07:42 17.02.2020
2789 Clear 14 1011 76 10000 4.6 160 07:22 17.02.2020
2790 Clear 15 1011 72 10000 5.7 160 06:51 17.02.2020
2791 Clear 15 1011 72 10000 5.7 160 06:30 17.02.2020
2792 Clear 15 1011 72 10000 5.7 160 06:30 17.02.2020
2793 Clear 17 1011 59 10000 4.1 150 05:40 17.02.2020
2794 Clear 18 1011 55 10000 4.6 150 04:58 17.02.2020
2795 Clear 20 1011 55 10000 5.1 150 03:20 17.02.2020
2796 Clear 22 1012 38 10000 1.5 260 01:36 17.02.2020
2797 Clear 24 1011 34 10000 3.6 240 00:41 17.02.2020
2798 Clear 25 1011 34 10000 3.6 240 00:19 17.02.2020
2799 Clear 27 1014 32 10000 4.1 240 23:52 16.02.2020
2800 Clear 27 1014 32 10000 4.1 240 23:29 16.02.2020
2801 Clear 30 1010 25 10000 4.6 230 22:57 16.02.2020
2802 Clear 30 1010 25 10000 4.6 230 22:38 16.02.2020
2803 Clear 30 1010 25 10000 4.6 230 22:20 16.02.2020
2804 Clear 31 1010 23 10000 4.6 240 21:55 16.02.2020
2805 Clear 28 1010 23 10000 4.6 240 21:37 16.02.2020
2806 Clear 28 1010 23 10000 4.6 240 21:37 16.02.2020
2807 Clear 29 1010 23 10000 4.6 240 21:18 16.02.2020
2808 Clear 28 1010 22 10000 3.6 0 20:56 16.02.2020
2809 Clear 29 1010 22 10000 3.6 0 20:38 16.02.2020
2810 Clear 31 1010 22 10000 3.6 0 20:19 16.02.2020
2811 Clear 32 1011 20 10000 3.1 0 19:56 16.02.2020
2812 Clear 32 1011 20 10000 3.1 0 19:36 16.02.2020
2813 Clear 31 1011 20 10000 3.1 0 19:18 16.02.2020
2814 Clear 31 1011 23 10000 2.6 0 18:41 16.02.2020
2815 Clear 31 1011 23 10000 2.6 0 18:23 16.02.2020
2816 Clear 28 1011 26 10000 2.6 240 17:45 16.02.2020
2817 Clear 28 1011 26 10000 2.6 240 17:21 16.02.2020
2818 Clear 27 1012 31 10000 2.1 0 16:58 16.02.2020
2819 Clear 26 1012 31 10000 2.1 0 16:39 16.02.2020
2820 Clear 26 1012 31 10000 2.1 0 16:39 16.02.2020
2821 Clear 26 1012 31 10000 2.1 0 16:21 16.02.2020
2822 Clear 26 1012 31 10000 2.1 0 16:21 16.02.2020
2823 Clear 25 1012 38 10000 1.5 0 15:57 16.02.2020
2824 Clear 24 1012 38 10000 1.5 0 15:38 16.02.2020
2825 Clear 24 1012 38 10000 1.5 0 15:18 16.02.2020
2826 Clear 21 1012 49 10000 3.16 261 14:40 16.02.2020
2827 Clear 22 1012 49 10000 3.16 261 14:22 16.02.2020
2828 Clear 20 1013 55 10000 1.03 270 13:48 16.02.2020
2829 Clear 19 1013 55 10000 1.03 270 13:25 16.02.2020
2830 Clear 18 1012 62 10000 1.06 270 12:56 16.02.2020
2831 Clear 18 1012 62 10000 1.06 270 12:38 16.02.2020
2832 Clear 18 1012 62 10000 1.06 270 12:19 16.02.2020
2833 Clear 18 1011 62 10000 1 0 11:39 16.02.2020
2834 Clear 15 1011 62 10000 1 0 11:19 16.02.2020
2835 Clear 17 1010 59 10000 2.1 140 10:57 16.02.2020
2836 Clear 17 1010 59 10000 2.1 140 10:39 16.02.2020
2837 Clear 19 1010 59 10000 2.1 140 10:20 16.02.2020
2838 Clear 19 1010 55 10000 1.5 180 09:57 16.02.2020
2839 Clear 17 1010 55 10000 1.5 180 09:37 16.02.2020
2840 Clear 19 1010 55 10000 1.5 180 09:19 16.02.2020
2841 Clear 19 1010 55 10000 1.5 240 08:46 16.02.2020
2842 Clear 19 1010 55 10000 1.5 240 08:21 16.02.2020
2843 Clear 20 1010 45 10000 2.1 180 07:55 16.02.2020
2844 Clear 20 1010 45 10000 2.1 180 07:34 16.02.2020
2845 Clear 20 1010 45 10000 2.6 160 06:36 16.02.2020
2846 Clear 21 1010 43 10000 4.6 160 04:57 16.02.2020
2847 Clear 22 1010 37 10000 5.1 150 03:34 16.02.2020
2848 Clear 23 1010 33 10000 5.1 140 02:32 16.02.2020
2849 Clear 24 1012 27 10000 2.1 240 01:45 16.02.2020
2850 Clear 24 1012 27 10000 2.1 240 01:26 16.02.2020
2851 Clear 26 1011 21 10000 2.1 240 00:59 16.02.2020
2852 Clear 29 1011 21 10000 2.1 240 00:39 16.02.2020
2853 Clear 28 1011 21 10000 2.1 240 00:19 16.02.2020
2854 Clear 30 1011 16 10000 3.6 240 23:42 15.02.2020
2855 Clear 30 1011 16 10000 3.6 240 23:23 15.02.2020
2856 Clear 32 1011 17 10000 4.1 250 22:56 15.02.2020
2857 Clear 32 1011 17 10000 4.1 250 22:37 15.02.2020
2858 Clear 32 1011 17 10000 4.1 250 22:18 15.02.2020
2859 Clear 33 1011 15 10000 4.6 250 21:42 15.02.2020
2860 Clear 33 1011 15 10000 4.6 250 21:23 15.02.2020
2861 Clear 33 1012 15 10000 4.6 250 20:43 15.02.2020
2862 Clear 33 1012 15 10000 4.6 250 20:43 15.02.2020
2863 Clear 33 1012 15 10000 4.6 250 20:21 15.02.2020
2864 Clear 33 1013 17 10000 3.1 230 19:59 15.02.2020
2865 Clear 33 1013 17 10000 3.1 230 19:40 15.02.2020
2866 Clear 33 1013 17 10000 3.1 230 19:21 15.02.2020
2867 Clear 31 1013 17 8000 2.6 260 18:40 15.02.2020
2868 Clear 31 1013 17 8000 2.6 260 18:20 15.02.2020
2869 Clear 30 1014 18 10000 2.6 280 17:55 15.02.2020
2870 Clear 30 1014 18 10000 2.6 280 17:37 15.02.2020
2871 Clear 30 1014 18 10000 2.6 280 17:18 15.02.2020
2872 Clear 28 1014 22 10000 2.6 230 16:39 15.02.2020
2873 Clear 28 1014 22 10000 2.6 230 16:20 15.02.2020
2874 Clear 27 1014 23 10000 2.6 210 15:49 15.02.2020
2875 Clear 26 1014 23 10000 2.6 210 15:31 15.02.2020
2876 Clear 24 1013 30 10000 1.5 170 14:55 15.02.2020
2877 Clear 24 1013 30 10000 1.5 170 14:37 15.02.2020
2878 Clear 21 1013 30 10000 1.5 170 14:18 15.02.2020
2879 Clear 20 1013 48 10000 1.13 276 13:41 15.02.2020
2880 Clear 18 1013 48 10000 1.14 284 13:22 15.02.2020
2881 Clear 18 1013 47 10000 1 90 12:55 15.02.2020
2882 Clear 18 1013 47 10000 1 90 12:37 15.02.2020
2883 Clear 16 1013 47 10000 1 90 12:19 15.02.2020
2884 Clear 18 1012 44 8000 1 0 11:41 15.02.2020
2885 Clear 18 1012 44 8000 1 0 11:23 15.02.2020
2886 Clear 18 1011 47 10000 1 0 10:47 15.02.2020
2887 Clear 18 1011 47 10000 1 0 10:27 15.02.2020
2888 Clear 18 1011 47 10000 1 0 10:27 15.02.2020
2889 Clear 19 1011 41 8000 1 0 09:45 15.02.2020
2890 Clear 18 1011 41 8000 1 0 09:25 15.02.2020
2891 Clear 19 1011 42 10000 0.33 297 08:59 15.02.2020
2892 Clear 19 1011 42 10000 0.33 297 08:41 15.02.2020
2893 Clear 19 1011 42 10000 0.33 297 08:22 15.02.2020
2894 Clear 20 1012 39 10000 0.32 297 07:42 15.02.2020
2895 Clear 19 1012 39 10000 0.32 297 07:23 15.02.2020
2896 Clear 20 1012 37 10000 1.5 280 06:39 15.02.2020
2897 Clear 20 1012 37 10000 1.5 280 06:39 15.02.2020
2898 Clear 20 1012 37 10000 1.5 280 06:20 15.02.2020
2899 Clear 22 1012 28 10000 2.1 140 04:52 15.02.2020
2900 Clear 22 1012 28 10000 2.1 140 04:26 15.02.2020
2901 Clear 23 1011 23 10000 2.6 150 02:59 15.02.2020
2902 Clear 24 1011 23 10000 2.6 150 02:29 15.02.2020
2903 Clouds 25 1013 22 10000 1 260 01:59 15.02.2020
2904 Clouds 25 1013 22 10000 1 260 01:37 15.02.2020
2905 Clouds 30 1012 19 10000 3.6 240 00:31 15.02.2020
2906 Clouds 30 1012 19 10000 4.1 230 23:59 14.02.2020
2907 Clouds 30 1012 19 10000 4.1 230 23:38 14.02.2020
2908 Clouds 31 1012 19 10000 4.1 230 23:18 14.02.2020
2909 Clouds 31 1012 17 10000 4.1 220 22:43 14.02.2020
2910 Clouds 32 1012 17 10000 4.1 220 22:22 14.02.2020
2911 Clouds 32 1012 18 8000 3.6 210 21:49 14.02.2020
2912 Clouds 32 1012 18 8000 3.6 210 21:31 14.02.2020
2913 Clouds 33 925 35 0 1.34 180 20:56 14.02.2020
2914 Clouds 34 925 34 0 1.34 225 20:38 14.02.2020
2915 Clouds 34 925 35 0 1.34 270 20:19 14.02.2020
2916 Clouds 34 925 35 0 1.34 270 20:19 14.02.2020
2917 Clouds 33 925 38 0 1.34 180 19:41 14.02.2020
2918 Clouds 33 926 38 0 0.89 0 19:23 14.02.2020
2919 Clouds 33 926 39 0 0.89 225 18:57 14.02.2020
2920 Clouds 32 926 40 0 0.89 180 18:39 14.02.2020
2921 Clouds 32 926 42 0 1.34 180 18:20 14.02.2020
2922 Clouds 31 927 44 0 1.34 180 17:44 14.02.2020
2923 Clouds 31 927 43 0 1.34 180 17:22 14.02.2020
2924 Clouds 31 927 43 0 1.34 180 17:22 14.02.2020
2925 Clouds 31 927 45 0 0.89 180 16:59 14.02.2020
2926 Clouds 31 927 44 0 0.45 225 16:41 14.02.2020
2927 Clouds 31 927 46 0 2.97 265 16:22 14.02.2020
2928 Clouds 30 927 49 0 0.45 135 15:56 14.02.2020
2929 Clouds 29 927 51 0 0.45 225 15:38 14.02.2020
2930 Clouds 28 927 53 0 2.97 265 15:20 14.02.2020
2931 Clouds 28 927 52 0 2.97 265 14:58 14.02.2020
2932 Clouds 27 927 53 0 2.97 265 14:40 14.02.2020
2933 Clouds 24 697 41 0 2.97 265 14:22 14.02.2020
2934 Clear 21 697 41 0 0.74 301 13:55 14.02.2020
2935 Clear 23 697 41 0 0.74 301 13:37 14.02.2020
2936 Clear 22 697 41 0 0.74 301 13:18 14.02.2020
2937 Clear 21 697 41 0 0.89 306 12:56 14.02.2020
2938 Clear 21 697 41 0 0.89 306 12:37 14.02.2020
2939 Clear 21 697 41 0 0.89 306 12:18 14.02.2020
2940 Clear 19 697 41 0 0.89 306 11:54 14.02.2020
2941 Clear 19 697 41 0 0.89 306 11:36 14.02.2020
2942 Clear 17 1014 27 0 0.74 339 11:18 14.02.2020
2943 Clear 17 1014 27 0 0.74 339 10:40 14.02.2020
2944 Clear 21 697 41 0 0.74 339 10:21 14.02.2020
2945 Clear 21 697 41 0 0.74 339 09:44 14.02.2020
2946 Clear 21 697 41 0 0.74 339 09:22 14.02.2020
2947 Clear 21 697 41 0 0.74 339 08:56 14.02.2020
2948 Clear 21 697 41 0 0.74 339 08:38 14.02.2020
2949 Clouds 21 697 41 0 0.75 270 08:19 14.02.2020
2950 Clouds 21 697 41 0 0.75 270 07:49 14.02.2020
2951 Clouds 21 697 41 0 0.75 270 07:24 14.02.2020
2952 Clouds 21 697 41 0 0.75 270 06:33 14.02.2020
2953 Clouds 21 1013 34 10000 3.1 180 05:59 14.02.2020
2954 Clouds 21 1013 34 10000 3.1 180 05:28 14.02.2020
2955 Clouds 22 1013 35 10000 2.6 150 03:31 14.02.2020
2956 Clouds 22 1012 29 10000 5.1 200 02:52 14.02.2020
2957 Clear 23 1014 24 10000 2.1 210 01:55 14.02.2020
2958 Clear 25 1013 24 10000 3.6 250 00:44 14.02.2020
2959 Clear 25 1013 24 10000 3.6 250 00:44 14.02.2020
2960 Clear 25 1013 24 10000 3.6 250 00:25 14.02.2020
2961 Clear 28 1013 23 10000 3.6 240 23:52 13.02.2020
2962 Clear 28 1013 23 10000 3.6 240 23:25 13.02.2020
2963 Clear 29 1013 26 10000 4.6 240 22:59 13.02.2020
2964 Clear 29 1013 26 10000 4.6 240 22:38 13.02.2020
2965 Clear 29 1013 26 10000 4.6 240 22:19 13.02.2020
2966 Clear 29 1013 26 10000 4.1 250 21:43 13.02.2020
2967 Clear 29 1013 26 10000 4.1 250 21:43 13.02.2020
2968 Clear 29 1013 26 10000 4.1 250 21:24 13.02.2020
2969 Clouds 30 1014 30 10000 3.1 0 20:59 13.02.2020
2970 Clouds 29 1014 30 10000 3.1 0 20:40 13.02.2020
2971 Clouds 29 1014 30 10000 3.1 0 20:22 13.02.2020
2972 Clouds 30 1014 32 8000 2.6 0 19:57 13.02.2020
2973 Clouds 29 1014 32 8000 2.6 0 19:37 13.02.2020
2974 Clouds 29 1014 32 8000 2.6 0 19:19 13.02.2020
2975 Clouds 28 1015 36 8000 2.1 250 18:55 13.02.2020
2976 Clouds 28 1015 36 8000 2.1 250 18:37 13.02.2020
2977 Clouds 27 1015 36 8000 2.1 250 18:19 13.02.2020
2978 Clear 26 1015 41 8000 2.6 210 17:41 13.02.2020
2979 Clear 25 1015 41 8000 2.6 210 17:22 13.02.2020
2980 Clouds 23 1016 46 8000 1.5 0 16:59 13.02.2020
2981 Clouds 23 1016 46 8000 1.5 0 16:40 13.02.2020
2982 Clouds 23 1016 46 8000 1.5 0 16:20 13.02.2020
2983 Clouds 22 1016 49 7000 2.1 240 15:57 13.02.2020
2984 Clouds 22 1016 49 7000 2.1 240 15:38 13.02.2020
2985 Clouds 22 1016 49 7000 2.1 240 15:19 13.02.2020
2986 Clouds 21 1015 59 8000 1 130 14:58 13.02.2020
2987 Clouds 20 1015 59 8000 1 130 14:39 13.02.2020
2988 Clouds 20 1015 59 8000 1 130 14:21 13.02.2020
2989 Clouds 20 1015 59 8000 1 130 14:21 13.02.2020
2990 Clouds 18 1015 63 10000 1.8 264 13:48 13.02.2020
2991 Clouds 17 1015 63 10000 1.8 264 13:19 13.02.2020
2992 Clouds 16 1015 72 10000 1.85 259 12:56 13.02.2020
2993 Clouds 16 1015 72 10000 1.85 259 12:56 13.02.2020
2994 Clouds 16 1015 72 10000 1.85 259 12:56 13.02.2020
2995 Clouds 18 1015 72 10000 1.85 259 12:38 13.02.2020
2996 Clouds 18 1015 72 10000 1.85 259 12:19 13.02.2020
2997 Clouds 19 1013 67 10000 1.5 180 11:47 13.02.2020
2998 Clouds 16 1013 67 10000 1.5 180 11:21 13.02.2020
2999 Clouds 16 1012 67 10000 1 0 10:56 13.02.2020
3000 Clouds 16 1012 67 10000 1 0 10:38 13.02.2020
3001 Clouds 16 1012 67 10000 1 0 10:38 13.02.2020
3002 Clouds 16 1012 67 10000 1 0 10:20 13.02.2020
3003 Clouds 18 1012 59 10000 1 0 09:41 13.02.2020
3004 Clouds 18 1012 59 10000 1 0 09:22 13.02.2020
3005 Clouds 18 1012 59 10000 2.1 120 08:45 13.02.2020
3006 Clouds 18 1012 59 10000 2.1 120 08:19 13.02.2020
3007 Clouds 18 1012 59 10000 2.6 150 07:43 13.02.2020
3008 Clouds 19 1012 59 10000 2.6 150 07:22 13.02.2020
3009 Clouds 20 1013 55 10000 2.6 150 06:52 13.02.2020
3010 Clouds 20 1013 55 10000 2.6 150 06:33 13.02.2020
3011 Clouds 21 1013 52 10000 3.6 150 05:43 13.02.2020
3012 Clouds 21 1013 49 10000 3.6 140 04:39 13.02.2020
3013 Clouds 21 1013 49 10000 3.6 140 04:18 13.02.2020
3014 Clouds 22 1013 49 10000 3.6 160 03:30 13.02.2020
3015 Clouds 22 1012 43 10000 6.2 200 02:56 13.02.2020
3016 Clouds 22 1012 43 10000 6.2 200 02:20 13.02.2020
3017 Clouds 23 1014 47 10000 2.1 210 01:41 13.02.2020
3018 Clouds 24 1013 41 10000 3.1 240 00:45 13.02.2020
3019 Clouds 24 1013 41 10000 3.1 240 00:26 13.02.2020
3020 Clouds 27 1013 36 7000 4.1 230 23:43 12.02.2020
3021 Clouds 27 1013 36 7000 4.1 230 23:23 12.02.2020
3022 Clouds 27 1013 36 7000 4.1 230 23:23 12.02.2020
3023 Clouds 28 1013 35 8000 3.6 240 22:57 12.02.2020
3024 Clouds 29 1013 35 8000 3.6 240 22:39 12.02.2020
3025 Clouds 29 1013 35 8000 3.6 240 22:21 12.02.2020
3026 Clouds 30 1014 35 8000 3.1 240 21:55 12.02.2020
3027 Clouds 27 1014 35 8000 3.1 240 21:36 12.02.2020
3028 Clouds 28 1014 35 8000 3.1 240 21:18 12.02.2020
3029 Clouds 27 1014 37 8000 4.1 240 20:42 12.02.2020
3030 Clouds 29 1014 37 8000 4.1 240 20:24 12.02.2020
3031 Clouds 29 1015 26 8000 4.1 210 19:57 12.02.2020
3032 Clouds 29 1015 26 8000 4.1 210 19:38 12.02.2020
3033 Clouds 29 1015 26 8000 4.1 210 19:20 12.02.2020
3034 Clouds 29 1015 39 8000 3.1 240 18:49 12.02.2020
3035 Clouds 29 1015 39 8000 3.1 240 18:20 12.02.2020
3036 Clouds 28 1015 44 8000 2.1 290 17:58 12.02.2020
3037 Clouds 28 1015 44 8000 2.1 290 17:38 12.02.2020
3038 Clouds 28 1015 44 8000 2.1 290 17:38 12.02.2020
3039 Clouds 28 1015 44 8000 2.1 290 17:19 12.02.2020
3040 Clouds 26 1016 47 8000 1 190 16:55 12.02.2020
3041 Clouds 26 1016 47 8000 1 190 16:36 12.02.2020
3042 Clouds 26 1016 47 8000 1 190 16:18 12.02.2020
3043 Clouds 24 1016 56 10000 1.5 210 15:37 12.02.2020
3044 Clouds 24 1016 56 10000 1.5 210 15:18 12.02.2020
3045 Clouds 22 1015 64 10000 1 240 14:42 12.02.2020
3046 Clouds 21 1015 64 10000 1 240 14:21 12.02.2020
3047 Clouds 20 1015 68 10000 1.69 286 13:59 12.02.2020
3048 Clouds 20 1015 68 10000 1.65 282 13:40 12.02.2020
3049 Clouds 20 1015 68 10000 1.65 282 13:40 12.02.2020
3050 Clouds 20 1015 68 10000 1.69 286 13:21 12.02.2020
3051 Clouds 20 1013 77 8000 2.1 160 12:58 12.02.2020
3052 Clouds 20 1013 77 8000 2.1 160 12:39 12.02.2020
3053 Clouds 20 1013 77 8000 2.1 160 12:39 12.02.2020
3054 Clouds 19 1013 77 8000 2.1 160 12:19 12.02.2020
3055 Clouds 19 1013 82 8000 2.6 160 11:58 12.02.2020
3056 Clouds 18 1013 82 8000 2.6 160 11:40 12.02.2020
3057 Clouds 18 1013 82 8000 2.6 160 11:20 12.02.2020
3058 Clouds 19 1012 77 8000 1.5 220 10:58 12.02.2020
3059 Clouds 19 1012 77 8000 1.5 220 10:39 12.02.2020
3060 Clouds 18 1012 77 8000 1.5 220 10:20 12.02.2020
3061 Clouds 19 1012 72 10000 2.1 170 09:42 12.02.2020
3062 Clouds 19 1012 72 10000 2.1 170 09:42 12.02.2020
3063 Clouds 19 1012 72 10000 2.1 170 09:24 12.02.2020
3064 Clouds 19 1012 72 10000 2.1 170 09:24 12.02.2020
3065 Clouds 19 1012 72 10000 3.1 170 08:58 12.02.2020
3066 Clouds 19 1012 72 10000 3.1 170 08:38 12.02.2020
3067 Clouds 19 1012 72 10000 3.1 170 08:20 12.02.2020
3068 Clouds 19 1012 72 10000 3.1 170 08:20 12.02.2020
3069 Clouds 19 1012 77 10000 3.6 170 07:47 12.02.2020
3070 Clouds 19 1012 77 10000 3.6 170 07:47 12.02.2020
3071 Clouds 19 1012 77 10000 3.6 170 07:24 12.02.2020
3072 Clouds 20 1012 72 10000 5.1 170 06:59 12.02.2020
3073 Clouds 20 1012 72 10000 5.1 170 06:25 12.02.2020
3074 Clouds 20 1012 68 10000 4.6 160 05:47 12.02.2020
3075 Clouds 20 1012 68 10000 4.6 160 05:21 12.02.2020
3076 Clouds 21 1012 64 10000 4.6 160 04:41 12.02.2020
3077 Clouds 21 1012 60 10000 4.6 160 03:57 12.02.2020
3078 Clouds 21 1012 60 10000 4.6 160 03:28 12.02.2020
3079 Clouds 22 1012 56 10000 4.1 150 02:41 12.02.2020
3080 Clouds 23 1012 56 10000 4.1 150 02:21 12.02.2020
3081 Clouds 24 1013 47 10000 2.1 250 01:27 12.02.2020
3082 Clouds 25 1013 42 6000 2.6 240 00:40 12.02.2020
3083 Clouds 26 1013 42 6000 2.6 240 00:21 12.02.2020
3084 Clouds 28 1013 39 6000 3.1 250 23:47 11.02.2020
3085 Clouds 28 1013 39 6000 3.1 250 23:29 11.02.2020
3086 Clear 29 1013 35 6000 3.1 240 22:56 11.02.2020
3087 Clear 29 1013 35 6000 3.1 240 22:56 11.02.2020
3088 Clear 29 1013 35 6000 3.1 240 22:38 11.02.2020
3089 Clear 29 1013 35 6000 3.1 240 22:20 11.02.2020
3090 Clear 31 1013 33 6000 3.6 240 21:56 11.02.2020
3091 Clear 30 1013 33 6000 3.6 240 21:38 11.02.2020
3092 Clear 30 1013 33 6000 3.6 240 21:18 11.02.2020
3093 Clear 30 1013 33 6000 3.6 240 21:18 11.02.2020
3094 Clear 31 1013 31 6000 4.1 240 20:57 11.02.2020
3095 Clear 31 1013 31 6000 4.1 240 20:38 11.02.2020
3096 Clear 31 1013 31 6000 4.1 240 20:19 11.02.2020
3097 Clear 31 1013 31 6000 4.1 240 20:19 11.02.2020
3098 Clear 32 1014 31 6000 3.6 190 19:54 11.02.2020
3099 Clear 32 1014 31 6000 3.6 190 19:36 11.02.2020
3100 Clear 32 1014 31 6000 3.6 190 19:18 11.02.2020
3101 Clear 31 1014 30 7000 3.6 250 18:42 11.02.2020
3102 Clear 31 1014 30 7000 3.6 250 18:24 11.02.2020
3103 Clear 30 1014 35 10000 1.5 210 17:55 11.02.2020
3104 Clear 30 1014 35 10000 1.5 210 17:37 11.02.2020
3105 Clear 30 1014 35 10000 1.5 210 17:18 11.02.2020
3106 Clear 30 1014 35 10000 1.5 210 17:18 11.02.2020
3107 Clear 28 1014 39 10000 2.1 180 16:57 11.02.2020
3108 Clear 28 1014 39 10000 2.1 180 16:38 11.02.2020
3109 Clear 28 1014 39 10000 2.1 180 16:19 11.02.2020
3110 Clear 27 1014 41 10000 3.11 263 15:45 11.02.2020
3111 Clear 26 1014 41 10000 3.11 263 15:26 11.02.2020
3112 Clear 21 1014 56 10000 3.11 263 14:58 11.02.2020
3113 Clear 24 1014 56 10000 3.11 263 14:39 11.02.2020
3114 Clear 21 1014 56 10000 1.32 271 14:18 11.02.2020
3115 Clear 21 1014 68 10000 1.32 271 13:42 11.02.2020
3116 Clear 20 1014 68 10000 1.32 271 13:21 11.02.2020
3117 Clear 20 1013 63 10000 1.31 280 12:59 11.02.2020
3118 Clear 19 1013 63 10000 1.31 280 12:40 11.02.2020
3119 Clear 19 1013 63 10000 1.31 280 12:21 11.02.2020
3120 Clear 19 1011 77 7000 1 260 11:55 11.02.2020
3121 Clear 18 1011 77 7000 1 260 11:36 11.02.2020
3122 Clear 18 1011 77 7000 1 260 11:18 11.02.2020
3123 Clear 18 1011 82 8000 1 300 10:39 11.02.2020
3124 Clear 18 1011 82 8000 1 300 10:20 11.02.2020
3125 Clear 19 1011 72 10000 2.6 160 09:56 11.02.2020
3126 Clear 19 1011 72 10000 2.6 160 09:38 11.02.2020
3127 Clear 19 1011 72 10000 2.6 160 09:20 11.02.2020
3128 Clear 19 1012 72 10000 2.1 170 08:46 11.02.2020
3129 Clear 19 1012 72 10000 2.1 170 08:24 11.02.2020
3130 Clear 19 1012 72 10000 2.6 170 07:48 11.02.2020
3131 Clear 19 1012 72 10000 2.6 170 07:27 11.02.2020
3132 Clear 20 1013 68 10000 3.6 160 06:55 11.02.2020
3133 Clear 20 1013 68 10000 3.6 160 06:37 11.02.2020
3134 Clear 19 1013 68 10000 3.6 160 06:19 11.02.2020
3135 Clear 20 1013 63 10000 4.6 150 05:26 11.02.2020
3136 Clear 21 1013 60 10000 4.1 170 04:53 11.02.2020
3137 Clear 21 1013 60 10000 4.1 150 03:26 11.02.2020
3138 Clear 22 1013 53 10000 5.7 150 02:33 11.02.2020
3139 Clear 24 1014 44 10000 1.5 250 01:39 11.02.2020
3140 Clear 27 1015 36 10000 3.1 250 00:50 11.02.2020
3141 Clear 27 1015 36 10000 3.1 250 00:22 11.02.2020
3142 Clear 28 1014 32 10000 3.1 250 23:40 10.02.2020
3143 Clear 29 1014 32 10000 3.1 250 23:21 10.02.2020
3144 Clear 30 1014 29 10000 4.1 250 22:43 10.02.2020
3145 Clear 30 1014 29 10000 4.1 250 22:21 10.02.2020
3146 Clear 30 1014 29 10000 4.1 250 22:21 10.02.2020
3147 Clear 30 1014 27 10000 4.6 240 21:58 10.02.2020
3148 Clear 31 1014 27 10000 4.6 240 21:40 10.02.2020
3149 Clear 31 1014 27 10000 4.6 240 21:22 10.02.2020
3150 Clear 31 1015 27 10000 4.1 250 20:55 10.02.2020
3151 Clear 31 1015 27 10000 4.1 250 20:55 10.02.2020
3152 Clear 31 1015 27 10000 4.1 250 20:37 10.02.2020
3153 Clear 32 1015 27 10000 4.1 250 20:19 10.02.2020
3154 Clear 32 1015 27 10000 3.6 240 19:57 10.02.2020
3155 Clear 32 1015 27 10000 3.6 240 19:36 10.02.2020
3156 Clear 31 1015 27 10000 3.6 240 19:18 10.02.2020
3157 Clear 32 1015 25 10000 3.1 190 18:55 10.02.2020
3158 Clear 32 1015 25 10000 3.1 190 18:37 10.02.2020
3159 Clear 32 1015 25 10000 3.1 190 18:37 10.02.2020
3160 Clear 32 1015 25 10000 3.1 190 18:18 10.02.2020
3161 Clear 30 1015 28 10000 2.1 210 17:40 10.02.2020
3162 Clear 29 1015 28 10000 2.1 210 17:22 10.02.2020
3163 Clear 29 1016 34 10000 1.5 240 16:59 10.02.2020
3164 Clear 28 1016 34 10000 1.5 240 16:40 10.02.2020
3165 Clear 28 1016 34 10000 1.5 240 16:20 10.02.2020
3166 Clear 28 1016 34 10000 1.5 240 16:20 10.02.2020
3167 Clear 27 1016 38 10000 1.5 140 15:59 10.02.2020
3168 Clear 27 1016 38 10000 1.5 140 15:59 10.02.2020
3169 Clear 26 1016 38 10000 1.5 140 15:40 10.02.2020
3170 Clear 26 1016 38 10000 1.5 140 15:22 10.02.2020
3171 Clear 24 1015 43 10000 1.5 210 14:58 10.02.2020
3172 Clear 24 1015 43 10000 1.5 210 14:58 10.02.2020
3173 Clear 24 1015 43 10000 1.5 210 14:39 10.02.2020
3174 Clear 22 1015 43 10000 1.5 210 14:19 10.02.2020
3175 Clear 20 1016 59 10000 1.09 273 13:44 10.02.2020
3176 Clear 20 1016 59 10000 1.09 273 13:25 10.02.2020
3177 Clear 20 1016 55 10000 1.19 274 12:57 10.02.2020
3178 Clear 20 1016 55 10000 1.19 274 12:39 10.02.2020
3179 Clear 19 1016 55 10000 1.19 274 12:20 10.02.2020
3180 Clear 21 1013 67 10000 1 0 11:45 10.02.2020
3181 Clear 19 1013 67 10000 1 0 11:21 10.02.2020
3182 Clear 19 1013 67 10000 2.1 160 10:57 10.02.2020
3183 Clear 19 1013 67 10000 2.1 160 10:38 10.02.2020
3184 Clear 18 1013 67 10000 2.1 160 10:20 10.02.2020
3185 Clear 19 1013 67 10000 1.5 0 09:42 10.02.2020
3186 Clear 18 1013 67 10000 1.5 0 09:23 10.02.2020
3187 Clear 19 1013 63 10000 0.5 0 08:40 10.02.2020
3188 Clear 19 1013 63 10000 0.5 0 08:21 10.02.2020
3189 Clear 19 1013 63 10000 1.5 200 07:55 10.02.2020
3190 Clear 19 1013 63 10000 1.5 200 07:35 10.02.2020
3191 Clear 20 1014 63 10000 3.6 180 06:50 10.02.2020
3192 Clear 20 1014 59 10000 5.1 160 05:35 10.02.2020
3193 Clear 20 1014 56 10000 5.7 150 03:55 10.02.2020
3194 Clear 20 1014 56 10000 5.7 150 03:18 10.02.2020
3195 Clear 22 1014 49 10000 5.7 150 02:42 10.02.2020
3196 Clear 26 1015 33 10000 1.5 270 01:25 10.02.2020
3197 Clear 27 1015 30 10000 3.1 240 00:40 10.02.2020
3198 Clear 27 1015 30 10000 3.1 240 00:21 10.02.2020
3199 Clear 29 1015 26 10000 3.6 240 23:41 09.02.2020
3200 Clear 29 1015 26 10000 3.6 240 23:23 09.02.2020
3201 Clear 30 1015 22 10000 4.1 250 22:44 09.02.2020
3202 Clear 30 1015 22 10000 4.1 250 22:23 09.02.2020
3203 Clear 31 1015 19 10000 4.1 240 21:57 09.02.2020
3204 Clear 31 1015 19 10000 4.1 240 21:38 09.02.2020
3205 -273 0 0 0 0 0 21:19 09.02.2020
3206 Clear 31 1015 17 10000 3.6 0 20:44 09.02.2020
3207 Clear 33 1015 17 10000 3.6 0 20:21 09.02.2020
3208 Clear 33 1015 18 10000 3.1 200 19:55 09.02.2020
3209 Clear 33 1015 18 10000 3.1 200 19:37 09.02.2020
3210 Clear 32 1015 18 10000 3.1 200 19:18 09.02.2020
3211 Clear 32 1016 18 10000 2.6 0 18:42 09.02.2020
3212 Clear 32 1016 18 10000 2.6 0 18:23 09.02.2020
3213 Clear 32 1016 18 10000 2.6 0 18:23 09.02.2020
3214 Clear 31 1016 17 10000 2.6 0 17:56 09.02.2020
3215 Clear 31 1016 17 10000 2.6 0 17:37 09.02.2020
3216 Clear 30 1016 17 10000 2.6 0 17:19 09.02.2020
3217 Clear 28 1016 21 10000 1.5 270 16:41 09.02.2020
3218 Clear 28 1016 21 10000 1.5 270 16:22 09.02.2020
3219 Clear 27 1016 23 10000 0.5 330 15:58 09.02.2020
3220 Clear 26 1016 23 10000 0.5 330 15:40 09.02.2020
3221 Clear 26 1016 23 10000 0.5 330 15:21 09.02.2020
3222 Clear 24 1017 26 10000 0.5 300 14:56 09.02.2020
3223 Clear 24 1017 26 10000 0.5 300 14:37 09.02.2020
3224 Clear 22 1017 26 10000 0.5 300 14:18 09.02.2020
3225 Clear 20 1016 44 10000 1.1 274 13:42 09.02.2020
3226 Clear 19 1016 44 10000 1.1 276 13:23 09.02.2020
3227 Clear 18 1016 39 10000 1 30 12:54 09.02.2020
3228 Clear 19 1016 39 10000 1 30 12:36 09.02.2020
3229 Clear 18 1016 39 10000 1 30 12:18 09.02.2020
3230 Clear 20 1014 54 10000 1 310 11:39 09.02.2020
3231 Clear 17 1014 54 10000 1 310 11:19 09.02.2020
3232 Clear 18 1014 54 10000 1.5 280 10:44 09.02.2020
3233 Clear 18 1014 54 10000 1.5 280 10:25 09.02.2020
3234 Clear 19 1014 48 10000 2.6 150 09:58 09.02.2020
3235 Clear 19 1014 48 10000 2.6 150 09:39 09.02.2020
3236 Clear 19 1014 48 10000 2.6 150 09:20 09.02.2020
3237 Clear 19 1014 48 10000 2.6 150 08:41 09.02.2020
3238 Clear 19 1014 48 10000 2.6 150 08:23 09.02.2020
3239 Clear 20 1014 42 10000 2.1 140 07:52 09.02.2020
3240 Clear 20 1014 42 10000 2.1 140 07:30 09.02.2020
3241 Clear 20 1014 39 10000 2.6 160 06:38 09.02.2020
3242 Clear 21 1014 34 10000 4.6 150 05:55 09.02.2020
3243 Clear 21 1014 34 10000 4.6 150 05:34 09.02.2020
3244 Clear 21 1014 32 10000 4.6 160 04:49 09.02.2020
3245 Clear 25 1013 20 10000 4.6 140 02:58 09.02.2020
3246 Clear 25 1013 20 10000 4.6 140 02:38 09.02.2020
3247 Clear 26 1015 19 10000 1.5 240 01:40 09.02.2020
3248 Clear 26 1015 19 10000 1.5 240 01:19 09.02.2020
3249 Clear 29 1014 16 10000 3.1 240 00:32 09.02.2020
3250 Clear 30 1013 16 10000 3.6 250 23:55 08.02.2020
3251 Clear 31 1013 16 10000 3.6 250 23:37 08.02.2020
3252 Clear 31 1013 16 10000 3.6 250 23:18 08.02.2020
3253 Clear 32 1013 15 10000 4.1 240 22:40 08.02.2020
3254 Clear 32 1013 15 10000 4.1 240 22:21 08.02.2020
3255 Clear 32 1013 16 10000 3.6 220 21:49 08.02.2020
3256 Clear 33 1013 16 10000 3.6 220 21:30 08.02.2020
3257 Clear 34 1014 15 10000 3.6 240 20:59 08.02.2020
3258 Clear 33 1014 15 10000 3.6 240 20:40 08.02.2020
3259 Clear 33 1014 15 10000 3.6 240 20:20 08.02.2020
3260 Clear 33 1014 15 10000 3.6 240 20:20 08.02.2020
3261 Clear 33 1014 15 10000 3.1 0 19:59 08.02.2020
3262 Clear 33 1014 15 10000 3.1 0 19:39 08.02.2020
3263 Clear 33 1014 15 10000 3.1 0 19:20 08.02.2020
3264 Clear 33 1015 17 10000 2.6 230 18:57 08.02.2020
3265 Clear 33 1015 17 10000 2.6 230 18:39 08.02.2020
3266 Clear 33 1015 17 10000 2.6 230 18:19 08.02.2020
3267 Clear 31 1015 19 10000 2.6 210 17:42 08.02.2020
3268 Clear 30 1015 19 10000 2.6 210 17:20 08.02.2020
3269 Clear 29 1015 23 10000 1.5 180 16:43 08.02.2020
3270 Clear 29 1015 23 10000 1.5 180 16:23 08.02.2020
3271 Clear 28 1015 26 10000 1.5 200 15:59 08.02.2020
3272 Clear 27 1015 26 10000 1.5 200 15:40 08.02.2020
3273 Clear 27 1015 26 10000 1.5 200 15:18 08.02.2020
3274 Clear 24 1015 30 10000 3.07 268 14:46 08.02.2020
3275 Clear 24 1015 30 10000 3.07 268 14:24 08.02.2020
3276 Clear 19 1015 48 10000 1 271 13:59 08.02.2020
3277 Clear 21 1015 48 10000 1 271 13:41 08.02.2020
3278 Clear 20 1015 48 10000 1 271 13:23 08.02.2020
3279 Clear 19 1015 42 10000 1.05 269 12:49 08.02.2020
3280 Clear 19 1015 42 10000 1.05 269 12:49 08.02.2020
3281 Clear 20 1015 42 10000 1.05 269 12:24 08.02.2020
3282 Clear 21 1013 50 8000 1 0 11:59 08.02.2020
3283 Clear 20 1013 50 8000 1 0 11:40 08.02.2020
3284 Clear 17 1013 50 8000 1 0 11:20 08.02.2020
3285 Clear 18 1013 54 10000 1 0 10:42 08.02.2020
3286 Clear 18 1013 54 10000 1 0 10:42 08.02.2020
3287 Clear 18 1013 54 10000 1 0 10:23 08.02.2020
3288 Clear 19 1013 48 10000 0.5 0 09:53 08.02.2020
3289 Clear 19 1013 48 10000 0.5 0 09:29 08.02.2020
3290 Clear 20 1013 42 10000 1.5 140 08:57 08.02.2020
3291 Clear 20 1013 42 10000 1.5 140 08:38 08.02.2020
3292 Clear 19 1013 42 10000 1.5 140 08:20 08.02.2020
3293 Clear 20 1014 39 10000 0.35 273 07:50 08.02.2020
3294 Clear 20 1014 39 10000 0.35 273 07:30 08.02.2020
3295 Clear 21 1014 37 10000 1.5 290 06:33 08.02.2020
3296 Clear 22 1015 33 10000 3.1 150 05:49 08.02.2020
3297 Clear 22 1015 33 10000 3.1 150 05:30 08.02.2020
3298 Clear 22 1015 31 10000 3.1 150 04:50 08.02.2020
3299 Clear 24 1015 29 10000 4.6 150 03:53 08.02.2020
3300 Clear 25 1015 27 10000 5.1 160 02:52 08.02.2020
3301 Clear 26 1015 27 10000 5.1 160 02:20 08.02.2020
3302 Clear 25 1016 24 10000 1.72 243 01:26 08.02.2020
3303 Clear 29 1015 20 10000 4.1 240 00:45 08.02.2020
3304 Clear 29 1015 20 10000 4.1 240 00:22 08.02.2020
3305 Clear 30 1015 17 10000 5.1 240 23:55 07.02.2020
3306 Clear 31 1015 17 10000 5.1 240 23:37 07.02.2020
3307 Clear 31 1015 17 10000 5.1 240 23:19 07.02.2020
3308 Clear 31 1015 17 10000 3.6 240 22:40 07.02.2020
3309 Clear 31 1015 17 10000 3.6 240 22:19 07.02.2020
3310 Clear 32 1015 17 10000 3.6 220 21:44 07.02.2020
3311 Clear 32 1015 17 10000 3.6 220 21:23 07.02.2020
3312 Clear 31 1016 18 10000 3.1 210 20:58 07.02.2020
3313 Clear 32 1016 18 10000 3.1 210 20:38 07.02.2020
3314 Clear 33 1016 18 10000 3.1 210 20:18 07.02.2020
3315 Clear 33 1016 18 10000 3.1 210 20:18 07.02.2020
3316 Clear 32 1016 18 10000 3.1 210 19:42 07.02.2020
3317 Clear 32 1016 18 10000 3.1 210 19:22 07.02.2020
3318 Clear 31 1017 19 10000 3.1 250 18:58 07.02.2020
3319 Clear 31 1017 19 10000 3.1 250 18:40 07.02.2020
3320 Clear 31 1017 19 10000 3.1 250 18:21 07.02.2020
3321 Clear 29 1017 21 10000 1.5 210 17:43 07.02.2020
3322 Clear 28 1017 21 10000 1.5 210 17:22 07.02.2020
3323 Clear 26 1017 25 10000 1.5 210 16:57 07.02.2020
3324 Clear 26 1017 25 10000 1.5 210 16:39 07.02.2020
3325 Clear 26 1017 25 10000 1.5 210 16:20 07.02.2020
3326 Clear 24 1017 30 10000 2.84 266 15:48 07.02.2020
3327 Clear 23 1017 30 10000 2.84 266 15:27 07.02.2020
3328 Clear 21 1018 37 10000 2.84 266 14:46 07.02.2020
3329 Clear 21 1018 37 10000 2.84 266 14:26 07.02.2020
3330 Clear 19 1018 51 10000 1.17 265 13:59 07.02.2020
3331 Clear 18 1018 51 10000 1.17 265 13:39 07.02.2020
3332 Clear 18 1018 51 10000 1.17 265 13:21 07.02.2020
3333 Clear 17 1017 45 10000 1.22 271 12:56 07.02.2020
3334 Clear 18 1017 45 10000 1.22 271 12:38 07.02.2020
3335 Clear 18 1017 45 10000 1.22 271 12:20 07.02.2020
3336 Clear 19 1016 47 10000 1.5 160 11:42 07.02.2020
3337 Clear 14 1016 47 10000 1.5 160 11:21 07.02.2020
3338 Clear 14 1015 47 10000 2.6 150 10:42 07.02.2020
3339 Clear 14 1015 47 10000 2.6 150 10:24 07.02.2020
3340 Clear 15 1015 44 10000 0.53 270 09:58 07.02.2020
3341 Clear 15 1015 44 10000 0.53 270 09:37 07.02.2020
3342 Clear 15 1015 44 10000 0.53 270 09:19 07.02.2020
3343 Clear 16 1015 38 10000 1.5 180 08:43 07.02.2020
3344 Clear 16 1015 38 10000 1.5 180 08:21 07.02.2020
3345 Clear 17 1015 36 10000 2.6 140 07:46 07.02.2020
3346 Clear 17 1015 36 10000 2.6 140 07:28 07.02.2020
3347 Clear 17 1016 36 10000 3.1 140 06:47 07.02.2020
3348 Clear 17 1016 36 10000 3.1 140 06:26 07.02.2020
3349 Clear 18 1016 36 10000 2.6 150 05:56 07.02.2020
3350 Clear 18 1016 39 10000 4.1 160 04:43 07.02.2020
3351 Clear 21 1016 37 10000 4.6 150 02:51 07.02.2020
3352 Clear 23 1017 31 10000 2.6 250 01:51 07.02.2020
3353 Clear 26 1016 26 10000 3.1 240 00:48 07.02.2020
3354 Clear 25 1016 26 10000 3.1 240 00:21 07.02.2020
3355 Clear 27 1016 18 10000 4.1 220 23:37 06.02.2020
3356 Clear 27 1016 18 10000 4.1 220 23:19 06.02.2020
3357 Clear 28 1016 21 10000 3.6 210 22:44 06.02.2020
3358 Clear 28 1016 21 10000 3.6 210 22:25 06.02.2020
3359 Clear 28 1016 20 10000 4.1 240 21:38 06.02.2020
3360 Clear 28 1016 20 10000 4.1 240 21:20 06.02.2020
3361 Clear 28 1016 20 10000 4.1 240 21:20 06.02.2020
3362 Clouds 28 1016 21 10000 3.1 220 20:58 06.02.2020
3363 Clouds 28 1016 21 10000 3.1 220 20:39 06.02.2020
3364 Clouds 28 1016 21 10000 3.1 220 20:19 06.02.2020
3365 Clouds 27 1017 28 10000 3.1 240 19:59 06.02.2020
3366 Clouds 27 1017 28 10000 3.1 240 19:41 06.02.2020
3367 Clouds 27 1017 28 10000 3.1 240 19:23 06.02.2020
3368 Clouds 26 1017 31 10000 3.1 240 18:59 06.02.2020
3369 Clouds 26 1017 31 10000 3.1 240 18:40 06.02.2020
3370 Clouds 25 1017 31 10000 3.1 240 18:21 06.02.2020
3371 Clear 24 1017 33 10000 2.6 220 17:45 06.02.2020
3372 Clear 23 1017 33 10000 2.6 220 17:21 06.02.2020
3373 Clear 22 1017 37 10000 1.5 210 16:59 06.02.2020
3374 Clear 22 1017 37 10000 1.5 210 16:40 06.02.2020
3375 Clear 22 1017 37 10000 1.5 210 16:22 06.02.2020
3376 Clear 20 1017 39 10000 1 260 15:42 06.02.2020
3377 Clear 20 1017 39 10000 1 260 15:42 06.02.2020
3378 Clear 20 1017 39 10000 1 260 15:22 06.02.2020
3379 Clear 16 1017 48 10000 1.5 240 14:50 06.02.2020
3380 Clear 18 1017 48 10000 1.5 240 14:28 06.02.2020
3381 Clear 16 1017 58 10000 2 249 13:58 06.02.2020
3382 Clear 15 1017 58 10000 2 249 13:40 06.02.2020
3383 Clear 15 1017 58 10000 1.93 250 13:19 06.02.2020
3384 Clear 13 1016 71 10000 1.93 250 12:44 06.02.2020
3385 Clear 13 1016 71 10000 1.93 250 12:19 06.02.2020
3386 Clear 13 1015 62 10000 1.5 170 11:57 06.02.2020
3387 Clear 12 1015 62 10000 1.5 170 11:39 06.02.2020
3388 Clear 12 1015 62 10000 1.5 170 11:19 06.02.2020
3389 Clear 11 1015 66 10000 1.5 260 10:56 06.02.2020
3390 Clear 11 1015 66 10000 1.5 260 10:38 06.02.2020
3391 Clear 11 1015 66 10000 1.5 260 10:19 06.02.2020
3392 Clear 12 1015 62 10000 2.1 280 09:55 06.02.2020
3393 Clear 12 1015 62 10000 2.1 280 09:36 06.02.2020
3394 Clear 12 1015 62 10000 2.1 280 09:36 06.02.2020
3395 Clear 12 1015 62 10000 2.1 280 09:18 06.02.2020
3396 Clear 14 1015 54 10000 2.1 170 08:40 06.02.2020
3397 Clear 14 1015 54 10000 2.1 170 08:20 06.02.2020
3398 Clear 14 1015 54 10000 4.1 160 07:46 06.02.2020
3399 Clear 14 1015 54 10000 4.1 160 07:24 06.02.2020
3400 Clear 15 1015 51 10000 3.6 160 06:21 06.02.2020
3401 Clear 15 1015 51 10000 4.1 150 05:48 06.02.2020
3402 Clear 16 1014 51 10000 4.1 150 04:20 06.02.2020
3403 Clear 17 1014 51 10000 5.1 160 03:19 06.02.2020
3404 Clear 19 1013 48 10000 6.2 200 02:27 06.02.2020
3405 Clouds 21 1014 40 10000 2.6 260 01:25 06.02.2020
3406 Clouds 23 1013 35 10000 3.1 0 00:53 06.02.2020
3407 Clouds 23 1013 35 10000 3.1 0 00:23 06.02.2020
3408 Clouds 24 1013 33 10000 4.6 250 23:43 05.02.2020
3409 Clouds 25 1013 33 10000 4.6 250 23:24 05.02.2020
3410 Clouds 26 1013 31 10000 4.6 250 22:57 05.02.2020
3411 Clouds 26 1013 31 10000 4.6 250 22:38 05.02.2020
3412 Clouds 26 1013 31 10000 4.6 250 22:20 05.02.2020
3413 Clouds 27 1013 30 10000 3.1 230 21:41 05.02.2020
3414 Clouds 27 1013 30 10000 3.1 230 21:23 05.02.2020
3415 Clouds 28 1013 30 10000 3.6 250 20:55 05.02.2020
3416 Clouds 27 1013 30 10000 3.6 250 20:37 05.02.2020
3417 Clouds 27 1013 30 10000 3.6 250 20:18 05.02.2020
3418 Clouds 26 1013 31 10000 3.1 0 19:55 05.02.2020
3419 Clouds 27 1013 31 10000 3.1 0 19:36 05.02.2020
3420 Clouds 26 1013 31 10000 3.1 0 19:18 05.02.2020
3421 Clouds 26 1013 33 10000 3.1 0 18:43 05.02.2020
3422 Clouds 26 1013 33 10000 3.1 0 18:21 05.02.2020
3423 Clouds 26 1013 33 10000 3.1 0 18:21 05.02.2020
3424 Clouds 25 1014 36 10000 2.6 0 17:58 05.02.2020
3425 Clouds 25 1014 36 10000 2.6 0 17:37 05.02.2020
3426 Clouds 22 1014 37 10000 2.1 220 17:18 05.02.2020
3427 Clouds 23 1014 37 10000 2.1 220 16:43 05.02.2020
3428 Clouds 23 1014 37 10000 2.1 220 16:25 05.02.2020
3429 Clear 20 1014 45 10000 1 210 15:59 05.02.2020
3430 Clear 21 1014 45 10000 1 210 15:39 05.02.2020
3431 Clear 21 1014 45 10000 1 210 15:18 05.02.2020
3432 Clear 19 1014 51 10000 1 150 14:43 05.02.2020
3433 Clear 19 1014 51 10000 1 150 14:24 05.02.2020
3434 Clear 18 1014 58 10000 2.07 256 13:58 05.02.2020
3435 Clear 18 1014 58 10000 2.07 256 13:38 05.02.2020
3436 Clear 15 1014 58 10000 2 258 13:19 05.02.2020
3437 Clear 15 1014 66 10000 2 258 12:43 05.02.2020
3438 Clear 13 1014 66 10000 2 258 12:23 05.02.2020
3439 Clear 17 1012 54 10000 3.1 150 11:55 05.02.2020
3440 Clear 17 1012 54 10000 3.1 150 11:36 05.02.2020
3441 Clear 14 1012 54 10000 3.1 150 11:18 05.02.2020
3442 Clear 15 1012 51 10000 1.5 190 10:42 05.02.2020
3443 Clear 15 1012 51 10000 1.5 190 10:24 05.02.2020
3444 Clear 15 1012 51 10000 2.6 150 09:45 05.02.2020
3445 Clear 15 1012 51 10000 2.6 150 09:23 05.02.2020
3446 Clear 16 1012 51 10000 3.1 150 08:59 05.02.2020
3447 Clear 16 1012 51 10000 3.1 150 08:41 05.02.2020
3448 Clear 16 1012 51 10000 3.1 150 08:22 05.02.2020
3449 Clear 16 1013 51 10000 3.6 160 07:45 05.02.2020
3450 Clear 16 1013 51 10000 3.6 160 07:26 05.02.2020
3451 Clear 17 1014 48 10000 3.6 130 06:43 05.02.2020
3452 Clear 17 1014 48 10000 3.6 130 06:22 05.02.2020
3453 Clear 19 1014 48 10000 3.1 160 05:49 05.02.2020
3454 Clear 19 1014 48 10000 3.1 160 05:18 05.02.2020
3455 Clear 19 1014 45 10000 7.2 200 04:44 05.02.2020
3456 Clear 20 1014 49 10000 6.7 190 03:20 05.02.2020
3457 Clear 22 1014 46 10000 8.2 190 02:23 05.02.2020
3458 Clear 22 1015 38 10000 2.6 240 01:35 05.02.2020
3459 Clear 26 1015 31 10000 3.1 240 00:39 05.02.2020
3460 Clear 26 1014 28 10000 4.6 240 23:42 04.02.2020
3461 Clear 27 1014 28 10000 4.6 240 23:23 04.02.2020
3462 Clouds 28 1014 23 10000 3.1 0 22:58 04.02.2020
3463 Clouds 28 1014 23 10000 3.1 0 22:40 04.02.2020
3464 Clouds 28 1014 23 10000 3.1 0 22:21 04.02.2020
3465 Clear 29 1015 23 10000 4.1 240 21:57 04.02.2020
3466 Clear 29 1015 23 10000 4.1 240 21:39 04.02.2020
3467 Clear 29 1015 23 10000 4.1 240 21:19 04.02.2020
3468 Clear 29 1015 24 10000 3.1 0 20:57 04.02.2020
3469 Clear 29 1015 24 10000 3.1 0 20:38 04.02.2020
3470 Clear 29 1015 24 10000 3.1 0 20:19 04.02.2020
3471 Clear 28 1016 28 10000 2.1 0 19:55 04.02.2020
3472 Clear 27 1016 28 10000 2.1 0 19:37 04.02.2020
3473 Clear 28 1016 28 10000 2.1 0 19:18 04.02.2020
3474 Clear 27 1017 29 10000 2.1 210 18:41 04.02.2020
3475 Clear 26 1017 29 10000 2.1 210 18:22 04.02.2020
3476 Clear 26 1017 29 10000 2.1 210 18:22 04.02.2020
3477 Clear 25 1017 31 10000 2.1 0 17:58 04.02.2020
3478 Clear 24 1017 31 10000 2.1 0 17:40 04.02.2020
3479 Clear 24 1017 31 10000 2.1 0 17:20 04.02.2020
3480 Clear 24 1017 31 10000 2.1 0 17:20 04.02.2020
3481 Clear 23 1018 37 10000 1 250 16:39 04.02.2020
3482 Clear 23 1018 37 10000 1 250 16:21 04.02.2020
3483 Clear 21 1018 45 10000 1.5 280 15:57 04.02.2020
3484 Clear 21 1018 45 10000 1.5 280 15:39 04.02.2020
3485 Clear 21 1018 45 10000 1.5 280 15:20 04.02.2020
3486 Clear 20 1018 55 10000 1 220 14:56 04.02.2020
3487 Clear 20 1018 55 10000 1 220 14:37 04.02.2020
3488 Clear 18 1018 55 10000 1 220 14:19 04.02.2020
3489 Clear 18 1018 63 10000 1.5 0 13:41 04.02.2020
3490 Clear 17 1018 63 10000 1.5 0 13:23 04.02.2020
3491 Clear 17 1018 67 10000 2.08 251 12:57 04.02.2020
3492 Clear 17 1018 67 10000 2.08 251 12:38 04.02.2020
3493 Clear 16 1018 67 10000 2.08 251 12:19 04.02.2020
3494 Clear 18 1017 71 10000 1.5 260 11:55 04.02.2020
3495 Clear 17 1017 71 10000 1.5 260 11:37 04.02.2020
3496 Clear 14 1017 71 10000 1.5 260 11:18 04.02.2020
3497 Clear 15 1016 72 10000 2.6 170 10:44 04.02.2020
3498 Clear 15 1016 72 10000 2.6 170 10:25 04.02.2020
3499 Clear 16 1016 67 10000 3.6 170 09:56 04.02.2020
3500 Clear 16 1016 67 10000 3.6 170 09:37 04.02.2020
3501 Clear 16 1016 67 10000 3.6 170 09:19 04.02.2020
3502 Clear 16 1015 67 10000 4.1 150 08:44 04.02.2020
3503 Clear 16 1015 67 10000 4.1 150 08:26 04.02.2020
3504 Clear 17 1015 63 10000 3.1 150 07:50 04.02.2020
3505 Clear 16 1015 63 10000 3.1 150 07:24 04.02.2020
3506 Clear 18 1015 55 10000 4.1 130 06:48 04.02.2020
3507 Clear 18 1015 55 10000 4.1 130 06:30 04.02.2020
3508 Clear 18 1016 55 10000 4.6 150 05:29 04.02.2020
3509 Clear 21 1015 35 10000 5.7 170 03:56 04.02.2020
3510 Clear 21 1015 35 10000 5.7 170 03:37 04.02.2020
3511 Clear 21 1015 35 10000 5.7 170 03:19 04.02.2020
3512 Clear 22 1014 33 10000 10.3 180 02:34 04.02.2020
3513 Clear 23 1016 28 10000 2.1 210 01:56 04.02.2020
3514 Clear 23 1016 28 10000 2.1 210 01:36 04.02.2020
3515 Clear 26 1015 22 10000 4.6 210 00:52 04.02.2020
3516 Clear 26 1015 22 10000 4.6 210 00:22 04.02.2020
3517 Clear 28 1014 21 10000 4.6 240 23:42 03.02.2020
3518 Clear 28 1014 21 10000 4.6 240 23:42 03.02.2020
3519 Clear 28 1014 21 10000 4.6 240 23:23 03.02.2020
3520 Clear 30 1014 19 10000 4.6 250 22:40 03.02.2020
3521 Clear 30 1014 19 10000 4.6 250 22:22 03.02.2020
3522 Clear 31 1014 18 10000 4.1 230 21:59 03.02.2020
3523 Clear 31 1014 18 10000 4.1 230 21:40 03.02.2020
3524 Clear 31 1014 18 10000 4.1 230 21:19 03.02.2020
3525 Clear 32 1014 23 10000 4.1 240 20:42 03.02.2020
3526 Clear 31 1014 23 10000 4.1 240 20:20 03.02.2020
3527 Clear 31 1015 22 10000 3.6 240 19:58 03.02.2020
3528 Clear 31 1015 22 10000 3.6 240 19:40 03.02.2020
3529 Clear 31 1015 22 10000 3.6 240 19:21 03.02.2020
3530 Clear 30 1015 23 10000 2.6 250 18:57 03.02.2020
3531 Clear 29 1015 23 10000 2.6 250 18:38 03.02.2020
3532 Clear 29 1015 23 10000 2.6 250 18:20 03.02.2020
3533 Clear 29 1015 23 10000 2.6 250 18:20 03.02.2020
3534 Clear 28 1016 26 10000 2.6 220 17:40 03.02.2020
3535 Clear 28 1016 26 10000 2.6 220 17:20 03.02.2020
3536 Clear 27 1016 26 10000 1.5 280 16:59 03.02.2020
3537 Clear 27 1016 26 10000 1.5 280 16:39 03.02.2020
3538 Clear 26 1016 26 10000 1.5 280 16:20 03.02.2020
3539 Clear 23 1016 28 10000 1 190 15:56 03.02.2020
3540 Clear 23 1016 28 10000 1 190 15:37 03.02.2020
3541 Clear 23 1016 28 10000 1 190 15:37 03.02.2020
3542 Clear 23 1016 28 10000 1 190 15:19 03.02.2020
3543 Clear 20 1017 37 10000 1 180 14:43 03.02.2020
3544 Clear 20 1017 37 10000 1 180 14:25 03.02.2020
3545 Clear 19 1016 48 10000 1.69 258 13:58 03.02.2020
3546 Clear 19 1016 48 10000 1.69 258 13:39 03.02.2020
3547 Clear 19 1016 48 10000 1.69 258 13:19 03.02.2020
3548 Clear 18 1016 51 10000 1.61 257 12:56 03.02.2020
3549 Clear 18 1016 51 10000 1.61 257 12:36 03.02.2020
3550 Clear 18 1016 51 10000 1.61 257 12:18 03.02.2020
3551 Clear 18 1015 51 10000 1.61 257 11:39 03.02.2020
3552 Clear 15 1015 51 10000 0.55 285 11:19 03.02.2020
3553 Clear 16 1015 48 10000 2.1 150 10:57 03.02.2020
3554 Clear 16 1015 48 10000 2.1 150 10:38 03.02.2020
3555 Clear 16 1015 48 10000 2.1 150 10:20 03.02.2020
3556 Clear 19 1015 48 10000 3.1 170 09:39 03.02.2020
3557 Clear 18 1015 48 10000 3.1 170 09:20 03.02.2020
3558 Clear 19 1015 42 10000 2.6 150 08:41 03.02.2020
3559 Clear 19 1015 42 10000 2.6 150 08:23 03.02.2020
3560 Clear 20 1015 36 10000 3.6 160 07:56 03.02.2020
3561 Clear 20 1015 36 10000 3.6 160 07:38 03.02.2020
3562 Clear 19 1015 36 10000 3.6 160 07:19 03.02.2020
3563 Clear 20 1016 32 10000 3.6 150 06:42 03.02.2020
3564 Clear 20 1016 32 10000 3.6 150 06:24 03.02.2020
3565 Clear 21 1016 30 10000 4.6 160 05:35 03.02.2020
3566 Clear 21 1016 26 10000 5.7 150 04:50 03.02.2020
3567 Clear 24 1016 22 10000 7.7 190 02:58 03.02.2020
3568 Clear 24 1016 22 10000 7.7 190 02:32 03.02.2020
3569 Clear 26 1017 32 10000 3.6 250 00:55 03.02.2020
3570 Clear 27 1017 32 10000 3.6 250 00:36 03.02.2020
3571 Clear 27 1017 32 10000 3.6 250 00:18 03.02.2020
3572 Clouds 29 1016 30 10000 3.6 240 23:37 02.02.2020
3573 Clouds 29 1016 30 10000 3.6 240 23:18 02.02.2020
3574 Clouds 31 1015 27 10000 4.6 240 22:40 02.02.2020
3575 Clouds 31 1015 27 10000 4.6 240 22:22 02.02.2020
3576 Clouds 32 1016 27 10000 5.7 250 21:58 02.02.2020
3577 Clouds 32 1016 27 10000 5.7 250 21:39 02.02.2020
3578 Clouds 32 1016 27 10000 5.7 250 21:20 02.02.2020
3579 Clouds 32 1016 27 10000 4.1 230 20:57 02.02.2020
3580 Clouds 32 1016 27 10000 4.1 230 20:39 02.02.2020
3581 Clouds 32 1016 27 10000 4.1 230 20:20 02.02.2020
3582 Clear 33 1015 27 10000 3.6 230 19:58 02.02.2020
3583 Clear 33 1015 27 10000 3.6 230 19:40 02.02.2020
3584 Clear 33 1015 27 10000 3.6 230 19:21 02.02.2020
3585 Clear 32 1016 29 10000 3.1 0 18:56 02.02.2020
3586 Clear 32 1016 29 10000 3.1 0 18:56 02.02.2020
3587 Clear 32 1016 29 10000 3.1 0 18:37 02.02.2020
3588 Clear 32 1016 29 10000 3.1 0 18:37 02.02.2020
3589 Clear 32 1016 29 10000 3.1 0 18:19 02.02.2020
3590 Clear 31 1016 30 10000 3.1 240 17:57 02.02.2020
3591 Clear 30 1016 30 10000 3.1 240 17:37 02.02.2020
3592 Clear 30 1016 30 10000 3.1 240 17:18 02.02.2020
3593 Clear 29 1016 34 10000 2.1 0 16:57 02.02.2020
3594 Clear 29 1016 34 10000 2.1 0 16:38 02.02.2020
3595 Clear 29 1016 34 10000 2.1 0 16:18 02.02.2020
3596 Clear 31 929 58 0 0.45 270 15:55 02.02.2020
3597 Clear 32 929 58 0 3.14 262 15:36 02.02.2020
3598 Clear 26 1016 46 10000 3.14 262 15:18 02.02.2020
3599 Clear 24 1016 46 10000 3.14 262 14:43 02.02.2020
3600 Clear 20 1024 55 10000 1.53 278 14:19 02.02.2020
3601 Clear 22 1024 55 10000 1.53 278 13:59 02.02.2020
3602 Clear 21 1024 55 10000 1.53 278 13:41 02.02.2020
3603 Clear 20 1024 55 10000 1.56 278 13:20 02.02.2020
3604 Clear 20 1015 63 10000 1.54 277 12:56 02.02.2020
3605 Clear 19 1015 63 10000 1.56 278 12:38 02.02.2020
3606 Clear 20 1015 63 10000 1.54 277 12:18 02.02.2020
3607 Clear 21 1014 67 10000 1.5 360 11:42 02.02.2020
3608 Clear 18 1014 67 10000 1.5 360 11:19 02.02.2020
3609 Clear 19 1013 67 10000 1.5 290 10:57 02.02.2020
3610 Clear 19 1013 67 10000 1.5 290 10:39 02.02.2020
3611 Clear 19 1013 67 10000 1.5 290 10:21 02.02.2020
3612 Clear 20 1013 63 10000 2.1 140 09:57 02.02.2020
3613 Clear 20 1013 63 10000 2.1 140 09:39 02.02.2020
3614 Clear 19 1013 63 10000 2.1 140 09:20 02.02.2020
3615 Clear 20 1013 68 10000 0.57 342 08:44 02.02.2020
3616 Clear 20 1013 68 10000 0.53 326 08:25 02.02.2020
3617 Clear 20 1013 59 10000 0.5 0 07:47 02.02.2020
3618 Clear 20 1013 59 10000 0.5 0 07:29 02.02.2020
3619 Clear 21 1014 64 10000 1.5 170 06:46 02.02.2020
3620 Clear 21 1014 64 10000 1.5 170 06:28 02.02.2020
3621 Clear 21 1014 56 10000 1.5 120 05:49 02.02.2020
3622 Clear 21 1014 56 10000 4.1 150 04:58 02.02.2020
3623 Clear 21 1014 56 10000 4.1 150 04:58 02.02.2020
3624 Clear 22 1014 53 10000 4.6 150 03:40 02.02.2020
3625 Clear 23 1013 49 10000 7.2 180 02:39 02.02.2020
3626 Clear 25 1014 34 10000 2.1 250 01:56 02.02.2020
3627 Clear 26 1014 34 10000 2.1 250 01:35 02.02.2020
3628 Clear 29 1014 25 10000 3.6 240 00:45 02.02.2020
3629 Clear 28 1014 25 10000 3.6 240 00:23 02.02.2020
3630 Clear 29 1014 27 10000 4.6 240 23:54 01.02.2020
3631 Clear 30 1014 27 10000 4.6 240 23:36 01.02.2020
3632 Clear 30 1014 27 10000 4.6 240 23:18 01.02.2020
3633 Clear 32 1014 25 10000 3.1 250 22:42 01.02.2020
3634 Clear 32 1014 25 10000 3.1 250 22:18 01.02.2020
3635 Clear 32 1014 25 10000 4.1 250 21:39 01.02.2020
3636 Clear 31 1014 25 10000 4.1 250 21:19 01.02.2020
3637 Clear 32 1015 24 10000 3.1 220 20:42 01.02.2020
3638 Clear 32 1015 24 10000 3.1 220 20:21 01.02.2020
3639 Clear 32 1015 24 10000 3.1 220 20:21 01.02.2020
3640 Clear 31 1015 27 10000 3.1 230 19:58 01.02.2020
3641 Clear 31 1015 27 10000 3.1 230 19:39 01.02.2020
3642 Clear 31 1015 27 10000 3.1 230 19:20 01.02.2020
3643 Clear 31 1016 25 10000 2.6 250 18:59 01.02.2020
3644 Clear 30 1016 25 10000 2.6 250 18:40 01.02.2020
3645 Clear 30 1016 25 10000 2.6 250 18:22 01.02.2020
3646 Clear 29 1016 25 10000 2.6 260 17:58 01.02.2020
3647 Clear 29 1016 25 10000 2.6 260 17:40 01.02.2020
3648 Clear 29 1016 25 10000 2.6 260 17:20 01.02.2020
3649 Clear 28 1016 28 10000 2.6 270 16:56 01.02.2020
3650 Clear 28 1016 28 10000 2.6 270 16:38 01.02.2020
3651 Clear 28 1016 28 10000 2.6 270 16:38 01.02.2020
3652 Clear 28 1016 28 10000 2.6 270 16:19 01.02.2020
3653 Clear 26 1016 31 10000 1.5 240 15:41 01.02.2020
3654 Clear 26 1016 31 10000 1.5 240 15:22 01.02.2020
3655 Clear 24 1016 37 10000 1 0 14:57 01.02.2020
3656 Clear 24 1016 37 10000 1 0 14:38 01.02.2020
3657 Clear 22 1016 37 10000 1 0 14:20 01.02.2020
3658 Clear 24 875 41 0 1.67 267 13:43 01.02.2020
3659 Clear 21 573 41 0 1.59 269 13:18 01.02.2020
3660 Clear 24 875 41 0 1.59 269 12:43 01.02.2020
3661 Clear 24 1011 34 0 1.59 269 12:24 01.02.2020
3662 Clear 23 573 41 0 1.59 269 11:55 01.02.2020
3663 Clear 23 1011 34 0 1.59 269 11:37 01.02.2020
3664 Clear 19 1013 63 10000 1.5 240 11:18 01.02.2020
3665 Clear 19 1013 63 10000 1.5 240 10:54 01.02.2020
3666 Clear 19 1013 63 10000 1.5 240 10:36 01.02.2020
3667 Clear 18 1013 63 10000 1.5 240 10:18 01.02.2020
3668 Clear 19 1013 59 10000 0.5 0 09:41 01.02.2020
3669 Clear 19 1013 59 10000 0.5 0 09:22 01.02.2020
3670 Clear 19 1014 63 10000 3.1 170 08:58 01.02.2020
3671 Clear 19 1014 63 10000 3.1 170 08:22 01.02.2020
3672 Clear 20 1014 55 10000 3.1 160 07:43 01.02.2020
3673 Clear 19 1014 55 10000 3.1 160 07:24 01.02.2020
3674 Clear 20 1015 52 10000 4.1 160 06:44 01.02.2020
3675 Clear 21 1015 45 10000 5.7 150 05:54 01.02.2020
3676 Clear 20 1015 45 10000 5.1 150 04:32 01.02.2020
3677 Clear 22 1014 40 10000 5.1 150 03:26 01.02.2020
3678 Clear 24 1014 36 10000 4.6 150 02:58 01.02.2020
3679 Clear 24 1014 36 10000 4.6 150 02:39 01.02.2020
3680 Clear 25 1014 36 10000 4.6 150 02:19 01.02.2020
3681 Clouds 26 1015 31 10000 3.1 230 01:40 01.02.2020
3682 Clouds 26 1015 31 10000 3.1 230 01:19 01.02.2020
3683 Clouds 31 1014 23 10000 4.1 260 00:23 01.02.2020
3684 Clouds 30 1014 23 10000 4.1 260 23:41 31.01.2020
3685 Clouds 30 1014 23 10000 4.1 260 23:18 31.01.2020
3686 Clouds 30 1014 23 10000 4.1 260 23:18 31.01.2020
3687 Clear 30 1009 29 0 4.83 253 22:56 31.01.2020
3688 Clear 30 1009 28 0 4.83 253 22:38 31.01.2020
3689 Clear 31 1009 29 0 4.83 253 22:20 31.01.2020
3690 Clear 31 1009 29 0 4.83 253 21:40 31.01.2020
3691 Clear 31 1009 30 0 4.83 253 21:21 31.01.2020
3692 Clear 32 1009 29 0 4.83 253 20:58 31.01.2020
3693 Clear 31 1009 33 0 4.83 253 20:40 31.01.2020
3694 Clear 31 1010 33 0 4.88 250 20:22 31.01.2020
3695 Clear 31 1010 35 0 3.84 253 20:00 31.01.2020
3696 Clear 29 1010 34 0 3.84 253 19:40 31.01.2020
3697 Clear 29 1010 35 0 3.84 253 19:22 31.01.2020
3698 Clear 29 1010 34 0 3.84 253 19:22 31.01.2020
3699 Clear 29 1010 32 0 3.84 253 18:58 31.01.2020
3700 Clear 27 1014 21 0 3.84 253 18:36 31.01.2020
3701 Clear 29 1011 34 0 3.84 253 18:18 31.01.2020
3702 Clear 30 1011 29 0 3.84 253 17:43 31.01.2020
3703 Clear 30 1011 29 0 3.84 253 17:25 31.01.2020
3704 Clear 30 1011 31 0 3.41 263 16:57 31.01.2020
3705 Clear 30 1011 30 0 3.41 263 16:38 31.01.2020
3706 Clear 30 1011 32 0 3.41 263 16:19 31.01.2020
3707 Clear 30 1011 31 0 3.41 263 15:57 31.01.2020
3708 Clear 29 1012 38 0 3.41 263 15:39 31.01.2020
3709 Clear 29 1012 36 0 3.41 263 15:19 31.01.2020
3710 Clear 28 1012 37 0 3.41 263 14:42 31.01.2020
3711 Clear 24 764 41 0 3.41 263 14:24 31.01.2020
3712 Clear 21 573 41 0 1.32 263 13:54 31.01.2020
3713 Clear 23 573 41 0 1.32 263 13:34 31.01.2020
3714 Clear 22 573 41 0 1.32 267 12:59 31.01.2020
3715 Clear 24 573 41 0 1.31 267 12:41 31.01.2020
3716 Clear 24 1012 36 0 1.32 267 12:22 31.01.2020
3717 Clear 23 573 41 0 1.31 267 11:45 31.01.2020
3718 Clear 20 573 41 0 1.31 267 11:26 31.01.2020
3719 Clear 21 875 41 0 0.29 261 10:59 31.01.2020
3720 Clear 21 875 41 0 0.29 261 10:41 31.01.2020
3721 Clear 21 573 41 0 0.29 261 10:21 31.01.2020
3722 Clear 21 573 41 0 0.24 262 09:57 31.01.2020
3723 Clear 21 573 41 0 0.29 261 09:38 31.01.2020
3724 Clear 21 573 41 0 0.29 261 09:38 31.01.2020
3725 Clear 21 875 41 0 0.29 261 09:19 31.01.2020
3726 Clear 21 875 41 0 0.29 261 08:50 31.01.2020
3727 Clear 21 875 41 0 0.29 261 08:50 31.01.2020
3728 Clear 21 875 41 0 0.29 261 08:50 31.01.2020
3729 Clear 21 875 41 0 0.29 261 08:25 31.01.2020
3730 Clear 21 764 41 0 0.78 271 07:53 31.01.2020
3731 Clear 21 573 41 0 0.78 271 07:24 31.01.2020
3732 Clear 21 573 41 0 0.78 271 06:43 31.01.2020
3733 Clear 21 875 41 0 0.78 271 06:18 31.01.2020
3734 Clear 21 573 41 0 0.78 271 05:43 31.01.2020
3735 Clear 21 875 41 0 0.98 253 04:54 31.01.2020
3736 Clear 21 573 41 0 0.98 253 02:58 31.01.2020
3737 Clear 23 573 41 0 2.06 243 01:33 31.01.2020
3738 Clear 21 573 41 0 2.09 239 00:44 31.01.2020
3739 Clear 25 875 41 0 2.09 239 00:25 31.01.2020
3740 Clear 26 1011 36 0 2.09 239 23:53 30.01.2020
3741 Clear 30 1010 36 0 2.09 239 23:24 30.01.2020
3742 Clear 30 1010 35 0 4.57 250 22:56 30.01.2020
3743 Clear 30 1010 35 0 4.57 250 22:36 30.01.2020
3744 Clear 31 1010 36 0 4.57 250 22:18 30.01.2020
3745 Clear 31 1010 36 0 4.57 250 21:43 30.01.2020
3746 Clear 31 1010 35 0 4.57 250 21:20 30.01.2020
3747 Clear 31 1010 35 0 4.57 250 20:59 30.01.2020
3748 Clear 31 1010 35 0 4.57 250 20:39 30.01.2020
3749 Clear 31 1010 35 0 3.79 255 20:21 30.01.2020
3750 Clear 31 1010 35 0 3.79 255 20:21 30.01.2020
3751 Clear 31 1010 34 0 3.79 255 19:55 30.01.2020
3752 Clear 31 1011 34 0 3.79 255 19:36 30.01.2020
3753 Clear 31 1010 33 0 3.79 255 19:18 30.01.2020
3754 Clear 32 928 52 0 0.89 180 18:39 30.01.2020
3755 Clear 30 1011 31 0 3.79 255 18:20 30.01.2020
3756 Clear 30 1011 32 0 3.79 255 17:55 30.01.2020
3757 Clear 30 1011 31 0 3.79 255 17:36 30.01.2020
3758 Clear 29 1011 31 0 3.17 261 17:18 30.01.2020
3759 Clear 29 1012 33 0 3.17 261 16:56 30.01.2020
3760 Clear 29 1012 34 0 3.17 261 16:36 30.01.2020
3761 Clear 28 1012 35 0 3.17 261 16:18 30.01.2020
3762 Clear 28 1012 35 0 3.17 261 15:41 30.01.2020
3763 Clear 28 1013 34 0 3.17 261 15:19 30.01.2020
3764 Clear 27 1013 33 0 3.17 261 14:46 30.01.2020
3765 Clear 27 1013 34 0 3.17 261 14:26 30.01.2020
3766 Clear 23 875 41 0 1.6 252 13:43 30.01.2020
3767 Clear 23 875 41 0 1.6 252 13:25 30.01.2020
3768 Clear 22 573 41 0 1.34 264 12:59 30.01.2020
3769 Clear 24 573 41 0 1.34 264 12:40 30.01.2020
3770 Clear 23 1013 36 0 1.34 264 12:22 30.01.2020
3771 Clear 23 1012 35 0 1.34 264 11:54 30.01.2020
3772 Clear 22 1012 34 0 1.34 264 11:36 30.01.2020
3773 Clear 17 1016 45 0 0.43 233 11:18 30.01.2020
3774 Clear 17 1016 45 0 0.43 233 10:41 30.01.2020
3775 Clear 16 1015 67 10000 1.5 300 10:21 30.01.2020
3776 Clear 16 1015 67 10000 1.5 300 09:47 30.01.2020
3777 Clear 16 1015 67 10000 1.5 300 09:29 30.01.2020
3778 Clear 17 1015 63 10000 2.1 150 08:58 30.01.2020
3779 Clear 17 1015 63 10000 2.1 150 08:38 30.01.2020
3780 Clear 17 1015 63 10000 2.1 150 08:19 30.01.2020
3781 Clear 18 1015 59 10000 2.6 150 07:48 30.01.2020
3782 Clear 19 1015 59 10000 2.6 150 07:22 30.01.2020
3783 Clear 20 1015 55 10000 3.6 160 06:47 30.01.2020
3784 Clear 20 1015 55 10000 3.6 160 06:47 30.01.2020
3785 Clear 20 1015 55 10000 3.6 160 06:47 30.01.2020
3786 Clear 20 1015 55 10000 3.6 160 06:28 30.01.2020
3787 Clear 20 1016 52 10000 4.1 150 05:44 30.01.2020
3788 Clear 20 1016 52 10000 4.1 150 05:20 30.01.2020
3789 Clear 21 1016 37 10000 4.6 140 03:53 30.01.2020
3790 Clear 21 1016 37 10000 4.6 140 03:35 30.01.2020
3791 Clear 23 1015 35 10000 5.1 150 02:22 30.01.2020
3792 Clouds 25 1016 31 10000 3.6 210 00:42 30.01.2020
3793 Clouds 26 1016 31 10000 3.6 210 00:20 30.01.2020
3794 Clouds 27 1015 32 10000 4.1 230 23:46 29.01.2020
3795 Clouds 28 1015 32 10000 4.1 230 23:21 29.01.2020
3796 Clouds 29 1014 27 10000 5.1 230 22:57 29.01.2020
3797 Clouds 30 1014 27 10000 5.1 230 22:38 29.01.2020
3798 Clouds 29 1014 27 10000 5.1 230 22:19 29.01.2020
3799 Clouds 30 1015 28 10000 4.1 190 21:57 29.01.2020
3800 Clouds 30 1015 28 10000 4.1 190 21:38 29.01.2020
3801 Clouds 30 1015 28 10000 4.1 190 21:19 29.01.2020
3802 Clouds 30 1015 30 10000 4.6 220 20:57 29.01.2020
3803 Clouds 30 1015 30 10000 4.6 220 20:38 29.01.2020
3804 Clouds 30 1015 30 10000 4.6 220 20:38 29.01.2020
3805 Clouds 30 1015 30 10000 4.6 220 20:38 29.01.2020
3806 Clouds 30 1015 30 10000 4.6 220 20:19 29.01.2020
3807 Clouds 29 1015 32 10000 3.6 240 19:55 29.01.2020
3808 Clouds 29 1015 32 10000 3.6 240 19:37 29.01.2020
3809 Clouds 29 1015 32 10000 3.6 240 19:18 29.01.2020
3810 Clouds 28 1016 39 10000 3.1 0 18:43 29.01.2020
3811 Clouds 27 1016 39 10000 3.1 0 18:19 29.01.2020
3812 Clouds 26 1016 44 10000 2.6 240 17:56 29.01.2020
3813 Clouds 26 1016 44 10000 2.6 240 17:38 29.01.2020
3814 Clouds 26 1016 44 10000 2.6 240 17:20 29.01.2020
3815 Clouds 25 1017 53 10000 2.1 230 16:41 29.01.2020
3816 Clouds 24 1017 53 10000 2.1 230 16:23 29.01.2020
3817 Clouds 23 1017 60 10000 1.5 260 15:55 29.01.2020
3818 Clouds 22 1017 60 10000 1.5 260 15:36 29.01.2020
3819 Clouds 22 1017 60 10000 1.5 260 15:18 29.01.2020
3820 Clouds 21 1017 68 10000 1 190 14:41 29.01.2020
3821 Clouds 19 1017 68 10000 1 190 14:20 29.01.2020
3822 Clouds 19 1016 82 10000 0.5 290 13:41 29.01.2020
3823 Clouds 18 1016 82 10000 0.5 290 13:23 29.01.2020
3824 Clouds 18 1016 82 10000 0.5 290 13:23 29.01.2020
3825 Clouds 15 1016 87 10000 1.5 210 12:59 29.01.2020
3826 Clouds 18 1016 87 10000 1.5 210 12:39 29.01.2020
3827 Clouds 18 1016 87 10000 1.5 210 12:21 29.01.2020
3828 Clouds 19 1014 87 10000 3.6 150 11:58 29.01.2020
3829 Clouds 18 1014 87 10000 3.6 150 11:40 29.01.2020
3830 Clouds 15 1014 87 10000 3.6 150 11:20 29.01.2020
3831 Clouds 16 1014 87 10000 2.6 140 10:46 29.01.2020
3832 Clear 16 1014 82 10000 3.6 180 10:22 29.01.2020
3833 Clear 16 1014 82 10000 3.6 180 09:57 29.01.2020
3834 Clear 16 1014 82 10000 3.6 180 09:39 29.01.2020
3835 Clear 17 1014 82 10000 3.6 180 09:18 29.01.2020
3836 Clear 17 1014 82 10000 4.1 160 08:41 29.01.2020
3837 Clear 17 1014 82 10000 4.1 160 08:22 29.01.2020
3838 Clear 17 1014 82 10000 5.1 140 07:45 29.01.2020
3839 Clear 17 1014 82 10000 5.1 140 07:26 29.01.2020
3840 Clouds 20 1014 77 10000 5.7 160 06:56 29.01.2020
3841 Clouds 20 1014 77 10000 5.7 160 06:37 29.01.2020
3842 Clouds 19 1014 77 10000 5.7 160 06:19 29.01.2020
3843 Clouds 20 1014 68 10000 4.6 150 05:49 29.01.2020
3844 Clouds 20 1014 68 10000 4.6 150 05:30 29.01.2020
3845 Clouds 19 1014 72 10000 6.2 170 04:38 29.01.2020
3846 Clouds 21 1014 60 10000 5.7 160 03:58 29.01.2020
3847 Clear 17 1015 63 0 1.6 251 02:33 29.01.2020
3848 Clouds 26 1014 39 10000 4.1 240 00:59 29.01.2020
3849 Clouds 26 1014 39 10000 4.1 240 00:36 29.01.2020
3850 Clouds 26 1014 39 10000 4.1 240 00:18 29.01.2020
3851 Clouds 27 1014 36 10000 4.1 210 23:39 28.01.2020
3852 Clouds 27 1014 36 10000 4.1 210 23:19 28.01.2020
3853 Clouds 29 1013 28 10000 5.1 230 22:49 28.01.2020
3854 Clouds 30 1013 28 10000 5.1 230 22:27 28.01.2020
3855 Dust 30 1011 35 8000 10.8 220 21:57 28.01.2020
3856 Clouds 32 1013 25 10000 4.6 250 21:38 28.01.2020
3857 Clouds 32 1013 25 10000 4.6 250 21:19 28.01.2020
3858 Clouds 32 1013 25 10000 4.6 250 21:19 28.01.2020
3859 Clouds 32 1013 25 10000 3.6 240 20:45 28.01.2020
3860 Clouds 32 1013 25 10000 3.6 240 20:26 28.01.2020
3861 Clouds 33 1013 25 10000 4.1 230 19:55 28.01.2020
3862 Clouds 33 1013 25 10000 4.1 230 19:37 28.01.2020
3863 Clouds 33 1013 25 10000 4.1 230 19:19 28.01.2020
3864 Clouds 33 1013 25 10000 4.1 230 19:19 28.01.2020
3865 Clouds 33 1013 25 10000 4.1 230 19:19 28.01.2020
3866 Clouds 32 1014 25 10000 2.1 270 18:41 28.01.2020
3867 Clouds 32 1014 25 10000 2.1 270 18:23 28.01.2020
3868 Clouds 30 1014 28 10000 2.6 240 17:59 28.01.2020
3869 Clouds 30 1014 28 10000 2.6 240 17:59 28.01.2020
3870 Clouds 30 1014 28 10000 2.6 240 17:39 28.01.2020
3871 Clouds 30 1014 28 10000 2.6 240 17:21 28.01.2020
3872 Clouds 29 1015 30 10000 2.1 290 16:58 28.01.2020
3873 Clouds 29 1015 30 10000 2.1 290 16:40 28.01.2020
3874 Clouds 28 1015 30 10000 2.1 290 16:21 28.01.2020
3875 Clouds 27 1015 31 10000 1.5 270 15:47 28.01.2020
3876 Clouds 27 1015 31 10000 1.5 270 15:19 28.01.2020
3877 Clouds 25 1015 40 10000 0.5 330 14:59 28.01.2020
3878 Clouds 25 1015 40 10000 0.5 330 14:41 28.01.2020
3879 Clouds 23 1015 40 10000 0.5 330 14:18 28.01.2020
3880 Clouds 22 1015 49 10000 1.68 264 13:42 28.01.2020
3881 Clouds 22 1015 49 10000 1.66 261 13:24 28.01.2020
3882 Clouds 19 1015 55 10000 1.66 261 12:44 28.01.2020
3883 Clouds 20 1015 55 10000 1.66 261 12:24 28.01.2020
3884 Clouds 20 1013 59 10000 1.5 160 11:58 28.01.2020
3885 Clouds 20 1013 59 10000 1.5 160 11:40 28.01.2020
3886 Clouds 19 1013 59 10000 1.5 160 11:21 28.01.2020
3887 Clouds 20 1013 59 10000 2.6 170 10:43 28.01.2020
3888 Clouds 19 1013 59 10000 2.6 170 10:24 28.01.2020
3889 Clouds 20 1013 55 10000 2.6 140 09:59 28.01.2020
3890 Clouds 20 1013 55 10000 2.6 140 09:59 28.01.2020
3891 Clouds 20 1013 55 10000 2.6 140 09:39 28.01.2020
3892 Clouds 19 1013 55 10000 2.6 140 09:20 28.01.2020
3893 Clouds 20 1013 55 10000 3.1 140 08:44 28.01.2020
3894 Clouds 20 1013 55 10000 3.1 140 08:25 28.01.2020
3895 Clouds 20 1013 52 10000 3.1 170 07:44 28.01.2020
3896 Clouds 20 1013 52 10000 3.1 170 07:26 28.01.2020
3897 Clouds 21 1014 49 10000 4.1 170 06:47 28.01.2020
3898 Clouds 21 1014 49 10000 4.1 170 06:24 28.01.2020
3899 Clouds 21 1014 43 10000 3.6 160 05:37 28.01.2020
3900 Clear 21 1014 43 10000 3.6 160 05:19 28.01.2020
3901 Clear 24 1013 33 10000 6.7 130 03:46 28.01.2020
3902 Clear 25 1013 33 10000 5.7 140 02:44 28.01.2020
3903 Clear 25 1013 33 10000 5.7 140 02:44 28.01.2020
3904 Clear 26 1013 33 10000 5.7 140 02:24 28.01.2020
3905 Clouds 27 1015 30 10000 3.1 230 01:52 28.01.2020
3906 Clouds 27 1015 30 10000 3.1 230 01:20 28.01.2020
3907 Clear 28 1014 28 10000 3.6 210 00:41 28.01.2020
3908 Clear 28 1014 28 10000 3.6 210 00:19 28.01.2020
3909 Clouds 31 1014 25 10000 4.1 250 23:42 27.01.2020
3910 Clouds 31 1014 25 10000 4.1 250 23:19 27.01.2020
3911 Clouds 32 1014 25 10000 4.1 240 22:45 27.01.2020
3912 Clouds 32 1014 25 10000 4.1 240 22:20 27.01.2020
3913 Clouds 33 1014 25 10000 4.1 240 22:20 27.01.2020
3914 Clouds 32 1014 25 10000 4.1 240 22:20 27.01.2020
3915 Clouds 32 1014 21 10000 3.6 240 21:57 27.01.2020
3916 Clouds 32 1014 21 10000 3.6 240 21:38 27.01.2020
3917 Clouds 32 1014 21 10000 3.6 240 21:19 27.01.2020
3918 Clouds 32 1014 21 10000 3.6 240 21:19 27.01.2020
3919 Clouds 33 1013 26 10000 8.2 210 20:56 27.01.2020
3920 Clouds 33 1013 26 10000 8.2 210 20:37 27.01.2020
3921 Clouds 33 1013 26 10000 8.2 210 20:19 27.01.2020
3922 Clouds 33 1015 25 10000 4.1 220 19:42 27.01.2020
3923 Clouds 33 1015 25 10000 4.1 220 19:23 27.01.2020
3924 Clouds 33 1015 29 10000 3.1 210 18:59 27.01.2020
3925 Clouds 33 1015 29 10000 3.1 210 18:39 27.01.2020
3926 Clouds 33 1015 29 10000 3.1 210 18:21 27.01.2020
3927 Clear 32 1016 29 10000 2.6 220 17:57 27.01.2020
3928 Clear 33 928 51 0 0.89 180 17:37 27.01.2020
3929 Clear 31 1016 32 10000 1.5 240 17:18 27.01.2020
3930 Clear 30 1016 32 10000 1.5 240 16:42 27.01.2020
3931 Clear 30 1016 32 10000 1.5 240 16:24 27.01.2020
3932 Clear 28 1016 39 10000 1.5 0 15:59 27.01.2020
3933 Clear 28 1016 39 10000 1.5 0 15:40 27.01.2020
3934 Clear 28 1016 39 10000 1.5 0 15:19 27.01.2020
3935 Clear 27 1016 41 10000 1.5 0 14:56 27.01.2020
3936 Clear 26 1016 41 10000 1.5 0 14:37 27.01.2020
3937 Clear 26 1016 41 10000 1.5 0 14:37 27.01.2020
3938 Clear 25 1016 41 10000 1.5 0 14:19 27.01.2020
3939 Clear 24 1016 52 10000 1.27 287 13:42 27.01.2020
3940 Clouds 24 1016 52 10000 1.41 282 13:22 27.01.2020
3941 Clouds 21 1016 68 10000 1.41 282 12:57 27.01.2020
3942 Clouds 21 1016 68 10000 1.41 282 12:38 27.01.2020
3943 Clouds 19 1016 68 10000 1.41 282 12:20 27.01.2020
3944 Clouds 22 1014 63 10000 0.5 0 11:42 27.01.2020
3945 Clouds 19 1014 63 10000 0.5 0 11:21 27.01.2020
3946 Clouds 20 1014 63 10000 2.1 290 10:55 27.01.2020
3947 Clouds 20 1014 63 10000 2.1 290 10:36 27.01.2020
3948 Clouds 19 1014 63 10000 2.1 290 10:18 27.01.2020
3949 Clouds 21 1014 60 10000 0.5 0 09:39 27.01.2020
3950 Clouds 21 1014 60 10000 0.5 0 09:39 27.01.2020
3951 Clouds 21 1014 60 10000 0.5 0 09:19 27.01.2020
3952 Clouds 21 1014 56 10000 0.21 308 08:48 27.01.2020
3953 Clouds 21 1014 56 10000 0.3 295 08:23 27.01.2020
3954 Clear 22 1014 53 10000 1.5 240 07:55 27.01.2020
3955 Clear 22 1014 53 10000 1.5 240 07:36 27.01.2020
3956 Clear 22 1014 53 10000 1.5 240 07:18 27.01.2020
3957 Clear 22 1015 49 10000 2.1 170 06:33 27.01.2020
3958 Clear 23 1015 47 10000 1.5 110 05:37 27.01.2020
3959 Clear 25 1015 44 10000 2.6 140 04:21 27.01.2020
3960 Clear 27 1015 39 10000 3.6 150 03:27 27.01.2020
3961 Clear 29 1016 26 10000 1.5 230 01:42 27.01.2020
3962 Clear 29 1016 26 10000 1.5 230 01:22 27.01.2020
3963 Clear 32 1016 22 10000 4.1 240 00:40 27.01.2020
3964 Clear 30 1016 22 10000 4.1 240 00:19 27.01.2020
3965 Clear 31 1016 22 10000 4.1 240 23:42 26.01.2020
3966 Clear 32 1016 22 10000 4.1 240 23:21 26.01.2020
3967 Clear 32 1016 17 10000 3.1 230 22:57 26.01.2020
3968 Clear 32 1016 17 10000 3.1 230 22:38 26.01.2020
3969 Clear 32 1016 17 10000 3.1 230 22:19 26.01.2020
3970 Clear 32 1017 15 10000 3.6 230 21:57 26.01.2020
3971 Clear 33 1017 15 10000 3.6 230 21:38 26.01.2020
3972 Clear 33 1017 15 10000 3.6 230 21:20 26.01.2020
3973 Clear 32 1017 18 10000 5.1 230 20:57 26.01.2020
3974 Clear 32 1017 18 10000 5.1 230 20:38 26.01.2020
3975 Clear 33 1017 18 10000 5.1 230 20:18 26.01.2020
3976 Clear 34 1018 17 10000 3.1 230 19:57 26.01.2020
3977 Clear 34 1018 17 10000 3.1 230 19:57 26.01.2020
3978 Clear 33 1018 17 10000 3.1 230 19:37 26.01.2020
3979 Clear 33 1018 17 10000 3.1 230 19:18 26.01.2020
3980 Clear 33 1019 19 10000 2.6 270 18:54 26.01.2020
3981 Clear 33 1019 19 10000 2.6 270 18:36 26.01.2020
3982 Clear 32 1019 19 10000 2.6 270 18:18 26.01.2020
3983 Clear 31 1019 22 10000 1.5 270 17:40 26.01.2020
3984 Clear 30 1019 22 10000 1.5 270 17:20 26.01.2020
3985 Clear 30 1019 22 10000 1.5 270 17:20 26.01.2020
3986 Clear 30 1019 25 10000 1.5 250 16:59 26.01.2020
3987 Clear 30 1019 25 10000 1.5 250 16:40 26.01.2020
3988 Clear 29 1019 25 10000 1.5 250 16:22 26.01.2020
3989 -273 0 0 0 0 0 16:22 26.01.2020
3990 Clear 29 1015 30 0 2.96 263 15:58 26.01.2020
3991 Clear 29 1015 30 0 2.96 263 15:58 26.01.2020
3992 Clear 29 1015 30 0 2.96 263 15:58 26.01.2020
3993 Clear 29 1015 32 0 2.96 263 15:40 26.01.2020
3994 Clear 28 1016 35 0 2.96 263 15:19 26.01.2020
3995 Clear 29 932 47 0 0.45 180 14:41 26.01.2020
3996 Clear 25 1015 35 0 2.96 263 14:23 26.01.2020
3997 Clear 25 1015 35 0 2.96 263 14:23 26.01.2020
3998 Clear 25 1016 35 0 1.85 263 13:57 26.01.2020
3999 Clear 25 1016 35 0 1.85 263 13:38 26.01.2020
4000 Clear 21 573 41 0 1.85 263 13:18 26.01.2020
4001 Clouds 24 1016 36 0 1.77 263 12:42 26.01.2020
4002 Clouds 24 1016 36 0 1.77 263 12:24 26.01.2020
4003 Clouds 24 1015 35 0 1.77 263 11:58 26.01.2020
4004 Clouds 23 573 41 0 1.77 263 11:40 26.01.2020
4005 Clouds 21 1016 42 10000 1 0 11:19 26.01.2020
4006 Clouds 21 1016 42 10000 1 0 10:59 26.01.2020
4007 Clouds 21 1016 42 10000 1 0 10:38 26.01.2020
4008 Clouds 21 1016 42 10000 1 0 10:20 26.01.2020
4009 Clouds 20 1016 42 10000 1 0 09:58 26.01.2020
4010 Clouds 20 1016 42 10000 1 0 09:40 26.01.2020
4011 Clouds 20 1016 42 10000 1 0 09:40 26.01.2020
4012 Clouds 19 1016 42 10000 1 0 09:21 26.01.2020
4013 Clouds 20 1016 45 10000 1 0 08:44 26.01.2020
4014 Clouds 19 1016 45 10000 1 0 08:23 26.01.2020
4015 Clouds 21 1016 35 10000 2.1 250 07:58 26.01.2020
4016 Clouds 21 1016 35 10000 2.1 250 07:40 26.01.2020
4017 Clouds 21 1016 35 10000 2.1 250 07:21 26.01.2020
4018 Clouds 21 1016 35 10000 1.5 270 06:31 26.01.2020
4019 Clouds 22 1017 28 10000 3.6 150 05:32 26.01.2020
4020 Clouds 22 1016 29 10000 3.1 150 04:45 26.01.2020
4021 Clouds 27 1015 24 10000 3.6 150 02:59 26.01.2020
4022 Clear 27 1017 26 10000 2.6 220 01:57 26.01.2020
4023 Clear 27 1017 26 10000 2.6 220 01:37 26.01.2020
4024 Clear 27 1017 26 10000 2.6 220 01:18 26.01.2020
4025 Clear 30 1016 20 10000 3.6 250 00:38 26.01.2020
4026 Clear 29 1016 20 10000 3.6 250 00:20 26.01.2020
4027 Clear 27 1011 30 0 1.83 238 23:37 25.01.2020
4028 Clear 30 1011 35 0 4.92 253 23:18 25.01.2020
4029 Clear 30 1011 35 0 4.92 253 23:18 25.01.2020
4030 Clear 31 1011 37 0 4.92 253 22:41 25.01.2020
4031 Clear 31 1011 39 0 4.92 253 22:20 25.01.2020
4032 Clear 31 1011 40 0 4.92 253 21:57 25.01.2020
4033 Clear 31 1011 40 0 4.92 253 21:39 25.01.2020
4034 Clear 31 1011 40 0 4.92 253 21:20 25.01.2020
4035 Clear 29 1014 19 0 4.92 253 20:45 25.01.2020
4036 Clear 34 929 49 0 1.34 180 20:26 25.01.2020
4037 Clear 34 929 50 0 0.89 135 19:56 25.01.2020
4038 Clear 28 1014 19 0 3.65 258 19:56 25.01.2020
4039 Clear 34 929 51 0 1.79 180 19:37 25.01.2020
4040 Clear 33 929 52 0 1.34 270 19:19 25.01.2020
4041 Clear 34 929 52 0 1.34 180 18:55 25.01.2020
4042 Clear 33 929 53 0 1.34 225 18:37 25.01.2020
4043 Clear 33 929 53 0 0.45 180 18:18 25.01.2020
4044 Clear 32 930 56 0 0.89 180 17:39 25.01.2020
4045 Clear 30 1013 39 0 3.43 266 17:19 25.01.2020
4046 Clear 30 1013 39 0 3.43 267 16:56 25.01.2020
4047 Clear 30 1013 40 0 3.43 267 16:37 25.01.2020
4048 Clear 30 1013 39 0 3.43 267 16:18 25.01.2020
4049 Clear 30 1013 41 0 3.43 267 15:42 25.01.2020
4050 Clear 29 1013 41 0 3.43 267 15:23 25.01.2020
4051 Clear 28 1014 40 0 3.43 267 14:46 25.01.2020
4052 Clouds 25 1014 39 0 1.11 267 14:19 25.01.2020
4053 Clouds 24 1014 40 0 1.11 267 13:56 25.01.2020
4054 Clouds 25 1014 40 0 1.11 267 13:38 25.01.2020
4055 Clouds 21 573 41 0 1.11 267 13:18 25.01.2020
4056 Clouds 21 573 41 0 1.11 267 13:18 25.01.2020
4057 Clouds 24 1014 41 0 1.12 283 12:42 25.01.2020
4058 Clouds 22 1016 63 10000 1 0 12:21 25.01.2020
4059 Clouds 22 1016 63 10000 1 0 11:43 25.01.2020
4060 Clouds 19 1016 63 10000 1 0 11:21 25.01.2020
4061 Clouds 19 1016 63 10000 1 0 11:21 25.01.2020
4062 Clouds 20 1016 59 10000 1.5 180 10:56 25.01.2020
4063 Clouds 20 1016 59 10000 1.5 180 10:38 25.01.2020
4064 Clouds 19 1016 59 10000 1.5 180 10:19 25.01.2020
4065 Clouds 20 1015 59 10000 3.6 150 09:40 25.01.2020
4066 Clouds 19 1015 59 10000 3.6 150 09:20 25.01.2020
4067 Clouds 20 1015 55 10000 3.6 140 08:43 25.01.2020
4068 Clouds 20 1015 55 10000 3.6 140 08:20 25.01.2020
4069 Clouds 20 1015 52 10000 2.1 170 07:41 25.01.2020
4070 Clouds 21 1016 46 10000 4.1 160 06:44 25.01.2020
4071 Clouds 21 1016 46 10000 4.1 160 06:24 25.01.2020
4072 Clouds 22 1016 43 10000 3.1 140 05:44 25.01.2020
4073 Clouds 22 1016 38 10000 3.6 150 04:25 25.01.2020
4074 Clouds 22 1015 38 10000 5.7 150 03:50 25.01.2020
4075 Clouds 23 1015 34 10000 4.6 130 02:40 25.01.2020
4076 Clear 24 1017 41 10000 2.1 240 01:58 25.01.2020
4077 Clear 25 1017 41 10000 2.1 240 01:34 25.01.2020
4078 Clouds 25 1016 36 10000 3.1 240 00:41 25.01.2020
4079 Clouds 26 1016 36 10000 3.1 240 00:23 25.01.2020
4080 Clouds 27 1016 37 10000 4.1 250 23:42 24.01.2020
4081 Clouds 27 1016 37 10000 4.1 250 23:42 24.01.2020
4082 Clouds 29 1016 37 10000 4.1 250 23:24 24.01.2020
4083 Clear 31 1015 35 10000 4.1 240 22:56 24.01.2020
4084 Clear 31 1015 35 10000 4.1 240 22:37 24.01.2020
4085 Clear 31 1015 35 10000 4.1 240 22:19 24.01.2020
4086 Clear 33 1015 31 10000 3.6 220 21:41 24.01.2020
4087 Clear 33 1015 31 10000 3.6 220 21:19 24.01.2020
4088 Clear 32 1016 35 10000 3.6 220 20:44 24.01.2020
4089 Clear 32 1016 35 10000 3.6 220 20:23 24.01.2020
4090 Clouds 31 1016 35 7000 3.6 210 19:59 24.01.2020
4091 Clouds 31 1016 35 7000 3.6 210 19:41 24.01.2020
4092 Clouds 31 1016 35 7000 3.6 210 19:22 24.01.2020
4093 Clouds 30 1017 39 7000 2.1 190 18:58 24.01.2020
4094 Clouds 30 1017 39 7000 2.1 190 18:40 24.01.2020
4095 Clouds 30 1017 39 7000 2.1 190 18:21 24.01.2020
4096 Clouds 30 1017 39 7000 2.1 190 18:21 24.01.2020
4097 Clouds 29 1017 42 6000 2.1 270 17:42 24.01.2020
4098 Clouds 28 1017 42 6000 2.1 270 17:21 24.01.2020
4099 Clouds 28 1017 47 8000 2.6 230 16:57 24.01.2020
4100 Clouds 28 1017 47 8000 2.6 230 16:57 24.01.2020
4101 Clouds 28 1017 47 8000 2.6 230 16:38 24.01.2020
4102 Clouds 27 1017 47 8000 2.6 230 16:18 24.01.2020
4103 Clouds 25 1017 50 8000 2.1 190 15:41 24.01.2020
4104 Clouds 25 1017 50 8000 2.1 190 15:21 24.01.2020
4105 Clouds 23 1017 56 8000 1 0 14:42 24.01.2020
4106 Clouds 22 1017 56 8000 1 0 14:24 24.01.2020
4107 Clouds 21 1017 68 10000 1.71 291 13:58 24.01.2020
4108 Clouds 21 1017 68 10000 1.71 291 13:40 24.01.2020
4109 Clouds 20 1017 68 10000 1.71 291 13:21 24.01.2020
4110 Clouds 20 1017 64 10000 1 230 12:42 24.01.2020
4111 Clouds 20 1017 64 10000 1 230 12:20 24.01.2020
4112 Clouds 20 1015 77 10000 2.6 170 11:44 24.01.2020
4113 Clouds 19 1015 77 10000 2.6 170 11:19 24.01.2020
4114 Clouds 20 1015 72 10000 3.6 150 10:43 24.01.2020
4115 Clouds 19 1015 72 10000 3.6 150 10:23 24.01.2020
4116 Clouds 20 1015 72 10000 3.6 150 09:57 24.01.2020
4117 Clouds 20 1015 72 10000 3.6 150 09:39 24.01.2020
4118 Clouds 19 1015 72 10000 3.6 150 09:21 24.01.2020
4119 Clouds 20 1015 72 10000 3.6 160 08:41 24.01.2020
4120 Clouds 19 1015 72 10000 3.6 160 08:20 24.01.2020
4121 Clouds 20 1015 68 10000 3.6 160 07:52 24.01.2020
4122 Clouds 20 1015 68 10000 3.6 160 07:34 24.01.2020
4123 Clouds 20 1015 68 10000 3.6 150 06:48 24.01.2020
4124 Clouds 20 1015 68 10000 3.6 150 06:29 24.01.2020
4125 Clouds 21 1016 64 10000 3.6 150 05:58 24.01.2020
4126 Clouds 21 1016 60 10000 4.1 150 04:57 24.01.2020
4127 Clouds 23 1015 53 10000 4.1 140 02:53 24.01.2020
4128 Clouds 24 1015 53 10000 4.1 140 02:25 24.01.2020
4129 Clouds 24 1017 47 10000 2.6 240 01:45 24.01.2020
4130 Clouds 24 1017 47 10000 2.6 240 01:26 24.01.2020
4131 Clouds 27 1016 42 10000 3.6 250 00:23 24.01.2020
4132 Clouds 28 1016 37 10000 4.6 240 23:49 23.01.2020
4133 Clouds 29 1016 37 10000 4.6 240 23:31 23.01.2020
4134 Clouds 29 1016 25 10000 4.1 240 22:59 23.01.2020
4135 Clouds 30 1016 25 10000 4.1 240 22:38 23.01.2020
4136 Clouds 30 1016 25 10000 4.1 240 22:38 23.01.2020
4137 Clouds 30 1016 25 10000 4.1 240 22:19 23.01.2020
4138 Clouds 30 1016 35 10000 4.1 240 21:57 23.01.2020
4139 Clouds 30 1016 35 10000 4.1 240 21:39 23.01.2020
4140 Clouds 30 1016 35 10000 4.1 240 21:20 23.01.2020
4141 Clouds 30 1017 35 10000 3.1 260 20:58 23.01.2020
4142 Clouds 30 1017 35 10000 3.1 260 20:38 23.01.2020
4143 Clouds 30 1017 35 10000 3.1 260 20:19 23.01.2020
4144 Clouds 30 1017 26 10000 3.1 210 19:54 23.01.2020
4145 Clouds 30 1017 26 10000 3.1 210 19:36 23.01.2020
4146 Clouds 30 1017 26 10000 3.1 210 19:18 23.01.2020
4147 Clouds 29 1018 39 10000 3.6 270 18:42 23.01.2020
4148 Clouds 29 1018 39 10000 3.6 270 18:20 23.01.2020
4149 Clouds 29 1018 39 10000 3.6 270 18:20 23.01.2020
4150 Clouds 28 1018 42 10000 3.6 240 17:58 23.01.2020
4151 Clouds 28 1018 42 10000 3.6 240 17:39 23.01.2020
4152 Clouds 28 1018 42 10000 3.6 240 17:19 23.01.2020
4153 Clouds 26 1018 44 10000 2.6 240 16:55 23.01.2020
4154 Clouds 26 1018 44 10000 2.6 240 16:36 23.01.2020
4155 Clouds 26 1018 44 10000 2.6 240 16:18 23.01.2020
4156 Clouds 25 1018 50 8000 1.5 210 15:54 23.01.2020
4157 Clouds 25 1018 50 8000 1.5 210 15:36 23.01.2020
4158 Clouds 25 1018 50 8000 1.5 210 15:18 23.01.2020
4159 Clouds 23 1018 60 10000 1 120 14:54 23.01.2020
4160 Clouds 23 1018 60 10000 1 120 14:36 23.01.2020
4161 Clouds 21 1018 60 10000 1 120 14:18 23.01.2020
4162 Clouds 20 1018 68 10000 1.95 247 13:38 23.01.2020
4163 Clouds 19 1018 68 10000 1.68 247 13:19 23.01.2020
4164 Clouds 19 1018 67 10000 1.68 247 12:47 23.01.2020
4165 Clouds 19 1018 67 10000 1.68 247 12:25 23.01.2020
4166 Clouds 19 1018 67 10000 1.83 249 12:25 23.01.2020
4167 Clouds 20 1016 82 10000 3.6 170 11:58 23.01.2020
4168 Clouds 19 1016 82 10000 3.6 170 11:38 23.01.2020
4169 Clear 17 1016 82 10000 3.6 170 11:19 23.01.2020
4170 Clouds 17 1015 82 10000 3.6 160 10:44 23.01.2020
4171 Clouds 17 1015 82 10000 3.6 160 10:22 23.01.2020
4172 Clear 18 1015 77 10000 3.6 160 09:59 23.01.2020
4173 Clear 19 1015 77 10000 3.6 160 09:37 23.01.2020
4174 Clouds 19 1015 77 10000 3.6 160 09:19 23.01.2020
4175 Clear 21 573 41 0 0.35 252 08:41 23.01.2020
4176 Clouds 20 1014 72 10000 3.6 160 08:22 23.01.2020
4177 Clouds 20 1014 72 10000 3.6 160 07:45 23.01.2020
4178 Clouds 20 1014 72 10000 3.6 160 07:26 23.01.2020
4179 Clouds 20 1014 68 10000 3.1 160 06:53 23.01.2020
4180 Clouds 20 1014 68 10000 3.1 160 06:23 23.01.2020
4181 Clouds 20 1014 68 10000 2.6 140 05:57 23.01.2020
4182 Clear 19 1014 68 10000 3.6 170 04:24 23.01.2020
4183 Clear 22 1013 56 10000 6.2 140 02:34 23.01.2020
4184 Clear 24 1014 50 10000 2.6 250 01:41 23.01.2020
4185 Clouds 26 1013 44 10000 3.1 230 00:28 23.01.2020
4186 Clouds 28 1013 39 8000 4.1 240 23:48 22.01.2020
4187 Clouds 28 1013 39 8000 4.1 240 23:30 22.01.2020
4188 Clear 30 1013 33 10000 4.1 220 22:59 22.01.2020
4189 Clear 30 1013 33 10000 4.1 220 22:41 22.01.2020
4190 Clear 30 1013 33 10000 4.1 220 22:41 22.01.2020
4191 Clear 30 1013 33 10000 4.1 220 22:22 22.01.2020
4192 Clear 31 1013 33 10000 4.6 220 21:41 22.01.2020
4193 Clear 31 1013 33 10000 4.6 220 21:22 22.01.2020
4194 Clear 30 1013 35 10000 3.6 250 20:58 22.01.2020
4195 Clear 30 1013 35 10000 3.6 250 20:39 22.01.2020
4196 Clear 30 1013 35 10000 3.6 250 20:21 22.01.2020
4197 Clear 30 1014 35 10000 3.1 230 19:57 22.01.2020
4198 Clear 30 1014 35 10000 3.1 230 19:39 22.01.2020
4199 Clear 30 1014 35 10000 3.1 230 19:19 22.01.2020
4200 Clear 29 1014 39 10000 2.6 250 18:57 22.01.2020
4201 Clear 29 1014 39 10000 2.6 250 18:38 22.01.2020
4202 Clear 29 1014 39 10000 2.6 250 18:38 22.01.2020
4203 Clear 28 1014 39 10000 2.6 250 18:19 22.01.2020
4204 Clear 27 1014 39 10000 2.1 210 17:55 22.01.2020
4205 Clear 27 1014 39 10000 2.1 210 17:36 22.01.2020
4206 Clear 27 1014 39 10000 2.1 210 17:18 22.01.2020
4207 Clear 26 1015 41 10000 2.6 240 16:43 22.01.2020
4208 Clear 25 1015 41 10000 2.6 240 16:23 22.01.2020
4209 Clear 24 1015 49 10000 2.6 260 15:58 22.01.2020
4210 Clear 24 1015 49 10000 2.6 260 15:40 22.01.2020
4211 Clear 23 1015 49 10000 2.6 260 15:22 22.01.2020
4212 Clear 22 1015 56 10000 1.5 250 14:56 22.01.2020
4213 Clear 21 1015 56 10000 1.5 250 14:36 22.01.2020
4214 Clear 21 1015 56 10000 1.5 250 14:18 22.01.2020
4215 Clear 21 1014 63 10000 1 220 13:54 22.01.2020
4216 Clear 20 1014 63 10000 1 220 13:36 22.01.2020
4217 Clear 18 1014 63 10000 1 220 13:18 22.01.2020
4218 Clear 20 1014 63 10000 5.1 220 12:54 22.01.2020
4219 Clear 19 1014 63 10000 5.1 220 12:36 22.01.2020
4220 Clear 19 1014 63 10000 5.1 220 12:18 22.01.2020
4221 Clear 19 1012 77 10000 2.6 170 11:55 22.01.2020
4222 Clear 18 1012 77 10000 2.6 170 11:36 22.01.2020
4223 Clear 18 1012 77 10000 2.6 170 11:18 22.01.2020
4224 Clear 18 1011 77 10000 2.6 170 10:42 22.01.2020
4225 Clear 18 1011 77 10000 2.6 170 10:19 22.01.2020
4226 Clear 19 1011 72 10000 3.6 170 09:43 22.01.2020
4227 Clear 18 1011 72 10000 3.6 170 09:24 22.01.2020
4228 Clear 19 1011 67 10000 2.6 170 08:57 22.01.2020
4229 Clear 19 1011 67 10000 2.6 170 08:57 22.01.2020
4230 Clear 19 1011 67 10000 2.6 170 08:39 22.01.2020
4231 Clear 19 1011 67 10000 2.6 170 08:20 22.01.2020
4232 Clear 19 1011 67 10000 3.6 160 07:47 22.01.2020
4233 Clear 19 1011 67 10000 3.6 160 07:29 22.01.2020
4234 Clear 20 1011 63 10000 4.1 150 06:46 22.01.2020
4235 Clear 20 1011 63 10000 4.1 150 06:26 22.01.2020
4236 Clear 20 1011 59 10000 4.1 170 05:26 22.01.2020
4237 Clear 22 1011 53 10000 4.6 140 04:18 22.01.2020
4238 Clear 22 1011 53 10000 4.6 140 03:21 22.01.2020
4239 Clear 26 1012 36 10000 1 270 01:43 22.01.2020
4240 Clear 28 1012 37 10000 2.1 230 00:44 22.01.2020
4241 Clear 28 1012 37 10000 2.1 230 00:26 22.01.2020
4242 Clear 30 1012 30 8000 3.6 250 23:38 21.01.2020
4243 Clear 30 1012 30 8000 3.6 250 23:20 21.01.2020
4244 Clear 31 1012 33 8000 4.1 250 22:56 21.01.2020
4245 Clear 31 1012 33 8000 4.1 250 22:37 21.01.2020
4246 Clear 31 1012 33 8000 4.1 250 22:37 21.01.2020
4247 Clear 31 1012 33 8000 4.1 250 22:19 21.01.2020
4248 Clear 31 1012 31 8000 4.6 220 21:55 21.01.2020
4249 Clear 32 1012 31 8000 4.6 220 21:37 21.01.2020
4250 Clear 31 1012 31 8000 4.6 220 21:18 21.01.2020
4251 Clear 32 1012 29 8000 4.6 240 20:55 21.01.2020
4252 Clear 32 1012 29 8000 4.6 240 20:36 21.01.2020
4253 Clear 32 1012 29 8000 4.6 240 20:18 21.01.2020
4254 Clear 32 1013 29 8000 4 255 19:55 21.01.2020
4255 Clear 32 1013 29 8000 4 255 19:36 21.01.2020
4256 Clear 32 1013 29 8000 4 255 19:18 21.01.2020
4257 Clear 32 1013 31 8000 3.1 260 18:54 21.01.2020
4258 Clear 32 1013 31 8000 3.1 260 18:36 21.01.2020
4259 Clear 32 1013 31 8000 3.1 260 18:18 21.01.2020
4260 Clear 30 1013 37 8000 2.1 250 17:42 21.01.2020
4261 Clear 30 1013 37 8000 2.1 250 17:19 21.01.2020
4262 Clear 29 1013 39 8000 2.1 270 16:55 21.01.2020
4263 Clear 29 1013 39 8000 2.1 270 16:36 21.01.2020
4264 Clear 28 1013 39 8000 2.1 270 16:18 21.01.2020
4265 Clear 27 1014 44 8000 2.6 240 15:39 21.01.2020
4266 Clear 26 1014 44 8000 2.6 240 15:20 21.01.2020
4267 Clear 29 927 91 0 0.45 270 14:40 21.01.2020
4268 Clear 20 1013 64 8000 3.19 261 14:22 21.01.2020
4269 Clear 22 1013 64 8000 1.56 262 13:58 21.01.2020
4270 Clear 22 1013 64 8000 1.56 262 13:38 21.01.2020
4271 Clear 20 1013 64 8000 1.73 260 13:18 21.01.2020
4272 Clear 21 1014 64 10000 1.73 260 12:42 21.01.2020
4273 Clear 21 1014 64 10000 1.73 260 12:24 21.01.2020
4274 Clear 21 1012 63 10000 3.1 160 11:56 21.01.2020
4275 Clear 20 1012 63 10000 3.1 160 11:38 21.01.2020
4276 Clear 20 1012 63 10000 3.1 160 11:38 21.01.2020
4277 Clear 19 1012 63 10000 3.1 160 11:19 21.01.2020
4278 Clear 20 1011 59 10000 3.1 160 10:43 21.01.2020
4279 Clear 20 1011 59 10000 3.1 160 10:23 21.01.2020
4280 Clear 20 1011 59 10000 3.6 160 09:56 21.01.2020
4281 Clear 20 1011 59 10000 3.6 160 09:56 21.01.2020
4282 Clear 20 1011 59 10000 3.6 160 09:38 21.01.2020
4283 Clear 20 1011 59 10000 3.6 160 09:20 21.01.2020
4284 Clear 20 1011 63 10000 2.6 160 08:44 21.01.2020
4285 Clear 20 1011 63 10000 2.6 160 08:26 21.01.2020
4286 Clear 20 1011 63 10000 3.1 160 07:44 21.01.2020
4287 Clear 20 1011 63 10000 3.1 160 07:25 21.01.2020
4288 Clear 21 1011 56 10000 2.6 150 06:58 21.01.2020
4289 Clear 21 1011 56 10000 2.6 150 06:38 21.01.2020
4290 Clear 22 1012 53 10000 3.1 150 05:55 21.01.2020
4291 Clear 22 1012 53 10000 3.1 150 05:55 21.01.2020
4292 Clear 22 1012 53 10000 3.1 150 05:32 21.01.2020
4293 Clear 23 1012 49 10000 3.6 160 04:38 21.01.2020
4294 Clear 25 1012 47 10000 4.6 150 02:29 21.01.2020
4295 Clear 26 1013 44 10000 2.1 230 01:36 21.01.2020
4296 Clear 29 1013 37 10000 3.1 260 00:51 21.01.2020
4297 Clear 29 1013 37 10000 3.1 260 00:28 21.01.2020
4298 Clear 30 1012 33 10000 3.6 230 23:56 20.01.2020
4299 Clear 31 1012 33 10000 3.6 230 23:36 20.01.2020
4300 Clear 30 1012 33 10000 3.6 230 23:18 20.01.2020
4301 Haze 31 1012 29 5000 3.6 230 22:54 20.01.2020
4302 Haze 31 1012 29 5000 3.6 230 22:36 20.01.2020
4303 Haze 32 1012 29 5000 3.6 230 22:18 20.01.2020
4304 Haze 32 1013 29 5000 3.6 230 21:54 20.01.2020
4305 Haze 32 1013 29 5000 3.6 230 21:36 20.01.2020
4306 Haze 32 1013 29 5000 3.6 230 21:18 20.01.2020
4307 Haze 32 1013 31 5000 4.1 0 20:42 20.01.2020
4308 Haze 32 1013 31 5000 4.1 0 20:20 20.01.2020
4309 Haze 32 1014 33 5000 3.1 220 19:58 20.01.2020
4310 Haze 32 1014 33 5000 3.1 220 19:40 20.01.2020
4311 Haze 32 1014 33 5000 3.1 220 19:19 20.01.2020
4312 Clear 32 1014 35 6000 2.6 240 18:55 20.01.2020
4313 Clear 31 1014 35 6000 2.6 240 18:37 20.01.2020
4314 Clear 31 1014 35 6000 2.6 240 18:19 20.01.2020
4315 Clear 29 1014 39 6000 2.1 250 17:38 20.01.2020
4316 Clear 29 1014 39 6000 2.1 250 17:19 20.01.2020
4317 Clear 27 1014 44 8000 1.5 240 16:46 20.01.2020
4318 Clear 27 1014 44 8000 1.5 240 16:26 20.01.2020
4319 Clear 25 1014 50 8000 2.1 230 15:59 20.01.2020
4320 Clear 25 1014 50 8000 2.1 230 15:40 20.01.2020
4321 Clear 25 1014 50 8000 2.1 230 15:22 20.01.2020
4322 Clear 23 1014 60 8000 3.05 261 14:58 20.01.2020
4323 Clear 24 1014 60 8000 3.05 261 14:39 20.01.2020
4324 Clouds 23 1014 60 8000 1.51 278 14:20 20.01.2020
4325 Clouds 20 1014 72 10000 1.51 278 13:44 20.01.2020
4326 Clear 20 1014 72 10000 1.58 275 13:24 20.01.2020
4327 Clouds 19 1014 68 10000 1.58 275 12:58 20.01.2020
4328 Clouds 21 1014 68 10000 1.58 275 12:40 20.01.2020
4329 Clouds 20 1014 68 10000 1.58 275 12:21 20.01.2020
4330 Clear 20 1013 82 10000 1 0 11:55 20.01.2020
4331 Clear 19 1013 82 10000 1 0 11:36 20.01.2020
4332 Clouds 17 1013 82 10000 1 0 11:18 20.01.2020
4333 Clouds 17 1013 82 10000 3.6 160 10:41 20.01.2020
4334 Clouds 17 1013 82 10000 3.6 160 10:20 20.01.2020
4335 Clouds 17 1013 82 10000 4.1 170 09:41 20.01.2020
4336 Clouds 17 1013 82 10000 4.1 170 09:23 20.01.2020
4337 Clouds 18 1012 77 10000 3.6 160 08:55 20.01.2020
4338 Clouds 17 1012 77 10000 3.6 160 08:31 20.01.2020
4339 Clouds 17 1012 77 10000 3.6 150 07:55 20.01.2020
4340 Clouds 17 1012 77 10000 3.6 150 07:37 20.01.2020
4341 Clouds 17 1012 77 10000 3.6 150 07:19 20.01.2020
4342 Clouds 18 1013 72 10000 5.1 150 06:40 20.01.2020
4343 Clouds 18 1013 72 10000 5.1 150 06:20 20.01.2020
4344 Clouds 19 1013 68 10000 3.6 160 05:38 20.01.2020
4345 Clouds 20 1013 68 10000 3.6 160 05:19 20.01.2020
4346 Clouds 21 1013 56 10000 2.6 160 03:55 20.01.2020
4347 Clouds 22 1014 56 10000 2.1 200 01:58 20.01.2020
4348 Clouds 22 1014 56 10000 2.1 200 01:39 20.01.2020
4349 Clouds 25 1013 47 10000 4.1 230 00:56 20.01.2020
4350 Clouds 25 1013 47 10000 4.1 230 00:37 20.01.2020
4351 Clouds 25 1013 47 10000 4.1 230 00:19 20.01.2020
4352 Clouds 27 1012 39 10000 1.5 0 23:37 19.01.2020
4353 Clouds 28 1012 39 10000 1.5 0 23:18 19.01.2020
4354 Clouds 27 1013 41 10000 2.1 210 22:55 19.01.2020
4355 Clouds 27 1013 41 10000 2.1 210 22:37 19.01.2020
4356 Clouds 28 1013 41 10000 2.1 210 22:18 19.01.2020
4357 Clouds 28 1014 41 10000 1 240 21:55 19.01.2020
4358 Clouds 27 1014 41 10000 1 240 21:37 19.01.2020
4359 Clouds 27 1014 41 10000 1 240 21:19 19.01.2020
4360 Clouds 27 1014 41 10000 2.6 190 20:56 19.01.2020
4361 Clouds 27 1014 41 10000 2.6 190 20:37 19.01.2020
4362 Clouds 28 1014 41 10000 2.6 190 20:19 19.01.2020
4363 Clouds 28 1014 39 10000 4.1 190 19:55 19.01.2020
4364 Clouds 28 1014 39 10000 4.1 190 19:37 19.01.2020
4365 Clouds 28 1014 39 10000 4.1 190 19:19 19.01.2020
4366 -273 0 0 0 0 0 18:55 19.01.2020
4367 Clouds 30 1013 33 10000 3.6 240 18:37 19.01.2020
4368 Clouds 30 1013 33 10000 3.6 240 18:18 19.01.2020
4369 Clouds 30 1013 33 10000 3.6 240 18:18 19.01.2020
4370 Clouds 29 1013 32 10000 3.1 240 17:57 19.01.2020
4371 Clouds 29 1013 32 10000 3.1 240 17:38 19.01.2020
4372 Clouds 29 1013 32 10000 3.1 240 17:19 19.01.2020
4373 Clouds 28 1013 36 10000 2.6 250 16:55 19.01.2020
4374 Clouds 27 1013 36 10000 2.6 250 16:36 19.01.2020
4375 Clouds 28 1013 36 10000 2.6 250 16:18 19.01.2020
4376 Clear 27 1013 38 10000 3.1 260 15:55 19.01.2020
4377 Clear 26 1013 38 10000 3.1 260 15:36 19.01.2020
4378 Clear 26 1013 38 10000 3.1 260 15:18 19.01.2020
4379 Clear 26 1013 38 10000 3.1 260 15:18 19.01.2020
4380 Clear 26 1013 38 10000 3.1 260 15:18 19.01.2020
4381 Clouds 26 1013 44 10000 3.1 240 14:40 19.01.2020
4382 Clouds 25 1013 44 10000 3.1 240 14:21 19.01.2020
4383 Clouds 24 1012 52 10000 1.56 285 13:59 19.01.2020
4384 Clouds 24 1012 52 10000 1.56 285 13:40 19.01.2020
4385 Clouds 21 1012 52 10000 1.41 273 13:22 19.01.2020
4386 Clouds 19 1012 63 10000 1 30 12:59 19.01.2020
4387 Clouds 22 1012 63 10000 1 30 12:41 19.01.2020
4388 Clouds 22 1012 63 10000 1 30 12:21 19.01.2020
4389 Clouds 24 1010 55 10000 2.1 180 11:57 19.01.2020
4390 Clouds 24 1010 55 10000 2.1 180 11:38 19.01.2020
4391 Clouds 19 1010 55 10000 2.1 180 11:18 19.01.2020
4392 Clouds 19 1010 52 10000 2.6 170 10:41 19.01.2020
4393 Clouds 19 1010 52 10000 2.6 170 10:21 19.01.2020
4394 Clouds 19 1010 52 10000 5.7 150 09:57 19.01.2020
4395 Clouds 19 1010 52 10000 5.7 150 09:38 19.01.2020
4396 Clouds 19 1010 52 10000 5.7 150 09:20 19.01.2020
4397 Clouds 19 1010 55 10000 4.6 160 08:55 19.01.2020
4398 Clouds 19 1010 55 10000 4.6 160 08:33 19.01.2020
4399 Clouds 20 1010 52 10000 4.6 160 07:58 19.01.2020
4400 Clouds 20 1010 52 10000 4.6 160 07:29 19.01.2020
4401 Clouds 22 1010 46 10000 3.1 160 06:55 19.01.2020
4402 Clouds 22 1010 46 10000 3.1 160 06:23 19.01.2020
4403 Clouds 23 1010 43 10000 4.6 160 04:18 19.01.2020
4404 Clouds 25 1009 41 10000 5.7 150 02:34 19.01.2020
4405 Clouds 27 1010 36 10000 2.6 230 01:43 19.01.2020
4406 Clouds 27 1010 36 10000 2.6 230 01:21 19.01.2020
4407 Clouds 28 1007 34 0 2.27 245 00:45 19.01.2020
4408 Clouds 30 1010 30 7000 3.1 250 00:24 19.01.2020
4409 Clouds 30 1010 30 7000 3.1 250 23:55 18.01.2020
4410 Clouds 30 1010 30 7000 3.1 250 23:36 18.01.2020
4411 Clouds 30 1010 30 7000 3.1 250 23:18 18.01.2020
4412 Clouds 32 1010 27 10000 4.1 250 22:42 18.01.2020
4413 Clouds 32 1010 27 10000 4.1 250 22:24 18.01.2020
4414 Clouds 32 1010 27 10000 4.1 250 22:24 18.01.2020
4415 Clouds 32 1010 27 10000 4.1 250 21:58 18.01.2020
4416 Clouds 32 1010 27 10000 4.1 250 21:39 18.01.2020
4417 Clouds 32 1010 27 10000 4.1 250 21:21 18.01.2020
4418 Clouds 34 1010 24 10000 3.1 240 20:59 18.01.2020
4419 Clouds 34 1010 24 10000 3.1 240 20:41 18.01.2020
4420 Clouds 33 1010 24 10000 3.1 240 20:19 18.01.2020
4421 Clouds 33 1010 24 10000 3.1 240 20:19 18.01.2020
4422 Clouds 33 1011 24 10000 3.6 230 19:43 18.01.2020
4423 Clouds 33 1011 24 10000 3.6 230 19:25 18.01.2020
4424 Clouds 32 1011 26 7000 2.6 270 18:55 18.01.2020
4425 Clouds 33 1011 26 7000 2.6 270 18:36 18.01.2020
4426 Clouds 33 1011 26 7000 2.6 270 18:18 18.01.2020
4427 Clouds 31 1011 29 10000 2.6 260 17:41 18.01.2020
4428 Clouds 31 1011 29 10000 2.6 260 17:21 18.01.2020
4429 Clouds 29 1011 32 10000 2.1 140 16:57 18.01.2020
4430 Clouds 29 1011 32 10000 2.1 140 16:38 18.01.2020
4431 Clouds 29 1011 32 10000 2.1 140 16:19 18.01.2020
4432 Clouds 29 1011 32 10000 2.1 140 16:19 18.01.2020
4433 Clouds 27 1012 39 10000 1 280 15:47 18.01.2020
4434 Clouds 27 1012 39 10000 1 280 15:26 18.01.2020
4435 Clouds 27 1012 39 10000 1 280 15:26 18.01.2020
4436 Clouds 22 1012 49 10000 2.62 266 15:00 18.01.2020
4437 Clouds 25 1012 49 10000 2.62 266 14:41 18.01.2020
4438 Clouds 25 1012 49 10000 0.76 227 14:19 18.01.2020
4439 Clouds 24 1011 52 10000 0.76 227 13:57 18.01.2020
4440 Clouds 23 1011 52 10000 0.76 227 13:36 18.01.2020
4441 Clouds 23 1011 52 10000 1.36 257 13:18 18.01.2020
4442 Clouds 23 1011 52 10000 1.36 257 13:18 18.01.2020
4443 Clouds 22 1011 60 10000 1.36 257 12:41 18.01.2020
4444 Clouds 22 1011 60 10000 1.36 257 12:22 18.01.2020
4445 Clouds 24 1009 63 10000 3.6 160 11:57 18.01.2020
4446 Clouds 23 1009 63 10000 3.6 160 11:38 18.01.2020
4447 Clouds 21 1009 63 10000 3.6 160 11:19 18.01.2020
4448 Clouds 22 1009 59 10000 2.6 150 10:43 18.01.2020
4449 Clouds 22 1009 59 10000 2.6 150 10:21 18.01.2020
4450 Clouds 22 1009 59 10000 2.6 160 09:55 18.01.2020
4451 Clouds 22 1009 59 10000 2.6 160 09:37 18.01.2020
4452 Clouds 23 1009 56 10000 3.1 180 08:59 18.01.2020
4453 Clouds 23 1009 56 10000 3.1 180 08:41 18.01.2020
4454 Clouds 23 1009 56 10000 3.1 180 08:41 18.01.2020
4455 Clouds 22 1009 56 10000 3.1 180 08:20 18.01.2020
4456 Clouds 22 1009 56 10000 3.1 180 08:20 18.01.2020
4457 Clouds 22 1010 63 10000 3.1 160 07:52 18.01.2020
4458 Clouds 22 1010 63 10000 3.1 160 07:34 18.01.2020
4459 Clouds 23 1010 60 10000 3.6 170 06:48 18.01.2020
4460 Clouds 23 1010 60 10000 3.6 170 06:19 18.01.2020
4461 Clouds 23 1010 56 10000 3.1 180 05:31 18.01.2020
4462 Clouds 22 1010 53 10000 5.7 150 03:46 18.01.2020
4463 Clouds 25 1009 47 10000 5.1 150 02:21 18.01.2020
4464 Clouds 26 1011 36 10000 1.5 230 01:36 18.01.2020
4465 Clouds 29 1010 30 10000 2.6 250 00:39 18.01.2020
4466 Clouds 29 1010 30 10000 2.6 250 00:19 18.01.2020
4467 Clouds 30 1010 25 8000 3.6 230 23:56 17.01.2020
4468 Clouds 31 1010 25 8000 3.6 230 23:38 17.01.2020
4469 Clouds 31 1010 25 8000 3.6 230 23:18 17.01.2020
4470 Clouds 31 1010 25 7000 3.6 250 22:40 17.01.2020
4471 Clouds 32 1010 25 7000 3.6 250 22:19 17.01.2020
4472 Clouds 32 1010 19 7000 3.1 200 21:43 17.01.2020
4473 Clouds 32 1010 19 7000 3.1 200 21:24 17.01.2020
4474 Clouds 32 1011 21 7000 3.1 170 20:59 17.01.2020
4475 Clouds 32 1011 21 7000 3.1 170 20:41 17.01.2020
4476 Clear 33 1011 21 7000 3.1 170 20:20 17.01.2020
4477 Clear 33 1012 21 7000 3.6 200 19:57 17.01.2020
4478 Clear 33 1012 21 7000 3.6 200 19:38 17.01.2020
4479 Clear 33 1012 21 7000 3.6 200 19:20 17.01.2020
4480 Clear 32 1012 23 7000 2.6 270 18:57 17.01.2020
4481 Clear 32 1012 23 7000 2.6 270 18:38 17.01.2020
4482 Clear 32 1012 23 7000 2.6 270 18:20 17.01.2020
4483 Clear 30 1012 26 7000 2.6 230 17:40 17.01.2020
4484 Clear 30 1012 26 7000 2.6 230 17:21 17.01.2020
4485 Clear 29 1013 28 7000 2.1 220 16:57 17.01.2020
4486 Clear 29 1013 28 7000 2.1 220 16:38 17.01.2020
4487 Clear 29 1013 28 7000 2.1 220 16:18 17.01.2020
4488 Clear 27 1012 31 8000 3 267 15:44 17.01.2020
4489 Clear 27 1012 31 8000 3 267 15:26 17.01.2020
4490 Clear 25 1012 40 10000 3 267 14:44 17.01.2020
4491 Clear 25 1012 40 10000 3 267 14:26 17.01.2020
4492 Clouds 23 1012 48 10000 1.68 269 13:56 17.01.2020
4493 Clouds 22 1012 48 10000 1.68 269 13:37 17.01.2020
4494 Clear 21 1012 48 10000 1.89 277 13:18 17.01.2020
4495 Clear 21 1012 48 10000 1.89 277 13:18 17.01.2020
4496 Clear 20 1012 52 10000 1.89 277 12:42 17.01.2020
4497 Clear 20 1012 52 10000 1.89 277 12:42 17.01.2020
4498 Clear 21 1012 52 10000 1.89 277 12:21 17.01.2020
4499 Clear 22 1011 51 10000 2.1 150 11:38 17.01.2020
4500 Clear 16 1011 51 10000 2.1 150 11:18 17.01.2020
4501 Clear 17 1010 48 10000 2.6 150 10:43 17.01.2020
4502 Clear 17 1010 48 10000 2.6 150 10:23 17.01.2020
4503 Clear 17 1010 51 10000 3.6 170 09:58 17.01.2020
4504 Clear 17 1010 51 10000 3.6 170 09:58 17.01.2020
4505 Clear 17 1010 51 10000 3.6 170 09:38 17.01.2020
4506 Clear 17 1010 51 10000 3.6 170 09:19 17.01.2020
4507 Clear 19 1010 45 10000 3.6 180 08:43 17.01.2020
4508 Clear 19 1010 45 10000 3.6 180 08:24 17.01.2020
4509 Clouds 19 1010 45 10000 3.6 150 07:53 17.01.2020
4510 Clouds 19 1010 45 10000 3.6 150 07:31 17.01.2020
4511 Clouds 20 1010 45 10000 4.1 150 06:57 17.01.2020
4512 Clouds 20 1010 45 10000 4.1 150 06:38 17.01.2020
4513 Clouds 21 1010 43 10000 3.1 170 05:53 17.01.2020
4514 Clouds 22 1015 32 0 0.9 262 03:39 17.01.2020
4515 Clouds 26 1009 31 0 0.9 262 02:47 17.01.2020
4516 Clouds 26 1008 32 0 2.17 229 01:47 17.01.2020
4517 Clouds 26 1008 32 0 2.13 222 01:29 17.01.2020
4518 Clouds 28 1006 32 0 2.13 222 00:48 17.01.2020
4519 Clouds 31 1010 18 10000 3.6 210 00:23 17.01.2020
4520 Clouds 31 1010 18 10000 3.6 210 23:44 16.01.2020
4521 Clouds 31 1010 18 10000 3.6 210 23:25 16.01.2020
4522 Clouds 32 1010 16 10000 3.6 210 22:56 16.01.2020
4523 Clouds 32 1010 16 10000 3.6 210 22:38 16.01.2020
4524 Clouds 32 1010 16 10000 3.6 210 22:19 16.01.2020
4525 Clouds 32 1010 16 10000 3.6 210 21:54 16.01.2020
4526 Clouds 32 1010 16 10000 3.6 210 21:36 16.01.2020
4527 Clouds 32 1010 16 10000 3.6 210 21:36 16.01.2020
4528 Clouds 33 1010 16 10000 3.6 210 21:18 16.01.2020
4529 Clouds 33 1010 16 10000 3.6 240 20:40 16.01.2020
4530 Clear 34 1010 16 10000 3.6 240 20:21 16.01.2020
4531 Clouds 33 1011 17 10000 3.1 250 19:58 16.01.2020
4532 Clouds 33 1011 17 10000 3.1 250 19:40 16.01.2020
4533 Clouds 33 1011 17 10000 3.1 250 19:22 16.01.2020
4534 Clouds 32 1012 18 10000 1.5 0 18:57 16.01.2020
4535 Clouds 32 1012 18 10000 1.5 0 18:37 16.01.2020
4536 Clouds 32 1012 18 10000 1.5 0 18:19 16.01.2020
4537 Clouds 31 1012 21 10000 2.6 260 17:58 16.01.2020
4538 Clouds 30 1012 21 10000 2.6 260 17:39 16.01.2020
4539 Clouds 30 1012 21 10000 2.6 260 17:20 16.01.2020
4540 Clouds 30 1012 24 10000 1.5 220 16:41 16.01.2020
4541 Clouds 29 1012 24 10000 1.5 220 16:23 16.01.2020
4542 Clouds 28 1013 27 10000 1.5 230 15:58 16.01.2020
4543 Clouds 27 1013 27 10000 1.5 230 15:39 16.01.2020
4544 Clouds 27 1013 27 10000 1.5 230 15:39 16.01.2020
4545 Clouds 27 1013 27 10000 1.5 230 15:20 16.01.2020
4546 Clouds 25 1013 33 10000 1 250 14:44 16.01.2020
4547 Clouds 24 1013 33 10000 1 250 14:24 16.01.2020
4548 Clouds 24 1013 33 10000 1 250 14:24 16.01.2020
4549 Clouds 22 1012 42 10000 1.21 287 13:56 16.01.2020
4550 Clouds 22 1012 42 10000 1.21 287 13:37 16.01.2020
4551 Clouds 20 1012 42 10000 1.21 287 13:19 16.01.2020
4552 Clouds 21 1012 42 10000 1.35 291 12:42 16.01.2020
4553 Clouds 20 1012 42 10000 1.35 291 12:22 16.01.2020
4554 Clouds 22 1010 45 8000 3.1 140 11:43 16.01.2020
4555 Clouds 18 1010 45 8000 3.1 140 11:24 16.01.2020
4556 Clouds 18 1010 42 10000 2.1 190 10:59 16.01.2020
4557 Clouds 18 1010 42 10000 2.1 190 10:38 16.01.2020
4558 Clouds 18 1010 42 10000 2.1 190 10:20 16.01.2020
4559 Clouds 17 1009 45 10000 2.1 270 09:54 16.01.2020
4560 Clouds 17 1009 45 10000 2.1 270 09:36 16.01.2020
4561 Clouds 17 1009 45 10000 2.1 270 09:18 16.01.2020
4562 Clouds 17 1010 45 10000 1 0 08:42 16.01.2020
4563 Clouds 17 1010 45 10000 1 0 08:23 16.01.2020
4564 Clouds 19 1010 37 10000 1 0 07:43 16.01.2020
4565 Clouds 19 1010 37 10000 1 0 07:25 16.01.2020
4566 Clouds 20 1011 37 10000 2.1 160 06:55 16.01.2020
4567 Clouds 20 1011 37 10000 2.1 160 06:35 16.01.2020
4568 Clouds 22 1011 30 10000 3.6 170 05:56 16.01.2020
4569 Clouds 22 1011 30 10000 3.6 170 05:30 16.01.2020
4570 Clear 24 1012 27 10000 7.2 170 04:37 16.01.2020
4571 Clear 24 1012 27 10000 7.2 170 04:37 16.01.2020
4572 Clear 24 1012 27 10000 5.1 160 03:27 16.01.2020
4573 Clear 26 1011 22 10000 5.1 200 02:24 16.01.2020
4574 Clear 29 1011 25 10000 3.1 210 00:45 16.01.2020
4575 Clear 29 1011 25 10000 3.1 210 00:24 16.01.2020
4576 Clear 31 1012 21 10000 3.6 210 23:46 15.01.2020
4577 Clear 31 1012 21 10000 3.6 210 23:22 15.01.2020
4578 Clear 32 1012 17 10000 3.6 180 22:57 15.01.2020
4579 Clear 32 1012 17 10000 3.6 180 22:39 15.01.2020
4580 Clear 32 1012 17 10000 3.6 180 22:19 15.01.2020
4581 Clear 32 1012 15 10000 3.6 200 21:57 15.01.2020
4582 Clear 32 1012 15 10000 3.6 200 21:37 15.01.2020
4583 Clear 33 1012 15 10000 3.6 200 21:19 15.01.2020
4584 Clear 32 1013 18 10000 3.6 220 20:56 15.01.2020
4585 Clear 32 1013 18 10000 3.6 220 20:38 15.01.2020
4586 Clear 33 1013 18 10000 3.6 220 20:19 15.01.2020
4587 Clear 32 1012 22 10000 3.1 240 19:54 15.01.2020
4588 Clear 32 1012 22 10000 3.1 240 19:36 15.01.2020
4589 Clear 32 1012 22 10000 3.1 240 19:18 15.01.2020
4590 Clear 31 1013 25 10000 2.1 300 18:56 15.01.2020
4591 Clear 30 1013 25 10000 2.1 300 18:37 15.01.2020
4592 Clear 30 1013 25 10000 2.1 300 18:19 15.01.2020
4593 Clear 30 1013 25 10000 2.1 300 18:19 15.01.2020
4594 Clear 30 1014 28 10000 2.1 210 17:55 15.01.2020
4595 Clear 31 927 50 0 0.45 225 17:37 15.01.2020
4596 Clear 28 1014 32 10000 2.1 210 17:18 15.01.2020
4597 Clear 28 1014 32 10000 2.1 210 16:40 15.01.2020
4598 Clear 27 1014 32 10000 2.1 210 16:21 15.01.2020
4599 Clear 26 1014 38 10000 2.1 140 15:57 15.01.2020
4600 Clear 25 1014 38 10000 2.1 140 15:39 15.01.2020
4601 Clear 25 1014 38 10000 2.1 140 15:18 15.01.2020
4602 Clear 24 1014 64 10000 1 160 14:43 15.01.2020
4603 Clouds 21 1014 64 10000 1 160 14:20 15.01.2020
4604 Clouds 21 1014 56 10000 1.67 257 13:46 15.01.2020
4605 Clouds 22 1014 56 10000 1.67 257 13:27 15.01.2020
4606 Clouds 20 1014 52 10000 1 150 12:59 15.01.2020
4607 Clouds 22 1014 52 10000 1 150 12:40 15.01.2020
4608 Clouds 22 1014 52 10000 1 150 12:19 15.01.2020
4609 Clouds 23 1012 59 10000 4.1 170 11:57 15.01.2020
4610 Clouds 22 1012 59 10000 4.1 170 11:37 15.01.2020
4611 Clouds 18 1012 59 10000 4.1 170 11:19 15.01.2020
4612 Clouds 19 1011 55 10000 5.1 180 10:43 15.01.2020
4613 Clouds 19 1011 55 10000 5.1 180 10:25 15.01.2020
4614 Clouds 21 1011 49 10000 3.6 180 09:45 15.01.2020
4615 Clouds 21 1011 49 10000 3.6 180 09:26 15.01.2020
4616 Clouds 21 1011 46 10000 2.1 230 08:58 15.01.2020
4617 Clouds 21 1011 46 10000 2.1 230 08:39 15.01.2020
4618 Clouds 21 1011 46 10000 2.1 230 08:21 15.01.2020
4619 Clouds 21 1010 46 10000 4.1 170 07:51 15.01.2020
4620 Clouds 21 1010 46 10000 4.1 170 07:31 15.01.2020
4621 Clouds 21 1010 46 10000 2.6 170 06:46 15.01.2020
4622 Clouds 21 1010 46 10000 2.6 170 06:20 15.01.2020
4623 Clouds 23 1011 43 10000 2.6 140 04:42 15.01.2020
4624 Clouds 26 1010 36 10000 5.7 200 02:38 15.01.2020
4625 Clouds 26 1012 39 10000 2.1 210 01:28 15.01.2020
4626 Clouds 27 1012 34 10000 3.6 260 00:45 15.01.2020
4627 Clouds 28 1012 34 10000 3.6 260 00:26 15.01.2020
4628 Clouds 29 1012 30 8000 4.1 250 23:55 14.01.2020
4629 Clouds 29 1012 30 8000 4.1 250 23:36 14.01.2020
4630 Clouds 30 1012 30 8000 4.1 250 23:18 14.01.2020
4631 Clouds 30 1012 29 10000 4.6 240 22:41 14.01.2020
4632 Clouds 31 1012 29 10000 4.6 240 22:19 14.01.2020
4633 Clouds 31 1012 22 10000 4.1 240 21:58 14.01.2020
4634 Clouds 31 1012 22 10000 4.1 240 21:40 14.01.2020
4635 Clouds 31 1012 22 10000 4.1 240 21:21 14.01.2020
4636 Clouds 31 1012 22 10000 4.6 240 20:59 14.01.2020
4637 Clouds 31 1008 30 0 4.19 236 20:40 14.01.2020
4638 Clear 31 1013 23 8000 3.6 240 20:20 14.01.2020
4639 Clear 31 1013 23 8000 3.6 240 19:56 14.01.2020
4640 Clear 31 1013 23 8000 3.6 240 19:37 14.01.2020
4641 Clear 31 1013 23 8000 3.6 240 19:18 14.01.2020
4642 Clear 30 1013 26 8000 3.6 240 18:55 14.01.2020
4643 Clear 32 926 37 0 1.34 225 18:37 14.01.2020
4644 Clear 30 1013 26 8000 2.1 210 18:18 14.01.2020
4645 Clear 29 1013 26 8000 2.1 210 17:38 14.01.2020
4646 Clear 29 1013 26 8000 2.1 210 17:19 14.01.2020
4647 Clear 28 1013 28 8000 2.6 260 16:55 14.01.2020
4648 Clear 28 1013 28 8000 2.6 260 16:37 14.01.2020
4649 Clear 27 1013 28 8000 2.6 260 16:19 14.01.2020
4650 Clear 26 1014 36 8000 1.5 280 15:42 14.01.2020
4651 Clear 26 1014 36 8000 1.5 280 15:19 14.01.2020
4652 Clear 24 1014 43 10000 0.5 210 14:47 14.01.2020
4653 Clear 24 1014 43 10000 0.5 210 14:23 14.01.2020
4654 Clear 21 1014 52 10000 2.07 265 13:59 14.01.2020
4655 Clear 21 1014 52 10000 2.07 265 13:40 14.01.2020
4656 Clear 21 1014 52 10000 2.1 271 13:19 14.01.2020
4657 Clear 19 1013 67 10000 2.1 271 12:42 14.01.2020
4658 Clear 19 1013 67 10000 2.1 271 12:23 14.01.2020
4659 Clear 23 1011 63 10000 2.6 150 11:57 14.01.2020
4660 Clear 22 1011 63 10000 2.6 150 11:39 14.01.2020
4661 Clear 16 1011 63 10000 2.6 150 11:20 14.01.2020
4662 Clear 17 1011 59 10000 3.1 170 10:56 14.01.2020
4663 Clear 17 1011 59 10000 3.1 170 10:37 14.01.2020
4664 Clear 17 1011 59 10000 3.1 170 10:19 14.01.2020
4665 Clear 16 1010 59 10000 1.5 160 09:42 14.01.2020
4666 Clear 16 1010 59 10000 1.5 160 09:23 14.01.2020
4667 Clear 17 1010 59 10000 2.1 120 08:58 14.01.2020
4668 Clear 17 1010 59 10000 2.1 120 08:39 14.01.2020
4669 Clear 17 1010 59 10000 2.1 120 08:20 14.01.2020
4670 Clear 18 1010 55 10000 2.1 180 07:40 14.01.2020
4671 Clear 18 1010 55 10000 2.1 180 07:18 14.01.2020
4672 Clear 19 1010 52 10000 2.6 170 06:42 14.01.2020
4673 Clear 20 1010 45 10000 2.6 160 05:56 14.01.2020
4674 Clear 21 1010 43 10000 3.1 150 04:24 14.01.2020
4675 Clear 23 1011 35 10000 4.1 150 03:45 14.01.2020
4676 Clear 26 1011 29 10000 5.1 170 02:30 14.01.2020
4677 Clear 26 1012 34 10000 2.1 250 01:19 14.01.2020
4678 Clear 28 1012 30 10000 3.6 250 00:47 14.01.2020
4679 Clear 28 1012 30 10000 3.6 250 00:21 14.01.2020
4680 Clear 29 1012 28 10000 4.1 250 23:42 13.01.2020
4681 Clear 29 1012 28 10000 4.1 250 23:18 13.01.2020
4682 Clear 32 1012 25 10000 4.6 250 22:56 13.01.2020
4683 Clear 32 1012 25 10000 4.6 250 22:37 13.01.2020
4684 Clear 31 1012 25 10000 4.6 250 22:19 13.01.2020
4685 Clear 32 1012 22 10000 4.6 230 21:54 13.01.2020
4686 Clear 32 1012 22 10000 4.6 230 21:36 13.01.2020
4687 Clear 32 1012 22 10000 4.6 230 21:18 13.01.2020
4688 Clear 31 1012 24 10000 3.6 250 20:42 13.01.2020
4689 Clear 31 1012 24 10000 3.6 250 20:23 13.01.2020
4690 Clear 32 1012 27 10000 3.6 190 19:59 13.01.2020
4691 Clear 32 1012 27 10000 3.6 190 19:41 13.01.2020
4692 Clear 32 1012 27 10000 3.6 190 19:20 13.01.2020
4693 Clear 32 1013 28 10000 2.6 260 18:58 13.01.2020
4694 Clear 31 1013 28 10000 2.6 260 18:38 13.01.2020
4695 Clear 31 1013 28 10000 2.6 260 18:38 13.01.2020
4696 Clear 31 1013 28 10000 2.6 260 18:19 13.01.2020
4697 Clear 30 1013 28 10000 2.1 220 17:57 13.01.2020
4698 Clear 30 1013 28 10000 2.1 220 17:38 13.01.2020
4699 Clear 29 1013 28 10000 2.1 220 17:20 13.01.2020
4700 Clear 29 1013 28 10000 2.1 220 17:20 13.01.2020
4701 Clear 28 1009 36 0 3.16 263 16:41 13.01.2020
4702 Clear 28 1009 37 0 3.16 263 16:22 13.01.2020
4703 Clear 28 1009 38 0 3.16 263 15:58 13.01.2020
4704 Clear 28 1010 38 0 3.16 263 15:40 13.01.2020
4705 Clear 28 1010 37 0 3.16 263 15:20 13.01.2020
4706 Clear 27 1010 38 0 3.16 263 14:43 13.01.2020
4707 Clear 20 1013 44 0 1.68 267 14:24 13.01.2020
4708 Clear 20 1013 44 0 1.68 267 13:59 13.01.2020
4709 Clear 20 1013 44 0 1.68 267 13:39 13.01.2020
4710 Clear 20 1014 42 0 1.72 266 13:21 13.01.2020
4711 Clear 26 1010 38 0 1.72 266 12:56 13.01.2020
4712 Clear 26 1010 38 0 1.72 266 12:38 13.01.2020
4713 -273 0 0 0 0 0 12:19 13.01.2020
4714 Clear 22 1012 82 8000 1.5 180 12:19 13.01.2020
4715 Clear 22 1012 82 8000 1.5 180 12:19 13.01.2020
4716 Clear 21 1012 82 8000 1.5 180 11:39 13.01.2020
4717 Clear 14 1012 82 8000 1.5 180 11:20 13.01.2020
4718 Clear 15 1012 77 10000 3.1 180 10:57 13.01.2020
4719 Clear 15 1012 77 10000 3.1 180 10:39 13.01.2020
4720 Clear 15 1012 77 10000 3.1 180 10:20 13.01.2020
4721 Clear 15 1012 77 10000 2.6 150 09:58 13.01.2020
4722 Clear 15 1012 77 10000 2.6 150 09:38 13.01.2020
4723 Clear 15 1012 77 10000 2.6 150 09:19 13.01.2020
4724 Clear 16 1012 72 10000 3.6 150 08:39 13.01.2020
4725 Clear 16 1012 72 10000 3.6 150 08:20 13.01.2020
4726 Clear 16 1012 72 10000 4.6 160 07:47 13.01.2020
4727 Clear 16 1012 72 10000 4.6 160 07:27 13.01.2020
4728 Clear 18 1012 59 10000 4.1 160 06:43 13.01.2020
4729 Clear 18 1012 59 10000 4.1 160 06:20 13.01.2020
4730 Clear 19 1012 55 10000 3.6 170 05:23 13.01.2020
4731 Clear 22 1012 46 10000 5.7 160 03:54 13.01.2020
4732 Clear 22 1012 46 10000 5.7 160 03:24 13.01.2020
4733 Clear 23 1012 43 10000 5.1 150 02:45 13.01.2020
4734 Clear 24 1012 43 10000 5.1 150 02:26 13.01.2020
4735 Clear 25 1014 33 10000 1.5 240 01:20 13.01.2020
4736 Clear 27 1013 30 10000 2.6 240 00:41 13.01.2020
4737 Clear 28 1013 30 10000 2.6 240 00:22 13.01.2020
4738 Clear 29 1012 26 10000 3.6 250 23:42 12.01.2020
4739 Clear 29 1012 26 10000 3.6 250 23:24 12.01.2020
4740 Clear 30 1012 22 10000 4.1 250 22:58 12.01.2020
4741 Clear 30 1012 22 10000 4.1 250 22:39 12.01.2020
4742 Clear 30 1012 22 10000 4.1 250 22:21 12.01.2020
4743 Clear 31 1012 24 10000 4.1 240 21:56 12.01.2020
4744 Clear 31 1012 24 10000 4.1 240 21:38 12.01.2020
4745 Clear 30 1012 24 10000 4.1 240 21:19 12.01.2020
4746 Clear 31 1012 19 10000 3.1 210 20:56 12.01.2020
4747 Clear 32 1012 19 10000 3.1 210 20:38 12.01.2020
4748 Clear 33 1012 19 10000 3.1 210 20:19 12.01.2020
4749 Clear 33 1012 19 10000 3.6 220 19:56 12.01.2020
4750 Clear 33 1012 19 10000 3.6 220 19:37 12.01.2020
4751 Clear 33 1012 19 10000 3.6 220 19:18 12.01.2020
4752 Clear 32 1013 20 10000 2.1 0 18:57 12.01.2020
4753 Clear 32 1013 20 10000 2.1 0 18:39 12.01.2020
4754 Clear 32 1013 20 10000 2.1 0 18:21 12.01.2020
4755 Clear 31 1013 22 10000 2.6 0 17:43 12.01.2020
4756 Clear 29 1013 22 10000 2.6 0 17:23 12.01.2020
4757 Clear 29 1013 22 10000 2.6 0 17:23 12.01.2020
4758 Clear 29 1013 23 10000 2.1 200 16:59 12.01.2020
4759 Clear 29 1013 23 10000 2.1 200 16:39 12.01.2020
4760 Clear 29 1013 23 10000 2.1 200 16:20 12.01.2020
4761 Clear 28 1013 27 10000 1 200 15:57 12.01.2020
4762 Clear 27 1013 27 10000 1 200 15:38 12.01.2020
4763 Clear 27 1013 27 10000 1 200 15:20 12.01.2020
4764 Clear 25 1013 31 10000 3.02 264 14:43 12.01.2020
4765 Clear 25 1013 31 10000 3.02 264 14:43 12.01.2020
4766 Clear 25 1013 31 10000 3.02 264 14:24 12.01.2020
4767 Clear 20 1013 42 10000 1.9 260 13:57 12.01.2020
4768 Clear 20 1013 42 10000 1.9 260 13:57 12.01.2020
4769 Clear 20 1013 42 10000 1.9 260 13:39 12.01.2020
4770 Clear 20 1013 42 10000 1.83 263 13:20 12.01.2020
4771 Clear 20 1013 42 10000 1.83 263 13:20 12.01.2020
4772 Clear 17 1013 45 10000 1.83 263 12:57 12.01.2020
4773 Clear 21 1013 45 10000 1.83 263 12:37 12.01.2020
4774 Clear 21 1013 45 10000 1.83 263 12:19 12.01.2020
4775 Clear 22 1011 51 8000 1 0 11:42 12.01.2020
4776 Clear 17 1011 51 8000 1 0 11:22 12.01.2020
4777 Clear 17 1010 48 10000 1 0 10:57 12.01.2020
4778 Clear 17 1010 48 10000 1 0 10:39 12.01.2020
4779 Clear 17 1010 48 10000 1 0 10:39 12.01.2020
4780 Clear 16 1010 48 10000 1 0 10:20 12.01.2020
4781 Clear 18 1010 42 10000 2.1 130 09:42 12.01.2020
4782 Clear 18 1010 42 10000 2.1 130 09:23 12.01.2020
4783 Clear 18 1010 42 10000 3.1 140 08:48 12.01.2020
4784 Clear 18 1010 42 10000 3.1 140 08:24 12.01.2020
4785 Clear 19 1010 37 10000 3.1 180 07:56 12.01.2020
4786 Clear 19 1010 37 10000 3.1 180 07:37 12.01.2020
4787 Clear 19 1010 37 10000 3.1 180 07:19 12.01.2020
4788 Clear 21 1011 32 10000 1.5 0 06:38 12.01.2020
4789 Clear 22 1011 30 10000 3.1 140 05:55 12.01.2020
4790 Clear 22 1011 30 10000 4.1 150 04:56 12.01.2020
4791 Clear 23 1011 31 10000 4.1 140 03:43 12.01.2020
4792 Clear 24 1011 29 10000 4.6 140 02:48 12.01.2020
4793 Clear 27 1011 29 10000 4.6 140 02:24 12.01.2020
4794 Clear 27 1012 26 10000 2.6 230 01:34 12.01.2020
4795 Clear 28 1011 23 10000 4.1 260 00:49 12.01.2020
4796 Clear 28 1011 23 10000 4.1 260 00:22 12.01.2020
4797 Clear 30 1011 21 10000 4.1 250 23:59 11.01.2020
4798 Clear 30 1011 21 10000 4.1 250 23:41 11.01.2020
4799 Clear 31 1011 21 10000 4.1 250 23:18 11.01.2020
4800 Clear 31 1011 18 10000 3.6 210 22:56 11.01.2020
4801 Clear 32 1011 18 10000 3.6 210 22:38 11.01.2020
4802 Clear 31 1011 18 10000 3.6 210 22:19 11.01.2020
4803 Clear 33 1011 17 10000 3.6 190 21:44 11.01.2020
4804 Clear 33 1011 17 10000 3.6 190 21:19 11.01.2020
4805 Clear 32 1012 18 10000 3.6 240 20:57 11.01.2020
4806 Clear 32 1012 18 10000 3.6 240 20:39 11.01.2020
4807 Clear 33 1012 18 10000 3.6 240 20:19 11.01.2020
4808 Clear 33 1012 19 10000 3.6 240 19:57 11.01.2020
4809 Clear 33 1012 19 10000 3.6 240 19:38 11.01.2020
4810 Clear 33 1012 19 10000 3.6 240 19:38 11.01.2020
4811 Clear 33 1012 19 10000 3.6 240 19:38 11.01.2020
4812 Clear 33 1012 19 10000 3.6 240 19:20 11.01.2020
4813 Clear 32 1012 19 10000 2.6 180 18:55 11.01.2020
4814 Clear 31 1012 19 10000 2.6 180 18:37 11.01.2020
4815 Clear 31 1012 19 10000 2.6 180 18:18 11.01.2020
4816 Clear 30 1013 23 10000 2.6 270 17:57 11.01.2020
4817 Clear 30 1013 23 10000 2.6 270 17:57 11.01.2020
4818 Clear 30 1013 23 10000 2.6 270 17:39 11.01.2020
4819 Clear 28 1013 23 10000 2.6 270 17:18 11.01.2020
4820 Clear 28 1013 26 10000 1.5 180 16:43 11.01.2020
4821 Clear 28 1013 26 10000 1.5 180 16:24 11.01.2020
4822 Clear 26 1013 29 10000 2.1 190 15:56 11.01.2020
4823 Clear 26 1013 29 10000 2.1 190 15:38 11.01.2020
4824 Clear 25 1013 29 10000 2.1 190 15:19 11.01.2020
4825 Clear 25 1013 31 10000 1 230 14:46 11.01.2020
4826 Clear 25 1013 31 10000 1 230 14:25 11.01.2020
4827 Clear 19 1013 42 10000 1.66 251 13:57 11.01.2020
4828 Clear 22 1013 42 10000 1.66 251 13:37 11.01.2020
4829 Clear 19 1013 42 10000 1.63 252 13:19 11.01.2020
4830 Clear 19 1013 58 10000 1.63 252 12:44 11.01.2020
4831 Clear 19 1013 58 10000 1.63 252 12:26 11.01.2020
4832 Clear 22 1011 51 6000 1.63 252 11:56 11.01.2020
4833 Clear 21 1011 51 6000 1.63 252 11:37 11.01.2020
4834 Clear 15 1011 51 6000 0.37 250 11:18 11.01.2020
4835 Clear 16 1011 48 8000 0.5 0 10:44 11.01.2020
4836 Clear 16 1011 48 8000 0.5 0 10:24 11.01.2020
4837 Clear 16 1010 48 10000 0.37 250 09:42 11.01.2020
4838 Clear 16 1010 48 10000 0.37 250 09:21 11.01.2020
4839 Clear 18 1011 45 10000 0.37 250 08:43 11.01.2020
4840 Clear 18 1011 45 10000 0.37 250 08:23 11.01.2020
4841 Clear 17 1011 48 10000 1 0 07:45 11.01.2020
4842 Clear 17 1011 48 10000 1 0 07:27 11.01.2020
4843 Clear 20 1012 37 10000 2.1 150 06:56 11.01.2020
4844 Clear 20 1012 37 10000 2.1 150 06:37 11.01.2020
4845 Clear 21 1012 35 10000 3.6 140 05:18 11.01.2020
4846 Clear 22 1012 33 10000 3.6 140 04:37 11.01.2020
4847 Clear 22 1012 33 10000 3.6 140 04:19 11.01.2020
4848 Clear 25 1012 27 10000 7.2 190 02:45 11.01.2020
4849 Clear 26 1013 26 10000 1.5 230 01:45 11.01.2020
4850 Clear 26 1013 26 10000 1.5 230 01:21 11.01.2020
4851 Clear 29 1012 20 10000 3.6 250 00:47 11.01.2020
4852 Clear 28 1012 20 10000 3.6 250 00:20 11.01.2020
4853 Clear 30 1012 18 10000 4.1 250 23:41 10.01.2020
4854 Clear 30 1012 18 10000 4.1 250 23:23 10.01.2020
4855 Clear 30 1012 18 10000 4.1 250 23:23 10.01.2020
4856 Clear 31 1012 14 10000 4.1 210 22:59 10.01.2020
4857 Clear 31 1012 14 10000 4.1 210 22:41 10.01.2020
4858 Clear 31 1012 14 10000 4.1 210 22:21 10.01.2020
4859 Clear 31 1012 15 10000 3.6 210 21:58 10.01.2020
4860 Clear 32 1012 15 10000 3.6 210 21:39 10.01.2020
4861 Clear 32 1012 15 10000 3.6 210 21:20 10.01.2020
4862 Clear 32 1013 19 10000 3.1 270 20:55 10.01.2020
4863 Clear 32 1013 19 10000 3.1 270 20:37 10.01.2020
4864 Clear 32 1013 19 10000 3.1 270 20:19 10.01.2020
4865 Clear 32 1013 22 10000 3.1 210 19:39 10.01.2020
4866 Clear 32 1013 22 10000 3.1 210 19:20 10.01.2020
4867 Clear 30 1014 26 10000 3.1 250 18:54 10.01.2020
4868 Clear 30 1014 26 10000 3.1 250 18:36 10.01.2020
4869 Clear 30 1014 26 10000 3.1 250 18:18 10.01.2020
4870 Clear 29 1014 28 10000 3.1 270 17:55 10.01.2020
4871 Clear 29 1014 28 10000 3.1 270 17:37 10.01.2020
4872 Clear 28 1014 28 10000 3.1 270 17:18 10.01.2020
4873 Clear 26 1015 33 10000 1.5 190 16:41 10.01.2020
4874 Clear 26 1015 33 10000 1.5 190 16:21 10.01.2020
4875 Clear 26 1015 33 10000 1.5 190 16:21 10.01.2020
4876 Clear 25 1015 38 10000 2.1 250 15:56 10.01.2020
4877 Clear 25 1015 38 10000 2.1 250 15:37 10.01.2020
4878 Clear 24 1015 38 10000 2.1 250 15:19 10.01.2020
4879 Clear 24 1015 38 10000 2.1 250 15:19 10.01.2020
4880 Clear 23 1015 45 10000 3.24 260 14:57 10.01.2020
4881 Clear 23 1015 45 10000 3.24 260 14:38 10.01.2020
4882 Clear 21 1015 45 10000 1.52 260 14:19 10.01.2020
4883 Clear 20 1015 55 10000 1.52 260 13:46 10.01.2020
4884 Clear 20 1015 55 10000 1.45 265 13:28 10.01.2020
4885 Clear 18 1015 63 10000 1.45 265 12:59 10.01.2020
4886 Clear 18 1015 63 10000 1.45 265 12:40 10.01.2020
4887 Clear 20 1015 63 10000 1.45 265 12:21 10.01.2020
4888 Clear 20 1014 62 10000 1.45 265 11:58 10.01.2020
4889 Clear 20 1014 62 10000 1.45 265 11:40 10.01.2020
4890 Clear 14 1014 62 10000 0.74 262 11:19 10.01.2020
4891 Clear 15 1014 58 10000 1.5 170 10:59 10.01.2020
4892 Clear 15 1014 58 10000 1.5 170 10:38 10.01.2020
4893 Clear 15 1014 58 10000 1.5 170 10:18 10.01.2020
4894 Clear 16 1014 55 10000 1.5 180 09:45 10.01.2020
4895 Clear 16 1014 55 10000 1.5 180 09:26 10.01.2020
4896 Clear 16 1014 55 10000 1.5 180 08:57 10.01.2020
4897 Clear 16 1014 55 10000 1.5 180 08:37 10.01.2020
4898 Clear 16 1014 55 10000 1.5 180 08:18 10.01.2020
4899 Clear 17 1014 51 10000 1.5 140 07:41 10.01.2020
4900 Clear 17 1014 51 10000 1.5 140 07:21 10.01.2020
4901 Clear 18 1015 48 10000 2.6 160 06:41 10.01.2020
4902 Clear 18 1015 48 10000 2.6 160 06:23 10.01.2020
4903 Clear 18 1015 52 10000 3.1 140 05:25 10.01.2020
4904 Clouds 20 1016 45 10000 3.6 160 03:32 10.01.2020
4905 Clouds 22 1015 40 10000 4.6 200 02:53 10.01.2020
4906 Clouds 22 1015 40 10000 4.6 200 02:33 10.01.2020
4907 Clouds 23 1016 33 10000 2.6 240 01:33 10.01.2020
4908 Clouds 25 1016 29 10000 3.6 230 00:53 10.01.2020
4909 Clouds 25 1016 29 10000 3.6 230 00:35 10.01.2020
4910 Clouds 27 1015 26 10000 4.1 230 23:57 09.01.2020
4911 Clouds 27 1015 26 10000 4.1 230 23:37 09.01.2020
4912 Clouds 27 1015 26 10000 4.1 230 23:19 09.01.2020
4913 Clouds 28 1015 28 10000 4.1 230 22:56 09.01.2020
4914 Clouds 28 1015 28 10000 4.1 230 22:37 09.01.2020
4915 Clouds 28 1015 28 10000 4.1 230 22:18 09.01.2020
4916 Clouds 28 1016 25 10000 4.1 240 21:55 09.01.2020
4917 Clouds 28 1016 25 10000 4.1 240 21:37 09.01.2020
4918 Clouds 28 1016 25 10000 4.1 240 21:18 09.01.2020
4919 Clouds 28 1016 26 10000 3.1 250 20:55 09.01.2020
4920 Clouds 28 1016 26 10000 3.1 250 20:37 09.01.2020
4921 Clouds 28 1016 26 10000 3.1 250 20:18 09.01.2020
4922 Clouds 28 1016 26 10000 3.1 250 20:18 09.01.2020
4923 Clouds 28 1016 30 10000 3.1 210 19:39 09.01.2020
4924 Clouds 28 1016 30 10000 3.1 210 19:21 09.01.2020
4925 Clouds 27 1017 34 10000 3.1 240 18:57 09.01.2020
4926 Clouds 27 1017 34 10000 3.1 240 18:39 09.01.2020
4927 Clouds 27 1017 34 10000 3.1 240 18:21 09.01.2020
4928 Clouds 25 1017 38 10000 2.1 250 17:41 09.01.2020
4929 Clouds 25 1017 38 10000 2.1 250 17:20 09.01.2020
4930 Clouds 24 1016 46 10000 1.5 190 16:59 09.01.2020
4931 Clouds 24 1016 46 10000 1.5 190 16:59 09.01.2020
4932 Clouds 24 1016 46 10000 1.5 190 16:41 09.01.2020
4933 Clouds 24 1016 46 10000 1.5 190 16:21 09.01.2020
4934 Clouds 23 1018 49 10000 1.5 200 15:43 09.01.2020
4935 Clouds 21 1018 49 10000 1.5 200 15:23 09.01.2020
4936 Clouds 20 1018 55 10000 1 170 14:58 09.01.2020
4937 Clouds 19 1018 55 10000 1 170 14:40 09.01.2020
4938 Clear 19 1018 55 10000 1 170 14:19 09.01.2020
4939 Clear 17 1018 71 10000 1.87 255 13:55 09.01.2020
4940 Clear 17 1018 71 10000 1.87 255 13:37 09.01.2020
4941 Clouds 17 1018 71 10000 1.65 256 13:18 09.01.2020
4942 Clouds 15 1018 76 10000 1.65 256 12:55 09.01.2020
4943 Clouds 15 1018 76 10000 1.65 256 12:37 09.01.2020
4944 Clouds 16 1018 76 10000 1.65 256 12:18 09.01.2020
4945 Clouds 19 1017 76 10000 1.65 256 11:42 09.01.2020
4946 Clouds 14 1017 76 10000 1.65 256 11:24 09.01.2020
4947 Clouds 14 1017 76 10000 1.65 256 11:24 09.01.2020
4948 Clouds 14 1017 76 10000 1.65 256 11:24 09.01.2020
4949 Clear 13 1017 76 10000 1 0 10:58 09.01.2020
4950 Clear 12 1017 76 10000 1 0 10:39 09.01.2020
4951 Clear 12 1017 76 10000 1 0 10:20 09.01.2020
4952 Clear 14 1016 71 10000 2.1 140 09:45 09.01.2020
4953 Clear 14 1016 71 10000 2.1 140 09:23 09.01.2020
4954 Clear 14 1016 71 10000 2.1 140 09:23 09.01.2020
4955 Clear 14 1017 71 10000 2.6 150 08:57 09.01.2020
4956 Clear 14 1017 71 10000 2.6 150 08:38 09.01.2020
4957 Clear 14 1017 71 10000 2.6 150 08:20 09.01.2020
4958 Clear 14 1017 71 10000 3.1 160 07:46 09.01.2020
4959 Clear 14 1017 71 10000 3.1 160 07:28 09.01.2020
4960 Clear 15 1018 72 10000 3.6 160 06:40 09.01.2020
4961 Clear 15 1018 72 10000 3.6 160 06:21 09.01.2020
4962 Clear 15 1018 67 10000 2.1 160 05:51 09.01.2020
4963 Clear 16 1019 67 10000 4.1 160 04:54 09.01.2020
4964 Clear 16 1019 67 10000 4.1 160 04:36 09.01.2020
4965 Clear 17 1018 59 10000 3.6 150 03:26 09.01.2020
4966 Clear 18 1018 55 10000 4.1 170 02:46 09.01.2020
4967 Clouds 19 1019 52 10000 2.6 240 01:41 09.01.2020
4968 Clouds 20 1018 46 10000 3.1 240 00:56 09.01.2020
4969 Clouds 21 1018 46 10000 3.1 240 00:36 09.01.2020
4970 Clouds 21 1018 46 10000 3.1 240 00:18 09.01.2020
4971 Clouds 22 1018 46 10000 3.6 240 23:39 08.01.2020
4972 Clouds 23 1018 46 10000 3.6 240 23:20 08.01.2020
4973 Clouds 24 1018 40 10000 4.1 200 22:40 08.01.2020
4974 Clouds 24 1018 40 10000 4.1 200 22:21 08.01.2020
4975 Clouds 24 1018 40 10000 3.6 220 21:58 08.01.2020
4976 Clouds 24 1018 40 10000 3.6 220 21:40 08.01.2020
4977 Clouds 24 1018 40 10000 3.6 220 21:40 08.01.2020
4978 Clouds 24 1018 40 10000 3.6 220 21:20 08.01.2020
4979 Clouds 25 1018 40 10000 3.1 180 20:59 08.01.2020
4980 Clouds 25 1018 40 10000 3.1 180 20:40 08.01.2020
4981 Clouds 25 1018 40 10000 3.1 180 20:20 08.01.2020
4982 Clouds 25 1018 40 10000 3.1 180 20:20 08.01.2020
4983 Clouds 25 1018 33 10000 3.1 220 19:58 08.01.2020
4984 Clouds 25 1018 33 10000 3.1 220 19:38 08.01.2020
4985 Clouds 24 1018 33 10000 3.1 220 19:19 08.01.2020
4986 Clouds 24 1018 43 10000 4.6 240 18:57 08.01.2020
4987 Clouds 24 1018 43 10000 4.6 240 18:38 08.01.2020
4988 Clouds 24 1018 43 10000 4.6 240 18:18 08.01.2020
4989 Clouds 25 1018 36 10000 3.1 270 17:56 08.01.2020
4990 Clouds 25 1018 36 10000 3.1 270 17:56 08.01.2020
4991 Clouds 25 1018 36 10000 3.1 270 17:37 08.01.2020
4992 Clouds 25 1018 36 10000 3.1 270 17:18 08.01.2020
4993 Clouds 24 1018 35 10000 2.6 180 16:55 08.01.2020
4994 Clouds 24 1018 35 10000 2.6 180 16:37 08.01.2020
4995 Clouds 23 1018 35 10000 2.6 180 16:18 08.01.2020
4996 Clouds 22 1018 34 10000 1 270 15:42 08.01.2020
4997 Clouds 21 1018 34 10000 1 270 15:21 08.01.2020
4998 Clouds 19 1019 39 10000 1.5 240 14:57 08.01.2020
4999 Clouds 19 1019 39 10000 1.5 240 14:39 08.01.2020
5000 Clouds 19 1019 39 10000 1.5 240 14:20 08.01.2020
5001 Clouds 17 1019 36 10000 2.6 200 13:40 08.01.2020
5002 Clouds 18 1019 36 10000 2.6 200 13:19 08.01.2020
5003 Clouds 16 1018 57 10000 2.4 265 12:43 08.01.2020
5004 Clouds 16 1018 57 10000 2.4 265 12:20 08.01.2020
5005 Clear 18 1016 66 10000 3.1 170 11:59 08.01.2020
5006 Clear 18 1016 66 10000 3.1 170 11:40 08.01.2020
5007 Clear 14 1016 66 10000 3.1 170 11:19 08.01.2020
5008 Clear 14 1015 62 10000 4.1 160 10:56 08.01.2020
5009 Clear 14 1015 62 10000 4.1 160 10:37 08.01.2020
5010 Clear 14 1015 62 10000 4.1 160 10:19 08.01.2020
5011 Clear 15 1015 62 10000 3.6 140 09:42 08.01.2020
5012 Clear 15 1015 62 10000 3.6 140 09:20 08.01.2020
5013 Clear 15 1014 67 10000 4.1 160 08:57 08.01.2020
5014 Clear 15 1014 67 10000 4.1 160 08:37 08.01.2020
5015 Clear 15 1014 67 10000 4.1 160 08:19 08.01.2020
5016 Clear 16 1014 59 10000 4.1 160 07:49 08.01.2020
5017 Clear 16 1014 59 10000 4.1 160 07:30 08.01.2020
5018 Clear 16 1014 59 10000 4.1 160 07:30 08.01.2020
5019 Clear 17 1014 59 10000 4.1 160 06:48 08.01.2020
5020 Clear 17 1014 59 10000 4.1 160 06:24 08.01.2020
5021 Clear 18 1014 55 10000 3.6 150 05:53 08.01.2020
5022 Clear 18 1014 55 10000 3.6 150 05:53 08.01.2020
5023 Clear 18 1014 55 10000 4.6 150 04:59 08.01.2020
5024 Clear 18 1014 55 10000 4.6 150 04:26 08.01.2020
5025 Clear 21 1013 46 10000 4.6 160 02:45 08.01.2020
5026 Clear 21 1013 46 10000 4.6 160 02:22 08.01.2020
5027 Clouds 22 1014 40 10000 2.1 240 01:50 08.01.2020
5028 Clouds 22 1014 40 10000 2.1 240 01:23 08.01.2020
5029 Clouds 23 1014 36 10000 3.6 250 00:40 08.01.2020
5030 Clouds 23 1014 36 10000 3.6 250 00:20 08.01.2020
5031 Clouds 25 1013 33 10000 3.6 240 23:44 07.01.2020
5032 Clouds 26 1013 33 10000 3.6 240 23:20 07.01.2020
5033 Clouds 27 1013 30 10000 6.2 210 22:40 07.01.2020
5034 Clouds 27 1013 30 10000 6.2 210 22:20 07.01.2020
5035 Clouds 27 1013 28 10000 5.7 250 21:57 07.01.2020
5036 Clouds 27 1013 28 10000 5.7 250 21:38 07.01.2020
5037 Clouds 27 1013 28 10000 5.7 250 21:38 07.01.2020
5038 Clouds 28 1013 28 10000 5.7 250 21:20 07.01.2020
5039 Clouds 28 1014 26 10000 4.1 240 20:56 07.01.2020
5040 Clouds 28 1014 26 10000 4.1 240 20:38 07.01.2020
5041 Clouds 29 1014 26 10000 4.1 240 20:19 07.01.2020
5042 Clouds 28 1014 28 10000 5.1 220 19:38 07.01.2020
5043 Clouds 29 1014 28 10000 5.1 220 19:20 07.01.2020
5044 Clouds 28 1015 30 10000 4.6 210 18:58 07.01.2020
5045 Clouds 28 1015 30 10000 4.6 210 18:40 07.01.2020
5046 Clouds 28 1015 30 10000 4.6 210 18:19 07.01.2020
5047 Clouds 27 1015 34 10000 3.6 240 18:00 07.01.2020
5048 Clouds 27 1015 34 10000 3.6 240 17:39 07.01.2020
5049 Clouds 26 1015 34 10000 3.6 240 17:21 07.01.2020
5050 Clear 25 1015 36 10000 3.1 250 16:57 07.01.2020
5051 Clear 26 1015 36 10000 3.1 250 16:38 07.01.2020
5052 Clear 25 1015 36 10000 3.1 250 16:19 07.01.2020
5053 Clear 25 1015 40 10000 2.1 260 15:58 07.01.2020
5054 Clear 25 1015 40 10000 2.1 260 15:39 07.01.2020
5055 Clear 24 1015 40 10000 2.1 260 15:21 07.01.2020
5056 Clear 22 1016 49 10000 1 210 14:55 07.01.2020
5057 Clear 22 1016 49 10000 1 210 14:36 07.01.2020
5058 Clear 21 1016 49 10000 1 210 14:18 07.01.2020
5059 Clear 20 1016 55 10000 1.5 210 13:39 07.01.2020
5060 Clear 18 1016 55 10000 1.5 210 13:19 07.01.2020
5061 Clear 17 1016 67 10000 2.04 265 12:41 07.01.2020
5062 Clear 17 1016 67 10000 2.04 265 12:20 07.01.2020
5063 Clear 20 1014 67 10000 2.04 265 11:55 07.01.2020
5064 Clear 20 1014 67 10000 2.04 265 11:36 07.01.2020
5065 Clear 15 1014 67 10000 0.87 304 11:18 07.01.2020
5066 Clear 15 1014 62 10000 2.1 150 10:41 07.01.2020
5067 Clear 15 1014 62 10000 2.1 150 10:23 07.01.2020
5068 Clear 15 1014 62 10000 0.87 304 09:57 07.01.2020
5069 Clear 15 1014 62 10000 0.87 304 09:38 07.01.2020
5070 Clear 16 1014 62 10000 0.87 304 09:20 07.01.2020
5071 Clear 16 929 99 0 0.87 304 08:42 07.01.2020
5072 Clear 17 1015 55 10000 2.1 180 08:23 07.01.2020
5073 Clear 17 1015 55 10000 2.1 180 07:54 07.01.2020
5074 Clear 17 1015 55 10000 2.1 180 07:28 07.01.2020
5075 Clear 17 1015 55 10000 3.1 130 06:53 07.01.2020
5076 Clear 17 1015 55 10000 3.1 130 06:34 07.01.2020
5077 Clear 18 1015 55 10000 3.6 130 05:54 07.01.2020
5078 Clear 19 1015 52 10000 3.1 150 04:33 07.01.2020
5079 Clear 19 1015 52 10000 4.1 150 03:26 07.01.2020
5080 Clear 21 1015 46 10000 4.6 200 02:22 07.01.2020
5081 Clear 22 1016 37 10000 2.6 240 01:51 07.01.2020
5082 Clouds 22 1016 37 10000 2.6 240 01:28 07.01.2020
5083 Clouds 23 1015 38 10000 3.6 240 00:37 07.01.2020
5084 Clouds 23 1015 38 10000 3.6 240 00:18 07.01.2020
5085 Clouds 25 1015 34 10000 3.6 240 23:39 06.01.2020
5086 Clouds 25 1015 34 10000 3.6 240 23:39 06.01.2020
5087 Clouds 26 1015 34 10000 3.6 240 23:21 06.01.2020
5088 Clouds 26 1015 34 10000 4.1 240 22:58 06.01.2020
5089 Clouds 27 1015 34 10000 4.1 240 22:38 06.01.2020
5090 Clouds 26 1015 34 10000 4.1 240 22:20 06.01.2020
5091 Clouds 27 1016 32 10000 2.6 230 21:56 06.01.2020
5092 Clouds 27 1016 32 10000 2.6 230 21:56 06.01.2020
5093 Clouds 27 1016 32 10000 2.6 230 21:37 06.01.2020
5094 Clouds 27 1016 32 10000 2.6 230 21:19 06.01.2020
5095 Clouds 27 1016 31 10000 3.6 240 20:56 06.01.2020
5096 Clouds 27 1016 31 10000 3.6 240 20:37 06.01.2020
5097 Clouds 27 1016 31 10000 3.6 240 20:19 06.01.2020
5098 Clouds 27 1016 34 10000 3.1 230 19:55 06.01.2020
5099 Clouds 27 1016 34 10000 3.1 230 19:37 06.01.2020
5100 Clouds 27 1016 34 10000 3.1 230 19:18 06.01.2020
5101 Clouds 26 1017 36 10000 3.6 280 18:44 06.01.2020
5102 Clouds 26 1017 36 10000 3.6 280 18:21 06.01.2020
5103 Clouds 25 1017 40 10000 2.6 210 17:40 06.01.2020
5104 Clouds 25 1017 40 10000 2.6 210 17:40 06.01.2020
5105 Clouds 25 1017 40 10000 2.6 210 17:20 06.01.2020
5106 Clouds 23 1018 49 8000 1 180 16:59 06.01.2020
5107 Clouds 23 1018 49 8000 1 180 16:41 06.01.2020
5108 Clouds 22 1018 49 8000 1 180 16:23 06.01.2020
5109 Clouds 19 1018 62 8000 1.5 270 15:59 06.01.2020
5110 Clouds 19 1018 62 8000 1.5 270 15:37 06.01.2020
5111 Clouds 18 1018 62 8000 1.5 270 15:18 06.01.2020
5112 Clouds 18 1018 63 8000 1 0 14:42 06.01.2020
5113 Clouds 18 1018 63 8000 1 0 14:22 06.01.2020
5114 Clouds 18 1018 63 8000 1 0 14:22 06.01.2020
5115 Clouds 17 1017 62 10000 1.5 330 13:59 06.01.2020
5116 Clouds 16 1017 62 10000 1.5 330 13:39 06.01.2020
5117 Clouds 15 1017 62 10000 1.5 330 13:21 06.01.2020
5118 Clouds 15 1018 76 8000 1.65 262 12:56 06.01.2020
5119 Clouds 14 1018 76 8000 1.65 262 12:37 06.01.2020
5120 Clouds 14 1018 76 8000 1.65 262 12:19 06.01.2020
5121 Clouds 14 1018 76 8000 1.65 262 12:19 06.01.2020
5122 Clouds 16 1017 71 10000 1.65 262 11:43 06.01.2020
5123 Clouds 16 1017 71 10000 1.65 262 11:43 06.01.2020
5124 Clouds 13 1017 71 10000 1.65 262 11:24 06.01.2020
5125 Clouds 13 1016 67 10000 1.5 110 10:59 06.01.2020
5126 Clouds 13 1016 67 10000 1.5 110 10:41 06.01.2020
5127 Clouds 14 1016 67 10000 1.5 110 10:21 06.01.2020
5128 Clouds 13 1017 71 10000 2.6 150 09:42 06.01.2020
5129 Clouds 13 1017 71 10000 2.6 150 09:23 06.01.2020
5130 Clouds 13 1017 71 10000 2.1 150 08:55 06.01.2020
5131 Clouds 13 1017 71 10000 2.1 150 08:37 06.01.2020
5132 Clouds 14 1017 67 10000 3.6 150 07:57 06.01.2020
5133 Clouds 14 1017 67 10000 3.6 150 07:38 06.01.2020
5134 Clouds 14 1017 67 10000 3.6 140 06:51 06.01.2020
5135 Clouds 14 1017 67 10000 3.6 140 06:32 06.01.2020
5136 Clouds 14 1018 71 10000 3.6 160 05:48 06.01.2020
5137 Clouds 15 1018 67 10000 3.6 180 04:58 06.01.2020
5138 Clouds 15 1018 67 10000 3.6 180 04:22 06.01.2020
5139 Clouds 15 1018 72 10000 6.2 170 03:26 06.01.2020
5140 Clouds 17 1018 67 10000 5.1 160 02:26 06.01.2020
5141 Clouds 18 1019 63 10000 2.6 230 01:49 06.01.2020
5142 Clouds 18 1019 63 10000 2.6 230 01:29 06.01.2020
5143 Clouds 19 1019 55 10000 4.1 230 00:45 06.01.2020
5144 Clouds 19 1019 55 10000 4.1 230 00:26 06.01.2020
5145 Clouds 21 1018 46 7000 3.6 0 23:57 05.01.2020
5146 Clouds 21 1018 46 7000 3.6 0 23:37 05.01.2020
5147 Clouds 22 1018 46 7000 3.6 0 23:19 05.01.2020
5148 Clouds 23 1017 43 7000 3.1 0 22:40 05.01.2020
5149 Clouds 23 1017 43 7000 3.1 0 22:40 05.01.2020
5150 Clouds 24 1017 43 7000 3.1 0 22:20 05.01.2020
5151 Clouds 24 1017 43 7000 3.6 210 21:57 05.01.2020
5152 Clouds 24 1017 43 7000 3.6 210 21:38 05.01.2020
5153 Clouds 25 1017 43 7000 3.6 210 21:20 05.01.2020
5154 Clouds 25 1017 43 7000 3.6 210 21:20 05.01.2020
5155 Clouds 24 1017 46 7000 2.6 0 20:56 05.01.2020
5156 Clouds 24 1017 46 7000 2.6 0 20:38 05.01.2020
5157 Clouds 24 1017 46 7000 2.6 0 20:19 05.01.2020
5158 Clouds 23 1018 52 7000 4.1 210 19:58 05.01.2020
5159 Clouds 23 1018 52 7000 4.1 210 19:38 05.01.2020
5160 Clouds 23 1018 52 7000 4.1 210 19:19 05.01.2020
5161 Clouds 22 1018 55 7000 5.1 240 18:55 05.01.2020
5162 Clouds 22 1018 55 7000 5.1 240 18:37 05.01.2020
5163 Clouds 22 1018 55 7000 5.1 240 18:19 05.01.2020
5164 Clouds 20 1017 52 8000 3.1 210 17:57 05.01.2020
5165 Clouds 23 1017 52 8000 3.1 210 17:38 05.01.2020
5166 Clouds 22 1017 52 8000 3.1 210 17:19 05.01.2020
5167 Clouds 21 1017 52 9000 3.1 230 16:55 05.01.2020
5168 Clouds 21 1017 52 9000 3.1 230 16:37 05.01.2020
5169 Clouds 21 1017 52 9000 3.1 230 16:19 05.01.2020
5170 Clouds 20 1017 56 9000 2.1 250 15:37 05.01.2020
5171 Clouds 20 1017 56 9000 2.1 250 15:18 05.01.2020
5172 Clouds 19 1017 56 8000 1.5 220 14:55 05.01.2020
5173 Clouds 19 1017 56 8000 1.5 220 14:55 05.01.2020
5174 Clouds 19 1017 56 8000 1.5 220 14:37 05.01.2020
5175 Clouds 19 1017 56 8000 1.5 220 14:18 05.01.2020
5176 Clouds 19 1016 63 10000 2.1 230 13:40 05.01.2020
5177 Clouds 16 1016 63 10000 2.1 230 13:21 05.01.2020
5178 Clear 15 1016 76 10000 2.35 269 12:58 05.01.2020
5179 Clear 17 1016 76 10000 2.35 269 12:39 05.01.2020
5180 Clear 17 1016 76 10000 2.35 269 12:39 05.01.2020
5181 Clear 15 1016 76 10000 2.35 269 12:21 05.01.2020
5182 Clear 14 1014 76 10000 3.1 150 11:59 05.01.2020
5183 Clear 17 1014 76 10000 3.1 150 11:39 05.01.2020
5184 Clear 14 1014 76 10000 3.1 150 11:19 05.01.2020
5185 Clear 14 1014 76 10000 3.1 150 11:19 05.01.2020
5186 Clear 15 1014 72 10000 3.1 150 10:56 05.01.2020
5187 Clear 15 1014 72 10000 3.1 150 10:36 05.01.2020
5188 Clear 15 1014 72 10000 3.1 150 10:18 05.01.2020
5189 Clear 15 1013 72 10000 4.1 180 09:41 05.01.2020
5190 Clear 15 1013 72 10000 4.1 180 09:21 05.01.2020
5191 Clear 15 1013 72 10000 4.1 180 09:21 05.01.2020
5192 Clear 16 1013 67 10000 4.1 160 08:48 05.01.2020
5193 Clear 16 1013 67 10000 4.1 160 08:29 05.01.2020
5194 Clear 16 1013 72 10000 3.6 160 07:55 05.01.2020
5195 Clear 16 1013 72 10000 3.6 160 07:36 05.01.2020
5196 Clear 17 1013 67 10000 4.6 170 06:59 05.01.2020
5197 Clear 18 1014 63 10000 4.1 160 05:59 05.01.2020
5198 Clear 18 1014 63 10000 4.1 160 05:30 05.01.2020
5199 Clear 20 1013 56 10000 4.1 160 04:43 05.01.2020
5200 Clear 20 1013 60 10000 5.1 160 03:52 05.01.2020
5201 Clear 21 1013 52 10000 7.2 150 02:46 05.01.2020
5202 Clear 23 1013 52 10000 7.2 150 02:22 05.01.2020
5203 Clear 24 1015 43 10000 2.6 250 01:46 05.01.2020
5204 Clear 24 1015 43 10000 2.6 250 01:18 05.01.2020
5205 Clear 25 1014 39 10000 3.6 230 00:41 05.01.2020
5206 Clear 25 1014 39 10000 3.6 230 00:41 05.01.2020
5207 Clear 26 1014 39 10000 3.6 230 00:22 05.01.2020
5208 Clear 28 1013 34 10000 3.6 260 23:59 04.01.2020
5209 Clear 28 1013 34 10000 3.6 260 23:39 04.01.2020
5210 Clear 28 1013 34 10000 3.6 260 23:19 04.01.2020
5211 Clear 29 1013 30 10000 4.1 250 22:39 04.01.2020
5212 Clear 29 1013 30 10000 4.1 250 22:21 04.01.2020
5213 Clear 30 1014 27 10000 3.6 240 21:57 04.01.2020
5214 Clear 30 1014 27 10000 3.6 240 21:38 04.01.2020
5215 Clear 30 1014 27 10000 3.6 240 21:20 04.01.2020
5216 Clear 30 1014 27 10000 3.6 230 20:58 04.01.2020
5217 Clear 30 1014 27 10000 3.6 230 20:39 04.01.2020
5218 Clear 30 1014 27 10000 3.6 230 20:39 04.01.2020
5219 Clear 31 1014 27 10000 3.6 230 20:21 04.01.2020
5220 Clear 31 1015 30 10000 3.6 210 19:56 04.01.2020
5221 Clear 31 1015 30 10000 3.6 210 19:37 04.01.2020
5222 Clear 31 1015 30 10000 3.6 210 19:18 04.01.2020
5223 Clear 30 1015 32 10000 2.6 230 18:54 04.01.2020
5224 Clear 30 1015 32 10000 2.6 230 18:36 04.01.2020
5225 Clear 30 1015 32 10000 2.6 230 18:18 04.01.2020
5226 Clear 30 1016 34 10000 2.1 290 17:40 04.01.2020
5227 Clear 29 1016 34 10000 2.1 290 17:22 04.01.2020
5228 Clear 28 1016 36 10000 2.6 210 16:55 04.01.2020
5229 Clear 28 1016 36 10000 2.6 210 16:36 04.01.2020
5230 Clear 28 1016 36 10000 2.6 210 16:18 04.01.2020
5231 Clear 26 1016 41 10000 2.1 240 15:42 04.01.2020
5232 Clear 26 1016 41 10000 2.1 240 15:20 04.01.2020
5233 Clear 23 1016 49 10000 1.5 270 14:59 04.01.2020
5234 Clear 23 1016 49 10000 1.5 270 14:59 04.01.2020
5235 Clear 23 1016 49 10000 1.5 270 14:59 04.01.2020
5236 Clear 25 1016 49 10000 1.5 270 14:40 04.01.2020
5237 Clear 25 1016 49 10000 1.5 270 14:20 04.01.2020
5238 Clear 24 1016 52 10000 1 190 13:58 04.01.2020
5239 Clear 24 1016 52 10000 1 190 13:37 04.01.2020
5240 Clear 24 1016 52 10000 1 190 13:37 04.01.2020
5241 Clear 21 1016 52 10000 1 190 13:19 04.01.2020
5242 Clear 17 1016 72 10000 1.74 271 12:56 04.01.2020
5243 Clear 21 1016 72 10000 1.74 271 12:38 04.01.2020
5244 Clear 20 1016 72 10000 1.74 271 12:18 04.01.2020
5245 Clear 23 1015 72 10000 1.74 271 11:55 04.01.2020
5246 Clear 22 1015 72 10000 1.74 271 11:36 04.01.2020
5247 Clear 16 1015 72 10000 0.66 354 11:18 04.01.2020
5248 Clear 16 1014 72 10000 1 0 10:40 04.01.2020
5249 Clear 16 1014 72 10000 1 0 10:21 04.01.2020
5250 Clear 17 1014 67 10000 1 0 09:44 04.01.2020
5251 Clear 17 1014 67 10000 1 0 09:25 04.01.2020
5252 Clear 17 1014 72 10000 1.5 300 08:49 04.01.2020
5253 Clear 17 1014 72 10000 1.5 300 08:29 04.01.2020
5254 Clear 18 1014 68 10000 1.5 220 07:55 04.01.2020
5255 Clear 18 1014 68 10000 1.5 220 07:37 04.01.2020
5256 Clear 19 1015 63 10000 2.6 160 06:43 04.01.2020
5257 Clear 19 1015 63 10000 4.1 150 05:57 04.01.2020
5258 Clear 20 1015 60 10000 4.6 160 04:50 04.01.2020
5259 Clear 20 1015 60 10000 4.6 160 04:29 04.01.2020
5260 Clear 21 1015 56 10000 5.7 150 03:28 04.01.2020
5261 Clear 22 1015 53 10000 5.7 150 02:46 04.01.2020
5262 Clear 23 1015 53 10000 5.7 150 02:18 04.01.2020
5263 Clear 24 1017 44 10000 1.5 240 01:37 04.01.2020
5264 Clear 24 1017 44 10000 1.5 240 01:19 04.01.2020
5265 Clear 26 1017 41 10000 3.1 240 00:29 04.01.2020
5266 Clear 27 1016 37 10000 4.1 240 23:57 03.01.2020
5267 Clear 27 1016 37 10000 4.1 240 23:29 03.01.2020
5268 Clear 28 1016 35 10000 4.1 240 22:57 03.01.2020
5269 Clear 28 1016 35 10000 4.1 240 22:57 03.01.2020
5270 Clear 28 1016 35 10000 4.1 240 22:39 03.01.2020
5271 Clear 29 1016 35 10000 4.1 240 22:19 03.01.2020
5272 Clear 30 1016 33 10000 4.1 250 21:57 03.01.2020
5273 Clear 30 1016 33 10000 4.1 250 21:37 03.01.2020
5274 Clear 30 1016 33 10000 4.1 250 21:18 03.01.2020
5275 Clear 30 1017 29 10000 3.6 190 20:55 03.01.2020
5276 Clear 30 1017 29 10000 3.6 190 20:36 03.01.2020
5277 Clear 30 1017 29 10000 3.6 190 20:18 03.01.2020
5278 Clear 30 1018 30 10000 4.1 240 19:44 03.01.2020
5279 Clear 30 1018 30 10000 4.1 240 19:23 03.01.2020
5280 Clear 30 1018 32 10000 3.1 240 18:57 03.01.2020
5281 Clear 30 1018 32 10000 3.1 240 18:38 03.01.2020
5282 Clear 30 1018 32 10000 3.1 240 18:20 03.01.2020
5283 Clear 29 1019 32 10000 3.1 270 17:42 03.01.2020
5284 Clear 28 1019 32 10000 3.1 270 17:21 03.01.2020
5285 Clear 27 1019 39 10000 2.1 240 16:58 03.01.2020
5286 Clear 27 1019 39 10000 2.1 240 16:39 03.01.2020
5287 Clear 27 1019 39 10000 2.1 240 16:20 03.01.2020
5288 Clear 25 1019 43 10000 1.5 210 15:41 03.01.2020
5289 Clear 25 1019 43 10000 1.5 210 15:19 03.01.2020
5290 Clear 23 1018 49 10000 1.5 240 14:40 03.01.2020
5291 Clear 23 1018 49 10000 1.5 240 14:40 03.01.2020
5292 Clear 22 1018 49 10000 1.5 240 14:20 03.01.2020
5293 Clear 20 1018 59 10000 2.13 269 13:59 03.01.2020
5294 Clear 20 1018 59 10000 2.13 269 13:40 03.01.2020
5295 Clear 17 1018 59 10000 1.95 270 13:21 03.01.2020
5296 Clear 18 1017 67 10000 1.95 270 12:41 03.01.2020
5297 Clear 17 1017 67 10000 1.95 270 12:22 03.01.2020
5298 Clear 21 1016 82 10000 2.1 180 11:54 03.01.2020
5299 Clear 20 1016 82 10000 2.1 180 11:35 03.01.2020
5300 Clear 15 1016 82 10000 2.6 170 10:58 03.01.2020
5301 Clear 14 1016 82 10000 2.6 170 10:39 03.01.2020
5302 Clear 13 1016 82 10000 2.6 170 10:21 03.01.2020
5303 Clear 14 1016 76 10000 3.1 150 09:55 03.01.2020
5304 Clear 14 1016 76 10000 3.1 150 09:37 03.01.2020
5305 Clear 14 1016 76 10000 3.1 150 09:19 03.01.2020
5306 Clear 14 1016 76 10000 2.6 170 08:45 03.01.2020
5307 Clear 14 1016 76 10000 2.6 170 08:23 03.01.2020
5308 Clear 14 1016 76 10000 3.1 160 07:56 03.01.2020
5309 Clear 14 1016 76 10000 3.1 160 07:37 03.01.2020
5310 Clear 14 1016 76 10000 3.1 160 07:18 03.01.2020
5311 Clear 15 1016 72 10000 4.6 170 06:42 03.01.2020
5312 Clear 15 1016 72 10000 4.6 170 06:22 03.01.2020
5313 Clear 16 1016 72 10000 5.1 150 04:59 03.01.2020
5314 Clear 18 1015 63 10000 6.2 160 03:38 03.01.2020
5315 Clear 20 1015 56 10000 7.2 160 02:53 03.01.2020
5316 Clear 20 1015 56 10000 7.2 160 02:53 03.01.2020
5317 Clear 22 1016 46 10000 2.1 250 01:51 03.01.2020
5318 Clear 23 1016 46 10000 2.1 250 01:31 03.01.2020
5319 Clear 25 1016 39 10000 2.6 250 00:40 03.01.2020
5320 Clear 26 1016 39 10000 2.6 250 00:20 03.01.2020
5321 Clear 26 1015 34 10000 4.1 260 23:39 02.01.2020
5322 Clear 27 1015 34 10000 4.1 260 23:20 02.01.2020
5323 Clear 29 1015 30 10000 4.1 250 22:59 02.01.2020
5324 Clear 29 1015 30 10000 4.1 250 22:41 02.01.2020
5325 Clear 29 1015 30 10000 4.1 250 22:20 02.01.2020
5326 Clear 30 1015 28 10000 4.6 240 21:56 02.01.2020
5327 Clear 30 1015 28 10000 4.6 240 21:38 02.01.2020
5328 Clear 30 1015 28 10000 4.6 240 21:19 02.01.2020
5329 Clear 30 1015 27 10000 3.6 210 20:56 02.01.2020
5330 Clear 30 1015 27 10000 3.6 210 20:37 02.01.2020
5331 Clear 30 1015 27 10000 3.6 210 20:18 02.01.2020
5332 Clear 31 1015 30 10000 4.1 250 19:54 02.01.2020
5333 Clear 31 1015 30 10000 4.1 250 19:36 02.01.2020
5334 Clear 31 1015 30 10000 4.1 250 19:18 02.01.2020
5335 Clear 30 1016 28 10000 3.1 0 18:43 02.01.2020
5336 Clear 30 1016 28 10000 3.1 0 18:24 02.01.2020
5337 Clear 29 1016 30 10000 2.1 0 17:58 02.01.2020
5338 Clear 29 1016 30 10000 2.1 0 17:58 02.01.2020
5339 Clear 29 1016 30 10000 2.1 0 17:39 02.01.2020
5340 Clear 29 1016 30 10000 2.1 0 17:20 02.01.2020
5341 Clear 27 1016 31 10000 1.5 220 16:58 02.01.2020
5342 Clear 27 1016 31 10000 1.5 220 16:40 02.01.2020
5343 Clear 27 1016 31 10000 1.5 220 16:20 02.01.2020
5344 Clear 25 1016 40 10000 1 260 15:57 02.01.2020
5345 Clear 25 1016 40 10000 1 260 15:39 02.01.2020
5346 Clear 25 1016 40 10000 1 260 15:20 02.01.2020
5347 Clear 24 1016 49 10000 3.36 264 14:57 02.01.2020
5348 Clear 23 1016 49 10000 3.36 264 14:36 02.01.2020
5349 Clear 22 1016 49 10000 1.97 268 14:18 02.01.2020
5350 Clear 21 1016 52 10000 1.97 268 13:48 02.01.2020
5351 Clear 21 1016 52 10000 1.97 268 13:48 02.01.2020
5352 Clear 20 1016 52 10000 1.82 268 13:30 02.01.2020
5353 Clear 18 1015 67 10000 1.82 268 12:46 02.01.2020
5354 Clear 22 1014 82 10000 3.1 160 12:26 02.01.2020
5355 Clear 21 1014 82 10000 3.1 160 11:58 02.01.2020
5356 Clear 21 1014 82 10000 3.1 160 11:40 02.01.2020
5357 Clear 13 1014 82 10000 3.1 160 11:19 02.01.2020
5358 Clear 15 1014 82 10000 3.6 170 10:44 02.01.2020
5359 Clear 13 1014 82 10000 3.6 170 10:25 02.01.2020
5360 Clear 14 1013 76 10000 3.1 170 09:48 02.01.2020
5361 Clear 14 1013 76 10000 3.1 170 09:29 02.01.2020
5362 Clear 14 1013 76 10000 4.1 170 08:47 02.01.2020
5363 Clear 14 1013 76 10000 4.1 170 08:27 02.01.2020
5364 Clear 16 1014 72 10000 2.6 170 07:53 02.01.2020
5365 Clear 15 1014 72 10000 2.6 170 07:30 02.01.2020
5366 Clear 16 1014 67 10000 3.6 160 06:46 02.01.2020
5367 Clear 16 1014 67 10000 3.6 160 06:27 02.01.2020
5368 Clear 17 1014 63 10000 4.6 160 05:29 02.01.2020
5369 Clear 19 1015 55 10000 5.1 150 04:32 02.01.2020
5370 Clear 20 1014 49 10000 7.7 150 02:48 02.01.2020
5371 Clear 24 1015 20 10000 2.1 230 01:59 02.01.2020
5372 Clear 24 1015 20 10000 2.1 230 01:38 02.01.2020
5373 Clear 25 1015 25 10000 3.1 230 00:58 02.01.2020
5374 Clear 25 1015 25 10000 3.1 230 00:33 02.01.2020
5375 Clear 27 1014 25 10000 3.6 220 23:53 01.01.2020
5376 Clear 28 1014 25 10000 3.6 220 23:28 01.01.2020
5377 Clear 29 1014 18 10000 4.1 230 22:59 01.01.2020
5378 Clear 29 1014 18 10000 4.1 230 22:38 01.01.2020
5379 Clear 29 1014 18 10000 4.1 230 22:19 01.01.2020
5380 Clear 30 1014 18 10000 4.1 200 21:56 01.01.2020
5381 Clear 30 1014 18 10000 4.1 200 21:37 01.01.2020
5382 Clear 30 1014 18 10000 4.1 200 21:19 01.01.2020
5383 Clear 30 1014 20 10000 4.1 230 20:55 01.01.2020
5384 Clear 30 1014 20 10000 4.1 230 20:37 01.01.2020
5385 Clear 30 1014 20 10000 4.1 230 20:18 01.01.2020
5386 Clear 30 1014 19 10000 5.1 230 19:54 01.01.2020
5387 Clear 30 1014 19 10000 5.1 230 19:36 01.01.2020
5388 Clear 30 1014 19 10000 5.1 230 19:18 01.01.2020
5389 Clear 30 1015 25 10000 4.1 240 18:55 01.01.2020
5390 Clear 30 1015 25 10000 4.1 240 18:36 01.01.2020
5391 Clear 30 1015 25 10000 4.1 240 18:18 01.01.2020
5392 Clear 30 1015 26 10000 3.6 210 17:55 01.01.2020
5393 Clear 30 1015 26 10000 3.6 210 17:36 01.01.2020
5394 Clear 29 1015 26 10000 3.6 210 17:18 01.01.2020
5395 Clear 28 1015 24 10000 2.1 210 16:39 01.01.2020
5396 Clear 28 1015 24 10000 2.1 210 16:39 01.01.2020
5397 Clear 28 1015 24 10000 2.1 210 16:20 01.01.2020
5398 Clear 27 1015 25 10000 2.1 240 15:57 01.01.2020
5399 Clear 27 1015 25 10000 2.1 240 15:57 01.01.2020
5400 Clear 27 1015 25 10000 2.1 240 15:39 01.01.2020
5401 Clear 27 1015 25 10000 2.1 240 15:20 01.01.2020
5402 Clear 25 1015 33 10000 3.53 260 14:57 01.01.2020
5403 Clear 25 1015 33 10000 3.53 260 14:39 01.01.2020
5404 Clear 22 1015 33 10000 1.98 273 14:21 01.01.2020
5405 Clear 22 1015 42 10000 1.98 273 13:56 01.01.2020
5406 Clear 22 1015 42 10000 1.98 273 13:37 01.01.2020
5407 Clear 22 1015 42 10000 1.98 273 13:37 01.01.2020
5408 Clear 21 1015 42 10000 1.87 276 13:18 01.01.2020
5409 Clear 19 1014 51 10000 1.87 276 12:55 01.01.2020
5410 Clear 21 1014 51 10000 1.87 276 12:37 01.01.2020
5411 Clear 21 1014 51 10000 1.87 276 12:18 01.01.2020
5412 Clear 21 1013 58 10000 0.5 120 11:43 01.01.2020
5413 Clear 15 1013 58 10000 0.5 120 11:22 01.01.2020
5414 Clear 17 1012 59 10000 1.5 0 10:58 01.01.2020
5415 Clear 17 1012 59 10000 1.5 0 10:39 01.01.2020
5416 Clear 16 1012 59 10000 1.5 0 10:20 01.01.2020
5417 Clear 17 1012 48 10000 2.6 150 09:55 01.01.2020
5418 Clear 17 1012 48 10000 2.6 150 09:36 01.01.2020
5419 Clear 17 1012 48 10000 2.6 150 09:36 01.01.2020
5420 Clear 17 1012 48 10000 2.6 150 09:18 01.01.2020
5421 Clear 17 1012 51 10000 2.1 150 08:54 01.01.2020
5422 Clear 17 1012 51 10000 2.1 150 08:36 01.01.2020
5423 Clear 17 1012 51 10000 2.1 150 08:18 01.01.2020
5424 Clear 18 1012 48 10000 2.1 150 07:42 01.01.2020
5425 Clear 18 1012 48 10000 2.1 150 07:24 01.01.2020
5426 Clear 19 1012 45 10000 3.1 150 06:44 01.01.2020
5427 Clear 19 1012 45 10000 3.1 150 06:19 01.01.2020
5428 Clear 20 1013 42 10000 5.1 150 04:36 01.01.2020
5429 Clear 22 1012 37 10000 5.7 160 03:41 01.01.2020
5430 Clear 22 1012 37 10000 5.7 160 03:22 01.01.2020
5431 Clear 24 1012 31 10000 6.2 150 02:54 01.01.2020
5432 Clear 25 1012 31 10000 6.2 150 02:30 01.01.2020
5433 Clear 26 1013 21 10000 1.5 230 01:45 01.01.2020
5434 Clear 26 1013 21 10000 1.5 230 01:23 01.01.2020
5435 Clear 28 1013 17 10000 3.6 240 00:54 01.01.2020
5436 Clear 28 1013 17 10000 3.6 240 00:36 01.01.2020
5437 Clear 28 1013 17 10000 3.6 240 00:18 01.01.2020
5438 Clear 30 1012 17 10000 4.1 240 23:38 31.12.2019
5439 Clear 30 1012 17 10000 4.1 240 23:19 31.12.2019
5440 Clear 31 1012 14 10000 4.1 230 22:56 31.12.2019
5441 Clear 31 1012 14 10000 4.1 230 22:37 31.12.2019
5442 Clear 32 1012 14 10000 4.1 230 22:18 31.12.2019
5443 Clear 32 1013 15 10000 4.6 250 21:54 31.12.2019
5444 Clear 32 1013 15 10000 4.6 250 21:36 31.12.2019
5445 Clear 32 1013 15 10000 4.6 250 21:18 31.12.2019
5446 Clear 32 1013 15 10000 4.6 250 21:18 31.12.2019
5447 Clear 32 1013 16 10000 4.6 240 20:40 31.12.2019
5448 Clear 32 1013 16 10000 4.6 240 20:21 31.12.2019
5449 Clear 33 1013 21 10000 3.6 0 19:58 31.12.2019
5450 Clear 34 1013 21 10000 3.6 0 19:40 31.12.2019
5451 Clear 33 1013 21 10000 3.6 0 19:22 31.12.2019
5452 Clear 33 1013 19 10000 3.6 250 18:57 31.12.2019
5453 Clear 33 1013 19 10000 3.6 250 18:57 31.12.2019
5454 Clear 33 1013 19 10000 3.6 250 18:39 31.12.2019
5455 Clear 33 1013 19 10000 3.6 250 18:19 31.12.2019
5456 Clear 32 1013 20 10000 1.5 250 17:56 31.12.2019
5457 Clear 32 1013 20 10000 1.5 250 17:37 31.12.2019
5458 Clear 31 1013 20 10000 1.5 250 17:18 31.12.2019
5459 Clear 30 1014 24 10000 1 240 16:56 31.12.2019
5460 Clear 30 1014 24 10000 1 240 16:37 31.12.2019
5461 Clear 30 1014 24 10000 1 240 16:19 31.12.2019
5462 Clear 28 1013 24 10000 1.5 260 15:56 31.12.2019
5463 Clear 28 1013 24 10000 1.5 260 15:38 31.12.2019
5464 Clear 28 1013 24 10000 1.5 260 15:19 31.12.2019
5465 Clear 27 1014 25 10000 1 240 14:55 31.12.2019
5466 Clear 27 1014 25 10000 1 240 14:37 31.12.2019
5467 Clear 26 1014 25 10000 1 240 14:19 31.12.2019
5468 Clear 24 1014 35 10000 1.77 264 13:56 31.12.2019
5469 Clear 24 1014 35 10000 1.77 264 13:38 31.12.2019
5470 Clear 24 1014 35 10000 1.77 264 13:38 31.12.2019
5471 Clear 21 1014 35 10000 1.69 263 13:20 31.12.2019
5472 Clear 17 1014 51 10000 1.69 263 12:56 31.12.2019
5473 Clear 17 1014 51 10000 1.69 263 12:37 31.12.2019
5474 Clear 17 1014 51 10000 1.69 263 12:19 31.12.2019
5475 Clear 22 1013 51 10000 1.69 263 11:55 31.12.2019
5476 Clear 22 1013 51 10000 1.69 263 11:37 31.12.2019
5477 Clear 15 1013 51 10000 0.27 356 11:19 31.12.2019
5478 Clear 16 1012 48 10000 1 280 10:56 31.12.2019
5479 Clear 16 1012 48 10000 1 280 10:37 31.12.2019
5480 Clear 16 1012 48 10000 1 280 10:19 31.12.2019
5481 Clear 17 1012 45 10000 1 0 09:57 31.12.2019
5482 Clear 17 1012 45 10000 1 0 09:57 31.12.2019
5483 Clear 17 1012 45 10000 1 0 09:38 31.12.2019
5484 Clear 17 1012 45 10000 1 0 09:19 31.12.2019
5485 Clear 18 1012 45 10000 0.27 356 08:42 31.12.2019
5486 Clear 18 1012 45 10000 0.31 6 08:23 31.12.2019
5487 Clear 19 1012 42 10000 2.1 150 07:58 31.12.2019
5488 Clear 19 1012 42 10000 2.1 150 07:40 31.12.2019
5489 Clear 19 1012 42 10000 2.1 150 07:19 31.12.2019
5490 Clear 20 1013 40 10000 2.1 180 06:41 31.12.2019
5491 Clear 22 1013 30 10000 2.1 170 05:28 31.12.2019
5492 Clear 24 1013 25 10000 4.1 150 04:25 31.12.2019
5493 Clear 25 1013 22 10000 3.6 140 03:24 31.12.2019
5494 Clear 27 1013 19 10000 4.6 140 02:36 31.12.2019
5495 Clear 27 1014 28 10000 2.6 270 01:51 31.12.2019
5496 Clear 27 1014 28 10000 2.6 270 01:32 31.12.2019
5497 Clear 28 1014 28 10000 3.1 270 00:55 31.12.2019
5498 Clear 28 1014 28 10000 3.1 270 00:37 31.12.2019
5499 Clear 28 1014 28 10000 3.1 270 00:18 31.12.2019
5500 Clear 30 1013 22 10000 4.1 250 23:55 30.12.2019
5501 Clear 31 1013 22 10000 4.1 250 23:36 30.12.2019
5502 Clear 31 1013 22 10000 4.1 250 23:36 30.12.2019
5503 Clear 31 1013 22 10000 4.1 250 23:18 30.12.2019
5504 Clear 32 1013 22 10000 4.6 240 22:54 30.12.2019
5505 Clear 32 1013 22 10000 4.6 240 22:36 30.12.2019
5506 Clear 32 1013 22 10000 4.6 240 22:18 30.12.2019
5507 Clear 32 1013 22 10000 4.6 240 22:18 30.12.2019
5508 Clear 33 1014 22 10000 4.6 0 21:55 30.12.2019
5509 Clear 33 1014 22 10000 4.6 0 21:55 30.12.2019
5510 Clear 33 1014 22 10000 4.6 0 21:36 30.12.2019
5511 Clear 33 1014 22 10000 4.6 0 21:18 30.12.2019
5512 Clear 33 1014 24 10000 3.6 0 20:41 30.12.2019
5513 Clear 33 1014 24 10000 3.6 0 20:21 30.12.2019
5514 Clear 33 1015 24 10000 4.1 0 19:59 30.12.2019
5515 Clear 32 1015 24 10000 4.1 0 19:40 30.12.2019
5516 Clear 33 1015 24 10000 4.1 0 19:20 30.12.2019
5517 Clear 33 1015 27 10000 2.6 200 18:59 30.12.2019
5518 Clear 32 1015 27 10000 2.6 200 18:41 30.12.2019
5519 Clear 32 1015 27 10000 2.6 200 18:21 30.12.2019
5520 Clear 31 1015 28 10000 2.6 150 17:58 30.12.2019
5521 Clear 31 1015 28 10000 2.6 150 17:40 30.12.2019
5522 Clear 30 1015 28 10000 2.6 150 17:19 30.12.2019
5523 Clear 29 1015 32 10000 2.6 230 16:59 30.12.2019
5524 Clear 29 1015 32 10000 2.6 230 16:38 30.12.2019
5525 Clear 29 1015 32 10000 2.6 230 16:20 30.12.2019
5526 Clear 28 1015 36 10000 1.5 250 15:56 30.12.2019
5527 Clear 28 1015 36 10000 1.5 250 15:37 30.12.2019
5528 Clear 28 1015 36 10000 1.5 250 15:19 30.12.2019
5529 Clear 26 1015 40 10000 1 170 14:43 30.12.2019
5530 Clear 26 1015 40 10000 1 170 14:43 30.12.2019
5531 Clear 24 1015 40 10000 1 170 14:21 30.12.2019
5532 Clear 21 1015 49 10000 1.94 259 13:59 30.12.2019
5533 Clear 21 1015 49 10000 1.94 259 13:40 30.12.2019
5534 Clear 21 1015 49 10000 1.94 259 13:22 30.12.2019
5535 Clear 21 1015 49 10000 1.94 259 13:22 30.12.2019
5536 Clear 19 1015 67 10000 1.94 259 12:57 30.12.2019
5537 Clear 20 1015 67 10000 1.94 259 12:37 30.12.2019
5538 Clear 19 1015 67 10000 1.94 259 12:18 30.12.2019
5539 Clear 23 1014 72 10000 1.5 320 11:45 30.12.2019
5540 Clear 15 1014 72 10000 1.5 320 11:22 30.12.2019
5541 Clear 17 1014 72 10000 2.6 170 10:59 30.12.2019
5542 Clear 17 1014 72 10000 2.6 170 10:40 30.12.2019
5543 Clear 16 1014 72 10000 2.6 170 10:19 30.12.2019
5544 Clear 17 1014 67 10000 2.6 160 09:42 30.12.2019
5545 Clear 17 1014 67 10000 2.6 160 09:21 30.12.2019
5546 Clear 17 1014 63 10000 3.6 160 08:56 30.12.2019
5547 Clear 17 1014 63 10000 3.6 160 08:38 30.12.2019
5548 Clear 17 1014 63 10000 3.6 160 08:19 30.12.2019
5549 Clear 18 1014 59 10000 4.1 160 07:44 30.12.2019
5550 Clear 18 1014 59 10000 4.1 160 07:18 30.12.2019
5551 Clear 19 1014 55 10000 3.6 170 06:29 30.12.2019
5552 Clear 21 1014 49 10000 5.1 160 04:23 30.12.2019
5553 Clear 22 1014 46 10000 5.7 130 03:42 30.12.2019
5554 Clear 24 1013 41 10000 5.1 150 02:41 30.12.2019
5555 Clouds 25 1013 41 10000 5.1 150 02:20 30.12.2019
5556 Clouds 25 1015 39 10000 1.5 210 01:26 30.12.2019
5557 Clouds 28 1014 34 10000 3.6 210 00:47 30.12.2019
5558 Clouds 28 1014 34 10000 3.6 210 00:26 30.12.2019
5559 Clouds 29 1013 30 10000 4.1 240 23:40 29.12.2019
5560 Clouds 29 1013 30 10000 4.1 240 23:22 29.12.2019
5561 Clouds 30 1013 25 10000 3.6 260 22:57 29.12.2019
5562 Clouds 30 1013 25 10000 3.6 260 22:38 29.12.2019
5563 Clouds 30 1013 25 10000 3.6 260 22:38 29.12.2019
5564 Clouds 31 1013 25 10000 3.6 260 22:20 29.12.2019
5565 Clouds 31 1013 24 10000 4.1 250 21:54 29.12.2019
5566 Clouds 31 1013 24 10000 4.1 250 21:36 29.12.2019
5567 Clouds 31 1013 24 10000 4.1 250 21:18 29.12.2019
5568 Clouds 32 1012 21 10000 3.6 250 20:55 29.12.2019
5569 Clouds 33 1012 21 10000 3.6 250 20:36 29.12.2019
5570 Clouds 34 1012 21 10000 3.6 250 20:18 29.12.2019
5571 Clear 34 1012 19 10000 3.6 0 19:40 29.12.2019
5572 Clear 34 1012 19 10000 3.6 0 19:22 29.12.2019
5573 Clear 33 1013 24 10000 2.6 240 18:59 29.12.2019
5574 Clear 33 1013 24 10000 2.6 240 18:40 29.12.2019
5575 Clear 33 1013 24 10000 2.6 240 18:21 29.12.2019
5576 Clear 32 1013 23 10000 2.6 250 17:59 29.12.2019
5577 Clear 33 1013 23 10000 2.6 250 17:39 29.12.2019
5578 Clear 32 1013 23 10000 2.6 250 17:20 29.12.2019
5579 Clear 30 1013 27 10000 2.1 240 16:58 29.12.2019
5580 Clear 30 1013 27 10000 2.1 240 16:40 29.12.2019
5581 Clear 30 1013 27 10000 2.1 240 16:40 29.12.2019
5582 Clear 30 1013 27 10000 2.1 240 16:21 29.12.2019
5583 Clear 28 1013 32 10000 1.5 200 15:59 29.12.2019
5584 Clear 28 1013 32 10000 1.5 200 15:40 29.12.2019
5585 Clear 29 1013 32 10000 1.5 200 15:20 29.12.2019
5586 Clear 27 1013 38 10000 3.41 264 14:58 29.12.2019
5587 Clear 27 1013 38 10000 3.41 264 14:39 29.12.2019
5588 Clouds 25 1013 38 10000 2.1 258 14:19 29.12.2019
5589 Clouds 21 1013 45 10000 2.1 258 13:59 29.12.2019
5590 Clouds 21 1013 45 10000 2.1 258 13:39 29.12.2019
5591 Clouds 21 1013 45 10000 2.1 258 13:21 29.12.2019
5592 Clouds 18 1013 63 10000 1.98 260 12:56 29.12.2019
5593 Clouds 21 1013 63 10000 1.98 260 12:38 29.12.2019
5594 Clouds 21 1013 63 10000 1.98 260 12:20 29.12.2019
5595 Clouds 23 1011 59 10000 1.98 260 11:41 29.12.2019
5596 Clouds 17 1011 59 10000 0.33 38 11:21 29.12.2019
5597 Clouds 17 1010 63 10000 2.1 250 10:56 29.12.2019
5598 Clouds 17 1010 63 10000 2.1 250 10:37 29.12.2019
5599 Clouds 17 1010 63 10000 2.1 250 10:18 29.12.2019
5600 Clouds 19 1010 55 10000 2.1 170 09:44 29.12.2019
5601 Clouds 19 1010 55 10000 2.1 170 09:26 29.12.2019
5602 Clouds 20 1010 52 10000 3.1 160 08:52 29.12.2019
5603 Clouds 20 1010 52 10000 3.1 160 08:29 29.12.2019
5604 Clear 20 1010 52 10000 3.1 160 07:59 29.12.2019
5605 Clear 20 1010 52 10000 3.1 160 07:32 29.12.2019
5606 Clear 22 1010 46 10000 4.1 160 06:59 29.12.2019
5607 Clear 22 1010 46 10000 4.1 160 06:27 29.12.2019
5608 Clear 23 1011 43 10000 3.1 150 05:55 29.12.2019
5609 Clear 25 1011 33 10000 3.6 150 04:47 29.12.2019
5610 Clear 25 1011 33 10000 3.6 150 04:28 29.12.2019
5611 Clear 17 1011 55 10000 3.6 160 03:28 29.12.2019
5612 Clear 29 1010 24 10000 5.1 190 02:27 29.12.2019
5613 Clouds 29 1012 26 10000 1.5 250 01:47 29.12.2019
5614 Clouds 29 1012 26 10000 1.5 250 01:28 29.12.2019
5615 Clouds 30 1011 22 10000 3.1 240 00:45 29.12.2019
5616 Clouds 30 1011 22 10000 3.1 240 00:24 29.12.2019
5617 Clouds 32 1011 18 10000 4.1 230 23:46 28.12.2019
5618 Clear 33 1011 18 10000 4.1 230 23:19 28.12.2019
5619 Clear 33 1011 17 10000 3.6 230 22:59 28.12.2019
5620 Clear 33 1011 17 10000 3.6 230 22:37 28.12.2019
5621 Clear 33 1011 17 10000 3.6 230 22:18 28.12.2019
5622 Clear 34 1011 17 10000 3.6 240 21:55 28.12.2019
5623 Clear 33 1011 17 10000 3.6 240 21:37 28.12.2019
5624 Clear 33 1011 17 10000 3.6 240 21:19 28.12.2019
5625 Clear 32 1012 18 10000 3.6 220 20:40 28.12.2019
5626 Clear 34 1012 18 10000 3.6 220 20:22 28.12.2019
5627 Clear 34 1012 21 10000 3.1 200 19:59 28.12.2019
5628 Clear 34 1012 21 10000 3.1 200 19:41 28.12.2019
5629 Clear 33 1012 21 10000 3.1 200 19:23 28.12.2019
5630 Clear 32 1013 23 10000 4.1 210 18:59 28.12.2019
5631 Clear 32 1013 23 10000 4.1 210 18:40 28.12.2019
5632 Clear 32 1013 23 10000 4.1 210 18:20 28.12.2019
5633 Clear 31 1013 23 10000 2.6 250 17:57 28.12.2019
5634 Clear 30 1013 23 10000 2.6 250 17:38 28.12.2019
5635 Clear 30 1013 23 10000 2.6 250 17:19 28.12.2019
5636 Clear 28 1014 24 10000 1.5 210 16:47 28.12.2019
5637 Clear 28 1014 24 10000 1.5 210 16:26 28.12.2019
5638 Clear 25 1014 27 10000 3.32 261 15:57 28.12.2019
5639 Clear 25 1014 27 10000 3.32 261 15:39 28.12.2019
5640 Clear 25 1014 27 10000 3.32 261 15:20 28.12.2019
5641 Clear 24 1015 31 10000 3.32 261 14:45 28.12.2019
5642 Clear 24 1015 31 10000 3.32 261 14:24 28.12.2019
5643 Clear 22 1015 35 10000 1.79 279 13:58 28.12.2019
5644 Clear 22 1015 35 10000 1.79 279 13:39 28.12.2019
5645 Clear 22 1015 35 10000 1.94 281 13:19 28.12.2019
5646 Clear 20 1013 48 8000 1.94 281 12:44 28.12.2019
5647 Clear 22 1013 48 8000 1.94 281 12:25 28.12.2019
5648 Clear 21 1013 54 10000 2.1 350 11:59 28.12.2019
5649 Clear 21 1013 54 10000 2.1 350 11:39 28.12.2019
5650 Clear 14 1013 54 10000 2.1 350 11:20 28.12.2019
5651 Clear 16 1012 48 10000 1 0 10:46 28.12.2019
5652 Clear 16 1012 48 10000 1 0 10:23 28.12.2019
5653 Clear 17 1012 45 10000 1 0 09:59 28.12.2019
5654 Clear 17 1012 45 10000 1 0 09:41 28.12.2019
5655 Clear 17 1012 45 10000 1 0 09:23 28.12.2019
5656 Clear 17 1012 42 10000 1 0 08:45 28.12.2019
5657 Clear 17 1012 42 10000 1 0 08:27 28.12.2019
5658 Clear 18 1013 36 10000 0.8 259 07:59 28.12.2019
5659 Clear 18 1013 36 10000 0.8 259 07:39 28.12.2019
5660 Clear 20 1013 34 10000 2.1 160 06:55 28.12.2019
5661 Clear 21 1014 30 10000 1.5 150 05:40 28.12.2019
5662 Clear 23 1014 27 10000 3.6 160 03:48 28.12.2019
5663 Clear 24 1014 25 10000 4.6 180 02:50 28.12.2019
5664 Clear 24 1014 25 10000 4.6 180 02:19 28.12.2019
5665 Clear 25 1016 31 10000 1.5 250 01:50 28.12.2019
5666 Clear 25 1016 31 10000 1.5 250 01:21 28.12.2019
5667 Clear 27 1015 24 10000 2.6 230 00:42 28.12.2019
5668 Clear 27 1015 24 10000 2.6 230 00:23 28.12.2019
5669 Clear 28 1015 18 10000 4.1 250 23:45 27.12.2019
5670 Clear 29 1015 18 10000 4.1 250 23:21 27.12.2019
5671 Clear 30 1015 18 10000 5.1 240 22:58 27.12.2019
5672 Clear 30 1015 18 10000 5.1 240 22:39 27.12.2019
5673 Clear 31 1015 18 10000 5.1 240 22:21 27.12.2019
5674 Clear 32 1015 19 10000 4.1 240 21:59 27.12.2019
5675 Clear 32 1015 19 10000 4.1 240 21:40 27.12.2019
5676 Clear 32 1015 19 10000 4.1 240 21:22 27.12.2019
5677 Clear 32 1015 19 10000 4.1 230 20:42 27.12.2019
5678 Clear 32 1015 19 10000 4.1 230 20:24 27.12.2019
5679 Clear 32 1015 20 10000 4.1 240 19:55 27.12.2019
5680 Clear 32 1015 20 10000 4.1 240 19:36 27.12.2019
5681 Clear 32 1015 20 10000 4.1 240 19:18 27.12.2019
5682 Clear 32 1015 20 10000 3.6 230 18:42 27.12.2019
5683 Clear 32 1015 20 10000 3.6 230 18:24 27.12.2019
5684 Clear 32 1016 22 10000 1.5 210 18:00 27.12.2019
5685 Clear 31 1016 22 10000 1.5 210 17:41 27.12.2019
5686 Clear 31 1016 22 10000 1.5 210 17:20 27.12.2019
5687 Clear 29 1016 24 10000 1 330 16:59 27.12.2019
5688 Clear 29 1016 24 10000 1 330 16:59 27.12.2019
5689 Clear 30 1016 24 10000 1 330 16:41 27.12.2019
5690 Clear 28 1016 24 10000 1 330 16:22 27.12.2019
5691 Clear 28 1016 26 10000 1 280 15:56 27.12.2019
5692 Clear 28 1016 26 10000 1 280 15:37 27.12.2019
5693 Clear 27 1016 26 10000 1 280 15:18 27.12.2019
5694 Clear 26 1016 29 10000 1 240 14:55 27.12.2019
5695 Clear 26 1016 29 10000 1 240 14:36 27.12.2019
5696 Clear 25 1016 29 10000 1 240 14:18 27.12.2019
5697 Clear 23 1015 34 10000 1.97 262 13:43 27.12.2019
5698 Clear 21 1015 34 10000 1.8 275 13:22 27.12.2019
5699 Clear 20 1015 55 10000 1.8 275 12:48 27.12.2019
5700 Clear 21 1015 55 10000 1.8 275 12:29 27.12.2019
5701 Clear 23 1013 45 10000 2.1 170 11:59 27.12.2019
5702 Clear 23 1013 45 10000 2.1 170 11:41 27.12.2019
5703 Clear 17 1013 45 10000 2.1 170 11:20 27.12.2019
5704 Clear 17 1013 45 10000 2.1 170 11:20 27.12.2019
5705 Clear 17 1013 45 10000 2.1 170 11:20 27.12.2019
5706 Clear 17 1012 44 10000 1 190 10:46 27.12.2019
5707 Clear 17 1012 44 10000 1 190 10:24 27.12.2019
5708 Clear 16 1011 44 10000 0.45 346 09:57 27.12.2019
5709 Clear 16 1011 44 10000 0.45 346 09:37 27.12.2019
5710 Clear 16 1011 44 10000 0.45 346 09:19 27.12.2019
5711 Clear 17 1011 42 10000 0.45 346 08:46 27.12.2019
5712 Clear 17 1011 42 10000 0.45 346 08:27 27.12.2019
5713 Clear 18 1011 39 10000 0.5 0 07:41 27.12.2019
5714 Clear 18 1011 39 10000 0.5 0 07:22 27.12.2019
5715 Clear 20 1011 34 10000 2.6 160 06:27 27.12.2019
5716 Clear 21 1012 30 10000 4.1 150 04:40 27.12.2019
5717 Clear 25 1012 27 10000 6.2 190 02:29 27.12.2019
5718 Clear 25 1012 29 10000 2.1 250 01:48 27.12.2019
5719 Clear 25 1012 29 10000 2.1 250 01:23 27.12.2019
5720 Clear 27 1012 24 10000 3.1 260 00:51 27.12.2019
5721 Clear 27 1012 24 10000 3.1 260 00:33 27.12.2019
5722 Clear 29 1012 23 10000 4.1 260 23:56 26.12.2019
5723 Clear 29 1012 23 10000 4.1 260 23:38 26.12.2019
5724 Clear 29 1012 23 10000 4.1 260 23:20 26.12.2019
5725 Clear 31 1012 20 10000 3.6 250 22:41 26.12.2019
5726 Clear 30 1012 20 10000 3.6 250 22:19 26.12.2019
5727 Clear 31 1013 20 10000 3.6 230 21:40 26.12.2019
5728 Clear 31 1013 20 10000 3.6 230 21:22 26.12.2019
5729 Clear 31 1013 22 10000 3.1 230 20:59 26.12.2019
5730 Clear 31 1013 22 10000 3.1 230 20:41 26.12.2019
5731 Clear 31 1013 22 10000 3.1 230 20:22 26.12.2019
5732 Clear 31 1013 22 10000 4.1 220 19:57 26.12.2019
5733 Clear 31 1013 22 10000 4.1 220 19:38 26.12.2019
5734 Clear 31 1013 22 10000 4.1 220 19:20 26.12.2019
5735 Clear 31 1014 22 10000 4.1 230 18:57 26.12.2019
5736 Clear 31 1014 22 10000 4.1 230 18:37 26.12.2019
5737 Clear 30 1014 22 10000 4.1 230 18:18 26.12.2019
5738 Clear 29 1014 26 10000 1.5 180 17:42 26.12.2019
5739 Clear 28 1014 26 10000 1.5 180 17:22 26.12.2019
5740 Clear 27 1014 31 10000 1.5 230 16:51 26.12.2019
5741 Clear 27 1014 31 10000 1.5 230 16:29 26.12.2019
5742 Clear 25 1014 33 10000 1 210 15:59 26.12.2019
5743 Clear 25 1014 33 10000 1 210 15:40 26.12.2019
5744 Clear 25 1014 33 10000 1 210 15:19 26.12.2019
5745 Clear 23 1014 37 10000 1 180 14:43 26.12.2019
5746 Clear 23 1014 37 10000 1 180 14:24 26.12.2019
5747 Clear 23 1014 37 10000 1 180 14:24 26.12.2019
5748 Clear 23 1014 37 10000 1 180 14:24 26.12.2019
5749 Clear 23 1014 37 10000 1 180 14:24 26.12.2019
5750 Clear 23 1014 37 10000 1 180 14:24 26.12.2019
5751 Clear 19 1014 45 10000 2.26 256 13:58 26.12.2019
5752 Clear 20 1014 45 10000 2.26 256 13:40 26.12.2019
5753 Clear 19 1014 45 10000 2.16 260 13:19 26.12.2019
5754 Clear 17 1013 62 10000 1 50 12:56 26.12.2019
5755 Clear 19 1013 62 10000 1 50 12:37 26.12.2019
5756 Clear 18 1013 62 10000 1 50 12:18 26.12.2019
5757 Clear 22 1012 51 10000 1.5 180 11:42 26.12.2019
5758 Clear 15 1012 51 10000 1.5 180 11:23 26.12.2019
5759 Clear 15 1011 54 10000 1 240 10:57 26.12.2019
5760 Clear 15 1011 54 10000 1 240 10:39 26.12.2019
5761 Clear 15 1011 54 10000 1 240 10:18 26.12.2019
5762 Clear 16 1011 51 10000 1 0 09:42 26.12.2019
5763 Clear 16 1011 51 10000 1 0 09:24 26.12.2019
5764 Clear 17 1012 45 10000 1.5 160 08:40 26.12.2019
5765 Clear 17 1012 45 10000 1.5 160 08:40 26.12.2019
5766 Clouds 17 1012 45 10000 1.5 160 08:22 26.12.2019
5767 Clouds 18 1012 42 10000 3.6 150 07:50 26.12.2019
5768 Clouds 18 1012 42 10000 3.6 150 07:26 26.12.2019
5769 Clouds 18 1012 45 10000 3.6 150 06:44 26.12.2019
5770 Clouds 18 1012 45 10000 3.6 150 06:25 26.12.2019
5771 Clouds 19 1012 42 10000 3.6 160 05:43 26.12.2019
5772 Clouds 19 1012 42 10000 3.6 160 05:43 26.12.2019
5773 Clouds 20 1012 40 10000 4.1 150 04:38 26.12.2019
5774 Clouds 20 1012 40 10000 4.6 150 03:46 26.12.2019
5775 Clouds 21 1011 40 10000 7.2 200 02:50 26.12.2019
5776 Clouds 22 1011 40 10000 7.2 200 02:31 26.12.2019
5777 Clouds 22 1011 40 10000 7.2 200 02:31 26.12.2019
5778 Clouds 23 1012 33 10000 2.1 250 01:45 26.12.2019
5779 Clouds 23 1012 33 10000 2.1 250 01:26 26.12.2019
5780 Clouds 24 1012 31 10000 3.6 250 00:48 26.12.2019
5781 Clouds 24 1012 31 10000 3.6 250 00:24 26.12.2019
5782 Clouds 24 1012 31 10000 3.6 250 00:24 26.12.2019
5783 Clouds 27 1011 28 10000 3.6 250 23:58 25.12.2019
5784 Clouds 27 1011 28 10000 3.6 250 23:38 25.12.2019
5785 Clouds 28 1011 28 10000 3.6 250 23:20 25.12.2019
5786 Clouds 28 1011 27 10000 3.6 220 22:57 25.12.2019
5787 Clouds 28 1011 27 10000 3.6 220 22:38 25.12.2019
5788 Clouds 29 1011 27 10000 3.6 220 22:19 25.12.2019
5789 Clouds 29 1011 27 10000 3.1 190 21:57 25.12.2019
5790 Clouds 29 1011 27 10000 3.1 190 21:39 25.12.2019
5791 Clouds 30 1011 27 10000 3.1 190 21:19 25.12.2019
5792 Clouds 30 1011 28 10000 3.1 210 20:41 25.12.2019
5793 Clouds 30 1011 28 10000 3.1 210 20:41 25.12.2019
5794 Clouds 29 1011 28 10000 3.1 210 20:21 25.12.2019
5795 Clouds 29 1012 28 10000 2.1 210 19:59 25.12.2019
5796 Clouds 29 1012 28 10000 2.1 210 19:41 25.12.2019
5797 Clouds 29 1012 28 10000 2.1 210 19:22 25.12.2019
5798 Clouds 28 1013 34 10000 2.1 210 18:54 25.12.2019
5799 Clouds 28 1013 34 10000 2.1 210 18:36 25.12.2019
5800 Clouds 28 1013 34 10000 2.1 210 18:18 25.12.2019
5801 Clouds 26 1014 41 10000 2.6 240 17:40 25.12.2019
5802 Clear 26 1014 41 10000 2.6 240 17:18 25.12.2019
5803 Clear 25 1014 46 10000 2.6 190 16:55 25.12.2019
5804 Clear 25 1014 46 10000 2.6 190 16:37 25.12.2019
5805 Clear 25 1014 46 10000 2.6 190 16:18 25.12.2019
5806 Clear 24 1014 52 10000 0.5 240 15:56 25.12.2019
5807 Clear 24 1014 52 10000 0.5 240 15:37 25.12.2019
5808 Clear 23 1014 52 10000 0.5 240 15:18 25.12.2019
5809 Clear 20 1014 56 10000 1 210 14:55 25.12.2019
5810 Clear 22 1014 56 10000 1 210 14:37 25.12.2019
5811 Clear 21 1014 56 10000 1 210 14:18 25.12.2019
5812 Clear 19 1014 67 10000 2.52 252 13:42 25.12.2019
5813 Clear 18 1014 67 10000 2.18 264 13:21 25.12.2019
5814 Clear 18 1014 72 10000 0.5 190 12:44 25.12.2019
5815 Clear 18 1014 72 10000 0.5 190 12:23 25.12.2019
5816 Clear 22 1012 72 10000 3.1 140 11:58 25.12.2019
5817 Clear 21 1012 72 10000 3.1 140 11:40 25.12.2019
5818 Clear 16 1012 72 10000 3.1 140 11:21 25.12.2019
5819 Clear 16 1012 72 10000 5.1 180 10:41 25.12.2019
5820 Clear 16 1012 72 10000 5.1 180 10:21 25.12.2019
5821 Clear 16 1011 67 10000 3.6 140 09:59 25.12.2019
5822 Clear 16 1011 67 10000 3.6 140 09:41 25.12.2019
5823 Clear 16 1011 67 10000 3.6 140 09:23 25.12.2019
5824 Clear 17 1011 63 10000 2.1 150 08:44 25.12.2019
5825 Clear 17 1011 63 10000 2.1 150 08:24 25.12.2019
5826 Clear 17 1011 63 10000 2.1 150 08:24 25.12.2019
5827 Clear 18 1011 59 10000 3.1 160 07:44 25.12.2019
5828 Clear 18 1011 59 10000 3.1 160 07:23 25.12.2019
5829 Clear 18 1012 59 10000 5.7 170 06:24 25.12.2019
5830 Clear 20 1012 52 10000 3.6 200 05:51 25.12.2019
5831 Clear 20 1012 52 10000 3.6 180 04:46 25.12.2019
5832 Clear 20 1012 52 10000 3.6 180 04:24 25.12.2019
5833 Clear 21 1012 49 10000 4.1 190 03:46 25.12.2019
5834 Clear 21 1012 49 10000 4.1 190 03:18 25.12.2019
5835 Clear 22 1013 49 10000 6.2 190 02:30 25.12.2019
5836 Clouds 22 1014 49 10000 4.6 220 01:54 25.12.2019
5837 Clouds 22 1014 49 10000 4.6 220 01:24 25.12.2019
5838 Clouds 23 1014 44 10000 4.1 210 00:45 25.12.2019
5839 Clouds 24 1014 44 10000 4.1 210 00:26 25.12.2019
5840 Clear 25 1013 31 10000 4.6 250 23:40 24.12.2019
5841 Clear 26 1013 31 10000 4.6 250 23:21 24.12.2019
5842 Clear 27 1013 36 10000 5.7 250 22:58 24.12.2019
5843 Clear 28 1013 36 10000 5.7 250 22:37 24.12.2019
5844 Clear 28 1013 36 10000 5.7 250 22:19 24.12.2019
5845 Clear 29 1013 25 10000 4.1 230 21:41 24.12.2019
5846 Clear 30 1013 25 10000 4.1 230 21:22 24.12.2019
5847 Clear 30 1013 25 10000 4.1 0 20:43 24.12.2019
5848 Clear 30 1013 25 10000 4.1 0 20:24 24.12.2019
5849 Clear 31 1013 27 10000 4.1 230 19:57 24.12.2019
5850 Clear 30 1013 27 10000 4.1 230 19:37 24.12.2019
5851 Clear 31 1013 27 10000 4.1 230 19:18 24.12.2019
5852 Clear 30 1014 30 10000 3.1 230 18:42 24.12.2019
5853 Clear 30 1014 30 10000 3.1 230 18:19 24.12.2019
5854 Clear 29 1014 34 10000 2.1 0 17:45 24.12.2019
5855 Clear 29 1014 34 10000 2.1 0 17:24 24.12.2019
5856 Clear 27 1015 34 10000 1 270 16:59 24.12.2019
5857 Clear 27 1015 34 10000 1 270 16:40 24.12.2019
5858 Clear 27 1015 34 10000 1 270 16:22 24.12.2019
5859 Clear 26 1015 38 10000 1.5 0 15:58 24.12.2019
5860 Clear 26 1015 38 10000 1.5 0 15:58 24.12.2019
5861 Clear 26 1015 38 10000 1.5 0 15:38 24.12.2019
5862 Clear 26 1015 38 10000 1.5 0 15:20 24.12.2019
5863 Clear 24 1015 40 10000 1 270 14:59 24.12.2019
5864 Clear 24 1015 40 10000 1 270 14:59 24.12.2019
5865 Clear 24 1015 40 10000 1 270 14:41 24.12.2019
5866 Clear 23 1015 40 10000 1 270 14:22 24.12.2019
5867 Clear 21 1014 49 10000 2.27 267 13:57 24.12.2019
5868 Clear 23 1014 49 10000 2.27 267 13:39 24.12.2019
5869 Clear 21 1014 49 10000 2.27 267 13:20 24.12.2019
5870 Clear 20 1014 67 10000 2.27 264 12:58 24.12.2019
5871 Clear 20 1014 67 10000 2.27 264 12:38 24.12.2019
5872 Clear 20 1014 67 10000 2.27 264 12:19 24.12.2019
5873 Clear 20 1014 67 10000 2.27 264 12:19 24.12.2019
5874 Clear 23 1013 63 10000 3.1 150 11:58 24.12.2019
5875 Clear 23 1013 63 10000 3.1 150 11:38 24.12.2019
5876 Clear 23 1013 63 10000 3.1 150 11:38 24.12.2019
5877 Clear 23 1013 63 10000 3.1 150 11:38 24.12.2019
5878 Clear 17 1013 63 10000 3.1 150 11:20 24.12.2019
5879 Clear 17 1012 59 10000 3.1 180 10:57 24.12.2019
5880 Clear 17 1012 59 10000 3.1 180 10:38 24.12.2019
5881 Clear 17 1012 59 10000 3.1 180 10:20 24.12.2019
5882 Clear 18 1012 55 10000 1.5 230 09:59 24.12.2019
5883 Clear 18 1012 55 10000 1.5 230 09:41 24.12.2019
5884 Clear 18 1012 55 10000 1.5 230 09:22 24.12.2019
5885 Clear 19 1012 52 10000 3.6 160 08:56 24.12.2019
5886 Clear 19 1012 52 10000 3.6 160 08:37 24.12.2019
5887 Clear 19 1012 52 10000 3.6 160 08:18 24.12.2019
5888 Clear 20 1012 52 10000 4.1 160 07:43 24.12.2019
5889 Clear 20 1012 52 10000 4.1 160 07:21 24.12.2019
5890 Clear 21 1012 46 10000 5.1 150 06:41 24.12.2019
5891 Clear 21 1012 46 10000 5.1 150 06:22 24.12.2019
5892 Clear 22 1013 43 10000 6.2 140 05:55 24.12.2019
5893 Clear 22 1013 43 10000 6.2 140 05:19 24.12.2019
5894 Clear 24 1013 36 10000 3.6 130 04:21 24.12.2019
5895 Clear 26 1012 29 10000 4.6 140 03:48 24.12.2019
5896 Clear 28 1012 23 10000 5.1 170 02:37 24.12.2019
5897 Clear 29 1012 23 10000 5.1 170 02:18 24.12.2019
5898 Clear 29 1014 23 10000 2.1 240 01:42 24.12.2019
5899 Clear 29 1014 23 10000 2.1 240 01:19 24.12.2019
5900 Clear 31 1013 21 10000 2.6 230 00:40 24.12.2019
5901 Clear 31 1013 21 10000 2.6 230 00:20 24.12.2019
5902 Clear 32 1012 16 10000 4.6 250 23:43 23.12.2019
5903 Clear 33 1012 16 10000 4.6 250 23:24 23.12.2019
5904 Clear 34 1012 16 10000 4.6 250 22:58 23.12.2019
5905 Clear 34 1012 16 10000 4.6 250 22:38 23.12.2019
5906 Clear 34 1012 16 10000 4.6 250 22:20 23.12.2019
5907 Clear 34 1012 13 10000 4.1 210 21:57 23.12.2019
5908 Clear 34 1012 13 10000 4.1 210 21:37 23.12.2019
5909 Clear 34 1012 13 10000 4.1 210 21:19 23.12.2019
5910 Clear 34 1012 12 10000 3.6 240 20:59 23.12.2019
5911 Clear 34 1012 12 10000 3.6 240 20:41 23.12.2019
5912 Clear 36 1012 12 10000 3.6 240 20:19 23.12.2019
5913 Clear 35 1013 14 10000 3.6 250 19:59 23.12.2019
5914 Clear 36 1013 14 10000 3.6 250 19:41 23.12.2019
5915 Clear 35 1013 14 10000 3.6 250 19:22 23.12.2019
5916 Clear 34 1013 14 10000 3.1 190 18:59 23.12.2019
5917 Clear 34 1013 14 10000 3.1 190 18:39 23.12.2019
5918 Clear 34 1013 14 10000 3.1 190 18:21 23.12.2019
5919 Clear 34 1013 18 10000 2.1 240 17:59 23.12.2019
5920 Clear 34 1013 18 10000 2.1 240 17:41 23.12.2019
5921 Clear 33 1013 18 10000 2.1 240 17:20 23.12.2019
5922 Clear 31 1013 22 10000 1.5 270 16:59 23.12.2019
5923 Clear 31 1013 22 10000 1.5 270 16:40 23.12.2019
5924 Clear 30 1013 22 10000 1.5 270 16:19 23.12.2019
5925 Clear 29 1013 23 10000 1 250 15:58 23.12.2019
5926 Clear 30 1013 23 10000 1 250 15:37 23.12.2019
5927 Clear 29 1013 23 10000 1 250 15:19 23.12.2019
5928 Clear 27 1013 29 10000 3.43 262 14:57 23.12.2019
5929 Clear 27 1013 29 10000 3.43 262 14:39 23.12.2019
5930 Clear 25 1013 29 10000 1.77 275 14:19 23.12.2019
5931 Clear 23 1013 37 10000 1.77 275 13:57 23.12.2019
5932 Clear 22 1013 37 10000 1.77 275 13:39 23.12.2019
5933 Clear 22 1013 37 10000 1.79 269 13:21 23.12.2019
5934 Clear 19 1013 48 10000 1.79 269 12:55 23.12.2019
5935 Clear 21 1013 48 10000 1.79 269 12:37 23.12.2019
5936 Clear 21 1013 48 10000 1.79 269 12:37 23.12.2019
5937 Clear 21 1013 48 10000 1.79 269 12:18 23.12.2019
5938 Clear 23 1012 51 10000 1.5 40 11:43 23.12.2019
5939 Clear 22 1012 51 10000 1.5 40 11:25 23.12.2019
5940 Clear 19 1012 45 10000 1.5 320 10:56 23.12.2019
5941 Clear 19 1012 45 10000 1.5 320 10:38 23.12.2019
5942 Clear 19 1012 45 10000 1.5 320 10:20 23.12.2019
5943 Clear 19 1012 48 10000 1.5 40 09:58 23.12.2019
5944 Clear 19 1012 48 10000 1.5 40 09:39 23.12.2019
5945 Clear 19 1012 48 10000 1.5 40 09:20 23.12.2019
5946 Clear 18 1012 48 10000 1.5 10 08:55 23.12.2019
5947 Clear 18 1012 48 10000 1.5 10 08:37 23.12.2019
5948 Clear 18 1012 48 10000 1.5 10 08:18 23.12.2019
5949 Clear 20 1012 45 10000 1.5 340 07:43 23.12.2019
5950 Clear 20 1012 45 10000 1.5 340 07:19 23.12.2019
5951 Clear 21 1013 43 10000 1.5 240 06:45 23.12.2019
5952 Clear 21 1013 43 10000 1.5 240 06:23 23.12.2019
5953 Clear 23 1013 38 10000 3.1 150 05:47 23.12.2019
5954 Clear 23 1013 38 10000 3.1 150 05:18 23.12.2019
5955 Clear 24 1013 36 10000 4.1 160 04:19 23.12.2019
5956 Clear 27 1012 26 10000 5.7 200 02:49 23.12.2019
5957 Clear 28 1012 26 10000 5.7 200 02:23 23.12.2019
5958 Clear 29 1014 23 10000 1.5 240 01:51 23.12.2019
5959 Clear 29 1014 23 10000 1.5 240 01:32 23.12.2019
5960 Clear 30 1013 18 10000 3.6 240 00:54 23.12.2019
5961 Clear 30 1013 18 10000 3.6 240 00:35 23.12.2019
5962 Clear 30 1013 17 10000 4.1 230 23:57 22.12.2019
5963 Clear 30 1013 17 10000 4.1 230 23:39 22.12.2019
5964 Clouds 32 1013 17 10000 4.1 230 23:20 22.12.2019
5965 Clouds 33 1012 16 10000 5.1 250 22:57 22.12.2019
5966 Clouds 33 1012 16 10000 5.1 250 22:38 22.12.2019
5967 Clouds 33 1012 16 10000 5.1 250 22:19 22.12.2019
5968 Clouds 33 1012 14 10000 3.6 180 21:56 22.12.2019
5969 Clouds 33 1012 14 10000 3.6 180 21:38 22.12.2019
5970 Clouds 33 1012 14 10000 3.6 180 21:38 22.12.2019
5971 Clouds 33 1012 14 10000 3.6 180 21:20 22.12.2019
5972 Clouds 34 1013 15 10000 2.6 210 20:55 22.12.2019
5973 Clouds 34 1013 15 10000 2.6 210 20:37 22.12.2019
5974 Clouds 34 1013 15 10000 2.6 210 20:37 22.12.2019
5975 Clouds 34 1013 15 10000 2.6 210 20:18 22.12.2019
5976 Clouds 33 1013 15 10000 1.5 90 19:40 22.12.2019
5977 Clouds 33 1013 15 10000 1.5 90 19:21 22.12.2019
5978 Clouds 32 1013 19 10000 2.1 260 18:58 22.12.2019
5979 Clouds 32 1013 19 10000 2.1 260 18:38 22.12.2019
5980 Clouds 32 1013 19 10000 2.1 260 18:19 22.12.2019
5981 Clouds 31 1013 21 10000 1.5 330 17:55 22.12.2019
5982 Clouds 30 1013 21 10000 1.5 330 17:37 22.12.2019
5983 Clouds 30 1013 21 10000 1.5 330 17:18 22.12.2019
5984 Clouds 28 1014 26 10000 1.5 300 16:43 22.12.2019
5985 Clouds 28 1014 26 10000 1.5 300 16:43 22.12.2019
5986 Clouds 28 1014 26 10000 1.5 300 16:23 22.12.2019
5987 Clouds 27 1014 22 10000 3.58 261 15:59 22.12.2019
5988 Clouds 27 1014 22 10000 3.58 261 15:39 22.12.2019
5989 Clouds 27 1014 22 10000 3.58 261 15:21 22.12.2019
5990 Clouds 27 1014 22 10000 3.58 261 15:21 22.12.2019
5991 Clouds 25 1014 27 10000 1 30 14:59 22.12.2019
5992 Clouds 25 1014 27 10000 1 30 14:39 22.12.2019
5993 Clear 24 1014 27 10000 1 30 14:19 22.12.2019
5994 Clear 23 1015 39 10000 1.65 269 13:56 22.12.2019
5995 Clear 23 1015 39 10000 1.65 269 13:38 22.12.2019
5996 Clear 20 1015 39 10000 1.65 270 13:19 22.12.2019
5997 Clear 19 1015 58 10000 1.65 270 12:57 22.12.2019
5998 Clear 18 1015 58 10000 1.65 270 12:39 22.12.2019
5999 Clear 18 1015 58 10000 1.65 270 12:19 22.12.2019
6000 Clear 18 1015 58 10000 1.65 270 12:19 22.12.2019
6001 Clear 18 1015 58 10000 1.65 270 12:19 22.12.2019
6002 Clear 22 1013 47 10000 1.5 0 11:59 22.12.2019
6003 Clear 22 1013 47 10000 1.5 0 11:39 22.12.2019
6004 Clear 15 1013 47 10000 1.5 0 11:20 22.12.2019
6005 Clear 16 1013 47 10000 1 0 10:57 22.12.2019
6006 Clear 16 1013 47 10000 1 0 10:39 22.12.2019
6007 Clear 15 1013 47 10000 1 0 10:19 22.12.2019
6008 Clear 16 1013 48 10000 0.5 0 09:58 22.12.2019
6009 Clear 16 1013 48 10000 0.5 0 09:39 22.12.2019
6010 Clear 16 1013 48 10000 0.5 0 09:21 22.12.2019
6011 Clear 18 1013 45 10000 1.5 160 08:45 22.12.2019
6012 Clear 18 1013 45 10000 1.5 160 08:23 22.12.2019
6013 Clear 18 1013 42 10000 2.1 120 07:50 22.12.2019
6014 Clear 18 1013 42 10000 2.1 120 07:22 22.12.2019
6015 Clear 19 1013 37 10000 3.6 170 06:56 22.12.2019
6016 Clear 19 1013 37 10000 3.6 170 06:27 22.12.2019
6017 Clear 21 1013 28 10000 2.6 150 05:43 22.12.2019
6018 Clear 21 1013 28 10000 2.6 150 05:21 22.12.2019
6019 Clear 22 1013 26 10000 3.1 150 04:27 22.12.2019
6020 Clear 24 1013 23 10000 3.1 130 03:24 22.12.2019
6021 Clear 24 1012 19 10000 6.2 180 02:34 22.12.2019
6022 Clouds 26 1014 21 10000 2.1 230 01:33 22.12.2019
6023 Clouds 27 1013 17 10000 4.1 240 00:58 22.12.2019
6024 Clouds 27 1013 17 10000 4.1 240 00:39 22.12.2019
6025 Clouds 27 1013 17 10000 4.1 240 00:20 22.12.2019
6026 Clouds 28 1012 21 10000 4.6 240 23:42 21.12.2019
6027 Clouds 29 1012 21 10000 4.6 240 23:24 21.12.2019
6028 Clouds 30 1012 11 10000 3.6 240 22:57 21.12.2019
6029 Clouds 30 1012 11 10000 3.6 240 22:39 21.12.2019
6030 Clouds 30 1012 11 10000 3.6 240 22:18 21.12.2019
6031 Clouds 32 1012 14 10000 3.6 250 21:56 21.12.2019
6032 Clouds 32 1012 14 10000 3.6 250 21:37 21.12.2019
6033 Clouds 32 1012 14 10000 3.6 250 21:18 21.12.2019
6034 Clouds 32 1012 17 10000 3.6 210 20:57 21.12.2019
6035 Clouds 32 1012 17 10000 3.6 210 20:57 21.12.2019
6036 Clouds 32 1012 17 10000 3.6 210 20:37 21.12.2019
6037 Clouds 32 1012 17 10000 3.6 210 20:37 21.12.2019
6038 Clouds 32 1012 17 10000 3.6 210 20:19 21.12.2019
6039 Clouds 31 1013 20 10000 4.1 210 19:56 21.12.2019
6040 Clouds 31 1013 20 10000 4.1 210 19:36 21.12.2019
6041 Clouds 31 1013 20 10000 4.1 210 19:18 21.12.2019
6042 Clouds 31 1013 22 10000 2.6 230 18:42 21.12.2019
6043 Clouds 31 1013 22 10000 2.6 230 18:42 21.12.2019
6044 Clouds 31 1013 22 10000 2.6 230 18:23 21.12.2019
6045 Clouds 29 1013 24 10000 3.1 240 17:57 21.12.2019
6046 Clouds 29 1013 24 10000 3.1 240 17:39 21.12.2019
6047 Clouds 28 1013 24 10000 3.1 240 17:20 21.12.2019
6048 Clouds 27 1013 27 10000 2.6 240 16:57 21.12.2019
6049 Clouds 27 1013 27 10000 2.6 240 16:39 21.12.2019
6050 Clouds 27 1013 27 10000 2.6 240 16:18 21.12.2019
6051 Clouds 26 1014 29 10000 2.1 250 15:56 21.12.2019
6052 Clouds 26 1014 29 10000 2.1 250 15:37 21.12.2019
6053 Clouds 26 1014 29 10000 2.1 250 15:18 21.12.2019
6054 Clouds 24 1014 35 10000 1 210 14:43 21.12.2019
6055 Clouds 24 1014 35 10000 1 210 14:24 21.12.2019
6056 Clouds 23 1014 40 10000 2.01 266 13:58 21.12.2019
6057 Clouds 23 1014 40 10000 2.01 266 13:40 21.12.2019
6058 Clouds 22 1014 40 10000 1.96 269 13:20 21.12.2019
6059 Clouds 22 1014 40 10000 1.96 269 13:20 21.12.2019
6060 Clouds 21 1014 52 10000 1.96 269 12:57 21.12.2019
6061 Clouds 20 1014 52 10000 1.96 269 12:39 21.12.2019
6062 Clouds 21 1014 52 10000 1.96 269 12:20 21.12.2019
6063 Clouds 22 1012 48 10000 1.96 269 11:57 21.12.2019
6064 Clouds 22 1012 48 10000 1.96 269 11:39 21.12.2019
6065 Clouds 17 1012 48 10000 1.05 268 11:20 21.12.2019
6066 Clouds 19 1012 42 10000 2.6 350 10:41 21.12.2019
6067 Clouds 19 1012 42 10000 2.6 350 10:23 21.12.2019
6068 Clouds 19 1012 39 10000 20.6 40 09:58 21.12.2019
6069 Clouds 19 1012 39 10000 20.6 40 09:40 21.12.2019
6070 Clouds 19 1012 39 10000 20.6 40 09:20 21.12.2019
6071 Clouds 19 1012 42 10000 1 0 08:52 21.12.2019
6072 Clouds 19 1012 42 10000 1 0 08:27 21.12.2019
6073 Clouds 19 1013 39 10000 2.1 150 07:58 21.12.2019
6074 Clouds 19 1013 39 10000 2.1 150 07:40 21.12.2019
6075 Clouds 19 1013 39 10000 2.1 150 07:21 21.12.2019
6076 Clouds 20 1013 40 10000 2.1 150 06:41 21.12.2019
6077 Clouds 20 1013 40 10000 2.1 150 06:23 21.12.2019
6078 Clouds 20 1014 37 10000 1.5 160 05:37 21.12.2019
6079 Clouds 21 1014 35 10000 4.1 160 04:55 21.12.2019
6080 Clouds 23 1014 31 10000 4.1 150 03:56 21.12.2019
6081 Clouds 24 1014 29 10000 5.1 190 02:26 21.12.2019
6082 Clear 23 1013 29 10000 8.2 220 01:53 21.12.2019
6083 Clear 25 1013 29 10000 8.2 220 01:26 21.12.2019
6084 Clear 27 1014 24 10000 4.1 240 00:49 21.12.2019
6085 Clear 27 1014 24 10000 4.1 240 00:28 21.12.2019
6086 Clear 29 1014 20 10000 3.6 240 23:40 20.12.2019
6087 Clear 29 1014 20 10000 3.6 240 23:21 20.12.2019
6088 Clear 29 1013 17 10000 3.1 210 22:59 20.12.2019
6089 Clear 30 1013 17 10000 3.1 210 22:39 20.12.2019
6090 Clear 30 1013 17 10000 3.1 210 22:19 20.12.2019
6091 Clear 30 1015 15 10000 3.6 200 21:56 20.12.2019
6092 Clear 30 1015 15 10000 3.6 200 21:38 20.12.2019
6093 Clear 30 1015 15 10000 3.6 200 21:18 20.12.2019
6094 Clear 29 1015 18 10000 3.6 210 20:39 20.12.2019
6095 Clear 29 1015 18 10000 3.6 210 20:19 20.12.2019
6096 Clear 29 1015 21 10000 3.6 240 19:57 20.12.2019
6097 Clear 28 1015 21 10000 3.6 240 19:38 20.12.2019
6098 Clear 29 1015 21 10000 3.6 240 19:19 20.12.2019
6099 Clear 28 1016 28 10000 2.1 260 18:42 20.12.2019
6100 Clear 28 1016 28 10000 2.1 260 18:23 20.12.2019
6101 Clear 27 1017 34 10000 2.6 240 17:58 20.12.2019
6102 Clear 27 1017 34 10000 2.6 240 17:40 20.12.2019
6103 Clear 26 1017 34 10000 2.6 240 17:20 20.12.2019
6104 Clear 25 1017 38 10000 1.5 210 16:57 20.12.2019
6105 Clear 25 1017 38 10000 1.5 210 16:38 20.12.2019
6106 Clear 25 1017 38 10000 1.5 210 16:19 20.12.2019
6107 Clear 24 1017 43 10000 2.1 330 15:55 20.12.2019
6108 Clear 24 1017 43 10000 2.1 330 15:37 20.12.2019
6109 Clear 24 1017 43 10000 2.1 330 15:19 20.12.2019
6110 Clear 21 1018 55 10000 1 260 14:43 20.12.2019
6111 Clear 22 1018 55 10000 1 260 14:24 20.12.2019
6112 Clear 21 1018 55 10000 1.5 150 13:57 20.12.2019
6113 Clear 21 1018 55 10000 1.5 150 13:38 20.12.2019
6114 Clear 19 1018 55 10000 1.5 150 13:19 20.12.2019
6115 Clear 18 1018 59 10000 2.4 252 12:57 20.12.2019
6116 Clear 19 1018 59 10000 2.4 252 12:37 20.12.2019
6117 Clear 19 1018 59 10000 2.4 252 12:18 20.12.2019
6118 Clear 20 1017 67 10000 2.6 160 11:57 20.12.2019
6119 Clear 21 1017 67 10000 2.6 160 11:39 20.12.2019
6120 Clear 15 1017 67 10000 2.6 160 11:18 20.12.2019
6121 Clear 16 1016 67 10000 4.1 180 10:56 20.12.2019
6122 Clear 15 1016 67 10000 4.1 180 10:38 20.12.2019
6123 Clear 15 1016 67 10000 4.1 180 10:19 20.12.2019
6124 Clear 15 1015 67 10000 0.5 0 09:43 20.12.2019
6125 Clear 15 1015 67 10000 0.5 0 09:21 20.12.2019
6126 Clear 15 1015 67 10000 1 0 08:58 20.12.2019
6127 Clear 15 1015 67 10000 1 0 08:40 20.12.2019
6128 Clear 15 1015 67 10000 1 0 08:21 20.12.2019
6129 Clear 16 1016 63 10000 2.1 200 07:57 20.12.2019
6130 Clear 16 1016 63 10000 2.1 200 07:38 20.12.2019
6131 Clear 16 1016 63 10000 2.1 200 07:18 20.12.2019
6132 Clear 17 1016 59 10000 3.1 130 06:48 20.12.2019
6133 Clear 18 1016 59 10000 3.1 130 06:29 20.12.2019
6134 Clear 18 1016 59 10000 3.6 150 05:49 20.12.2019
6135 Clear 18 1016 59 10000 3.6 150 05:20 20.12.2019
6136 Clouds 20 1016 45 10000 4.1 200 03:50 20.12.2019
6137 Clouds 20 1016 45 10000 4.1 200 03:21 20.12.2019
6138 Clouds 20 1016 40 10000 5.7 190 02:30 20.12.2019
6139 Clouds 21 1017 40 10000 2.1 250 01:36 20.12.2019
6140 Clouds 23 1017 35 10000 2.1 230 00:58 20.12.2019
6141 Clouds 23 1017 35 10000 2.1 230 00:36 20.12.2019
6142 Clouds 23 1017 35 10000 1.5 270 23:58 19.12.2019
6143 Clouds 23 1017 35 10000 1.5 270 23:40 19.12.2019
6144 Clouds 23 1017 35 10000 1.5 270 23:21 19.12.2019
6145 Clouds 23 1017 35 10000 1.5 270 23:21 19.12.2019
6146 Clouds 24 1017 38 10000 4.1 230 22:40 19.12.2019
6147 Clouds 24 1017 38 10000 4.1 230 22:22 19.12.2019
6148 Clouds 25 1016 33 10000 5.1 240 21:59 19.12.2019
6149 Clouds 25 1016 33 10000 5.1 240 21:59 19.12.2019
6150 Clouds 25 1016 33 10000 5.1 240 21:41 19.12.2019
6151 Clouds 25 1016 33 10000 5.1 240 21:19 19.12.2019
6152 Clouds 26 1016 34 10000 3.6 220 20:58 19.12.2019
6153 Clouds 27 1016 34 10000 3.6 220 20:38 19.12.2019
6154 Clouds 27 1016 34 10000 3.6 220 20:20 19.12.2019
6155 Clouds 27 1016 28 10000 2.6 0 19:58 19.12.2019
6156 Clouds 27 1016 28 10000 2.6 0 19:40 19.12.2019
6157 Clouds 27 1016 28 10000 2.6 0 19:40 19.12.2019
6158 Clouds 28 1016 28 10000 2.6 0 19:20 19.12.2019
6159 Clouds 28 1016 28 10000 2.6 0 19:20 19.12.2019
6160 Clouds 28 1016 28 10000 2.6 0 19:20 19.12.2019
6161 Clouds 28 1016 28 10000 2.6 0 19:19 19.12.2019
6162 Clouds 28 1016 29 10000 1.5 0 18:58 19.12.2019
6163 Clouds 27 1016 29 10000 1.5 0 18:40 19.12.2019
6164 Clouds 27 1016 29 10000 1.5 0 18:20 19.12.2019
6165 Clouds 27 1016 36 10000 2.1 290 17:56 19.12.2019
6166 Clouds 27 1016 36 10000 2.1 290 17:38 19.12.2019
6167 Clouds 25 1016 36 10000 2.1 290 17:18 19.12.2019
6168 Clouds 25 1017 38 10000 1 60 16:56 19.12.2019
6169 Clouds 25 1017 38 10000 1 60 16:56 19.12.2019
6170 Clouds 25 1017 38 10000 1 60 16:38 19.12.2019
6171 Clouds 25 1017 38 10000 1 60 16:19 19.12.2019
6172 Clouds 24 1016 37 10000 2.1 240 15:58 19.12.2019
6173 Clouds 25 1016 37 10000 2.1 240 15:38 19.12.2019
6174 Clouds 24 1016 37 10000 2.1 240 15:19 19.12.2019
6175 Clouds 23 1016 37 10000 3.19 257 14:57 19.12.2019
6176 Clouds 23 1016 37 10000 3.19 257 14:38 19.12.2019
6177 Clouds 22 1016 37 10000 1.39 303 14:18 19.12.2019
6178 Clouds 21 1015 42 10000 1.5 260 13:39 19.12.2019
6179 Clouds 21 1015 42 10000 1.5 260 13:20 19.12.2019
6180 Clouds 19 1015 48 10000 1.74 279 12:58 19.12.2019
6181 Clouds 19 1015 48 10000 1.74 279 12:40 19.12.2019
6182 Clouds 21 1015 48 10000 1.74 279 12:19 19.12.2019
6183 Clouds 21 1013 42 10000 3.1 170 11:59 19.12.2019
6184 Clouds 21 1013 42 10000 3.1 170 11:41 19.12.2019
6185 Clouds 18 1013 42 10000 3.1 170 11:18 19.12.2019
6186 Clouds 19 1013 42 10000 3.6 160 10:59 19.12.2019
6187 Clouds 19 1013 42 10000 3.6 160 10:38 19.12.2019
6188 Clouds 19 1013 42 10000 3.6 160 10:38 19.12.2019
6189 Clouds 18 1013 42 10000 3.6 160 10:20 19.12.2019
6190 Clouds 19 1012 39 10000 3.1 150 09:56 19.12.2019
6191 Clouds 19 1012 39 10000 3.1 150 09:37 19.12.2019
6192 Clouds 19 1012 39 10000 3.1 150 09:37 19.12.2019
6193 Clouds 19 1012 39 10000 3.1 150 09:19 19.12.2019
6194 Clouds 19 1012 42 10000 1.12 262 08:55 19.12.2019
6195 Clouds 19 1012 42 10000 1.12 262 08:55 19.12.2019
6196 Clouds 19 1012 42 10000 1.12 262 08:37 19.12.2019
6197 Clouds 19 1012 42 10000 0.78 246 08:18 19.12.2019
6198 Clouds 20 1013 40 10000 2.6 160 07:41 19.12.2019
6199 Clouds 20 1013 40 10000 2.6 160 07:41 19.12.2019
6200 Clouds 20 1013 40 10000 2.6 160 07:23 19.12.2019
6201 Clouds 21 1013 37 10000 3.6 140 06:58 19.12.2019
6202 Clouds 21 1013 37 10000 3.6 140 06:39 19.12.2019
6203 Clouds 21 1013 37 10000 3.6 140 06:21 19.12.2019
6204 Clouds 22 1013 35 10000 3.1 130 05:42 19.12.2019
6205 Clouds 22 1013 35 10000 3.1 130 05:19 19.12.2019
6206 Clouds 25 1013 27 10000 5.7 170 03:53 19.12.2019
6207 Clouds 26 1012 29 10000 7.7 190 02:28 19.12.2019
6208 Clouds 26 1014 29 10000 2.6 210 01:25 19.12.2019
6209 Clouds 27 1013 25 10000 3.6 220 00:58 19.12.2019
6210 Clouds 28 1013 25 10000 3.6 220 00:39 19.12.2019
6211 Clouds 28 1013 25 10000 3.6 220 00:19 19.12.2019
6212 Clouds 29 1012 25 10000 4.1 230 23:44 18.12.2019
6213 Clouds 30 1012 25 10000 4.1 230 23:19 18.12.2019
6214 Clouds 31 1012 21 10000 3.1 240 22:57 18.12.2019
6215 Clouds 31 1012 21 10000 3.1 240 22:39 18.12.2019
6216 Clouds 31 1012 21 10000 3.1 240 22:39 18.12.2019
6217 Clouds 31 1012 21 10000 3.1 240 22:21 18.12.2019
6218 Clouds 31 1012 15 10000 3.6 220 21:59 18.12.2019
6219 Clouds 32 1012 15 10000 3.6 220 21:40 18.12.2019
6220 Clouds 31 1012 15 10000 3.6 220 21:20 18.12.2019
6221 Clouds 31 1013 17 10000 4.1 240 20:57 18.12.2019
6222 Clouds 31 1013 17 10000 4.1 240 20:38 18.12.2019
6223 Clouds 31 1013 17 10000 4.1 240 20:20 18.12.2019
6224 Clouds 31 1013 20 10000 3.6 230 19:57 18.12.2019
6225 Clouds 31 1013 20 10000 3.6 230 19:39 18.12.2019
6226 Clouds 31 1013 20 10000 3.6 230 19:19 18.12.2019
6227 Clouds 31 1013 16 10000 3.1 270 18:55 18.12.2019
6228 Clouds 31 1013 16 10000 3.1 270 18:37 18.12.2019
6229 Clouds 32 1013 16 10000 3.1 270 18:18 18.12.2019
6230 Clouds 31 1013 19 10000 2.6 240 17:55 18.12.2019
6231 Clouds 30 1013 19 10000 2.6 240 17:37 18.12.2019
6232 Clouds 30 1013 19 10000 2.6 240 17:18 18.12.2019
6233 Smoke 28 1014 21 10000 2.1 210 16:42 18.12.2019
6234 Smoke 28 1014 21 10000 2.1 210 16:23 18.12.2019
6235 Smoke 27 1014 25 10000 1 250 15:57 18.12.2019
6236 Smoke 27 1014 25 10000 1 250 15:39 18.12.2019
6237 Smoke 27 1014 25 10000 1 250 15:21 18.12.2019
6238 Smoke 25 1014 31 10000 1.5 210 14:56 18.12.2019
6239 Smoke 25 1014 31 10000 1.5 210 14:38 18.12.2019
6240 Smoke 25 1014 31 10000 1.5 210 14:19 18.12.2019
6241 Smoke 22 1013 37 10000 1 220 13:55 18.12.2019
6242 Smoke 23 1013 37 10000 1 220 13:36 18.12.2019
6243 Smoke 23 1013 37 10000 1 220 13:18 18.12.2019
6244 Smoke 20 1013 51 10000 1.85 265 12:40 18.12.2019
6245 Smoke 20 1013 51 10000 1.85 265 12:21 18.12.2019
6246 Clear 22 1012 51 10000 2.1 320 11:57 18.12.2019
6247 Clear 22 1012 51 10000 2.1 320 11:39 18.12.2019
6248 Clear 15 1012 51 10000 2.1 320 11:20 18.12.2019
6249 Clear 17 1012 48 10000 1 0 10:58 18.12.2019
6250 Clear 17 1012 48 10000 1 0 10:39 18.12.2019
6251 Clear 17 1012 48 10000 1 0 10:39 18.12.2019
6252 Clear 17 1012 48 10000 1 0 10:20 18.12.2019
6253 Clear 17 1011 45 8000 0.14 291 09:58 18.12.2019
6254 Clear 17 1011 45 8000 0.14 291 09:20 18.12.2019
6255 Clear 17 1011 48 10000 1 0 08:43 18.12.2019
6256 Clear 17 1011 48 10000 1 0 08:25 18.12.2019
6257 Clear 19 1011 39 10000 0.47 261 07:57 18.12.2019
6258 Clear 19 1011 39 10000 0.47 261 07:39 18.12.2019
6259 Clear 19 1011 39 10000 0.47 261 07:20 18.12.2019
6260 Clear 20 1011 40 10000 1 0 06:52 18.12.2019
6261 Clear 20 1011 40 10000 1 0 06:25 18.12.2019
6262 Clear 21 1011 37 10000 2.6 150 05:36 18.12.2019
6263 Clear 24 1011 31 10000 3.1 150 04:31 18.12.2019
6264 Clear 26 1010 24 10000 5.7 190 02:47 18.12.2019
6265 Clear 27 1010 24 10000 5.7 190 02:28 18.12.2019
6266 Clouds 27 1011 20 10000 2.1 230 01:45 18.12.2019
6267 Clouds 27 1011 20 10000 2.1 230 01:27 18.12.2019
6268 Clouds 29 1011 18 10000 3.6 240 00:55 18.12.2019
6269 Clouds 29 1011 18 10000 3.6 240 00:37 18.12.2019
6270 Clouds 29 1011 18 10000 3.6 240 00:19 18.12.2019
6271 Clouds 30 1011 18 10000 3.6 240 23:43 17.12.2019
6272 Clouds 30 1011 18 10000 3.6 240 23:43 17.12.2019
6273 Clouds 30 1011 18 10000 3.6 240 23:24 17.12.2019
6274 Clouds 30 1011 16 10000 4.1 240 22:57 17.12.2019
6275 Clouds 30 1011 16 10000 4.1 240 22:39 17.12.2019
6276 Clouds 31 1011 16 10000 4.1 240 22:20 17.12.2019
6277 Clouds 31 1011 14 10000 4.6 240 21:57 17.12.2019
6278 Clouds 31 1011 14 10000 4.6 240 21:39 17.12.2019
6279 Clouds 31 1011 14 10000 4.6 240 21:20 17.12.2019
6280 Clouds 31 1011 14 10000 3.1 190 20:59 17.12.2019
6281 Clouds 31 1011 14 10000 3.1 190 20:40 17.12.2019
6282 Clouds 31 1011 14 10000 3.1 190 20:19 17.12.2019
6283 Clouds 31 1012 18 10000 3.6 240 19:57 17.12.2019
6284 Clouds 31 1012 18 10000 3.6 240 19:39 17.12.2019
6285 Clouds 30 1012 18 10000 3.6 240 19:20 17.12.2019
6286 Clouds 31 1012 20 10000 4.1 210 18:57 17.12.2019
6287 Clouds 31 1012 20 10000 4.1 210 18:38 17.12.2019
6288 Clouds 31 1012 20 10000 4.1 210 18:20 17.12.2019
6289 Clouds 29 1012 24 10000 2.1 280 17:55 17.12.2019
6290 Clouds 29 1012 24 10000 2.1 280 17:37 17.12.2019
6291 Clouds 29 1012 24 10000 2.1 280 17:18 17.12.2019
6292 Clouds 28 1013 26 10000 2.1 220 16:55 17.12.2019
6293 Clouds 28 1013 26 10000 2.1 220 16:36 17.12.2019
6294 Clouds 27 1013 26 10000 2.1 220 16:18 17.12.2019
6295 Clouds 26 1013 29 10000 1.5 0 15:38 17.12.2019
6296 Clouds 26 1013 29 10000 1.5 0 15:20 17.12.2019
6297 Clouds 24 1013 37 10000 1.5 180 14:57 17.12.2019
6298 Clouds 24 1013 37 10000 1.5 180 14:38 17.12.2019
6299 Clouds 23 1013 37 10000 1.5 180 14:19 17.12.2019
6300 Clouds 21 1013 42 10000 0.5 220 13:59 17.12.2019
6301 Clouds 21 1013 42 10000 0.5 220 13:40 17.12.2019
6302 Clouds 21 1013 42 10000 0.5 220 13:19 17.12.2019
6303 Clouds 20 1013 52 10000 2.1 273 12:59 17.12.2019
6304 Clouds 21 1013 52 10000 2.1 273 12:38 17.12.2019
6305 Clouds 22 1013 52 10000 2.1 273 12:18 17.12.2019
6306 Clouds 21 1012 58 10000 2.1 273 11:57 17.12.2019
6307 Clouds 21 1012 58 10000 2.1 273 11:37 17.12.2019
6308 Clouds 14 1012 58 10000 0.8 3 11:18 17.12.2019
6309 Clouds 16 1012 51 10000 0.5 0 10:57 17.12.2019
6310 Clouds 16 1012 51 10000 0.5 0 10:38 17.12.2019
6311 Clouds 16 1012 51 10000 0.5 0 10:19 17.12.2019
6312 Clouds 16 1012 51 10000 0.5 0 10:19 17.12.2019
6313 Clouds 15 1011 58 10000 0.8 3 09:55 17.12.2019
6314 Clouds 15 1011 58 10000 0.8 3 09:37 17.12.2019
6315 Clouds 16 1011 58 10000 0.8 3 09:18 17.12.2019
6316 Clouds 17 1011 48 10000 0.8 3 08:40 17.12.2019
6317 Clear 17 1011 48 10000 0.42 284 08:22 17.12.2019
6318 Clear 18 1012 48 10000 2.1 140 07:59 17.12.2019
6319 Clear 18 1012 48 10000 2.1 140 07:41 17.12.2019
6320 Clear 18 1012 48 10000 2.1 140 07:22 17.12.2019
6321 Clear 19 1012 45 10000 3.1 140 06:50 17.12.2019
6322 Clear 19 1012 45 10000 3.1 140 06:32 17.12.2019
6323 Clear 20 1012 42 10000 3.1 160 05:42 17.12.2019
6324 Clear 22 1012 37 10000 4.1 140 04:58 17.12.2019
6325 Clear 23 1012 33 10000 3.1 150 03:55 17.12.2019
6326 Clear 25 1012 31 10000 4.6 190 02:26 17.12.2019
6327 Clear 25 1013 26 10000 2.6 230 01:22 17.12.2019
6328 Clear 27 1012 22 10000 4.1 230 00:47 17.12.2019
6329 Clear 26 1012 22 10000 4.1 230 00:22 17.12.2019
6330 Clear 28 1012 21 10000 3.6 260 23:57 16.12.2019
6331 Clear 28 1012 21 10000 3.6 260 23:38 16.12.2019
6332 Clouds 28 1012 21 10000 3.6 260 23:18 16.12.2019
6333 Clouds 29 1012 19 10000 3.1 210 22:54 16.12.2019
6334 Clouds 29 1012 19 10000 3.1 210 22:36 16.12.2019
6335 Clouds 29 1012 19 10000 3.1 210 22:18 16.12.2019
6336 Clouds 29 1012 19 10000 3.6 260 21:54 16.12.2019
6337 Clouds 29 1012 19 10000 3.6 260 21:36 16.12.2019
6338 Clouds 29 1012 19 10000 3.6 260 21:18 16.12.2019
6339 Clouds 29 1012 21 10000 3.1 210 20:54 16.12.2019
6340 Clouds 29 1012 21 10000 3.1 210 20:36 16.12.2019
6341 Clouds 29 1012 21 10000 3.1 210 20:18 16.12.2019
6342 Clouds 28 1013 24 10000 3.1 230 19:54 16.12.2019
6343 Clouds 28 1013 24 10000 3.1 230 19:36 16.12.2019
6344 Clouds 28 1013 24 10000 3.1 230 19:18 16.12.2019
6345 Clouds 28 1013 24 10000 3.1 230 19:18 16.12.2019
6346 Clear 28 1013 24 10000 2.6 250 18:42 16.12.2019
6347 Clear 28 1013 24 10000 2.6 250 18:42 16.12.2019
6348 Clear 27 1013 24 10000 2.6 250 18:20 16.12.2019
6349 Clear 27 1013 24 10000 2.6 250 18:20 16.12.2019
6350 Clear 26 1014 27 10000 3.6 240 17:59 16.12.2019
6351 Clear 26 1014 27 10000 3.6 240 17:41 16.12.2019
6352 Clear 26 1014 27 10000 3.6 240 17:22 16.12.2019
6353 Clear 25 1014 29 10000 1.5 280 16:58 16.12.2019
6354 Clear 25 1014 29 10000 1.5 280 16:39 16.12.2019
6355 Clear 25 1014 29 10000 1.5 280 16:39 16.12.2019
6356 Clear 25 1014 29 10000 1.5 280 16:20 16.12.2019
6357 Clear 24 1015 33 10000 2.1 240 15:59 16.12.2019
6358 Clear 24 1015 33 10000 2.1 240 15:39 16.12.2019
6359 Clear 23 1015 33 10000 2.1 240 15:21 16.12.2019
6360 Clear 22 1015 37 10000 3.54 254 14:57 16.12.2019
6361 Clear 22 1015 37 10000 3.54 254 14:38 16.12.2019
6362 Clouds 20 1015 37 10000 1.08 278 14:19 16.12.2019
6363 Clouds 19 1016 45 10000 1.08 278 13:57 16.12.2019
6364 Clouds 18 1016 45 10000 1.08 278 13:38 16.12.2019
6365 Clouds 18 1016 45 10000 1.08 278 13:20 16.12.2019
6366 Clouds 16 1016 51 10000 1.72 264 12:58 16.12.2019
6367 Clouds 20 1016 51 10000 1.71 265 12:39 16.12.2019
6368 Clouds 19 1016 51 10000 1.71 265 12:19 16.12.2019
6369 Clouds 20 1015 58 10000 1 0 11:59 16.12.2019
6370 Clouds 19 1015 58 10000 1 0 11:40 16.12.2019
6371 Clouds 13 1015 58 10000 1 0 11:20 16.12.2019
6372 Clouds 15 1015 54 10000 1.5 310 10:58 16.12.2019
6373 Clouds 15 1015 54 10000 1.5 310 10:39 16.12.2019
6374 Clouds 15 1015 54 10000 1.5 310 10:20 16.12.2019
6375 Clouds 17 1015 45 10000 2.1 120 09:45 16.12.2019
6376 Clouds 17 1015 45 10000 2.1 120 09:27 16.12.2019
6377 Clouds 15 1015 51 10000 0.31 330 08:57 16.12.2019
6378 Clouds 15 1015 51 10000 0.49 31 08:38 16.12.2019
6379 Clouds 15 1015 51 10000 1.16 230 08:18 16.12.2019
6380 Clouds 17 1015 48 10000 1.5 180 07:47 16.12.2019
6381 Clouds 17 1015 48 10000 1.5 180 07:28 16.12.2019
6382 Clouds 17 1016 48 10000 3.1 150 06:45 16.12.2019
6383 Clouds 17 1016 48 10000 3.1 150 06:26 16.12.2019
6384 Clouds 19 1016 42 10000 4.6 160 05:52 16.12.2019
6385 Clouds 19 1016 42 10000 4.6 160 05:33 16.12.2019
6386 Clouds 20 1016 37 10000 4.1 160 04:22 16.12.2019
6387 Clouds 22 1016 28 10000 6.2 190 02:31 16.12.2019
6388 Clouds 22 1017 28 10000 1.5 230 01:45 16.12.2019
6389 Clouds 22 1017 28 10000 1.5 230 01:45 16.12.2019
6390 Clouds 25 1017 29 10000 3.1 230 00:43 16.12.2019
6391 Clouds 25 1017 29 10000 3.1 230 00:25 16.12.2019
6392 Clouds 26 1016 26 10000 5.1 230 23:59 15.12.2019
6393 Clouds 26 1016 26 10000 5.1 230 23:59 15.12.2019
6394 Clouds 26 1016 26 10000 5.1 230 23:39 15.12.2019
6395 Clouds 26 1016 26 10000 5.1 230 23:20 15.12.2019
6396 Clouds 27 1015 24 10000 4.6 210 22:56 15.12.2019
6397 Clouds 27 1015 24 10000 4.6 210 22:56 15.12.2019
6398 Clouds 27 1015 24 10000 4.6 210 22:37 15.12.2019
6399 Clouds 28 1015 24 10000 4.6 210 22:18 15.12.2019
6400 Clouds 27 1016 24 10000 4.1 240 21:56 15.12.2019
6401 Clouds 28 1016 24 10000 4.1 240 21:37 15.12.2019
6402 Clouds 28 1016 24 10000 4.1 240 21:19 15.12.2019
6403 Clouds 28 1016 24 10000 4.6 240 20:56 15.12.2019
6404 Clouds 28 1016 24 10000 4.6 240 20:37 15.12.2019
6405 Clouds 28 1016 24 10000 4.6 240 20:19 15.12.2019
6406 Clouds 28 1016 26 10000 3.1 180 19:57 15.12.2019
6407 Clouds 28 1016 26 10000 3.1 180 19:57 15.12.2019
6408 Clouds 28 1016 26 10000 3.1 180 19:38 15.12.2019
6409 Clouds 27 1016 26 10000 3.1 180 19:18 15.12.2019
6410 Clouds 27 1016 26 10000 3.1 180 19:18 15.12.2019
6411 Clear 27 1017 31 10000 2.1 260 18:56 15.12.2019
6412 Clear 27 1017 31 10000 2.1 260 18:56 15.12.2019
6413 Clear 28 1017 31 10000 2.1 260 18:38 15.12.2019
6414 Clear 27 1017 31 10000 2.1 260 18:18 15.12.2019
6415 Clear 27 1017 31 10000 2.1 260 18:18 15.12.2019
6416 Clear 26 1017 31 10000 2.1 190 17:56 15.12.2019
6417 Clear 26 1017 31 10000 2.1 190 17:37 15.12.2019
6418 Clear 26 1017 31 10000 2.1 190 17:18 15.12.2019
6419 Clear 25 1018 33 10000 2.6 240 16:54 15.12.2019
6420 Clear 24 1018 33 10000 2.6 240 16:36 15.12.2019
6421 Clouds 24 1018 33 10000 2.6 240 16:18 15.12.2019
6422 Clear 23 1019 35 10000 3.3 259 15:54 15.12.2019
6423 Clear 23 1019 35 10000 3.3 259 15:36 15.12.2019
6424 Clear 23 1019 35 10000 3.3 259 15:18 15.12.2019
6425 Clouds 21 1019 39 10000 3.65 262 14:54 15.12.2019
6426 Clear 20 1019 39 10000 3.3 259 14:36 15.12.2019
6427 Clouds 20 1019 39 10000 2.38 258 14:18 15.12.2019
6428 Clouds 20 1019 39 10000 2.38 258 14:18 15.12.2019
6429 Clouds 17 1019 44 10000 2.38 258 13:54 15.12.2019
6430 Clouds 19 1019 44 10000 2.31 264 13:36 15.12.2019
6431 Clouds 17 1019 44 10000 2.31 264 13:18 15.12.2019
6432 Clouds 18 1019 58 10000 2.31 264 12:55 15.12.2019
6433 Clouds 18 1019 58 10000 2.31 264 12:36 15.12.2019
6434 Clouds 18 1019 58 10000 2.31 264 12:18 15.12.2019
6435 Clouds 19 1018 54 10000 1.5 210 11:38 15.12.2019
6436 Clouds 19 1018 54 10000 1.5 210 11:38 15.12.2019
6437 Clouds 19 1018 54 10000 1.5 210 11:38 15.12.2019
6438 Clouds 14 1018 54 10000 1.5 210 11:19 15.12.2019
6439 Clouds 14 1018 50 10000 3.1 150 10:56 15.12.2019
6440 Clouds 14 1018 50 10000 3.1 150 10:38 15.12.2019
6441 Clouds 14 1018 50 10000 3.1 150 10:38 15.12.2019
6442 Clouds 14 1018 50 10000 3.1 150 10:19 15.12.2019
6443 Clouds 14 1017 47 10000 3.1 160 09:57 15.12.2019
6444 Clouds 14 1017 47 10000 3.1 160 09:37 15.12.2019
6445 Clouds 14 1017 47 10000 3.1 160 09:19 15.12.2019
6446 Clouds 14 1017 44 10000 2.1 180 08:42 15.12.2019
6447 Clouds 14 1017 44 10000 2.1 180 08:23 15.12.2019
6448 Clear 15 1018 36 10000 2.1 160 07:59 15.12.2019
6449 Clear 16 1018 36 10000 2.1 160 07:38 15.12.2019
6450 Clear 15 1018 36 10000 2.1 160 07:19 15.12.2019
6451 Clear 16 1018 58 10000 4.1 150 06:24 15.12.2019
6452 Clear 17 1018 27 10000 3.6 130 05:42 15.12.2019
6453 Rain 17 1018 27 10000 3.6 130 05:20 15.12.2019
6454 Rain 18 1018 31 10000 3.6 140 04:20 15.12.2019
6455 Rain 20 1017 37 10000 5.1 210 02:50 15.12.2019
6456 Rain 21 1017 37 10000 5.1 210 02:31 15.12.2019
6457 Clouds 21 1019 33 10000 2.78 238 01:40 15.12.2019
6458 Clouds 21 1019 33 10000 2.32 235 01:18 15.12.2019
6459 Clouds 24 1019 28 10000 2.1 220 00:49 15.12.2019
6460 Clouds 24 1019 28 10000 2.1 220 00:31 15.12.2019
6461 Clouds 24 1018 31 10000 2.1 190 23:41 14.12.2019
6462 Clouds 24 1018 31 10000 2.1 190 23:22 14.12.2019
6463 Clouds 23 1018 33 10000 2.1 180 22:59 14.12.2019
6464 Clouds 23 1018 33 10000 2.1 180 22:41 14.12.2019
6465 Clouds 24 1018 33 10000 2.1 180 22:22 14.12.2019
6466 Clouds 23 1019 33 8000 3.6 240 21:58 14.12.2019
6467 Clouds 22 1019 33 8000 3.6 240 21:39 14.12.2019
6468 Clouds 23 1019 33 8000 3.6 240 21:19 14.12.2019
6469 Clouds 23 1019 35 7000 3.6 210 20:59 14.12.2019
6470 Clouds 23 1019 35 7000 3.6 210 20:41 14.12.2019
6471 Clouds 24 1019 35 7000 3.6 210 20:20 14.12.2019
6472 Clouds 24 1019 35 7000 2.1 210 19:57 14.12.2019
6473 Clouds 24 1019 35 7000 2.1 210 19:38 14.12.2019
6474 Clouds 24 1019 35 7000 2.1 210 19:20 14.12.2019
6475 Clouds 24 1019 37 7000 3.6 210 18:56 14.12.2019
6476 Clouds 23 1019 37 7000 3.6 210 18:38 14.12.2019
6477 Clouds 23 1019 37 7000 3.6 210 18:38 14.12.2019
6478 Clouds 24 1019 37 7000 3.6 210 18:19 14.12.2019
6479 Clouds 24 1018 27 8000 1.5 240 17:44 14.12.2019
6480 Clouds 24 1018 27 8000 1.5 240 17:24 14.12.2019
6481 Clouds 24 1017 35 8000 1.5 330 16:58 14.12.2019
6482 Clouds 24 1017 35 8000 1.5 330 16:40 14.12.2019
6483 Clouds 24 1017 35 8000 1.5 330 16:19 14.12.2019
6484 Clouds 24 1017 35 8000 1.5 330 16:19 14.12.2019
6485 Clouds 22 1017 34 8000 2.1 210 15:43 14.12.2019
6486 Clouds 22 1017 34 8000 2.1 210 15:24 14.12.2019
6487 Clouds 20 1017 32 8000 3.61 262 14:59 14.12.2019
6488 Clouds 21 1017 32 8000 3.61 262 14:39 14.12.2019
6489 Clouds 20 1017 32 8000 1.96 258 14:20 14.12.2019
6490 Clouds 19 1016 39 8000 0.5 240 13:57 14.12.2019
6491 Clouds 20 1016 39 8000 0.5 240 13:39 14.12.2019
6492 Clouds 19 1016 39 8000 0.5 240 13:19 14.12.2019
6493 Clouds 19 1016 39 8000 0.5 240 13:19 14.12.2019
6494 Clouds 18 1017 42 8000 2.17 257 12:55 14.12.2019
6495 Clouds 19 1017 42 8000 1.86 254 12:37 14.12.2019
6496 Clouds 19 1017 42 8000 2.17 257 12:18 14.12.2019
6497 Clouds 20 1015 54 10000 1.5 250 11:55 14.12.2019
6498 Clouds 20 1015 54 10000 1.5 250 11:37 14.12.2019
6499 Clouds 15 1015 54 10000 1.5 250 11:18 14.12.2019
6500 Clouds 17 1014 48 10000 1 0 10:55 14.12.2019
6501 Clouds 16 1014 48 10000 1 0 10:37 14.12.2019
6502 Clouds 16 1014 48 10000 1 0 10:18 14.12.2019
6503 Clouds 15 1014 51 10000 1 0 09:40 14.12.2019
6504 Clouds 15 1014 51 10000 1 0 09:21 14.12.2019
6505 Clouds 16 1014 48 10000 2.1 270 08:45 14.12.2019
6506 Clouds 16 1014 48 10000 2.1 270 08:20 14.12.2019
6507 Clouds 17 1015 45 10000 1.5 170 07:57 14.12.2019
6508 Clouds 17 1015 45 10000 1.5 170 07:38 14.12.2019
6509 Clouds 17 1015 45 10000 1.5 170 07:19 14.12.2019
6510 Clouds 17 1015 42 10000 2.6 170 06:41 14.12.2019
6511 Clouds 17 1015 42 10000 2.6 170 06:22 14.12.2019
6512 Clouds 18 1015 39 10000 4.1 150 05:22 14.12.2019
6513 Clouds 22 1015 18 10000 5.7 140 02:49 14.12.2019
6514 Clouds 22 1015 18 10000 5.7 140 02:22 14.12.2019
6515 Clouds 23 1017 20 10000 2.1 240 01:43 14.12.2019
6516 Clear 24 1016 16 9000 3.6 230 00:54 14.12.2019
6517 Clear 24 1016 16 9000 3.6 230 00:54 14.12.2019
6518 Clear 25 1016 16 9000 3.6 230 00:36 14.12.2019
6519 Clear 25 1016 16 9000 3.6 230 00:18 14.12.2019
6520 Clear 26 1016 22 8000 4.1 220 23:39 13.12.2019
6521 Clear 27 1016 16 8000 4.1 220 23:19 13.12.2019
6522 Clear 28 1015 12 10000 5.7 260 22:55 13.12.2019
6523 Clear 28 1015 12 10000 5.7 260 22:36 13.12.2019
6524 Clear 29 1015 12 10000 5.7 260 22:18 13.12.2019
6525 Clear 29 1015 13 10000 4.6 240 21:40 13.12.2019
6526 Clear 29 1015 13 10000 4.6 240 21:21 13.12.2019
6527 Clear 31 1015 16 10000 4.6 240 20:57 13.12.2019
6528 Clear 30 1011 19 0 4.92 245 20:38 13.12.2019
6529 Clouds 30 1015 12 10000 3.6 240 20:19 13.12.2019
6530 Clouds 30 1015 12 10000 3.6 240 19:56 13.12.2019
6531 Clouds 30 1015 12 10000 3.6 240 19:56 13.12.2019
6532 Clouds 30 1015 12 10000 3.6 240 19:37 13.12.2019
6533 Clouds 30 1015 12 10000 3.6 240 19:18 13.12.2019
6534 Clouds 31 1015 11 7000 3.1 260 18:42 13.12.2019
6535 Clouds 31 1015 11 7000 3.1 260 18:20 13.12.2019
6536 Clouds 31 1015 11 7000 3.1 260 18:20 13.12.2019
6537 Clouds 30 1016 11 7000 2.1 270 17:59 13.12.2019
6538 Clouds 29 1016 11 7000 2.1 270 17:39 13.12.2019
6539 Clouds 28 1016 21 7000 1 210 17:18 13.12.2019
6540 Clouds 28 1016 21 7000 1 210 16:56 13.12.2019
6541 Clouds 28 1016 21 7000 1 210 16:38 13.12.2019
6542 Clouds 27 1016 21 7000 1 210 16:19 13.12.2019
6543 Clouds 27 1016 24 8000 1.5 190 15:42 13.12.2019
6544 Clouds 26 1016 24 8000 1.5 190 15:21 13.12.2019
6545 Clouds 25 1016 22 8000 3.1 240 14:57 13.12.2019
6546 Clouds 25 1016 22 8000 3.1 240 14:37 13.12.2019
6547 Clouds 24 1016 22 8000 3.1 240 14:18 13.12.2019
6548 Clouds 23 1015 19 7000 2.1 120 13:43 13.12.2019
6549 Clouds 21 1015 19 7000 2.1 120 13:24 13.12.2019
6550 Clouds 18 1022 44 7000 2.07 268 12:55 13.12.2019
6551 Clouds 21 1022 44 7000 2.07 268 12:37 13.12.2019
6552 Clouds 21 1022 44 7000 2.07 268 12:18 13.12.2019
6553 Clouds 21 1013 41 10000 1.5 50 11:43 13.12.2019
6554 Clouds 14 1013 41 10000 1.5 50 11:24 13.12.2019
6555 Clear 14 1013 44 10000 2.1 290 10:56 13.12.2019
6556 Clear 14 1013 44 10000 2.1 290 10:38 13.12.2019
6557 Clear 14 1013 44 10000 2.1 290 10:19 13.12.2019
6558 Clear 17 1013 33 10000 1.5 170 09:42 13.12.2019
6559 Clear 17 1013 33 10000 1.5 170 09:21 13.12.2019
6560 Clear 17 1013 33 10000 1.5 0 08:45 13.12.2019
6561 Clear 17 1013 33 10000 1.5 0 08:26 13.12.2019
6562 Clear 18 1013 31 10000 0.24 296 07:48 13.12.2019
6563 Clear 18 1013 31 10000 0.24 296 07:25 13.12.2019
6564 Clear 18 1014 23 0 0.24 296 06:57 13.12.2019
6565 Clear 21 1013 23 10000 3.1 0 06:31 13.12.2019
6566 Clear 21 1013 23 10000 3.1 0 05:51 13.12.2019
6567 Clear 21 1013 23 10000 3.1 0 05:31 13.12.2019
6568 Clouds 24 1013 19 10000 4.6 190 04:53 13.12.2019
6569 Clouds 25 1013 17 10000 6.7 160 03:50 13.12.2019
6570 Clouds 26 1011 16 10000 8.2 220 02:35 13.12.2019
6571 Clouds 27 1013 14 10000 3.1 240 01:51 13.12.2019
6572 Clouds 27 1013 14 10000 3.1 240 01:25 13.12.2019
6573 Clouds 30 1012 10 10000 3.6 250 00:46 13.12.2019
6574 Clouds 30 1012 10 10000 3.6 250 00:24 13.12.2019
6575 Clouds 31 1011 14 10000 3.1 210 23:42 12.12.2019
6576 Clouds 32 1011 14 10000 3.1 210 23:24 12.12.2019
6577 Clouds 33 1012 8 10000 3.1 250 22:56 12.12.2019
6578 Clouds 33 1012 8 10000 3.1 250 22:38 12.12.2019
6579 Clouds 33 1012 8 10000 3.1 250 22:38 12.12.2019
6580 Clouds 33 1012 8 10000 3.1 250 22:19 12.12.2019
6581 Clouds 32 1012 8 10000 2.6 240 21:55 12.12.2019
6582 Clouds 32 1012 8 10000 2.6 240 21:37 12.12.2019
6583 Clouds 32 1012 8 10000 2.6 240 21:19 12.12.2019
6584 Clouds 32 1013 14 10000 3.6 240 20:58 12.12.2019
6585 Clouds 32 1013 14 10000 3.6 240 20:39 12.12.2019
6586 Clear 34 1013 14 10000 3.6 240 20:21 12.12.2019
6587 Clear 33 1013 13 10000 3.1 220 19:55 12.12.2019
6588 Clear 33 1013 13 10000 3.1 220 19:37 12.12.2019
6589 Clear 32 1013 13 10000 3.1 220 19:18 12.12.2019
6590 Clear 31 1014 15 10000 2.1 180 18:55 12.12.2019
6591 Clear 31 1014 15 10000 2.1 180 18:37 12.12.2019
6592 Clear 31 1014 15 10000 2.1 180 18:18 12.12.2019
6593 Clear 30 1014 21 10000 2.1 280 17:55 12.12.2019
6594 Clear 29 1014 21 10000 2.1 280 17:37 12.12.2019
6595 Clear 29 1014 21 10000 2.1 280 17:19 12.12.2019
6596 Clear 28 1014 26 10000 1.5 240 16:54 12.12.2019
6597 Clear 28 1014 26 10000 1.5 240 16:36 12.12.2019
6598 Clear 28 1014 26 10000 1.5 240 16:18 12.12.2019
6599 Clear 26 1015 31 10000 2.1 280 15:42 12.12.2019
6600 Clear 26 1015 31 10000 2.1 280 15:19 12.12.2019
6601 Clear 26 1015 31 10000 2.1 280 15:19 12.12.2019
6602 Clear 24 1015 33 10000 1.5 190 14:57 12.12.2019
6603 Clear 24 1015 33 10000 1.5 190 14:37 12.12.2019
6604 Clouds 23 1015 33 10000 1.5 190 14:19 12.12.2019
6605 Clouds 22 1015 42 10000 1.86 262 13:55 12.12.2019
6606 Clouds 22 1015 42 10000 1.86 262 13:36 12.12.2019
6607 Clouds 21 1015 42 10000 1.97 263 13:18 12.12.2019
6608 Clouds 19 1015 62 10000 1.97 263 12:42 12.12.2019
6609 Clouds 19 1015 62 10000 1.97 263 12:23 12.12.2019
6610 Clouds 21 1014 54 10000 1.5 0 11:59 12.12.2019
6611 Clouds 21 1014 54 10000 1.5 0 11:40 12.12.2019
6612 Clouds 14 1014 54 10000 1.5 0 11:22 12.12.2019
6613 Clouds 16 1014 48 10000 0.57 353 10:59 12.12.2019
6614 Clouds 16 1014 48 10000 0.57 353 10:40 12.12.2019
6615 Clouds 16 1014 48 10000 0.57 353 10:22 12.12.2019
6616 Clouds 16 1014 48 10000 0.57 353 09:56 12.12.2019
6617 Clouds 16 1014 48 10000 0.57 353 09:38 12.12.2019
6618 Clouds 16 1014 48 10000 0.57 353 09:20 12.12.2019
6619 Clouds 17 1014 45 10000 0.57 353 08:48 12.12.2019
6620 Clouds 17 1014 45 10000 0.57 353 08:29 12.12.2019
6621 Clear 18 1015 39 10000 0.6 294 07:56 12.12.2019
6622 Clear 18 1015 39 10000 0.6 294 07:56 12.12.2019
6623 Clear 18 1015 39 10000 0.6 294 07:37 12.12.2019
6624 Clear 18 1015 39 10000 0.6 294 07:19 12.12.2019
6625 Clear 19 1015 37 10000 0.6 294 06:41 12.12.2019
6626 Clear 19 1015 37 10000 0.6 294 06:22 12.12.2019
6627 Clear 21 1016 32 10000 2.6 190 05:32 12.12.2019
6628 Clear 22 1016 37 10000 1.5 0 04:47 12.12.2019
6629 Clear 24 1016 31 10000 5.7 210 02:43 12.12.2019
6630 Clear 24 1016 31 10000 5.7 210 02:24 12.12.2019
6631 Clear 24 1017 33 10000 2.6 230 01:59 12.12.2019
6632 Clear 24 1017 33 10000 2.6 230 01:36 12.12.2019
6633 Clear 25 1017 29 10000 2.6 240 00:50 12.12.2019
6634 Clear 25 1017 29 10000 2.6 240 00:22 12.12.2019
6635 Clear 27 1017 30 10000 4.1 240 23:58 11.12.2019
6636 Clear 27 1017 30 10000 4.1 240 23:38 11.12.2019
6637 Clouds 27 1017 30 10000 4.1 240 23:18 11.12.2019
6638 Clouds 28 1016 30 10000 4.6 250 22:56 11.12.2019
6639 Clouds 28 1016 30 10000 4.6 250 22:38 11.12.2019
6640 Clouds 28 1016 30 10000 4.6 250 22:19 11.12.2019
6641 Clouds 29 1016 22 10000 4.1 240 21:54 11.12.2019
6642 Clouds 29 1016 22 10000 4.1 240 21:36 11.12.2019
6643 Clouds 29 1016 22 10000 4.1 240 21:18 11.12.2019
6644 Clouds 29 1016 26 10000 3.6 240 20:55 11.12.2019
6645 Clouds 29 1016 26 10000 3.6 240 20:36 11.12.2019
6646 Clouds 29 1016 26 10000 3.6 240 20:18 11.12.2019
6647 Clouds 29 1017 30 10000 3.1 240 19:42 11.12.2019
6648 Clouds 28 1017 30 10000 3.1 240 19:23 11.12.2019
6649 Clouds 28 1017 30 10000 3.1 240 19:23 11.12.2019
6650 Clouds 28 1017 34 10000 3.6 210 18:59 11.12.2019
6651 Clouds 28 1017 34 10000 3.6 210 18:40 11.12.2019
6652 Clouds 28 1017 34 10000 3.6 210 18:19 11.12.2019
6653 Clouds 27 1017 36 10000 1.5 190 17:56 11.12.2019
6654 Clouds 27 1017 36 10000 1.5 190 17:38 11.12.2019
6655 Clouds 26 1017 36 10000 1.5 190 17:18 11.12.2019
6656 Clouds 24 1017 43 10000 2.1 330 16:55 11.12.2019
6657 Clouds 24 1017 43 10000 2.1 330 16:37 11.12.2019
6658 Clouds 24 1017 43 10000 2.1 330 16:18 11.12.2019
6659 Clouds 23 1017 49 10000 2.1 290 15:56 11.12.2019
6660 Clouds 23 1017 49 10000 2.1 290 15:37 11.12.2019
6661 Clouds 22 1017 49 10000 2.1 290 15:18 11.12.2019
6662 Clouds 21 1017 55 10000 1.5 270 14:54 11.12.2019
6663 Clouds 21 1017 55 10000 1.5 270 14:36 11.12.2019
6664 Clouds 21 1017 55 10000 1.5 270 14:36 11.12.2019
6665 Clouds 20 1017 55 10000 1.5 270 14:18 11.12.2019
6666 Clouds 18 1017 67 10000 1 240 13:42 11.12.2019
6667 Clouds 18 1017 67 10000 1 240 13:42 11.12.2019
6668 Clouds 18 1017 67 10000 1 240 13:22 11.12.2019
6669 Clouds 17 1018 67 10000 1.83 259 12:58 11.12.2019
6670 Clouds 18 1018 67 10000 1.83 259 12:39 11.12.2019
6671 Clouds 17 1018 67 10000 1.83 259 12:21 11.12.2019
6672 Clouds 17 1016 81 10000 1.5 130 11:58 11.12.2019
6673 Clouds 17 1016 81 10000 1.5 130 11:39 11.12.2019
6674 Clouds 12 1016 81 10000 1.5 130 11:19 11.12.2019
6675 Clouds 13 1015 81 10000 3.6 180 10:59 11.12.2019
6676 Clouds 13 1015 81 10000 3.6 180 10:39 11.12.2019
6677 Clouds 13 1015 81 10000 3.6 180 10:20 11.12.2019
6678 Clouds 12 1015 87 10000 4.1 160 09:55 11.12.2019
6679 Clouds 12 1015 87 10000 4.1 160 09:37 11.12.2019
6680 Clouds 12 1015 87 10000 4.1 160 09:19 11.12.2019
6681 Clouds 13 1015 82 10000 4.1 160 08:55 11.12.2019
6682 Clouds 13 1015 82 10000 4.1 160 08:36 11.12.2019
6683 Clouds 13 1015 82 10000 4.1 160 08:18 11.12.2019
6684 Clouds 13 1015 76 10000 3.1 180 07:42 11.12.2019
6685 Clouds 13 1015 76 10000 3.1 180 07:22 11.12.2019
6686 Clouds 14 1015 76 10000 2.6 130 06:45 11.12.2019
6687 C